<?xml version='1.0' encoding='UTF-8'?><gpx version="1.1" creator="JPX - https://github.com/jenetics/jpx" xmlns="http://www.topografix.com/GPX/1/1"><trk><trkseg><trkpt lat="41.03232943562611" lon="14.319165227470577"><ele>32.0</ele><time>2026-03-22T09:14:47.585Z</time></trkpt><trkpt lat="41.03230516957068" lon="14.319287626977498"><ele>32.0</ele><time>2026-03-22T09:14:51.982Z</time></trkpt><trkpt lat="41.03234654496225" lon="14.319208285666818"><ele>32.0</ele><time>2026-03-22T09:18:45Z</time></trkpt><trkpt lat="41.03232243910333" lon="14.319309269354367"><ele>32.0</ele><time>2026-03-22T09:20:02Z</time></trkpt><trkpt lat="41.03240786740821" lon="14.319279125431436"><ele>32.0</ele><time>2026-03-22T09:22:00Z</time></trkpt><trkpt lat="41.03255074583079" lon="14.319193353858877"><ele>32.0</ele><time>2026-03-22T09:22:18.94Z</time></trkpt><trkpt lat="41.0324918338813" lon="14.319311101192675"><ele>32.0</ele><time>2026-03-22T09:22:34Z</time></trkpt><trkpt lat="41.03240840414605" lon="14.319093445090267"><ele>32.0</ele><time>2026-03-22T09:22:42.919Z</time></trkpt><trkpt lat="41.03249802789551" lon="14.319248752335575"><ele>32.0</ele><time>2026-03-22T09:22:48Z</time></trkpt><trkpt lat="41.03274485456455" lon="14.319391214229961"><ele>31.999999999999996</ele><time>2026-03-22T09:23:07.114Z</time></trkpt><trkpt lat="41.03263267806426" lon="14.31934003776854"><ele>32.0</ele><time>2026-03-22T09:23:08.114Z</time></trkpt><trkpt lat="41.03254576707315" lon="14.319253983147489"><ele>32.0</ele><time>2026-03-22T09:23:10Z</time></trkpt><trkpt lat="41.03249848824917" lon="14.319197754787698"><ele>32.0</ele><time>2026-03-22T09:23:22.001Z</time></trkpt><trkpt lat="41.032434474394535" lon="14.31917926944916"><ele>31.999999999999996</ele><time>2026-03-22T09:23:27Z</time></trkpt><trkpt lat="41.03236968829562" lon="14.319173873357192"><ele>32.0</ele><time>2026-03-22T09:23:32Z</time></trkpt><trkpt lat="41.0324518974984" lon="14.319176422583837"><ele>32.0</ele><time>2026-03-22T09:27:08.11Z</time></trkpt><trkpt lat="41.03250850045879" lon="14.31922139157603"><ele>32.0</ele><time>2026-03-22T09:27:14.11Z</time></trkpt><trkpt lat="41.032578385711055" lon="14.319120721225753"><ele>32.0</ele><time>2026-03-22T09:27:41Z</time></trkpt><trkpt lat="41.03246270825973" lon="14.319115834533418"><ele>32.0</ele><time>2026-03-22T09:27:59.046Z</time></trkpt><trkpt lat="41.032573995996025" lon="14.319125923789494"><ele>32.0</ele><time>2026-03-22T09:28:03.046Z</time></trkpt><trkpt lat="41.03256499708165" lon="14.319033623634049"><ele>32.0</ele><time>2026-03-22T09:28:10Z</time></trkpt><trkpt lat="41.03250310893657" lon="14.318991911198184"><ele>31.999999999999996</ele><time>2026-03-22T09:28:21Z</time></trkpt><trkpt lat="41.03243467664119" lon="14.31896937222226"><ele>32.0</ele><time>2026-03-22T09:29:08Z</time></trkpt><trkpt lat="41.03240195541023" lon="14.318887025672863"><ele>32.0</ele><time>2026-03-22T09:29:14Z</time></trkpt><trkpt lat="41.03233817326429" lon="14.318917509627525"><ele>31.999999999999996</ele><time>2026-03-22T09:29:54.999Z</time></trkpt><trkpt lat="41.03227938095849" lon="14.318974752004024"><ele>32.0</ele><time>2026-03-22T09:30:00.999Z</time></trkpt><trkpt lat="41.03236458437391" lon="14.318955775577962"><ele>32.0</ele><time>2026-03-22T09:30:07.999Z</time></trkpt><trkpt lat="41.03242844338418" lon="14.319016992542846"><ele>32.0</ele><time>2026-03-22T09:30:21Z</time></trkpt><trkpt lat="41.032431075816945" lon="14.319126976662249"><ele>31.999999999999996</ele><time>2026-03-22T09:30:28Z</time></trkpt><trkpt lat="41.03235325476306" lon="14.319144073910568"><ele>32.0</ele><time>2026-03-22T09:30:43Z</time></trkpt><trkpt lat="41.0323953905736" lon="14.319213825177105"><ele>32.0</ele><time>2026-03-22T09:30:44Z</time></trkpt><trkpt lat="41.03235803041328" lon="14.319130207907165"><ele>31.999999999999996</ele><time>2026-03-22T09:30:53Z</time></trkpt><trkpt lat="41.03230190565625" lon="14.319171068768856"><ele>32.0</ele><time>2026-03-22T09:33:51.999Z</time></trkpt><trkpt lat="41.03224233893221" lon="14.319199934741615"><ele>32.0</ele><time>2026-03-22T09:33:56.999Z</time></trkpt><trkpt lat="41.03207697038033" lon="14.31921655450683"><ele>31.999999999999996</ele><time>2026-03-22T09:33:58.999Z</time></trkpt><trkpt lat="41.03200381877319" lon="14.319228464135902"><ele>32.0</ele><time>2026-03-22T09:33:59.999Z</time></trkpt><trkpt lat="41.03190422909978" lon="14.319218351737959"><ele>32.0</ele><time>2026-03-22T09:34:01.999Z</time></trkpt><trkpt lat="41.03185614215511" lon="14.319160550263017"><ele>32.0</ele><time>2026-03-22T09:34:06.999Z</time></trkpt><trkpt lat="41.03179382598389" lon="14.319147016756588"><ele>31.999999999999996</ele><time>2026-03-22T09:34:08.999Z</time></trkpt><trkpt lat="41.03166434049231" lon="14.319093741608865"><ele>32.0</ele><time>2026-03-22T09:34:10.999Z</time></trkpt><trkpt lat="41.03157882058178" lon="14.319065537478046"><ele>32.0</ele><time>2026-03-22T09:34:11.999Z</time></trkpt><trkpt lat="41.0314961618481" lon="14.318990502000803"><ele>32.0</ele><time>2026-03-22T09:34:12.999Z</time></trkpt><trkpt lat="41.03140392431775" lon="14.318987553380817"><ele>32.0</ele><time>2026-03-22T09:34:13.999Z</time></trkpt><trkpt lat="41.03132741269997" lon="14.318985107482925"><ele>32.0</ele><time>2026-03-22T09:34:14.999Z</time></trkpt><trkpt lat="41.031253246981684" lon="14.319001057352494"><ele>32.0</ele><time>2026-03-22T09:34:15.999Z</time></trkpt><trkpt lat="41.03114874793192" lon="14.318980731841803"><ele>32.0</ele><time>2026-03-22T09:34:17.999Z</time></trkpt><trkpt lat="41.03105107550264" lon="14.318946882568047"><ele>32.0</ele><time>2026-03-22T09:34:19.999Z</time></trkpt><trkpt lat="41.030982187383906" lon="14.318914044972066"><ele>32.0</ele><time>2026-03-22T09:34:23Z</time></trkpt><trkpt lat="41.03091828238646" lon="14.318844271362027"><ele>32.0</ele><time>2026-03-22T09:34:25Z</time></trkpt><trkpt lat="41.0309294260728" lon="14.318648833113347"><ele>32.0</ele><time>2026-03-22T09:34:27Z</time></trkpt><trkpt lat="41.030916722684914" lon="14.318557143782657"><ele>31.8</ele><time>2026-03-22T09:34:28Z</time></trkpt><trkpt lat="41.030924599752424" lon="14.318370723848707"><ele>31.6</ele><time>2026-03-22T09:34:30Z</time></trkpt><trkpt lat="41.0309335580841" lon="14.318261963427108"><ele>31.400000000000002</ele><time>2026-03-22T09:34:31Z</time></trkpt><trkpt lat="41.030933690659886" lon="14.318145442762114"><ele>31.200000000000003</ele><time>2026-03-22T09:34:32Z</time></trkpt><trkpt lat="41.030935624508984" lon="14.318038497730155"><ele>31.0</ele><time>2026-03-22T09:34:33Z</time></trkpt><trkpt lat="41.03093796564661" lon="14.317929520925079"><ele>31.000000000000004</ele><time>2026-03-22T09:34:34Z</time></trkpt><trkpt lat="41.03094238106785" lon="14.317834270466154"><ele>31.0</ele><time>2026-03-22T09:34:35Z</time></trkpt><trkpt lat="41.03092366390568" lon="14.317736021156481"><ele>31.0</ele><time>2026-03-22T09:34:36Z</time></trkpt><trkpt lat="41.03092170488399" lon="14.317632828867461"><ele>31.0</ele><time>2026-03-22T09:34:37Z</time></trkpt><trkpt lat="41.03091985402904" lon="14.317535998279151"><ele>31.000000000000004</ele><time>2026-03-22T09:34:38Z</time></trkpt><trkpt lat="41.03091824565497" lon="14.317451853337264"><ele>31.0</ele><time>2026-03-22T09:34:39Z</time></trkpt><trkpt lat="41.03091550578657" lon="14.31730851128434"><ele>31.000000000000004</ele><time>2026-03-22T09:34:41Z</time></trkpt><trkpt lat="41.03096579896434" lon="14.317211489044777"><ele>31.0</ele><time>2026-03-22T09:34:43Z</time></trkpt><trkpt lat="41.030982827885786" lon="14.317117157971824"><ele>31.0</ele><time>2026-03-22T09:34:45Z</time></trkpt><trkpt lat="41.03091008406703" lon="14.317065335017782"><ele>31.0</ele><time>2026-03-22T09:34:47Z</time></trkpt><trkpt lat="41.030984866630625" lon="14.317032465326431"><ele>31.000000000000004</ele><time>2026-03-22T09:34:48Z</time></trkpt><trkpt lat="41.03101518449808" lon="14.316923232560468"><ele>31.0</ele><time>2026-03-22T09:34:51Z</time></trkpt><trkpt lat="41.030948323355574" lon="14.316855551888978"><ele>31.0</ele><time>2026-03-22T09:34:56Z</time></trkpt><trkpt lat="41.03094799827915" lon="14.316982454213534"><ele>31.0</ele><time>2026-03-22T09:34:57Z</time></trkpt><trkpt lat="41.03097986845239" lon="14.317060791092807"><ele>31.0</ele><time>2026-03-22T09:38:10.999Z</time></trkpt><trkpt lat="41.03098316996638" lon="14.317168711384685"><ele>31.0</ele><time>2026-03-22T09:38:16.999Z</time></trkpt><trkpt lat="41.030887866106546" lon="14.31696678495485"><ele>31.0</ele><time>2026-03-22T09:38:23.999Z</time></trkpt><trkpt lat="41.0308924561999" lon="14.316836713021985"><ele>31.0</ele><time>2026-03-22T09:38:24.999Z</time></trkpt><trkpt lat="41.03088951576842" lon="14.316678281514887"><ele>31.0</ele><time>2026-03-22T09:38:25.999Z</time></trkpt><trkpt lat="41.030882130866544" lon="14.316483378795576"><ele>31.0</ele><time>2026-03-22T09:38:26.999Z</time></trkpt><trkpt lat="41.03087788186989" lon="14.316282123982091"><ele>31.0</ele><time>2026-03-22T09:38:27.999Z</time></trkpt><trkpt lat="41.03087338052644" lon="14.316071230998093"><ele>31.333333333333336</ele><time>2026-03-22T09:38:28.999Z</time></trkpt><trkpt lat="41.03086732621357" lon="14.315861542351419"><ele>31.666666666666664</ele><time>2026-03-22T09:38:29.999Z</time></trkpt><trkpt lat="41.03085728985407" lon="14.315655678696649"><ele>32.0</ele><time>2026-03-22T09:38:30.999Z</time></trkpt><trkpt lat="41.03084751475046" lon="14.315443108592431"><ele>32.0</ele><time>2026-03-22T09:38:31.999Z</time></trkpt><trkpt lat="41.03085342759272" lon="14.315221139333186"><ele>32.0</ele><time>2026-03-22T09:38:33Z</time></trkpt><trkpt lat="41.030866397364676" lon="14.314996914765212"><ele>32.0</ele><time>2026-03-22T09:38:34Z</time></trkpt><trkpt lat="41.030873621222554" lon="14.31476359695781"><ele>31.666666666666664</ele><time>2026-03-22T09:38:35Z</time></trkpt><trkpt lat="41.030869121664985" lon="14.314536059729514"><ele>31.333333333333336</ele><time>2026-03-22T09:38:36Z</time></trkpt><trkpt lat="41.03086443022714" lon="14.31431480882921"><ele>31.0</ele><time>2026-03-22T09:38:37Z</time></trkpt><trkpt lat="41.03086401390831" lon="14.314093242586305"><ele>31.333333333333336</ele><time>2026-03-22T09:38:38Z</time></trkpt><trkpt lat="41.0308623228614" lon="14.313877408985194"><ele>31.666666666666664</ele><time>2026-03-22T09:38:39Z</time></trkpt><trkpt lat="41.03085806060381" lon="14.313666010631392"><ele>32.0</ele><time>2026-03-22T09:38:40Z</time></trkpt><trkpt lat="41.030856155615936" lon="14.313447049406387"><ele>32.0</ele><time>2026-03-22T09:38:41Z</time></trkpt><trkpt lat="41.03085802454012" lon="14.313246773482406"><ele>32.0</ele><time>2026-03-22T09:38:42Z</time></trkpt><trkpt lat="41.03086289120977" lon="14.313072333745254"><ele>32.0</ele><time>2026-03-22T09:38:43Z</time></trkpt><trkpt lat="41.030864821290024" lon="14.312913406252598"><ele>32.0</ele><time>2026-03-22T09:38:44Z</time></trkpt><trkpt lat="41.03086891973581" lon="14.312771338388742"><ele>31.833333333333332</ele><time>2026-03-22T09:38:45Z</time></trkpt><trkpt lat="41.030874484141656" lon="14.312646261842492"><ele>31.666666666666664</ele><time>2026-03-22T09:38:46Z</time></trkpt><trkpt lat="41.03087754653697" lon="14.312528780570823"><ele>31.5</ele><time>2026-03-22T09:38:47Z</time></trkpt><trkpt lat="41.03087839514724" lon="14.312435956057238"><ele>31.333333333333336</ele><time>2026-03-22T09:38:48Z</time></trkpt><trkpt lat="41.03090856107884" lon="14.312295944156487"><ele>31.166666666666668</ele><time>2026-03-22T09:38:50Z</time></trkpt><trkpt lat="41.03092079575561" lon="14.312196878751246"><ele>31.0</ele><time>2026-03-22T09:38:52Z</time></trkpt><trkpt lat="41.0309046154971" lon="14.312094348901471"><ele>30.5</ele><time>2026-03-22T09:38:53Z</time></trkpt><trkpt lat="41.030901175327834" lon="14.31196460287405"><ele>30.0</ele><time>2026-03-22T09:38:54Z</time></trkpt><trkpt lat="41.03090237206744" lon="14.311774382116697"><ele>29.5</ele><time>2026-03-22T09:38:55Z</time></trkpt><trkpt lat="41.03089987025146" lon="14.311582336776288"><ele>29.0</ele><time>2026-03-22T09:38:56Z</time></trkpt><trkpt lat="41.030897293413645" lon="14.311384532559249"><ele>29.0</ele><time>2026-03-22T09:38:57Z</time></trkpt><trkpt lat="41.03089456971135" lon="14.311175454727541"><ele>29.0</ele><time>2026-03-22T09:38:58Z</time></trkpt><trkpt lat="41.030891176327984" lon="14.310956681439826"><ele>29.0</ele><time>2026-03-22T09:38:59Z</time></trkpt><trkpt lat="41.03087277448275" lon="14.31077174891663"><ele>29.0</ele><time>2026-03-22T09:39:00Z</time></trkpt><trkpt lat="41.030873998177654" lon="14.310605488137272"><ele>29.0</ele><time>2026-03-22T09:39:01Z</time></trkpt><trkpt lat="41.030871708792866" lon="14.310440755007866"><ele>29.0</ele><time>2026-03-22T09:39:02Z</time></trkpt><trkpt lat="41.03087051965883" lon="14.310260832285854"><ele>29.0</ele><time>2026-03-22T09:39:03Z</time></trkpt><trkpt lat="41.030865908070275" lon="14.310084063207213"><ele>29.0</ele><time>2026-03-22T09:39:04Z</time></trkpt><trkpt lat="41.03086014835371" lon="14.309942260123666"><ele>29.0</ele><time>2026-03-22T09:39:05Z</time></trkpt><trkpt lat="41.030856258806644" lon="14.309813054121094"><ele>29.0</ele><time>2026-03-22T09:39:06Z</time></trkpt><trkpt lat="41.03085442129233" lon="14.30969065452993"><ele>29.0</ele><time>2026-03-22T09:39:07Z</time></trkpt><trkpt lat="41.030851278453675" lon="14.309573619963006"><ele>29.0</ele><time>2026-03-22T09:39:08Z</time></trkpt><trkpt lat="41.030847299543225" lon="14.309477291254032"><ele>28.999999999999996</ele><time>2026-03-22T09:39:09Z</time></trkpt><trkpt lat="41.03084565420605" lon="14.309326211011514"><ele>29.0</ele><time>2026-03-22T09:39:11Z</time></trkpt><trkpt lat="41.030855443403155" lon="14.309207285207712"><ele>29.0</ele><time>2026-03-22T09:39:13Z</time></trkpt><trkpt lat="41.03083909492816" lon="14.309108122898733"><ele>29.0</ele><time>2026-03-22T09:39:15Z</time></trkpt><trkpt lat="41.03083848664381" lon="14.308980683870072"><ele>28.999999999999996</ele><time>2026-03-22T09:39:17Z</time></trkpt><trkpt lat="41.03083474862371" lon="14.308895100214341"><ele>29.0</ele><time>2026-03-22T09:39:18Z</time></trkpt><trkpt lat="41.030837835089784" lon="14.30880898119344"><ele>29.0</ele><time>2026-03-22T09:39:19Z</time></trkpt><trkpt lat="41.03083225575067" lon="14.308635069685153"><ele>29.0</ele><time>2026-03-22T09:39:21Z</time></trkpt><trkpt lat="41.03082981654292" lon="14.308542325083092"><ele>29.0</ele><time>2026-03-22T09:39:22Z</time></trkpt><trkpt lat="41.03082642502048" lon="14.308451170187652"><ele>29.0</ele><time>2026-03-22T09:39:23Z</time></trkpt><trkpt lat="41.03082371667925" lon="14.308357748767474"><ele>29.0</ele><time>2026-03-22T09:39:24Z</time></trkpt><trkpt lat="41.03082471220384" lon="14.308201251341169"><ele>29.2</ele><time>2026-03-22T09:39:26Z</time></trkpt><trkpt lat="41.03082281025979" lon="14.308059715044653"><ele>29.4</ele><time>2026-03-22T09:39:28Z</time></trkpt><trkpt lat="41.030820875925656" lon="14.307897630510555"><ele>29.6</ele><time>2026-03-22T09:39:30Z</time></trkpt><trkpt lat="41.03082283998192" lon="14.307797307662621"><ele>29.8</ele><time>2026-03-22T09:39:31Z</time></trkpt><trkpt lat="41.030813254051935" lon="14.307681790077995"><ele>30.0</ele><time>2026-03-22T09:39:32Z</time></trkpt><trkpt lat="41.030808373432045" lon="14.307566825391266"><ele>29.833333333333332</ele><time>2026-03-22T09:39:33Z</time></trkpt><trkpt lat="41.03080676011278" lon="14.307461821610733"><ele>29.666666666666664</ele><time>2026-03-22T09:39:34Z</time></trkpt><trkpt lat="41.030805848367386" lon="14.307361796509815"><ele>29.5</ele><time>2026-03-22T09:39:35Z</time></trkpt><trkpt lat="41.03080387969655" lon="14.30725677872481"><ele>29.333333333333332</ele><time>2026-03-22T09:39:36Z</time></trkpt><trkpt lat="41.03080271147161" lon="14.30715418013913"><ele>29.166666666666664</ele><time>2026-03-22T09:39:37Z</time></trkpt><trkpt lat="41.0308007573889" lon="14.307062231628931"><ele>29.0</ele><time>2026-03-22T09:39:37.999Z</time></trkpt><trkpt lat="41.03081168861244" lon="14.306891797677816"><ele>28.999999999999996</ele><time>2026-03-22T09:39:39.999Z</time></trkpt><trkpt lat="41.030809327843" lon="14.306788293547772"><ele>29.0</ele><time>2026-03-22T09:39:40.999Z</time></trkpt><trkpt lat="41.030806314801644" lon="14.306684823705933"><ele>29.0</ele><time>2026-03-22T09:39:41.999Z</time></trkpt><trkpt lat="41.03078852686257" lon="14.306583101547046"><ele>29.0</ele><time>2026-03-22T09:39:42.999Z</time></trkpt><trkpt lat="41.030789804916374" lon="14.306471987941647"><ele>28.999999999999996</ele><time>2026-03-22T09:39:43.999Z</time></trkpt><trkpt lat="41.03078795891998" lon="14.306355455900766"><ele>29.0</ele><time>2026-03-22T09:39:44.999Z</time></trkpt><trkpt lat="41.03078443699949" lon="14.306239583715591"><ele>29.2</ele><time>2026-03-22T09:39:45.999Z</time></trkpt><trkpt lat="41.030780727558785" lon="14.306141924803947"><ele>29.4</ele><time>2026-03-22T09:39:46.999Z</time></trkpt><trkpt lat="41.030778218318446" lon="14.306038295919784"><ele>29.6</ele><time>2026-03-22T09:39:47.999Z</time></trkpt><trkpt lat="41.03078778395293" lon="14.305890244431934"><ele>29.8</ele><time>2026-03-22T09:39:48.999Z</time></trkpt><trkpt lat="41.03078567849029" lon="14.30572482476225"><ele>30.0</ele><time>2026-03-22T09:39:49.999Z</time></trkpt><trkpt lat="41.030772257167854" lon="14.30557791682873"><ele>30.166666666666668</ele><time>2026-03-22T09:39:50.999Z</time></trkpt><trkpt lat="41.030770760614594" lon="14.30545946210429"><ele>30.333333333333336</ele><time>2026-03-22T09:39:51.999Z</time></trkpt><trkpt lat="41.03076725765099" lon="14.305353708076666"><ele>30.5</ele><time>2026-03-22T09:39:52.999Z</time></trkpt><trkpt lat="41.03076504333886" lon="14.305259223455216"><ele>30.666666666666668</ele><time>2026-03-22T09:39:53.999Z</time></trkpt><trkpt lat="41.03076182122674" lon="14.30515429109529"><ele>30.833333333333336</ele><time>2026-03-22T09:39:54.999Z</time></trkpt><trkpt lat="41.03075957213894" lon="14.30504918853888"><ele>31.0</ele><time>2026-03-22T09:39:55.999Z</time></trkpt><trkpt lat="41.03075940879678" lon="14.304960423180706"><ele>31.000000000000004</ele><time>2026-03-22T09:39:56.999Z</time></trkpt><trkpt lat="41.03075967345085" lon="14.304874338949697"><ele>31.0</ele><time>2026-03-22T09:39:57.999Z</time></trkpt><trkpt lat="41.030758240673684" lon="14.304787088292434"><ele>31.0</ele><time>2026-03-22T09:39:58.999Z</time></trkpt><trkpt lat="41.03075801682319" lon="14.304639623825768"><ele>31.0</ele><time>2026-03-22T09:40:00.999Z</time></trkpt><trkpt lat="41.03076281712587" lon="14.304518068242524"><ele>31.000000000000004</ele><time>2026-03-22T09:40:02.999Z</time></trkpt><trkpt lat="41.03077354611521" lon="14.30439417043337"><ele>31.0</ele><time>2026-03-22T09:40:04.999Z</time></trkpt><trkpt lat="41.03073412455263" lon="14.304302247574128"><ele>30.833333333333336</ele><time>2026-03-22T09:40:06.999Z</time></trkpt><trkpt lat="41.030632264500696" lon="14.304226004304395"><ele>30.666666666666668</ele><time>2026-03-22T09:40:08.999Z</time></trkpt><trkpt lat="41.030565479151534" lon="14.304185636962401"><ele>30.5</ele><time>2026-03-22T09:40:09.999Z</time></trkpt><trkpt lat="41.030494119445244" lon="14.304138557468422"><ele>30.333333333333336</ele><time>2026-03-22T09:40:10.999Z</time></trkpt><trkpt lat="41.030418502326796" lon="14.3040949195839"><ele>30.166666666666668</ele><time>2026-03-22T09:40:11.999Z</time></trkpt><trkpt lat="41.030334975971996" lon="14.304059395867803"><ele>30.0</ele><time>2026-03-22T09:40:12.999Z</time></trkpt><trkpt lat="41.030247463458785" lon="14.304029269429357"><ele>30.0</ele><time>2026-03-22T09:40:13.999Z</time></trkpt><trkpt lat="41.0301505065487" lon="14.303998489684616"><ele>30.0</ele><time>2026-03-22T09:40:14.999Z</time></trkpt><trkpt lat="41.03002245961066" lon="14.303952598487612"><ele>30.0</ele><time>2026-03-22T09:40:15.999Z</time></trkpt><trkpt lat="41.02988027757683" lon="14.303938024367865"><ele>30.0</ele><time>2026-03-22T09:40:16.999Z</time></trkpt><trkpt lat="41.02974746193278" lon="14.30393230562466"><ele>30.2</ele><time>2026-03-22T09:40:17.999Z</time></trkpt><trkpt lat="41.02961711767794" lon="14.303951946951678"><ele>30.4</ele><time>2026-03-22T09:40:18.999Z</time></trkpt><trkpt lat="41.02950570580242" lon="14.303945420318053"><ele>30.6</ele><time>2026-03-22T09:40:19.999Z</time></trkpt><trkpt lat="41.029409316975055" lon="14.303939336865124"><ele>30.8</ele><time>2026-03-22T09:40:20.999Z</time></trkpt><trkpt lat="41.02931019647708" lon="14.303939017449466"><ele>31.0</ele><time>2026-03-22T09:40:21.999Z</time></trkpt><trkpt lat="41.02920994150362" lon="14.303939965893647"><ele>30.833333333333336</ele><time>2026-03-22T09:40:22.999Z</time></trkpt><trkpt lat="41.02910740898673" lon="14.303939552733244"><ele>30.666666666666668</ele><time>2026-03-22T09:40:23.999Z</time></trkpt><trkpt lat="41.02901911919081" lon="14.303940615007402"><ele>30.5</ele><time>2026-03-22T09:40:24.999Z</time></trkpt><trkpt lat="41.02894277941345" lon="14.303940281530094"><ele>30.333333333333336</ele><time>2026-03-22T09:40:25.999Z</time></trkpt><trkpt lat="41.02886849556903" lon="14.303940712833835"><ele>30.166666666666668</ele><time>2026-03-22T09:40:26.999Z</time></trkpt><trkpt lat="41.02879512855474" lon="14.303944981008364"><ele>30.0</ele><time>2026-03-22T09:40:27.999Z</time></trkpt><trkpt lat="41.028680336956924" lon="14.303946750425593"><ele>30.0</ele><time>2026-03-22T09:40:29.999Z</time></trkpt><trkpt lat="41.028561366863954" lon="14.303941729479321"><ele>30.0</ele><time>2026-03-22T09:40:31.999Z</time></trkpt><trkpt lat="41.02847531121017" lon="14.303944111678886"><ele>30.0</ele><time>2026-03-22T09:40:33.999Z</time></trkpt><trkpt lat="41.02841044779686" lon="14.303941895047897"><ele>30.0</ele><time>2026-03-22T09:40:36.999Z</time></trkpt><trkpt lat="41.02833691954575" lon="14.303941890519326"><ele>30.0</ele><time>2026-03-22T09:40:39Z</time></trkpt><trkpt lat="41.02823463965011" lon="14.303948493824539"><ele>30.0</ele><time>2026-03-22T09:40:41Z</time></trkpt><trkpt lat="41.02816850070877" lon="14.303951606342455"><ele>30.0</ele><time>2026-03-22T09:40:42Z</time></trkpt><trkpt lat="41.028086112075776" lon="14.303958696089772"><ele>30.0</ele><time>2026-03-22T09:40:43Z</time></trkpt><trkpt lat="41.02802148302536" lon="14.303963035406474"><ele>30.0</ele><time>2026-03-22T09:40:44Z</time></trkpt><trkpt lat="41.027895231942" lon="14.303956629650076"><ele>30.0</ele><time>2026-03-22T09:40:46Z</time></trkpt><trkpt lat="41.02779803754548" lon="14.303961641330432"><ele>30.0</ele><time>2026-03-22T09:40:47Z</time></trkpt><trkpt lat="41.027677568800115" lon="14.303959962961848"><ele>30.0</ele><time>2026-03-22T09:40:48Z</time></trkpt><trkpt lat="41.02756547149747" lon="14.303950581435807"><ele>30.0</ele><time>2026-03-22T09:40:49Z</time></trkpt><trkpt lat="41.027469291739955" lon="14.303945113157708"><ele>30.0</ele><time>2026-03-22T09:40:50Z</time></trkpt><trkpt lat="41.02738503944973" lon="14.303941076861069"><ele>30.0</ele><time>2026-03-22T09:40:51Z</time></trkpt><trkpt lat="41.027308809394796" lon="14.303936235169315"><ele>30.0</ele><time>2026-03-22T09:40:52Z</time></trkpt><trkpt lat="41.027225842462066" lon="14.303932055971538"><ele>30.0</ele><time>2026-03-22T09:40:53Z</time></trkpt><trkpt lat="41.027144127735816" lon="14.30392853248827"><ele>30.0</ele><time>2026-03-22T09:40:54Z</time></trkpt><trkpt lat="41.02706443835199" lon="14.30391512583537"><ele>30.0</ele><time>2026-03-22T09:40:55Z</time></trkpt><trkpt lat="41.02698578838416" lon="14.30388314600037"><ele>30.0</ele><time>2026-03-22T09:40:56Z</time></trkpt><trkpt lat="41.02690973797363" lon="14.303826701037105"><ele>30.0</ele><time>2026-03-22T09:40:57Z</time></trkpt><trkpt lat="41.026839122576156" lon="14.303753463099289"><ele>30.0</ele><time>2026-03-22T09:40:58Z</time></trkpt><trkpt lat="41.02678034271343" lon="14.303657444586436"><ele>29.8</ele><time>2026-03-22T09:40:59Z</time></trkpt><trkpt lat="41.02673926952771" lon="14.303545617648727"><ele>29.6</ele><time>2026-03-22T09:41:00Z</time></trkpt><trkpt lat="41.026715092778325" lon="14.303434714317024"><ele>29.4</ele><time>2026-03-22T09:41:01Z</time></trkpt><trkpt lat="41.026703923843684" lon="14.303328628005964"><ele>29.2</ele><time>2026-03-22T09:41:02Z</time></trkpt><trkpt lat="41.0266961880017" lon="14.303173716213728"><ele>29.0</ele><time>2026-03-22T09:41:03Z</time></trkpt><trkpt lat="41.02668338799945" lon="14.302959644361515"><ele>28.666666666666664</ele><time>2026-03-22T09:41:04Z</time></trkpt><trkpt lat="41.026681847309234" lon="14.302727773699932"><ele>28.333333333333336</ele><time>2026-03-22T09:41:05Z</time></trkpt><trkpt lat="41.02669462783414" lon="14.302523557889685"><ele>28.0</ele><time>2026-03-22T09:41:06Z</time></trkpt><trkpt lat="41.02667804457584" lon="14.302338086561143"><ele>28.4</ele><time>2026-03-22T09:41:07Z</time></trkpt><trkpt lat="41.02667866219346" lon="14.302177220702283"><ele>28.799999999999997</ele><time>2026-03-22T09:41:08Z</time></trkpt><trkpt lat="41.026677818213074" lon="14.302035449638446"><ele>29.2</ele><time>2026-03-22T09:41:09Z</time></trkpt><trkpt lat="41.02667409810665" lon="14.301926251498498"><ele>29.6</ele><time>2026-03-22T09:41:10Z</time></trkpt><trkpt lat="41.02667274490214" lon="14.30182821844702"><ele>30.0</ele><time>2026-03-22T09:41:12Z</time></trkpt><trkpt lat="41.02666650650289" lon="14.30170080937544"><ele>30.0</ele><time>2026-03-22T09:41:14Z</time></trkpt><trkpt lat="41.02667659044396" lon="14.301574397526535"><ele>30.0</ele><time>2026-03-22T09:41:15Z</time></trkpt><trkpt lat="41.02666189425019" lon="14.301399737595027"><ele>30.0</ele><time>2026-03-22T09:41:16Z</time></trkpt><trkpt lat="41.026670985436844" lon="14.301191006927175"><ele>30.0</ele><time>2026-03-22T09:41:17Z</time></trkpt><trkpt lat="41.02667364258068" lon="14.300975283716872"><ele>29.75</ele><time>2026-03-22T09:41:18Z</time></trkpt><trkpt lat="41.02666684419134" lon="14.30077207764546"><ele>29.5</ele><time>2026-03-22T09:41:19Z</time></trkpt><trkpt lat="41.0266658113767" lon="14.300593137322718"><ele>29.25</ele><time>2026-03-22T09:41:20Z</time></trkpt><trkpt lat="41.02666699472342" lon="14.300432006391656"><ele>29.0</ele><time>2026-03-22T09:41:21Z</time></trkpt><trkpt lat="41.02666741370171" lon="14.300291064801721"><ele>28.799999999999997</ele><time>2026-03-22T09:41:22Z</time></trkpt><trkpt lat="41.02666413910714" lon="14.300164077070823"><ele>28.599999999999998</ele><time>2026-03-22T09:41:23Z</time></trkpt><trkpt lat="41.02666638252467" lon="14.300055936909109"><ele>28.4</ele><time>2026-03-22T09:41:24Z</time></trkpt><trkpt lat="41.02667481396741" lon="14.29996604726627"><ele>28.2</ele><time>2026-03-22T09:41:25Z</time></trkpt><trkpt lat="41.026676941031596" lon="14.299833511689247"><ele>28.0</ele><time>2026-03-22T09:41:27Z</time></trkpt><trkpt lat="41.02667366651956" lon="14.299691992157909"><ele>28.0</ele><time>2026-03-22T09:41:29Z</time></trkpt><trkpt lat="41.02665446292158" lon="14.299592225359458"><ele>28.0</ele><time>2026-03-22T09:41:30Z</time></trkpt><trkpt lat="41.02664686100593" lon="14.299471277829923"><ele>28.0</ele><time>2026-03-22T09:41:31Z</time></trkpt><trkpt lat="41.026642686671124" lon="14.299352567577454"><ele>28.0</ele><time>2026-03-22T09:41:32Z</time></trkpt><trkpt lat="41.02662780617879" lon="14.298997078026186"><ele>27.666666666666668</ele><time>2026-03-22T09:41:33Z</time></trkpt><trkpt lat="41.026625148408606" lon="14.29875125326796"><ele>27.333333333333336</ele><time>2026-03-22T09:41:34Z</time></trkpt><trkpt lat="41.02662390195858" lon="14.29852601164442"><ele>27.0</ele><time>2026-03-22T09:41:35Z</time></trkpt><trkpt lat="41.026620620610366" lon="14.298323069227981"><ele>27.0</ele><time>2026-03-22T09:41:36Z</time></trkpt><trkpt lat="41.026619471469026" lon="14.298147463183692"><ele>27.0</ele><time>2026-03-22T09:41:37Z</time></trkpt><trkpt lat="41.02661636498165" lon="14.29797428487437"><ele>27.0</ele><time>2026-03-22T09:41:38Z</time></trkpt><trkpt lat="41.02661162666759" lon="14.2978009513199"><ele>27.0</ele><time>2026-03-22T09:41:39Z</time></trkpt><trkpt lat="41.02661191777281" lon="14.297618431711687"><ele>27.333333333333336</ele><time>2026-03-22T09:41:40Z</time></trkpt><trkpt lat="41.026612887526426" lon="14.297424927185109"><ele>27.666666666666668</ele><time>2026-03-22T09:41:41Z</time></trkpt><trkpt lat="41.02661227461413" lon="14.297220986522463"><ele>28.0</ele><time>2026-03-22T09:41:42Z</time></trkpt><trkpt lat="41.02660540174701" lon="14.296999737376783"><ele>27.5</ele><time>2026-03-22T09:41:43Z</time></trkpt><trkpt lat="41.026598678038546" lon="14.296777539918395"><ele>27.0</ele><time>2026-03-22T09:41:44Z</time></trkpt><trkpt lat="41.02660253457205" lon="14.296577078911591"><ele>26.5</ele><time>2026-03-22T09:41:44.999Z</time></trkpt><trkpt lat="41.026597668967085" lon="14.29640618958852"><ele>26.0</ele><time>2026-03-22T09:41:45.999Z</time></trkpt><trkpt lat="41.02659439001481" lon="14.296254800792061"><ele>25.999999999999996</ele><time>2026-03-22T09:41:46.999Z</time></trkpt><trkpt lat="41.02659449534844" lon="14.296124153241685"><ele>26.0</ele><time>2026-03-22T09:41:47.999Z</time></trkpt><trkpt lat="41.026585727772" lon="14.29600782082464"><ele>26.0</ele><time>2026-03-22T09:41:48.999Z</time></trkpt><trkpt lat="41.02658189719499" lon="14.295896009837536"><ele>26.0</ele><time>2026-03-22T09:41:49.999Z</time></trkpt><trkpt lat="41.02657989016469" lon="14.295788738059514"><ele>25.999999999999996</ele><time>2026-03-22T09:41:50.999Z</time></trkpt><trkpt lat="41.026574570990604" lon="14.295703160703658"><ele>26.0</ele><time>2026-03-22T09:41:51.999Z</time></trkpt><trkpt lat="41.02656821136392" lon="14.295616123068136"><ele>26.4</ele><time>2026-03-22T09:41:52.999Z</time></trkpt><trkpt lat="41.02657121182532" lon="14.295493409023868"><ele>26.8</ele><time>2026-03-22T09:41:53.999Z</time></trkpt><trkpt lat="41.02656893444732" lon="14.29535709612965"><ele>27.199999999999996</ele><time>2026-03-22T09:41:54.999Z</time></trkpt><trkpt lat="41.02656333269956" lon="14.295230571348476"><ele>27.599999999999998</ele><time>2026-03-22T09:41:55.999Z</time></trkpt><trkpt lat="41.02656209728286" lon="14.295074399880386"><ele>28.0</ele><time>2026-03-22T09:41:56.999Z</time></trkpt><trkpt lat="41.02656417346753" lon="14.29494241923412"><ele>28.0</ele><time>2026-03-22T09:41:57.999Z</time></trkpt><trkpt lat="41.02656640212633" lon="14.294836381709345"><ele>27.999999999999996</ele><time>2026-03-22T09:41:58.999Z</time></trkpt><trkpt lat="41.02657131763671" lon="14.294740833639947"><ele>27.999999999999996</ele><time>2026-03-22T09:41:59.999Z</time></trkpt><trkpt lat="41.026574063967956" lon="14.294559106592594"><ele>28.0</ele><time>2026-03-22T09:42:01.999Z</time></trkpt><trkpt lat="41.02657846910589" lon="14.29440137656334"><ele>28.0</ele><time>2026-03-22T09:42:02.999Z</time></trkpt><trkpt lat="41.02657075669169" lon="14.294191061749723"><ele>28.0</ele><time>2026-03-22T09:42:03.999Z</time></trkpt><trkpt lat="41.02658904259793" lon="14.293957783792592"><ele>28.0</ele><time>2026-03-22T09:42:04.999Z</time></trkpt><trkpt lat="41.02658747859486" lon="14.293751120847968"><ele>28.0</ele><time>2026-03-22T09:42:05.999Z</time></trkpt><trkpt lat="41.02658988663165" lon="14.293580060839982"><ele>28.2</ele><time>2026-03-22T09:42:06.999Z</time></trkpt><trkpt lat="41.02659336502924" lon="14.293431206430574"><ele>28.4</ele><time>2026-03-22T09:42:07.999Z</time></trkpt><trkpt lat="41.026587421482326" lon="14.293302979889454"><ele>28.599999999999998</ele><time>2026-03-22T09:42:08.999Z</time></trkpt><trkpt lat="41.02658854422092" lon="14.293171824152052"><ele>28.799999999999997</ele><time>2026-03-22T09:42:09.999Z</time></trkpt><trkpt lat="41.02658689627745" lon="14.293060295714401"><ele>29.0</ele><time>2026-03-22T09:42:10.999Z</time></trkpt><trkpt lat="41.02658870904017" lon="14.292955029148702"><ele>29.0</ele><time>2026-03-22T09:42:11.999Z</time></trkpt><trkpt lat="41.02658862102369" lon="14.29286855198259"><ele>29.0</ele><time>2026-03-22T09:42:12.999Z</time></trkpt><trkpt lat="41.0265864971831" lon="14.292774101469396"><ele>29.0</ele><time>2026-03-22T09:42:13.999Z</time></trkpt><trkpt lat="41.02658258246464" lon="14.292653642550642"><ele>29.0</ele><time>2026-03-22T09:42:14.999Z</time></trkpt><trkpt lat="41.02659009942333" lon="14.29251463067251"><ele>29.0</ele><time>2026-03-22T09:42:15.999Z</time></trkpt><trkpt lat="41.026574671696984" lon="14.29234241785909"><ele>28.833333333333332</ele><time>2026-03-22T09:42:16.999Z</time></trkpt><trkpt lat="41.026584413890546" lon="14.292197994487278"><ele>28.666666666666664</ele><time>2026-03-22T09:42:17.999Z</time></trkpt><trkpt lat="41.02659347054541" lon="14.29207850557742"><ele>28.5</ele><time>2026-03-22T09:42:18.999Z</time></trkpt><trkpt lat="41.02659473721918" lon="14.291981114685933"><ele>28.333333333333336</ele><time>2026-03-22T09:42:19.999Z</time></trkpt><trkpt lat="41.02660889735478" lon="14.29189975245282"><ele>28.166666666666668</ele><time>2026-03-22T09:42:20.999Z</time></trkpt><trkpt lat="41.02659714565116" lon="14.291755207093804"><ele>28.0</ele><time>2026-03-22T09:42:22.999Z</time></trkpt><trkpt lat="41.026597206319856" lon="14.291576742600846"><ele>28.000000000000004</ele><time>2026-03-22T09:42:24.999Z</time></trkpt><trkpt lat="41.02659939524357" lon="14.291466925463295"><ele>28.0</ele><time>2026-03-22T09:42:25.999Z</time></trkpt><trkpt lat="41.02660500077895" lon="14.291362569477487"><ele>28.0</ele><time>2026-03-22T09:42:26.999Z</time></trkpt><trkpt lat="41.02661262820627" lon="14.29123490154147"><ele>28.0</ele><time>2026-03-22T09:42:28.999Z</time></trkpt><trkpt lat="41.026616864071705" lon="14.291139720333776"><ele>28.000000000000004</ele><time>2026-03-22T09:42:30.999Z</time></trkpt><trkpt lat="41.02657964770433" lon="14.29106656596112"><ele>28.0</ele><time>2026-03-22T09:42:32.999Z</time></trkpt><trkpt lat="41.02647265190614" lon="14.291077901763948"><ele>27.75</ele><time>2026-03-22T09:42:33.999Z</time></trkpt><trkpt lat="41.02637375589744" lon="14.291114361668754"><ele>27.5</ele><time>2026-03-22T09:42:34.999Z</time></trkpt><trkpt lat="41.02625028818651" lon="14.291129766429918"><ele>27.25</ele><time>2026-03-22T09:42:35.999Z</time></trkpt><trkpt lat="41.026081754046025" lon="14.29112460040987"><ele>27.0</ele><time>2026-03-22T09:42:36.999Z</time></trkpt><trkpt lat="41.02587504180093" lon="14.291119998784247"><ele>27.0</ele><time>2026-03-22T09:42:37.999Z</time></trkpt><trkpt lat="41.025669707883985" lon="14.29113087132137"><ele>27.0</ele><time>2026-03-22T09:42:38.999Z</time></trkpt><trkpt lat="41.02543205204084" lon="14.291118575452048"><ele>27.0</ele><time>2026-03-22T09:42:39.999Z</time></trkpt><trkpt lat="41.025203411757715" lon="14.291130689505183"><ele>27.0</ele><time>2026-03-22T09:42:40.999Z</time></trkpt><trkpt lat="41.025007198912725" lon="14.29111705960629"><ele>27.0</ele><time>2026-03-22T09:42:41.999Z</time></trkpt><trkpt lat="41.02483631597908" lon="14.291108299534704"><ele>27.0</ele><time>2026-03-22T09:42:42.999Z</time></trkpt><trkpt lat="41.02466824201211" lon="14.291094368930285"><ele>26.75</ele><time>2026-03-22T09:42:44Z</time></trkpt><trkpt lat="41.02451773113962" lon="14.291086000627185"><ele>26.5</ele><time>2026-03-22T09:42:45Z</time></trkpt><trkpt lat="41.02439147795336" lon="14.29108279043964"><ele>26.25</ele><time>2026-03-22T09:42:46Z</time></trkpt><trkpt lat="41.02426442965184" lon="14.291073841727387"><ele>26.0</ele><time>2026-03-22T09:42:47Z</time></trkpt><trkpt lat="41.02414795400471" lon="14.291072456202379"><ele>26.0</ele><time>2026-03-22T09:42:48Z</time></trkpt><trkpt lat="41.02404529423588" lon="14.291069862743447"><ele>26.0</ele><time>2026-03-22T09:42:49Z</time></trkpt><trkpt lat="41.023948909336" lon="14.291068264369317"><ele>26.0</ele><time>2026-03-22T09:42:50Z</time></trkpt><trkpt lat="41.02384769672326" lon="14.29106978716268"><ele>26.0</ele><time>2026-03-22T09:42:51Z</time></trkpt><trkpt lat="41.023732912237115" lon="14.291066098669422"><ele>26.0</ele><time>2026-03-22T09:42:52Z</time></trkpt><trkpt lat="41.023623593266024" lon="14.291063087774864"><ele>25.999999999999996</ele><time>2026-03-22T09:42:53Z</time></trkpt><trkpt lat="41.02352336653084" lon="14.29105211203708"><ele>26.0</ele><time>2026-03-22T09:42:54Z</time></trkpt><trkpt lat="41.02342233712282" lon="14.291037181013527"><ele>26.0</ele><time>2026-03-22T09:42:55Z</time></trkpt><trkpt lat="41.023338623435244" lon="14.29103107910853"><ele>26.0</ele><time>2026-03-22T09:42:56Z</time></trkpt><trkpt lat="41.023262663036576" lon="14.291023623796512"><ele>25.999999999999996</ele><time>2026-03-22T09:42:57Z</time></trkpt><trkpt lat="41.02319733754197" lon="14.291017690778816"><ele>26.0</ele><time>2026-03-22T09:42:58Z</time></trkpt><trkpt lat="41.02313406524703" lon="14.291017508886886"><ele>25.8</ele><time>2026-03-22T09:42:59Z</time></trkpt><trkpt lat="41.02301338378242" lon="14.291009773960063"><ele>25.6</ele><time>2026-03-22T09:43:01Z</time></trkpt><trkpt lat="41.02288820540178" lon="14.291001452545427"><ele>25.4</ele><time>2026-03-22T09:43:03Z</time></trkpt><trkpt lat="41.02282441407363" lon="14.290993034072049"><ele>25.2</ele><time>2026-03-22T09:43:04Z</time></trkpt><trkpt lat="41.022742176805295" lon="14.290995792632707"><ele>25.0</ele><time>2026-03-22T09:43:05Z</time></trkpt><trkpt lat="41.02263789385807" lon="14.290998854968917"><ele>24.666666666666668</ele><time>2026-03-22T09:43:06Z</time></trkpt><trkpt lat="41.02246190366" lon="14.290995552135398"><ele>24.333333333333336</ele><time>2026-03-22T09:43:07Z</time></trkpt><trkpt lat="41.02222213358816" lon="14.290993166696978"><ele>24.0</ele><time>2026-03-22T09:43:08Z</time></trkpt><trkpt lat="41.021969188069995" lon="14.290994438871358"><ele>24.0</ele><time>2026-03-22T09:43:09Z</time></trkpt><trkpt lat="41.02170281989114" lon="14.290990484520991"><ele>24.0</ele><time>2026-03-22T09:43:10Z</time></trkpt><trkpt lat="41.0213762203831" lon="14.290984870687366"><ele>24.0</ele><time>2026-03-22T09:43:11Z</time></trkpt><trkpt lat="41.02102278255651" lon="14.290986918823998"><ele>24.0</ele><time>2026-03-22T09:43:12Z</time></trkpt><trkpt lat="41.020643813059316" lon="14.290942977182508"><ele>24.0</ele><time>2026-03-22T09:43:13Z</time></trkpt><trkpt lat="41.02029261991296" lon="14.290929802673306"><ele>24.0</ele><time>2026-03-22T09:43:14Z</time></trkpt><trkpt lat="41.019987641794316" lon="14.290929504555823"><ele>23.5</ele><time>2026-03-22T09:43:15Z</time></trkpt><trkpt lat="41.019711518850066" lon="14.290911247876831"><ele>23.0</ele><time>2026-03-22T09:43:16Z</time></trkpt><trkpt lat="41.019460399862304" lon="14.290896822425221"><ele>23.0</ele><time>2026-03-22T09:43:17Z</time></trkpt><trkpt lat="41.019230954290826" lon="14.290884233458947"><ele>23.0</ele><time>2026-03-22T09:43:18Z</time></trkpt><trkpt lat="41.019022493954154" lon="14.290872489252388"><ele>23.0</ele><time>2026-03-22T09:43:19Z</time></trkpt><trkpt lat="41.018831129100064" lon="14.29086207212685"><ele>22.75</ele><time>2026-03-22T09:43:20Z</time></trkpt><trkpt lat="41.018664123508934" lon="14.29085168045712"><ele>22.5</ele><time>2026-03-22T09:43:21Z</time></trkpt><trkpt lat="41.0185171428314" lon="14.290843474730051"><ele>22.25</ele><time>2026-03-22T09:43:22Z</time></trkpt><trkpt lat="41.01838538108628" lon="14.290830702010991"><ele>22.0</ele><time>2026-03-22T09:43:23Z</time></trkpt><trkpt lat="41.0182738219794" lon="14.290819356775447"><ele>22.5</ele><time>2026-03-22T09:43:24Z</time></trkpt><trkpt lat="41.018177939121784" lon="14.290767328809988"><ele>23.0</ele><time>2026-03-22T09:43:25Z</time></trkpt><trkpt lat="41.018110919177495" lon="14.290680232126915"><ele>23.5</ele><time>2026-03-22T09:43:26Z</time></trkpt><trkpt lat="41.017965582520326" lon="14.290640122818761"><ele>24.0</ele><time>2026-03-22T09:43:28Z</time></trkpt><trkpt lat="41.01785430487478" lon="14.290644454911343"><ele>24.0</ele><time>2026-03-22T09:43:29Z</time></trkpt><trkpt lat="41.0177208880491" lon="14.290610174056603"><ele>24.0</ele><time>2026-03-22T09:43:30Z</time></trkpt><trkpt lat="41.017588626828335" lon="14.290538902944359"><ele>24.0</ele><time>2026-03-22T09:43:31Z</time></trkpt><trkpt lat="41.01745437579978" lon="14.290430438649462"><ele>24.0</ele><time>2026-03-22T09:43:32Z</time></trkpt><trkpt lat="41.01731598851461" lon="14.290288973861186"><ele>24.666666666666664</ele><time>2026-03-22T09:43:33Z</time></trkpt><trkpt lat="41.01717866722128" lon="14.29013390701836"><ele>25.333333333333332</ele><time>2026-03-22T09:43:34Z</time></trkpt><trkpt lat="41.01706202123613" lon="14.289964544972955"><ele>26.0</ele><time>2026-03-22T09:43:35Z</time></trkpt><trkpt lat="41.01696889325899" lon="14.289789759193186"><ele>25.666666666666664</ele><time>2026-03-22T09:43:36Z</time></trkpt><trkpt lat="41.01689883778786" lon="14.289602656430496"><ele>25.333333333333336</ele><time>2026-03-22T09:43:37Z</time></trkpt><trkpt lat="41.016840553197106" lon="14.289394494581304"><ele>25.0</ele><time>2026-03-22T09:43:38Z</time></trkpt><trkpt lat="41.016787512463054" lon="14.2891726075588"><ele>25.0</ele><time>2026-03-22T09:43:39Z</time></trkpt><trkpt lat="41.0167442181582" lon="14.288942629725128"><ele>25.0</ele><time>2026-03-22T09:43:40Z</time></trkpt><trkpt lat="41.01671113861594" lon="14.288700949584083"><ele>25.0</ele><time>2026-03-22T09:43:41Z</time></trkpt><trkpt lat="41.01669417525359" lon="14.288456713142189"><ele>25.0</ele><time>2026-03-22T09:43:42Z</time></trkpt><trkpt lat="41.016690469173035" lon="14.288195890119034"><ele>25.0</ele><time>2026-03-22T09:43:43Z</time></trkpt><trkpt lat="41.01668799558699" lon="14.2878974560212"><ele>25.0</ele><time>2026-03-22T09:43:44Z</time></trkpt><trkpt lat="41.016675045715566" lon="14.287541357711513"><ele>25.5</ele><time>2026-03-22T09:43:45Z</time></trkpt><trkpt lat="41.016651504714346" lon="14.287149525599734"><ele>26.0</ele><time>2026-03-22T09:43:46Z</time></trkpt><trkpt lat="41.016618005488766" lon="14.286755074988708"><ele>25.0</ele><time>2026-03-22T09:43:47Z</time></trkpt><trkpt lat="41.01657288658834" lon="14.286344992022803"><ele>24.0</ele><time>2026-03-22T09:43:48Z</time></trkpt><trkpt lat="41.01650873545183" lon="14.285939795423754"><ele>24.5</ele><time>2026-03-22T09:43:49Z</time></trkpt><trkpt lat="41.01642702678" lon="14.285532302763878"><ele>25.0</ele><time>2026-03-22T09:43:50Z</time></trkpt><trkpt lat="41.016327592020396" lon="14.285121865612155"><ele>25.5</ele><time>2026-03-22T09:43:51Z</time></trkpt><trkpt lat="41.01620841147919" lon="14.28470346209732"><ele>26.0</ele><time>2026-03-22T09:43:52Z</time></trkpt><trkpt lat="41.016071706254884" lon="14.284257066749678"><ele>25.0</ele><time>2026-03-22T09:43:53Z</time></trkpt><trkpt lat="41.015927069470166" lon="14.28380901686993"><ele>24.0</ele><time>2026-03-22T09:43:54Z</time></trkpt><trkpt lat="41.015747362224786" lon="14.283314456969434"><ele>23.0</ele><time>2026-03-22T09:43:55Z</time></trkpt><trkpt lat="41.015559369598485" lon="14.28280597957903"><ele>22.0</ele><time>2026-03-22T09:43:56Z</time></trkpt><trkpt lat="41.01538280554173" lon="14.282301663859856"><ele>21.0</ele><time>2026-03-22T09:43:56.999Z</time></trkpt><trkpt lat="41.015204972899824" lon="14.281801356393462"><ele>20.0</ele><time>2026-03-22T09:43:57.999Z</time></trkpt><trkpt lat="41.01502436163596" lon="14.281284352955376"><ele>20.0</ele><time>2026-03-22T09:43:58.999Z</time></trkpt><trkpt lat="41.014839540051135" lon="14.280753871528644"><ele>20.0</ele><time>2026-03-22T09:43:59.999Z</time></trkpt><trkpt lat="41.01465109480845" lon="14.280216432150308"><ele>20.0</ele><time>2026-03-22T09:44:00.999Z</time></trkpt><trkpt lat="41.01446157266253" lon="14.279668213031856"><ele>20.0</ele><time>2026-03-22T09:44:01.999Z</time></trkpt><trkpt lat="41.01427401061892" lon="14.279125278547014"><ele>20.0</ele><time>2026-03-22T09:44:02.999Z</time></trkpt><trkpt lat="41.01408429474375" lon="14.278576432551887"><ele>20.0</ele><time>2026-03-22T09:44:03.999Z</time></trkpt><trkpt lat="41.01389187436691" lon="14.278025591873806"><ele>20.0</ele><time>2026-03-22T09:44:04.999Z</time></trkpt><trkpt lat="41.0136975574276" lon="14.277473861210378"><ele>20.0</ele><time>2026-03-22T09:44:05.999Z</time></trkpt><trkpt lat="41.013497302447945" lon="14.276911719640536"><ele>20.0</ele><time>2026-03-22T09:44:06.999Z</time></trkpt><trkpt lat="41.013300913419094" lon="14.276353088177986"><ele>20.0</ele><time>2026-03-22T09:44:07.999Z</time></trkpt><trkpt lat="41.01311023700778" lon="14.275796641584328"><ele>19.0</ele><time>2026-03-22T09:44:08.999Z</time></trkpt><trkpt lat="41.01291870452946" lon="14.275227319360644"><ele>18.0</ele><time>2026-03-22T09:44:09.999Z</time></trkpt><trkpt lat="41.01273463257418" lon="14.274682990666419"><ele>18.0</ele><time>2026-03-22T09:44:10.999Z</time></trkpt><trkpt lat="41.012555093524874" lon="14.27414655662302"><ele>18.0</ele><time>2026-03-22T09:44:11.999Z</time></trkpt><trkpt lat="41.01237674660681" lon="14.273620294236231"><ele>18.5</ele><time>2026-03-22T09:44:12.999Z</time></trkpt><trkpt lat="41.012196117980686" lon="14.273097325229395"><ele>19.0</ele><time>2026-03-22T09:44:13.999Z</time></trkpt><trkpt lat="41.012009898375" lon="14.272582080125222"><ele>19.0</ele><time>2026-03-22T09:44:14.999Z</time></trkpt><trkpt lat="41.01184120323396" lon="14.272083829791818"><ele>19.0</ele><time>2026-03-22T09:44:15.999Z</time></trkpt><trkpt lat="41.011669690813704" lon="14.27158762872398"><ele>18.5</ele><time>2026-03-22T09:44:16.999Z</time></trkpt><trkpt lat="41.01150774185165" lon="14.271112666247264"><ele>18.0</ele><time>2026-03-22T09:44:17.999Z</time></trkpt><trkpt lat="41.011342269547754" lon="14.270636331515695"><ele>18.5</ele><time>2026-03-22T09:44:18.999Z</time></trkpt><trkpt lat="41.011180947179824" lon="14.270164034391206"><ele>19.0</ele><time>2026-03-22T09:44:19.999Z</time></trkpt><trkpt lat="41.011016759156945" lon="14.269697405926543"><ele>19.0</ele><time>2026-03-22T09:44:20.999Z</time></trkpt><trkpt lat="41.01085395994916" lon="14.26922490000658"><ele>19.0</ele><time>2026-03-22T09:44:21.999Z</time></trkpt><trkpt lat="41.01069273066863" lon="14.268760940355532"><ele>17.5</ele><time>2026-03-22T09:44:22.999Z</time></trkpt><trkpt lat="41.0105340622164" lon="14.268291887929017"><ele>16.0</ele><time>2026-03-22T09:44:23.999Z</time></trkpt><trkpt lat="41.010372041841364" lon="14.267829162337934"><ele>16.0</ele><time>2026-03-22T09:44:24.999Z</time></trkpt><trkpt lat="41.01021195570683" lon="14.267367285415412"><ele>16.0</ele><time>2026-03-22T09:44:25.999Z</time></trkpt><trkpt lat="41.01004947522733" lon="14.266896073406901"><ele>18.0</ele><time>2026-03-22T09:44:26.999Z</time></trkpt><trkpt lat="41.009888608749456" lon="14.266442827131076"><ele>20.0</ele><time>2026-03-22T09:44:27.999Z</time></trkpt><trkpt lat="41.009735833376034" lon="14.265982666892633"><ele>20.5</ele><time>2026-03-22T09:44:28.999Z</time></trkpt><trkpt lat="41.00958993482869" lon="14.265525871569233"><ele>21.0</ele><time>2026-03-22T09:44:29.999Z</time></trkpt><trkpt lat="41.009453903539324" lon="14.265078582161818"><ele>21.0</ele><time>2026-03-22T09:44:30.999Z</time></trkpt><trkpt lat="41.00933722034975" lon="14.264649098819012"><ele>21.0</ele><time>2026-03-22T09:44:31.999Z</time></trkpt><trkpt lat="41.00923695519968" lon="14.264238257236059"><ele>18.5</ele><time>2026-03-22T09:44:32.999Z</time></trkpt><trkpt lat="41.009152525090414" lon="14.26381605800375"><ele>16.0</ele><time>2026-03-22T09:44:33.999Z</time></trkpt><trkpt lat="41.00906879262671" lon="14.26337932139623"><ele>17.0</ele><time>2026-03-22T09:44:34.999Z</time></trkpt><trkpt lat="41.00899823603615" lon="14.262919320191703"><ele>18.0</ele><time>2026-03-22T09:44:35.999Z</time></trkpt><trkpt lat="41.008932947008994" lon="14.262475638129313"><ele>19.0</ele><time>2026-03-22T09:44:36.999Z</time></trkpt><trkpt lat="41.00886872724596" lon="14.26202466870991"><ele>20.0</ele><time>2026-03-22T09:44:37.999Z</time></trkpt><trkpt lat="41.008805081498934" lon="14.261577245585963"><ele>19.5</ele><time>2026-03-22T09:44:38.999Z</time></trkpt><trkpt lat="41.00874398247171" lon="14.261128464816109"><ele>19.0</ele><time>2026-03-22T09:44:39.999Z</time></trkpt><trkpt lat="41.00868458059887" lon="14.260683381063577"><ele>19.0</ele><time>2026-03-22T09:44:40.999Z</time></trkpt><trkpt lat="41.0086343329216" lon="14.260239983469988"><ele>19.0</ele><time>2026-03-22T09:44:41.999Z</time></trkpt><trkpt lat="41.00859982697162" lon="14.259794149731155"><ele>19.0</ele><time>2026-03-22T09:44:42.999Z</time></trkpt><trkpt lat="41.00858235055705" lon="14.25935046021058"><ele>19.0</ele><time>2026-03-22T09:44:43.999Z</time></trkpt><trkpt lat="41.00858632337783" lon="14.258926618754654"><ele>19.0</ele><time>2026-03-22T09:44:44.999Z</time></trkpt><trkpt lat="41.00861012968115" lon="14.258508479201273"><ele>19.0</ele><time>2026-03-22T09:44:45.999Z</time></trkpt><trkpt lat="41.008654368032495" lon="14.258102807757844"><ele>18.0</ele><time>2026-03-22T09:44:46.999Z</time></trkpt><trkpt lat="41.00871494192633" lon="14.257703031379263"><ele>17.0</ele><time>2026-03-22T09:44:47.999Z</time></trkpt><trkpt lat="41.00878688591186" lon="14.257296312463652"><ele>17.5</ele><time>2026-03-22T09:44:48.999Z</time></trkpt><trkpt lat="41.00887898096932" lon="14.256891441650216"><ele>18.0</ele><time>2026-03-22T09:44:50Z</time></trkpt><trkpt lat="41.00899590650925" lon="14.256478067711562"><ele>17.5</ele><time>2026-03-22T09:44:51Z</time></trkpt><trkpt lat="41.00912934276556" lon="14.256073996612223"><ele>17.0</ele><time>2026-03-22T09:44:52Z</time></trkpt><trkpt lat="41.009282822047794" lon="14.255661625774506"><ele>18.0</ele><time>2026-03-22T09:44:53Z</time></trkpt><trkpt lat="41.00944060972457" lon="14.255243709174763"><ele>19.0</ele><time>2026-03-22T09:44:54Z</time></trkpt><trkpt lat="41.00959808702471" lon="14.254835547589842"><ele>19.0</ele><time>2026-03-22T09:44:55Z</time></trkpt><trkpt lat="41.00975124675297" lon="14.254441265656842"><ele>19.0</ele><time>2026-03-22T09:44:56Z</time></trkpt><trkpt lat="41.00989540550106" lon="14.25405126016181"><ele>18.5</ele><time>2026-03-22T09:44:57Z</time></trkpt><trkpt lat="41.010033514128004" lon="14.253674904781649"><ele>18.0</ele><time>2026-03-22T09:44:58Z</time></trkpt><trkpt lat="41.01016520086288" lon="14.253327959630886"><ele>18.0</ele><time>2026-03-22T09:44:59Z</time></trkpt><trkpt lat="41.01028633701623" lon="14.253001087777468"><ele>18.0</ele><time>2026-03-22T09:45:00Z</time></trkpt><trkpt lat="41.01040322744757" lon="14.252690212750048"><ele>18.0</ele><time>2026-03-22T09:45:01Z</time></trkpt><trkpt lat="41.010518922858765" lon="14.252383458133382"><ele>18.0</ele><time>2026-03-22T09:45:02Z</time></trkpt><trkpt lat="41.010624972873735" lon="14.252093378614683"><ele>18.5</ele><time>2026-03-22T09:45:03Z</time></trkpt><trkpt lat="41.01074039946186" lon="14.25179202390582"><ele>19.0</ele><time>2026-03-22T09:45:04Z</time></trkpt><trkpt lat="41.01085537323177" lon="14.251490239185097"><ele>19.0</ele><time>2026-03-22T09:45:05Z</time></trkpt><trkpt lat="41.01096877391422" lon="14.251188068628627"><ele>19.0</ele><time>2026-03-22T09:45:06Z</time></trkpt><trkpt lat="41.01108213505651" lon="14.250881312142454"><ele>19.0</ele><time>2026-03-22T09:45:07Z</time></trkpt><trkpt lat="41.01119489665154" lon="14.250575703862154"><ele>19.0</ele><time>2026-03-22T09:45:08Z</time></trkpt><trkpt lat="41.01130776543767" lon="14.250273311803229"><ele>19.0</ele><time>2026-03-22T09:45:09Z</time></trkpt><trkpt lat="41.01142139580004" lon="14.249970905684606"><ele>19.0</ele><time>2026-03-22T09:45:10Z</time></trkpt><trkpt lat="41.01153582628229" lon="14.249661100730716"><ele>19.0</ele><time>2026-03-22T09:45:11Z</time></trkpt><trkpt lat="41.01165281078288" lon="14.249346864137944"><ele>19.0</ele><time>2026-03-22T09:45:12Z</time></trkpt><trkpt lat="41.01177036134844" lon="14.249034279175316"><ele>18.0</ele><time>2026-03-22T09:45:13Z</time></trkpt><trkpt lat="41.01188974128256" lon="14.248720986559244"><ele>17.0</ele><time>2026-03-22T09:45:14Z</time></trkpt><trkpt lat="41.01200976446037" lon="14.24840743896781"><ele>17.0</ele><time>2026-03-22T09:45:15Z</time></trkpt><trkpt lat="41.01212830361827" lon="14.248092483205852"><ele>17.0</ele><time>2026-03-22T09:45:16Z</time></trkpt><trkpt lat="41.01224540351513" lon="14.247779135032456"><ele>17.0</ele><time>2026-03-22T09:45:17Z</time></trkpt><trkpt lat="41.012362443699054" lon="14.247466972875714"><ele>17.0</ele><time>2026-03-22T09:45:18Z</time></trkpt><trkpt lat="41.01247978928712" lon="14.24715916340338"><ele>16.0</ele><time>2026-03-22T09:45:19Z</time></trkpt><trkpt lat="41.01259549346492" lon="14.246849576284015"><ele>15.0</ele><time>2026-03-22T09:45:20Z</time></trkpt><trkpt lat="41.01271229152037" lon="14.24653939558134"><ele>15.0</ele><time>2026-03-22T09:45:21Z</time></trkpt><trkpt lat="41.01283092581925" lon="14.246230365665392"><ele>15.0</ele><time>2026-03-22T09:45:22Z</time></trkpt><trkpt lat="41.012952395128934" lon="14.245912960084826"><ele>16.0</ele><time>2026-03-22T09:45:23Z</time></trkpt><trkpt lat="41.01307308002289" lon="14.245593058512338"><ele>17.0</ele><time>2026-03-22T09:45:24Z</time></trkpt><trkpt lat="41.0131952214438" lon="14.245263739985118"><ele>17.0</ele><time>2026-03-22T09:45:25Z</time></trkpt><trkpt lat="41.01331907662389" lon="14.244928726688464"><ele>17.0</ele><time>2026-03-22T09:45:26Z</time></trkpt><trkpt lat="41.01343817869108" lon="14.244605238641093"><ele>17.0</ele><time>2026-03-22T09:45:27Z</time></trkpt><trkpt lat="41.013564144100734" lon="14.244269156388892"><ele>17.0</ele><time>2026-03-22T09:45:28Z</time></trkpt><trkpt lat="41.01369419854592" lon="14.243929337757777"><ele>16.0</ele><time>2026-03-22T09:45:29Z</time></trkpt><trkpt lat="41.01382224248266" lon="14.243595116419307"><ele>15.0</ele><time>2026-03-22T09:45:30Z</time></trkpt><trkpt lat="41.0139488905536" lon="14.243253558342497"><ele>15.0</ele><time>2026-03-22T09:45:31Z</time></trkpt><trkpt lat="41.01407682842249" lon="14.24291473629637"><ele>15.0</ele><time>2026-03-22T09:45:32Z</time></trkpt><trkpt lat="41.01420151255171" lon="14.242578283632655"><ele>15.5</ele><time>2026-03-22T09:45:33Z</time></trkpt><trkpt lat="41.01432792091551" lon="14.242239682266762"><ele>16.0</ele><time>2026-03-22T09:45:34Z</time></trkpt><trkpt lat="41.01445286314618" lon="14.24190671928468"><ele>16.0</ele><time>2026-03-22T09:45:35Z</time></trkpt><trkpt lat="41.01457739544929" lon="14.241577563988766"><ele>16.0</ele><time>2026-03-22T09:45:36Z</time></trkpt><trkpt lat="41.01470560106863" lon="14.24124508810904"><ele>16.0</ele><time>2026-03-22T09:45:37Z</time></trkpt><trkpt lat="41.014832218870886" lon="14.240904592499328"><ele>16.0</ele><time>2026-03-22T09:45:38Z</time></trkpt><trkpt lat="41.01495567601342" lon="14.240565655276209"><ele>16.0</ele><time>2026-03-22T09:45:39Z</time></trkpt><trkpt lat="41.01508696220489" lon="14.240222358646143"><ele>16.0</ele><time>2026-03-22T09:45:40Z</time></trkpt><trkpt lat="41.01521706374983" lon="14.239882606079583"><ele>15.5</ele><time>2026-03-22T09:45:41Z</time></trkpt><trkpt lat="41.01534894748997" lon="14.239545136041475"><ele>15.0</ele><time>2026-03-22T09:45:42Z</time></trkpt><trkpt lat="41.015475351270375" lon="14.239217417372554"><ele>15.0</ele><time>2026-03-22T09:45:43Z</time></trkpt><trkpt lat="41.01559648690185" lon="14.238893400070525"><ele>15.0</ele><time>2026-03-22T09:45:44Z</time></trkpt><trkpt lat="41.015709265492994" lon="14.238579353078698"><ele>15.0</ele><time>2026-03-22T09:45:45Z</time></trkpt><trkpt lat="41.01581437155271" lon="14.238274726721263"><ele>15.0</ele><time>2026-03-22T09:45:46Z</time></trkpt><trkpt lat="41.01591613216003" lon="14.237961414492503"><ele>16.0</ele><time>2026-03-22T09:45:47Z</time></trkpt><trkpt lat="41.01601191037422" lon="14.237637472438841"><ele>17.0</ele><time>2026-03-22T09:45:48Z</time></trkpt><trkpt lat="41.01610824835102" lon="14.237308775156485"><ele>16.5</ele><time>2026-03-22T09:45:49Z</time></trkpt><trkpt lat="41.01619778507995" lon="14.236997762028873"><ele>16.0</ele><time>2026-03-22T09:45:50Z</time></trkpt><trkpt lat="41.01629676460107" lon="14.236663298455433"><ele>16.5</ele><time>2026-03-22T09:45:51Z</time></trkpt><trkpt lat="41.01639894287757" lon="14.23630992317883"><ele>17.0</ele><time>2026-03-22T09:45:52Z</time></trkpt><trkpt lat="41.0164990349707" lon="14.23593156791375"><ele>17.0</ele><time>2026-03-22T09:45:53Z</time></trkpt><trkpt lat="41.0165939940854" lon="14.23554678953614"><ele>17.0</ele><time>2026-03-22T09:45:54Z</time></trkpt><trkpt lat="41.01668816742083" lon="14.235160152998997"><ele>16.5</ele><time>2026-03-22T09:45:55Z</time></trkpt><trkpt lat="41.01678000116558" lon="14.234770901591167"><ele>16.0</ele><time>2026-03-22T09:45:56Z</time></trkpt><trkpt lat="41.016865667183026" lon="14.234380913521901"><ele>16.0</ele><time>2026-03-22T09:45:57Z</time></trkpt><trkpt lat="41.016943770007124" lon="14.23398144868537"><ele>16.0</ele><time>2026-03-22T09:45:58Z</time></trkpt><trkpt lat="41.01701564689914" lon="14.233566178728191"><ele>16.5</ele><time>2026-03-22T09:45:59Z</time></trkpt><trkpt lat="41.01707740567717" lon="14.233174567668593"><ele>17.0</ele><time>2026-03-22T09:46:00Z</time></trkpt><trkpt lat="41.017136474332595" lon="14.232773319964815"><ele>17.0</ele><time>2026-03-22T09:46:01Z</time></trkpt><trkpt lat="41.017185435290436" lon="14.2323883976782"><ele>17.0</ele><time>2026-03-22T09:46:02Z</time></trkpt><trkpt lat="41.01722465825827" lon="14.232031558582019"><ele>17.0</ele><time>2026-03-22T09:46:03Z</time></trkpt><trkpt lat="41.01726106759652" lon="14.23167997169362"><ele>17.0</ele><time>2026-03-22T09:46:04Z</time></trkpt><trkpt lat="41.0172882481991" lon="14.231320680312828"><ele>17.0</ele><time>2026-03-22T09:46:05Z</time></trkpt><trkpt lat="41.01731330611114" lon="14.230954953397102"><ele>17.0</ele><time>2026-03-22T09:46:06Z</time></trkpt><trkpt lat="41.017342758784885" lon="14.23058266132236"><ele>17.0</ele><time>2026-03-22T09:46:06.999Z</time></trkpt><trkpt lat="41.017372141411556" lon="14.230204128037874"><ele>17.0</ele><time>2026-03-22T09:46:07.999Z</time></trkpt><trkpt lat="41.01739879638702" lon="14.229821900104007"><ele>17.0</ele><time>2026-03-22T09:46:08.999Z</time></trkpt><trkpt lat="41.017422305858766" lon="14.229438541061052"><ele>17.0</ele><time>2026-03-22T09:46:09.999Z</time></trkpt><trkpt lat="41.017443867505534" lon="14.229051704648583"><ele>17.0</ele><time>2026-03-22T09:46:10.999Z</time></trkpt><trkpt lat="41.01746155126359" lon="14.228672145785088"><ele>17.0</ele><time>2026-03-22T09:46:11.999Z</time></trkpt><trkpt lat="41.01747683155255" lon="14.228278478802729"><ele>17.0</ele><time>2026-03-22T09:46:12.999Z</time></trkpt><trkpt lat="41.017488830876935" lon="14.227896591401528"><ele>17.0</ele><time>2026-03-22T09:46:13.999Z</time></trkpt><trkpt lat="41.017503944729796" lon="14.227511270141841"><ele>17.0</ele><time>2026-03-22T09:46:14.999Z</time></trkpt><trkpt lat="41.01752401072692" lon="14.227128842937717"><ele>17.0</ele><time>2026-03-22T09:46:15.999Z</time></trkpt><trkpt lat="41.01753636599466" lon="14.22674706925757"><ele>17.0</ele><time>2026-03-22T09:46:16.999Z</time></trkpt><trkpt lat="41.0175492895545" lon="14.226349758872997"><ele>17.0</ele><time>2026-03-22T09:46:17.999Z</time></trkpt><trkpt lat="41.01756819284755" lon="14.225965997557905"><ele>16.5</ele><time>2026-03-22T09:46:18.999Z</time></trkpt><trkpt lat="41.01758973183968" lon="14.225572608528065"><ele>16.0</ele><time>2026-03-22T09:46:19.999Z</time></trkpt><trkpt lat="41.017612854159125" lon="14.225181700976988"><ele>16.0</ele><time>2026-03-22T09:46:20.999Z</time></trkpt><trkpt lat="41.01763136479541" lon="14.224794796527082"><ele>16.0</ele><time>2026-03-22T09:46:21.999Z</time></trkpt><trkpt lat="41.01764735207346" lon="14.224404640730443"><ele>16.0</ele><time>2026-03-22T09:46:22.999Z</time></trkpt><trkpt lat="41.01766344312576" lon="14.22401365351051"><ele>16.0</ele><time>2026-03-22T09:46:23.999Z</time></trkpt><trkpt lat="41.01768057897134" lon="14.223630483800035"><ele>16.5</ele><time>2026-03-22T09:46:24.999Z</time></trkpt><trkpt lat="41.01769691103263" lon="14.223253944147977"><ele>17.0</ele><time>2026-03-22T09:46:25.999Z</time></trkpt><trkpt lat="41.01771438427214" lon="14.222867282405119"><ele>18.0</ele><time>2026-03-22T09:46:26.999Z</time></trkpt><trkpt lat="41.01773090268752" lon="14.222481373767986"><ele>19.0</ele><time>2026-03-22T09:46:27.999Z</time></trkpt><trkpt lat="41.01774453896706" lon="14.222094288858237"><ele>20.0</ele><time>2026-03-22T09:46:28.999Z</time></trkpt><trkpt lat="41.017755031973806" lon="14.22170410272034"><ele>21.0</ele><time>2026-03-22T09:46:29.999Z</time></trkpt><trkpt lat="41.01776654997826" lon="14.221320152610373"><ele>21.0</ele><time>2026-03-22T09:46:30.999Z</time></trkpt><trkpt lat="41.01777917128891" lon="14.220941916672409"><ele>21.0</ele><time>2026-03-22T09:46:31.999Z</time></trkpt><trkpt lat="41.017786661022086" lon="14.220564748687282"><ele>21.0</ele><time>2026-03-22T09:46:32.999Z</time></trkpt><trkpt lat="41.017796665830986" lon="14.220204730865895"><ele>21.0</ele><time>2026-03-22T09:46:33.999Z</time></trkpt><trkpt lat="41.01780392495811" lon="14.219839383719831"><ele>20.5</ele><time>2026-03-22T09:46:34.999Z</time></trkpt><trkpt lat="41.01781296548651" lon="14.219486881457694"><ele>20.0</ele><time>2026-03-22T09:46:35.999Z</time></trkpt><trkpt lat="41.01782307878784" lon="14.219139894419834"><ele>19.0</ele><time>2026-03-22T09:46:36.999Z</time></trkpt><trkpt lat="41.01783458764154" lon="14.218798803016611"><ele>18.0</ele><time>2026-03-22T09:46:37.999Z</time></trkpt><trkpt lat="41.01784296918324" lon="14.218457251091762"><ele>18.5</ele><time>2026-03-22T09:46:38.999Z</time></trkpt><trkpt lat="41.01785134268069" lon="14.218119196593761"><ele>19.0</ele><time>2026-03-22T09:46:39.999Z</time></trkpt><trkpt lat="41.01785948951359" lon="14.217780199786107"><ele>19.0</ele><time>2026-03-22T09:46:40.999Z</time></trkpt><trkpt lat="41.01786815377568" lon="14.217446296526699"><ele>19.0</ele><time>2026-03-22T09:46:41.999Z</time></trkpt><trkpt lat="41.01787663769811" lon="14.217116950246671"><ele>19.0</ele><time>2026-03-22T09:46:42.999Z</time></trkpt><trkpt lat="41.01788639905679" lon="14.216802207314837"><ele>19.0</ele><time>2026-03-22T09:46:43.999Z</time></trkpt><trkpt lat="41.01789529821935" lon="14.216513101992936"><ele>19.0</ele><time>2026-03-22T09:46:44.999Z</time></trkpt><trkpt lat="41.01790573510277" lon="14.216225938317182"><ele>19.0</ele><time>2026-03-22T09:46:45.999Z</time></trkpt><trkpt lat="41.01791636394114" lon="14.215962629133221"><ele>19.0</ele><time>2026-03-22T09:46:46.999Z</time></trkpt><trkpt lat="41.01792597989364" lon="14.215708301050714"><ele>18.333333333333332</ele><time>2026-03-22T09:46:47.999Z</time></trkpt><trkpt lat="41.01793360167988" lon="14.215473870553165"><ele>17.666666666666668</ele><time>2026-03-22T09:46:48.999Z</time></trkpt><trkpt lat="41.017939968234316" lon="14.21524700627478"><ele>17.0</ele><time>2026-03-22T09:46:49.999Z</time></trkpt><trkpt lat="41.017947082161285" lon="14.215037122992443"><ele>17.0</ele><time>2026-03-22T09:46:50.999Z</time></trkpt><trkpt lat="41.01795350774062" lon="14.214841065919105"><ele>17.0</ele><time>2026-03-22T09:46:51.999Z</time></trkpt><trkpt lat="41.017960973389414" lon="14.214648694157857"><ele>17.0</ele><time>2026-03-22T09:46:52.999Z</time></trkpt><trkpt lat="41.017967328739196" lon="14.214484058012886"><ele>17.0</ele><time>2026-03-22T09:46:53.999Z</time></trkpt><trkpt lat="41.01797220849362" lon="14.214329495964487"><ele>17.0</ele><time>2026-03-22T09:46:54.999Z</time></trkpt><trkpt lat="41.01797638389726" lon="14.214194336829841"><ele>17.0</ele><time>2026-03-22T09:46:56Z</time></trkpt><trkpt lat="41.01797987166861" lon="14.214062966026551"><ele>17.0</ele><time>2026-03-22T09:46:57Z</time></trkpt><trkpt lat="41.01798650771198" lon="14.213950630042694"><ele>17.0</ele><time>2026-03-22T09:46:58Z</time></trkpt><trkpt lat="41.01799242538984" lon="14.213846608727756"><ele>17.0</ele><time>2026-03-22T09:46:59Z</time></trkpt><trkpt lat="41.01799815015516" lon="14.213713383088118"><ele>17.0</ele><time>2026-03-22T09:47:01Z</time></trkpt><trkpt lat="41.01798643283328" lon="14.213542917415646"><ele>17.0</ele><time>2026-03-22T09:47:53Z</time></trkpt><trkpt lat="41.01798542867521" lon="14.213392338228205"><ele>17.0</ele><time>2026-03-22T09:47:54Z</time></trkpt><trkpt lat="41.01798970850584" lon="14.21318256684117"><ele>17.0</ele><time>2026-03-22T09:47:55Z</time></trkpt><trkpt lat="41.01799603539702" lon="14.212940622629938"><ele>16.5</ele><time>2026-03-22T09:47:56Z</time></trkpt><trkpt lat="41.01800446389003" lon="14.212691283906468"><ele>16.0</ele><time>2026-03-22T09:47:57Z</time></trkpt><trkpt lat="41.01801476916226" lon="14.212338162229441"><ele>16.5</ele><time>2026-03-22T09:47:58Z</time></trkpt><trkpt lat="41.018023911133405" lon="14.21201507901645"><ele>17.0</ele><time>2026-03-22T09:47:59Z</time></trkpt><trkpt lat="41.018029003068484" lon="14.211721110525236"><ele>17.5</ele><time>2026-03-22T09:48:00Z</time></trkpt><trkpt lat="41.01803823559978" lon="14.211403100710667"><ele>18.0</ele><time>2026-03-22T09:48:01Z</time></trkpt><trkpt lat="41.01805142618398" lon="14.211076902395925"><ele>18.0</ele><time>2026-03-22T09:48:02Z</time></trkpt><trkpt lat="41.0180670452518" lon="14.210751252781375"><ele>18.0</ele><time>2026-03-22T09:48:03Z</time></trkpt><trkpt lat="41.01807646571253" lon="14.21041618400593"><ele>18.0</ele><time>2026-03-22T09:48:04Z</time></trkpt><trkpt lat="41.01808524078886" lon="14.210068198972518"><ele>18.0</ele><time>2026-03-22T09:48:05Z</time></trkpt><trkpt lat="41.01808994027495" lon="14.209704446151454"><ele>18.0</ele><time>2026-03-22T09:48:06Z</time></trkpt><trkpt lat="41.01810081212168" lon="14.209288417399915"><ele>18.0</ele><time>2026-03-22T09:48:07Z</time></trkpt><trkpt lat="41.01810980065453" lon="14.20883705332837"><ele>18.0</ele><time>2026-03-22T09:48:07.999Z</time></trkpt><trkpt lat="41.01812134355312" lon="14.20840823801043"><ele>18.0</ele><time>2026-03-22T09:48:08.999Z</time></trkpt><trkpt lat="41.01813363051807" lon="14.207999053525036"><ele>18.0</ele><time>2026-03-22T09:48:09.999Z</time></trkpt><trkpt lat="41.01814579429493" lon="14.207604805948751"><ele>18.0</ele><time>2026-03-22T09:48:10.999Z</time></trkpt><trkpt lat="41.01815755292992" lon="14.207220645329446"><ele>18.5</ele><time>2026-03-22T09:48:11.999Z</time></trkpt><trkpt lat="41.01816567311629" lon="14.206840430524148"><ele>19.0</ele><time>2026-03-22T09:48:12.999Z</time></trkpt><trkpt lat="41.01817401550277" lon="14.20646122450586"><ele>18.0</ele><time>2026-03-22T09:48:13.999Z</time></trkpt><trkpt lat="41.01818529168062" lon="14.206079830753547"><ele>17.0</ele><time>2026-03-22T09:48:14.999Z</time></trkpt><trkpt lat="41.01819358098395" lon="14.20569485218006"><ele>17.0</ele><time>2026-03-22T09:48:15.999Z</time></trkpt><trkpt lat="41.01820269441247" lon="14.205300365796942"><ele>17.0</ele><time>2026-03-22T09:48:16.999Z</time></trkpt><trkpt lat="41.01821554922957" lon="14.204906275098656"><ele>17.0</ele><time>2026-03-22T09:48:17.999Z</time></trkpt><trkpt lat="41.0182240454773" lon="14.20451164656791"><ele>17.0</ele><time>2026-03-22T09:48:18.999Z</time></trkpt><trkpt lat="41.018236562572675" lon="14.204118743215705"><ele>16.5</ele><time>2026-03-22T09:48:19.999Z</time></trkpt><trkpt lat="41.0182493162457" lon="14.203728149404451"><ele>16.0</ele><time>2026-03-22T09:48:20.999Z</time></trkpt><trkpt lat="41.01826406290992" lon="14.203330646102614"><ele>16.5</ele><time>2026-03-22T09:48:21.999Z</time></trkpt><trkpt lat="41.018271529852896" lon="14.202940669740936"><ele>17.0</ele><time>2026-03-22T09:48:22.999Z</time></trkpt><trkpt lat="41.01827729762272" lon="14.202552378831546"><ele>16.5</ele><time>2026-03-22T09:48:23.999Z</time></trkpt><trkpt lat="41.01827868098857" lon="14.202162472032201"><ele>16.0</ele><time>2026-03-22T09:48:24.999Z</time></trkpt><trkpt lat="41.018269311277066" lon="14.201768956994426"><ele>16.0</ele><time>2026-03-22T09:48:25.999Z</time></trkpt><trkpt lat="41.018247109956945" lon="14.201361628538278"><ele>16.0</ele><time>2026-03-22T09:48:26.999Z</time></trkpt><trkpt lat="41.01821110054646" lon="14.200949681692643"><ele>16.5</ele><time>2026-03-22T09:48:27.999Z</time></trkpt><trkpt lat="41.01816517497644" lon="14.200536339254342"><ele>17.0</ele><time>2026-03-22T09:48:28.999Z</time></trkpt><trkpt lat="41.01810715721262" lon="14.200123519352825"><ele>17.0</ele><time>2026-03-22T09:48:29.999Z</time></trkpt><trkpt lat="41.01803132326446" lon="14.199711704888797"><ele>17.0</ele><time>2026-03-22T09:48:30.999Z</time></trkpt><trkpt lat="41.01793318033578" lon="14.199305111590371"><ele>17.5</ele><time>2026-03-22T09:48:31.999Z</time></trkpt><trkpt lat="41.0178245565167" lon="14.198912438988135"><ele>18.0</ele><time>2026-03-22T09:48:32.999Z</time></trkpt><trkpt lat="41.01770186470331" lon="14.198533560114365"><ele>18.0</ele><time>2026-03-22T09:48:33.999Z</time></trkpt><trkpt lat="41.01756485419491" lon="14.19815099014727"><ele>18.0</ele><time>2026-03-22T09:48:34.999Z</time></trkpt><trkpt lat="41.01741867308724" lon="14.19777755446372"><ele>18.0</ele><time>2026-03-22T09:48:35.999Z</time></trkpt><trkpt lat="41.01725000912281" lon="14.197416578242569"><ele>18.0</ele><time>2026-03-22T09:48:36.999Z</time></trkpt><trkpt lat="41.01706467293005" lon="14.197056879458351"><ele>19.0</ele><time>2026-03-22T09:48:37.999Z</time></trkpt><trkpt lat="41.016868739752965" lon="14.196704594728649"><ele>20.0</ele><time>2026-03-22T09:48:38.999Z</time></trkpt><trkpt lat="41.01666188951621" lon="14.196370986693406"><ele>19.5</ele><time>2026-03-22T09:48:39.999Z</time></trkpt><trkpt lat="41.016437567587936" lon="14.196049635401698"><ele>19.0</ele><time>2026-03-22T09:48:40.999Z</time></trkpt><trkpt lat="41.01620041181611" lon="14.195752522280774"><ele>19.0</ele><time>2026-03-22T09:48:41.999Z</time></trkpt><trkpt lat="41.01595623527456" lon="14.195457832764456"><ele>19.0</ele><time>2026-03-22T09:48:42.999Z</time></trkpt><trkpt lat="41.01570357277319" lon="14.19517989348555"><ele>18.5</ele><time>2026-03-22T09:48:43.999Z</time></trkpt><trkpt lat="41.01547339622095" lon="14.194952014441798"><ele>18.0</ele><time>2026-03-22T09:48:44.999Z</time></trkpt><trkpt lat="41.01524722730584" lon="14.19473734651729"><ele>18.5</ele><time>2026-03-22T09:48:45.999Z</time></trkpt><trkpt lat="41.01503602039066" lon="14.194551117026963"><ele>19.0</ele><time>2026-03-22T09:48:46.999Z</time></trkpt><trkpt lat="41.01482685215592" lon="14.194393652783118"><ele>19.0</ele><time>2026-03-22T09:48:47.999Z</time></trkpt><trkpt lat="41.01462486062717" lon="14.194243210997511"><ele>19.0</ele><time>2026-03-22T09:48:48.999Z</time></trkpt><trkpt lat="41.014429369109266" lon="14.194119334340336"><ele>19.0</ele><time>2026-03-22T09:48:49.999Z</time></trkpt><trkpt lat="41.01422983759751" lon="14.193998895471646"><ele>19.5</ele><time>2026-03-22T09:48:50.999Z</time></trkpt><trkpt lat="41.01401739752915" lon="14.193864088426762"><ele>20.0</ele><time>2026-03-22T09:48:51.999Z</time></trkpt><trkpt lat="41.01380074582817" lon="14.193726555744862"><ele>20.0</ele><time>2026-03-22T09:48:52.999Z</time></trkpt><trkpt lat="41.013602055997595" lon="14.193598051128387"><ele>20.0</ele><time>2026-03-22T09:48:53.999Z</time></trkpt><trkpt lat="41.01342196933681" lon="14.193471932879364"><ele>20.0</ele><time>2026-03-22T09:48:54.999Z</time></trkpt><trkpt lat="41.013256948719544" lon="14.193351474777609"><ele>19.666666666666668</ele><time>2026-03-22T09:48:55.999Z</time></trkpt><trkpt lat="41.01310442303101" lon="14.193241314135856"><ele>19.333333333333332</ele><time>2026-03-22T09:48:56.999Z</time></trkpt><trkpt lat="41.01296480736749" lon="14.193140126781149"><ele>19.0</ele><time>2026-03-22T09:48:57.999Z</time></trkpt><trkpt lat="41.01284216348958" lon="14.193034532920537"><ele>19.0</ele><time>2026-03-22T09:48:58.999Z</time></trkpt><trkpt lat="41.01273303856735" lon="14.192923886493544"><ele>19.0</ele><time>2026-03-22T09:48:59.999Z</time></trkpt><trkpt lat="41.012641510747784" lon="14.192798742289234"><ele>19.0</ele><time>2026-03-22T09:49:00.999Z</time></trkpt><trkpt lat="41.01256418225102" lon="14.192654437990598"><ele>19.0</ele><time>2026-03-22T09:49:02Z</time></trkpt><trkpt lat="41.01249811086605" lon="14.19248883161514"><ele>19.25</ele><time>2026-03-22T09:49:03Z</time></trkpt><trkpt lat="41.01245535345643" lon="14.192319925531343"><ele>19.5</ele><time>2026-03-22T09:49:04Z</time></trkpt><trkpt lat="41.01243476230966" lon="14.192156142651"><ele>19.75</ele><time>2026-03-22T09:49:05Z</time></trkpt><trkpt lat="41.01242368011959" lon="14.192009677788523"><ele>20.0</ele><time>2026-03-22T09:49:06Z</time></trkpt><trkpt lat="41.012412026523094" lon="14.19186346812108"><ele>20.0</ele><time>2026-03-22T09:49:07Z</time></trkpt><trkpt lat="41.01240463234969" lon="14.191680570322877"><ele>20.0</ele><time>2026-03-22T09:49:08Z</time></trkpt><trkpt lat="41.012383121599505" lon="14.191483596685721"><ele>20.0</ele><time>2026-03-22T09:49:09Z</time></trkpt><trkpt lat="41.012345046190994" lon="14.191270349365542"><ele>20.0</ele><time>2026-03-22T09:49:10Z</time></trkpt><trkpt lat="41.012289216229746" lon="14.191033872932957"><ele>20.0</ele><time>2026-03-22T09:49:11Z</time></trkpt><trkpt lat="41.012217999877166" lon="14.190802331547333"><ele>20.0</ele><time>2026-03-22T09:49:12Z</time></trkpt><trkpt lat="41.012130955925656" lon="14.190568570474133"><ele>20.333333333333336</ele><time>2026-03-22T09:49:13Z</time></trkpt><trkpt lat="41.01203032894503" lon="14.190348026227703"><ele>20.666666666666668</ele><time>2026-03-22T09:49:14Z</time></trkpt><trkpt lat="41.01192345277334" lon="14.190148469730868"><ele>21.0</ele><time>2026-03-22T09:49:15Z</time></trkpt><trkpt lat="41.011813376016505" lon="14.18996918363049"><ele>21.0</ele><time>2026-03-22T09:49:16Z</time></trkpt><trkpt lat="41.01168786485862" lon="14.189805634118194"><ele>21.0</ele><time>2026-03-22T09:49:17Z</time></trkpt><trkpt lat="41.01155031896881" lon="14.189663826367841"><ele>21.0</ele><time>2026-03-22T09:49:18Z</time></trkpt><trkpt lat="41.01140477993571" lon="14.189549843423206"><ele>21.0</ele><time>2026-03-22T09:49:19Z</time></trkpt><trkpt lat="41.01124182716224" lon="14.189451378683126"><ele>21.0</ele><time>2026-03-22T09:49:20Z</time></trkpt><trkpt lat="41.01107773112095" lon="14.189389519147234"><ele>21.0</ele><time>2026-03-22T09:49:21Z</time></trkpt><trkpt lat="41.01092510190449" lon="14.189341909615822"><ele>21.0</ele><time>2026-03-22T09:49:22Z</time></trkpt><trkpt lat="41.010776348056275" lon="14.189330839375733"><ele>21.0</ele><time>2026-03-22T09:49:23Z</time></trkpt><trkpt lat="41.010622385939854" lon="14.189342631464143"><ele>21.0</ele><time>2026-03-22T09:49:24Z</time></trkpt><trkpt lat="41.010460628534005" lon="14.189364300228954"><ele>21.0</ele><time>2026-03-22T09:49:25Z</time></trkpt><trkpt lat="41.01029158440503" lon="14.189392837840773"><ele>21.0</ele><time>2026-03-22T09:49:26Z</time></trkpt><trkpt lat="41.01011976935124" lon="14.189434449940885"><ele>21.0</ele><time>2026-03-22T09:49:27Z</time></trkpt><trkpt lat="41.00994558225647" lon="14.1895051969355"><ele>21.333333333333332</ele><time>2026-03-22T09:49:28Z</time></trkpt><trkpt lat="41.009774576992065" lon="14.18959901566735"><ele>21.666666666666664</ele><time>2026-03-22T09:49:29Z</time></trkpt><trkpt lat="41.00961205365968" lon="14.189730990599019"><ele>22.0</ele><time>2026-03-22T09:49:30Z</time></trkpt><trkpt lat="41.00944878587052" lon="14.18986939664749"><ele>22.0</ele><time>2026-03-22T09:49:31Z</time></trkpt><trkpt lat="41.00928738612739" lon="14.190027298760933"><ele>22.0</ele><time>2026-03-22T09:49:32Z</time></trkpt><trkpt lat="41.00914669790201" lon="14.19019776538707"><ele>22.0</ele><time>2026-03-22T09:49:33Z</time></trkpt><trkpt lat="41.00902244456623" lon="14.190381426492849"><ele>22.0</ele><time>2026-03-22T09:49:34Z</time></trkpt><trkpt lat="41.00890981611655" lon="14.19057961131635"><ele>22.0</ele><time>2026-03-22T09:49:35Z</time></trkpt><trkpt lat="41.00882020529512" lon="14.190797701473347"><ele>22.0</ele><time>2026-03-22T09:49:36Z</time></trkpt><trkpt lat="41.00876696331974" lon="14.191039692749113"><ele>22.0</ele><time>2026-03-22T09:49:37Z</time></trkpt><trkpt lat="41.00874014333915" lon="14.19129633097846"><ele>22.0</ele><time>2026-03-22T09:49:38Z</time></trkpt><trkpt lat="41.00873508043716" lon="14.191550297627042"><ele>22.0</ele><time>2026-03-22T09:49:39Z</time></trkpt><trkpt lat="41.00874913322484" lon="14.19180229627341"><ele>21.666666666666664</ele><time>2026-03-22T09:49:40Z</time></trkpt><trkpt lat="41.00877626231636" lon="14.192067964737168"><ele>21.333333333333332</ele><time>2026-03-22T09:49:41Z</time></trkpt><trkpt lat="41.00881604599472" lon="14.192340923150388"><ele>21.0</ele><time>2026-03-22T09:49:42Z</time></trkpt><trkpt lat="41.00887499014691" lon="14.192602623421902"><ele>21.666666666666668</ele><time>2026-03-22T09:49:43Z</time></trkpt><trkpt lat="41.00895263929642" lon="14.19285528081325"><ele>22.333333333333336</ele><time>2026-03-22T09:49:44Z</time></trkpt><trkpt lat="41.00904405098424" lon="14.193081529807772"><ele>23.0</ele><time>2026-03-22T09:49:45Z</time></trkpt><trkpt lat="41.00913164518922" lon="14.193283420231866"><ele>22.333333333333336</ele><time>2026-03-22T09:49:46Z</time></trkpt><trkpt lat="41.00921701204001" lon="14.193477697127806"><ele>21.666666666666668</ele><time>2026-03-22T09:49:47Z</time></trkpt><trkpt lat="41.009295496462755" lon="14.193657769041222"><ele>21.0</ele><time>2026-03-22T09:49:48Z</time></trkpt><trkpt lat="41.00936598304395" lon="14.193840492909336"><ele>21.666666666666668</ele><time>2026-03-22T09:49:49Z</time></trkpt><trkpt lat="41.00941195822691" lon="14.194043675612345"><ele>22.333333333333336</ele><time>2026-03-22T09:49:50Z</time></trkpt><trkpt lat="41.009430960380406" lon="14.194251181319235"><ele>23.0</ele><time>2026-03-22T09:49:51Z</time></trkpt><trkpt lat="41.009421917542234" lon="14.194451682090062"><ele>23.0</ele><time>2026-03-22T09:49:52Z</time></trkpt><trkpt lat="41.00938958669912" lon="14.194629347765591"><ele>23.0</ele><time>2026-03-22T09:49:53Z</time></trkpt><trkpt lat="41.00931027359609" lon="14.194809616085324"><ele>23.0</ele><time>2026-03-22T09:49:54Z</time></trkpt><trkpt lat="41.00927108049002" lon="14.19502272974021"><ele>22.5</ele><time>2026-03-22T09:49:55Z</time></trkpt><trkpt lat="41.00918724270892" lon="14.195289663674334"><ele>22.0</ele><time>2026-03-22T09:49:56Z</time></trkpt><trkpt lat="41.00908258990481" lon="14.195610194526871"><ele>21.0</ele><time>2026-03-22T09:49:57Z</time></trkpt><trkpt lat="41.008959075457135" lon="14.195962007140514"><ele>20.0</ele><time>2026-03-22T09:49:58Z</time></trkpt><trkpt lat="41.00882654667916" lon="14.196383772460111"><ele>19.5</ele><time>2026-03-22T09:49:59Z</time></trkpt><trkpt lat="41.008658168528456" lon="14.19683294015019"><ele>19.0</ele><time>2026-03-22T09:50:00Z</time></trkpt><trkpt lat="41.008476695269295" lon="14.197315750076921"><ele>19.0</ele><time>2026-03-22T09:50:01Z</time></trkpt><trkpt lat="41.0082895381624" lon="14.197816069358897"><ele>19.0</ele><time>2026-03-22T09:50:02Z</time></trkpt><trkpt lat="41.00809999244371" lon="14.198336365136495"><ele>19.0</ele><time>2026-03-22T09:50:03Z</time></trkpt><trkpt lat="41.00790478525961" lon="14.198862240123624"><ele>19.0</ele><time>2026-03-22T09:50:04Z</time></trkpt><trkpt lat="41.00771149554028" lon="14.199394339255983"><ele>20.5</ele><time>2026-03-22T09:50:05Z</time></trkpt><trkpt lat="41.007539498885215" lon="14.199862298571126"><ele>22.0</ele><time>2026-03-22T09:50:06Z</time></trkpt><trkpt lat="41.00738576024696" lon="14.200296281407445"><ele>22.0</ele><time>2026-03-22T09:50:07Z</time></trkpt><trkpt lat="41.00723331238243" lon="14.200712525404809"><ele>22.0</ele><time>2026-03-22T09:50:08Z</time></trkpt><trkpt lat="41.007095596613304" lon="14.20109625204926"><ele>22.0</ele><time>2026-03-22T09:50:09Z</time></trkpt><trkpt lat="41.00696048658708" lon="14.201465573977332"><ele>22.0</ele><time>2026-03-22T09:50:10Z</time></trkpt><trkpt lat="41.00681363202265" lon="14.201847595770671"><ele>22.0</ele><time>2026-03-22T09:50:11Z</time></trkpt><trkpt lat="41.006662516258125" lon="14.202218492688404"><ele>22.0</ele><time>2026-03-22T09:50:12Z</time></trkpt><trkpt lat="41.006503301201604" lon="14.202568760877814"><ele>21.5</ele><time>2026-03-22T09:50:13Z</time></trkpt><trkpt lat="41.006332085264894" lon="14.20289038467015"><ele>21.0</ele><time>2026-03-22T09:50:13.999Z</time></trkpt><trkpt lat="41.00614753052431" lon="14.20318839254147"><ele>21.5</ele><time>2026-03-22T09:50:14.999Z</time></trkpt><trkpt lat="41.005954654978225" lon="14.20346569820611"><ele>22.0</ele><time>2026-03-22T09:50:15.999Z</time></trkpt><trkpt lat="41.005737203528746" lon="14.20374295239633"><ele>22.0</ele><time>2026-03-22T09:50:16.999Z</time></trkpt><trkpt lat="41.00551094357207" lon="14.204012844073743"><ele>22.0</ele><time>2026-03-22T09:50:17.999Z</time></trkpt><trkpt lat="41.005270644087986" lon="14.204271854996591"><ele>22.0</ele><time>2026-03-22T09:50:18.999Z</time></trkpt><trkpt lat="41.0050187319127" lon="14.204501986618341"><ele>22.0</ele><time>2026-03-22T09:50:19.999Z</time></trkpt><trkpt lat="41.004750233153445" lon="14.204713337379053"><ele>23.0</ele><time>2026-03-22T09:50:20.999Z</time></trkpt><trkpt lat="41.00448340992631" lon="14.204931337978255"><ele>24.0</ele><time>2026-03-22T09:50:21.999Z</time></trkpt><trkpt lat="41.004234750991074" lon="14.205180823521456"><ele>24.0</ele><time>2026-03-22T09:50:22.999Z</time></trkpt><trkpt lat="41.004007435740675" lon="14.205451777145296"><ele>24.0</ele><time>2026-03-22T09:50:23.999Z</time></trkpt><trkpt lat="41.00378524418392" lon="14.205750497254412"><ele>23.5</ele><time>2026-03-22T09:50:24.999Z</time></trkpt><trkpt lat="41.00356876905809" lon="14.206080074705504"><ele>23.0</ele><time>2026-03-22T09:50:25.999Z</time></trkpt><trkpt lat="41.0033625288719" lon="14.206439799185532"><ele>23.0</ele><time>2026-03-22T09:50:26.999Z</time></trkpt><trkpt lat="41.00316451712545" lon="14.206845958398517"><ele>23.0</ele><time>2026-03-22T09:50:27.999Z</time></trkpt><trkpt lat="41.00298159058579" lon="14.20728575262521"><ele>23.5</ele><time>2026-03-22T09:50:28.999Z</time></trkpt><trkpt lat="41.002818826129335" lon="14.207792163514291"><ele>24.0</ele><time>2026-03-22T09:50:29.999Z</time></trkpt><trkpt lat="41.00263255197898" lon="14.208274213157802"><ele>24.0</ele><time>2026-03-22T09:50:30.999Z</time></trkpt><trkpt lat="41.002439526925286" lon="14.208765635951968"><ele>24.0</ele><time>2026-03-22T09:50:31.999Z</time></trkpt><trkpt lat="41.002240341397176" lon="14.209261478524471"><ele>24.0</ele><time>2026-03-22T09:50:32.999Z</time></trkpt><trkpt lat="41.002039452732554" lon="14.209760168850087"><ele>24.0</ele><time>2026-03-22T09:50:33.999Z</time></trkpt><trkpt lat="41.00185741187794" lon="14.21022442835561"><ele>24.0</ele><time>2026-03-22T09:50:34.999Z</time></trkpt><trkpt lat="41.00168475017356" lon="14.210655435895882"><ele>24.0</ele><time>2026-03-22T09:50:35.999Z</time></trkpt><trkpt lat="41.001512438566124" lon="14.211082726222292"><ele>23.5</ele><time>2026-03-22T09:50:36.999Z</time></trkpt><trkpt lat="41.001336091649" lon="14.211517211865427"><ele>23.0</ele><time>2026-03-22T09:50:37.999Z</time></trkpt><trkpt lat="41.001157301235764" lon="14.21196349336833"><ele>23.0</ele><time>2026-03-22T09:50:38.999Z</time></trkpt><trkpt lat="41.00097649280167" lon="14.212409685016567"><ele>23.0</ele><time>2026-03-22T09:50:39.999Z</time></trkpt><trkpt lat="41.0007973268619" lon="14.21285989541233"><ele>23.0</ele><time>2026-03-22T09:50:40.999Z</time></trkpt><trkpt lat="41.00061401169391" lon="14.213326455691169"><ele>23.0</ele><time>2026-03-22T09:50:41.999Z</time></trkpt><trkpt lat="41.00043207501636" lon="14.213783106403579"><ele>23.0</ele><time>2026-03-22T09:50:42.999Z</time></trkpt><trkpt lat="41.0002453529816" lon="14.214245630028412"><ele>23.0</ele><time>2026-03-22T09:50:43.999Z</time></trkpt><trkpt lat="41.00005055789034" lon="14.21472858645396"><ele>23.5</ele><time>2026-03-22T09:50:44.999Z</time></trkpt><trkpt lat="40.99985765131002" lon="14.215214260494173"><ele>24.0</ele><time>2026-03-22T09:50:45.999Z</time></trkpt><trkpt lat="40.999666685773065" lon="14.215695101030773"><ele>24.0</ele><time>2026-03-22T09:50:46.999Z</time></trkpt><trkpt lat="40.99948078309694" lon="14.216160304418501"><ele>24.0</ele><time>2026-03-22T09:50:47.999Z</time></trkpt><trkpt lat="40.999294291745436" lon="14.216616715994046"><ele>24.0</ele><time>2026-03-22T09:50:48.999Z</time></trkpt><trkpt lat="40.999107117171896" lon="14.217075469335926"><ele>24.0</ele><time>2026-03-22T09:50:49.999Z</time></trkpt><trkpt lat="40.99892346448564" lon="14.217534199743007"><ele>24.0</ele><time>2026-03-22T09:50:50.999Z</time></trkpt><trkpt lat="40.998742390708124" lon="14.217990630667382"><ele>24.0</ele><time>2026-03-22T09:50:51.999Z</time></trkpt><trkpt lat="40.99855654701879" lon="14.218450380614268"><ele>24.5</ele><time>2026-03-22T09:50:52.999Z</time></trkpt><trkpt lat="40.99836591201714" lon="14.218901562066542"><ele>25.0</ele><time>2026-03-22T09:50:53.999Z</time></trkpt><trkpt lat="40.9981762305093" lon="14.219350096269661"><ele>25.0</ele><time>2026-03-22T09:50:54.999Z</time></trkpt><trkpt lat="40.997991143370605" lon="14.21979060305451"><ele>25.0</ele><time>2026-03-22T09:50:55.999Z</time></trkpt><trkpt lat="40.99781095956345" lon="14.22023398840577"><ele>24.0</ele><time>2026-03-22T09:50:56.999Z</time></trkpt><trkpt lat="40.997635079517664" lon="14.22067612710205"><ele>23.0</ele><time>2026-03-22T09:50:57.999Z</time></trkpt><trkpt lat="40.99746161217566" lon="14.221112817326476"><ele>22.5</ele><time>2026-03-22T09:50:58.999Z</time></trkpt><trkpt lat="40.99728359760325" lon="14.221552741827905"><ele>22.0</ele><time>2026-03-22T09:50:59.999Z</time></trkpt><trkpt lat="40.997106130212636" lon="14.221991038809202"><ele>21.5</ele><time>2026-03-22T09:51:00.999Z</time></trkpt><trkpt lat="40.99693463971807" lon="14.222422453182007"><ele>21.0</ele><time>2026-03-22T09:51:01.999Z</time></trkpt><trkpt lat="40.99676403074108" lon="14.222853573874392"><ele>22.0</ele><time>2026-03-22T09:51:02.999Z</time></trkpt><trkpt lat="40.996594105744485" lon="14.223278466725095"><ele>23.0</ele><time>2026-03-22T09:51:03.999Z</time></trkpt><trkpt lat="40.99642456855819" lon="14.22370464116562"><ele>22.0</ele><time>2026-03-22T09:51:04.999Z</time></trkpt><trkpt lat="40.99625901900562" lon="14.224117596660342"><ele>21.0</ele><time>2026-03-22T09:51:05.999Z</time></trkpt><trkpt lat="40.996097143157336" lon="14.224527050663111"><ele>21.5</ele><time>2026-03-22T09:51:06.999Z</time></trkpt><trkpt lat="40.9959422701742" lon="14.224926989090479"><ele>22.0</ele><time>2026-03-22T09:51:08Z</time></trkpt><trkpt lat="40.995785857959525" lon="14.225321749277935"><ele>22.0</ele><time>2026-03-22T09:51:09Z</time></trkpt><trkpt lat="40.99562777817516" lon="14.225717227083972"><ele>22.0</ele><time>2026-03-22T09:51:10Z</time></trkpt><trkpt lat="40.995468670082474" lon="14.22611341525501"><ele>21.5</ele><time>2026-03-22T09:51:11Z</time></trkpt><trkpt lat="40.995308236565876" lon="14.226513407681178"><ele>21.0</ele><time>2026-03-22T09:51:12Z</time></trkpt><trkpt lat="40.99515018643603" lon="14.226915582299496"><ele>21.5</ele><time>2026-03-22T09:51:13Z</time></trkpt><trkpt lat="40.994990287352266" lon="14.2273342042296"><ele>22.0</ele><time>2026-03-22T09:51:14Z</time></trkpt><trkpt lat="40.99481550083492" lon="14.227789296532169"><ele>22.0</ele><time>2026-03-22T09:51:15Z</time></trkpt><trkpt lat="40.994631426422835" lon="14.228254088677915"><ele>22.0</ele><time>2026-03-22T09:51:16Z</time></trkpt><trkpt lat="40.994439300347125" lon="14.228731378372006"><ele>21.5</ele><time>2026-03-22T09:51:17Z</time></trkpt><trkpt lat="40.994246063920485" lon="14.22920718337751"><ele>21.0</ele><time>2026-03-22T09:51:18Z</time></trkpt><trkpt lat="40.99407464343183" lon="14.229637577645093"><ele>21.5</ele><time>2026-03-22T09:51:19Z</time></trkpt><trkpt lat="40.99392191902439" lon="14.230019041277382"><ele>22.0</ele><time>2026-03-22T09:51:20Z</time></trkpt><trkpt lat="40.99377537019355" lon="14.23038050666204"><ele>21.5</ele><time>2026-03-22T09:51:21Z</time></trkpt><trkpt lat="40.993635237815795" lon="14.230740399973731"><ele>21.0</ele><time>2026-03-22T09:51:22Z</time></trkpt><trkpt lat="40.99347781731518" lon="14.231124823928626"><ele>22.5</ele><time>2026-03-22T09:51:23Z</time></trkpt><trkpt lat="40.993322490691064" lon="14.231512582137642"><ele>24.0</ele><time>2026-03-22T09:51:24Z</time></trkpt><trkpt lat="40.993155834091255" lon="14.231918300759256"><ele>23.5</ele><time>2026-03-22T09:51:25Z</time></trkpt><trkpt lat="40.992976379265656" lon="14.232352220561523"><ele>23.0</ele><time>2026-03-22T09:51:26Z</time></trkpt><trkpt lat="40.992805333648995" lon="14.232772321209625"><ele>23.5</ele><time>2026-03-22T09:51:27Z</time></trkpt><trkpt lat="40.992644799840434" lon="14.233175107936777"><ele>24.0</ele><time>2026-03-22T09:51:28Z</time></trkpt><trkpt lat="40.99248676826685" lon="14.233586007717141"><ele>24.0</ele><time>2026-03-22T09:51:29Z</time></trkpt><trkpt lat="40.992331024520524" lon="14.233989914347433"><ele>24.0</ele><time>2026-03-22T09:51:30Z</time></trkpt><trkpt lat="40.99218216620145" lon="14.234374723695161"><ele>24.0</ele><time>2026-03-22T09:51:31Z</time></trkpt><trkpt lat="40.99200861524749" lon="14.234797838709033"><ele>24.0</ele><time>2026-03-22T09:51:32Z</time></trkpt><trkpt lat="40.991820878118276" lon="14.235228928920064"><ele>23.5</ele><time>2026-03-22T09:51:33Z</time></trkpt><trkpt lat="40.991638365798934" lon="14.235652627380688"><ele>23.0</ele><time>2026-03-22T09:51:34Z</time></trkpt><trkpt lat="40.991468141747326" lon="14.23606167876592"><ele>22.0</ele><time>2026-03-22T09:51:35Z</time></trkpt><trkpt lat="40.991297417378014" lon="14.236481640036823"><ele>21.0</ele><time>2026-03-22T09:51:36Z</time></trkpt><trkpt lat="40.99113346621998" lon="14.236893294756745"><ele>20.5</ele><time>2026-03-22T09:51:37Z</time></trkpt><trkpt lat="40.99096520158382" lon="14.23731075670872"><ele>20.0</ele><time>2026-03-22T09:51:38Z</time></trkpt><trkpt lat="40.990801174975196" lon="14.237720688090151"><ele>20.0</ele><time>2026-03-22T09:51:39Z</time></trkpt><trkpt lat="40.990634741955326" lon="14.23813244481058"><ele>20.0</ele><time>2026-03-22T09:51:40Z</time></trkpt><trkpt lat="40.990470229012644" lon="14.238541755756003"><ele>20.5</ele><time>2026-03-22T09:51:41Z</time></trkpt><trkpt lat="40.99031259391618" lon="14.238937725494553"><ele>21.0</ele><time>2026-03-22T09:51:42Z</time></trkpt><trkpt lat="40.99015514495477" lon="14.239329391410873"><ele>20.5</ele><time>2026-03-22T09:51:43Z</time></trkpt><trkpt lat="40.99000302675059" lon="14.239713621786343"><ele>20.0</ele><time>2026-03-22T09:51:44Z</time></trkpt><trkpt lat="40.98985153816294" lon="14.240111063903717"><ele>20.0</ele><time>2026-03-22T09:51:45Z</time></trkpt><trkpt lat="40.9896979097344" lon="14.24053100463099"><ele>20.0</ele><time>2026-03-22T09:51:46Z</time></trkpt><trkpt lat="40.98953331172737" lon="14.24095364526178"><ele>20.0</ele><time>2026-03-22T09:51:47Z</time></trkpt><trkpt lat="40.9893513948458" lon="14.241387625474939"><ele>20.0</ele><time>2026-03-22T09:51:48Z</time></trkpt><trkpt lat="40.98916740634344" lon="14.241810127099685"><ele>20.0</ele><time>2026-03-22T09:51:49Z</time></trkpt><trkpt lat="40.98899525800185" lon="14.24221133590349"><ele>20.0</ele><time>2026-03-22T09:51:50Z</time></trkpt><trkpt lat="40.9888317793529" lon="14.242607430122819"><ele>20.0</ele><time>2026-03-22T09:51:51Z</time></trkpt><trkpt lat="40.98867585889192" lon="14.242999934352769"><ele>20.0</ele><time>2026-03-22T09:51:52Z</time></trkpt><trkpt lat="40.98852566041627" lon="14.243379102892876"><ele>20.5</ele><time>2026-03-22T09:51:53Z</time></trkpt><trkpt lat="40.98837396605583" lon="14.243754833679114"><ele>21.0</ele><time>2026-03-22T09:51:54Z</time></trkpt><trkpt lat="40.988224485588134" lon="14.244127669411814"><ele>21.0</ele><time>2026-03-22T09:51:55Z</time></trkpt><trkpt lat="40.98807778980966" lon="14.244486911380928"><ele>21.0</ele><time>2026-03-22T09:51:56Z</time></trkpt><trkpt lat="40.987932861207895" lon="14.24485008023682"><ele>22.0</ele><time>2026-03-22T09:51:57Z</time></trkpt><trkpt lat="40.98779166884535" lon="14.24521230288579"><ele>23.0</ele><time>2026-03-22T09:51:58Z</time></trkpt><trkpt lat="40.987646579246906" lon="14.245587150960159"><ele>23.0</ele><time>2026-03-22T09:51:59Z</time></trkpt><trkpt lat="40.98749842653208" lon="14.245974836195568"><ele>23.0</ele><time>2026-03-22T09:52:00Z</time></trkpt><trkpt lat="40.987347013199894" lon="14.246377843119177"><ele>22.5</ele><time>2026-03-22T09:52:01Z</time></trkpt><trkpt lat="40.98717682667264" lon="14.246807627002742"><ele>22.0</ele><time>2026-03-22T09:52:02Z</time></trkpt><trkpt lat="40.98699659888001" lon="14.247234084359263"><ele>22.0</ele><time>2026-03-22T09:52:03Z</time></trkpt><trkpt lat="40.986820100623" lon="14.247650872683316"><ele>22.0</ele><time>2026-03-22T09:52:04Z</time></trkpt><trkpt lat="40.9866525752966" lon="14.248051318738513"><ele>22.5</ele><time>2026-03-22T09:52:05Z</time></trkpt><trkpt lat="40.986487189103094" lon="14.248461361584088"><ele>23.0</ele><time>2026-03-22T09:52:06Z</time></trkpt><trkpt lat="40.986324190050965" lon="14.248870082341732"><ele>22.5</ele><time>2026-03-22T09:52:07Z</time></trkpt><trkpt lat="40.986168756178614" lon="14.24926412193093"><ele>22.0</ele><time>2026-03-22T09:52:07.999Z</time></trkpt><trkpt lat="40.9860103037405" lon="14.249663521450042"><ele>22.0</ele><time>2026-03-22T09:52:08.999Z</time></trkpt><trkpt lat="40.985856047762496" lon="14.250052458609687"><ele>22.0</ele><time>2026-03-22T09:52:09.999Z</time></trkpt><trkpt lat="40.98570278930935" lon="14.250450213811037"><ele>22.0</ele><time>2026-03-22T09:52:10.999Z</time></trkpt><trkpt lat="40.98554372388147" lon="14.250867506793712"><ele>22.0</ele><time>2026-03-22T09:52:11.999Z</time></trkpt><trkpt lat="40.98538807609222" lon="14.251266558674182"><ele>22.0</ele><time>2026-03-22T09:52:12.999Z</time></trkpt><trkpt lat="40.98523232341885" lon="14.251656926296974"><ele>22.0</ele><time>2026-03-22T09:52:13.999Z</time></trkpt><trkpt lat="40.985072295129804" lon="14.252049563608535"><ele>21.5</ele><time>2026-03-22T09:52:14.999Z</time></trkpt><trkpt lat="40.984921759054274" lon="14.252431655541095"><ele>21.0</ele><time>2026-03-22T09:52:15.999Z</time></trkpt><trkpt lat="40.98477872145545" lon="14.25279587078457"><ele>21.0</ele><time>2026-03-22T09:52:16.999Z</time></trkpt><trkpt lat="40.98464224828695" lon="14.253133081963457"><ele>21.0</ele><time>2026-03-22T09:52:17.999Z</time></trkpt><trkpt lat="40.984509010121975" lon="14.25346004795824"><ele>21.0</ele><time>2026-03-22T09:52:18.999Z</time></trkpt><trkpt lat="40.984371496976934" lon="14.253800551919317"><ele>21.0</ele><time>2026-03-22T09:52:19.999Z</time></trkpt><trkpt lat="40.98424034791254" lon="14.254124675624329"><ele>22.0</ele><time>2026-03-22T09:52:20.999Z</time></trkpt><trkpt lat="40.98412039221193" lon="14.254433449900226"><ele>23.0</ele><time>2026-03-22T09:52:21.999Z</time></trkpt><trkpt lat="40.984001873346784" lon="14.254729584898099"><ele>23.5</ele><time>2026-03-22T09:52:22.999Z</time></trkpt><trkpt lat="40.9838850781261" lon="14.2550203825964"><ele>24.0</ele><time>2026-03-22T09:52:23.999Z</time></trkpt><trkpt lat="40.98376932219652" lon="14.255313029079046"><ele>24.0</ele><time>2026-03-22T09:52:24.999Z</time></trkpt><trkpt lat="40.983646701359106" lon="14.25562150123656"><ele>24.0</ele><time>2026-03-22T09:52:25.999Z</time></trkpt><trkpt lat="40.983523361282465" lon="14.25594511307212"><ele>24.0</ele><time>2026-03-22T09:52:26.999Z</time></trkpt><trkpt lat="40.983395595893064" lon="14.25626977978108"><ele>24.0</ele><time>2026-03-22T09:52:27.999Z</time></trkpt><trkpt lat="40.98325465225899" lon="14.256613207191403"><ele>23.5</ele><time>2026-03-22T09:52:28.999Z</time></trkpt><trkpt lat="40.98309952972051" lon="14.256989760572786"><ele>23.0</ele><time>2026-03-22T09:52:29.999Z</time></trkpt><trkpt lat="40.98292915073363" lon="14.257406577144724"><ele>23.0</ele><time>2026-03-22T09:52:30.999Z</time></trkpt><trkpt lat="40.98275072874097" lon="14.25785112187229"><ele>23.0</ele><time>2026-03-22T09:52:31.999Z</time></trkpt><trkpt lat="40.98256450185485" lon="14.258317566197015"><ele>22.0</ele><time>2026-03-22T09:52:32.999Z</time></trkpt><trkpt lat="40.98237738052187" lon="14.258790808819397"><ele>21.0</ele><time>2026-03-22T09:52:33.999Z</time></trkpt><trkpt lat="40.98218762378757" lon="14.259265298661225"><ele>20.5</ele><time>2026-03-22T09:52:34.999Z</time></trkpt><trkpt lat="40.981995625910024" lon="14.259740671663916"><ele>20.0</ele><time>2026-03-22T09:52:35.999Z</time></trkpt><trkpt lat="40.98181281433825" lon="14.260182409336824"><ele>20.5</ele><time>2026-03-22T09:52:36.999Z</time></trkpt><trkpt lat="40.98163026153934" lon="14.260606754694402"><ele>21.0</ele><time>2026-03-22T09:52:37.999Z</time></trkpt><trkpt lat="40.98144924164801" lon="14.26101708593306"><ele>22.0</ele><time>2026-03-22T09:52:38.999Z</time></trkpt><trkpt lat="40.98128203349695" lon="14.261418178931129"><ele>23.0</ele><time>2026-03-22T09:52:39.999Z</time></trkpt><trkpt lat="40.98112272584361" lon="14.261823333698569"><ele>23.5</ele><time>2026-03-22T09:52:40.999Z</time></trkpt><trkpt lat="40.980959978351095" lon="14.262239437570102"><ele>24.0</ele><time>2026-03-22T09:52:41.999Z</time></trkpt><trkpt lat="40.98078702382871" lon="14.2626747139126"><ele>24.0</ele><time>2026-03-22T09:52:42.999Z</time></trkpt><trkpt lat="40.98061528798703" lon="14.263106577765802"><ele>24.0</ele><time>2026-03-22T09:52:43.999Z</time></trkpt><trkpt lat="40.980450068769436" lon="14.263521636804056"><ele>24.0</ele><time>2026-03-22T09:52:44.999Z</time></trkpt><trkpt lat="40.98028523876579" lon="14.263927268896834"><ele>24.0</ele><time>2026-03-22T09:52:45.999Z</time></trkpt><trkpt lat="40.98012271814122" lon="14.264330578275699"><ele>24.0</ele><time>2026-03-22T09:52:46.999Z</time></trkpt><trkpt lat="40.97996387325578" lon="14.264728478319054"><ele>24.0</ele><time>2026-03-22T09:52:47.999Z</time></trkpt><trkpt lat="40.97981347609492" lon="14.26510271124122"><ele>23.5</ele><time>2026-03-22T09:52:48.999Z</time></trkpt><trkpt lat="40.97967497913183" lon="14.265448357767644"><ele>23.0</ele><time>2026-03-22T09:52:49.999Z</time></trkpt><trkpt lat="40.979548475428246" lon="14.26578267632441"><ele>23.0</ele><time>2026-03-22T09:52:50.999Z</time></trkpt><trkpt lat="40.97941689454764" lon="14.266116330405335"><ele>23.0</ele><time>2026-03-22T09:52:51.999Z</time></trkpt><trkpt lat="40.97927501023342" lon="14.266458829292924"><ele>23.0</ele><time>2026-03-22T09:52:52.999Z</time></trkpt><trkpt lat="40.979132274824146" lon="14.26680050792926"><ele>23.0</ele><time>2026-03-22T09:52:53.999Z</time></trkpt><trkpt lat="40.97898992165285" lon="14.267141594899138"><ele>23.0</ele><time>2026-03-22T09:52:54.999Z</time></trkpt><trkpt lat="40.97885657070153" lon="14.267477919608156"><ele>23.0</ele><time>2026-03-22T09:52:55.999Z</time></trkpt><trkpt lat="40.978724075806284" lon="14.267810073120813"><ele>22.5</ele><time>2026-03-22T09:52:56.999Z</time></trkpt><trkpt lat="40.978595728684844" lon="14.268133533984045"><ele>22.0</ele><time>2026-03-22T09:52:57.999Z</time></trkpt><trkpt lat="40.97847054487535" lon="14.268448084056786"><ele>22.5</ele><time>2026-03-22T09:52:58.999Z</time></trkpt><trkpt lat="40.978342268447676" lon="14.268767870773718"><ele>23.0</ele><time>2026-03-22T09:52:59.999Z</time></trkpt><trkpt lat="40.97821248967432" lon="14.269094366626744"><ele>23.0</ele><time>2026-03-22T09:53:00.999Z</time></trkpt><trkpt lat="40.97808323074234" lon="14.269433541618103"><ele>23.0</ele><time>2026-03-22T09:53:01.999Z</time></trkpt><trkpt lat="40.97794279763053" lon="14.269811858911348"><ele>22.0</ele><time>2026-03-22T09:53:02.999Z</time></trkpt><trkpt lat="40.977785118917154" lon="14.270198783152818"><ele>21.0</ele><time>2026-03-22T09:53:03.999Z</time></trkpt><trkpt lat="40.97762620367226" lon="14.270565024244977"><ele>23.0</ele><time>2026-03-22T09:53:04.999Z</time></trkpt><trkpt lat="40.9774671270576" lon="14.270934584792288"><ele>25.0</ele><time>2026-03-22T09:53:05.999Z</time></trkpt><trkpt lat="40.97731689391718" lon="14.271300941958634"><ele>25.5</ele><time>2026-03-22T09:53:06.999Z</time></trkpt><trkpt lat="40.977172357738354" lon="14.27166618096175"><ele>26.0</ele><time>2026-03-22T09:53:07.999Z</time></trkpt><trkpt lat="40.97702060046506" lon="14.272030173635637"><ele>25.5</ele><time>2026-03-22T09:53:08.999Z</time></trkpt><trkpt lat="40.97687467411899" lon="14.27240313522931"><ele>25.0</ele><time>2026-03-22T09:53:09.999Z</time></trkpt><trkpt lat="40.976721068829804" lon="14.2727785999222"><ele>25.0</ele><time>2026-03-22T09:53:10.999Z</time></trkpt><trkpt lat="40.976573573837726" lon="14.273146719681279"><ele>25.0</ele><time>2026-03-22T09:53:11.999Z</time></trkpt><trkpt lat="40.976426037259" lon="14.273521907087364"><ele>25.0</ele><time>2026-03-22T09:53:12.999Z</time></trkpt><trkpt lat="40.976275517888865" lon="14.273893331383759"><ele>25.0</ele><time>2026-03-22T09:53:14Z</time></trkpt><trkpt lat="40.976125353465584" lon="14.27426283109937"><ele>25.0</ele><time>2026-03-22T09:53:15Z</time></trkpt><trkpt lat="40.97597665240446" lon="14.274633832866282"><ele>25.0</ele><time>2026-03-22T09:53:16Z</time></trkpt><trkpt lat="40.975833163471236" lon="14.275004935683093"><ele>25.0</ele><time>2026-03-22T09:53:17Z</time></trkpt><trkpt lat="40.97568178709931" lon="14.275381245044727"><ele>25.0</ele><time>2026-03-22T09:53:18Z</time></trkpt><trkpt lat="40.97552341819702" lon="14.27578142004178"><ele>25.0</ele><time>2026-03-22T09:53:19Z</time></trkpt><trkpt lat="40.97535774584736" lon="14.276204695710202"><ele>25.0</ele><time>2026-03-22T09:53:20Z</time></trkpt><trkpt lat="40.9751926099782" lon="14.276663716967791"><ele>24.5</ele><time>2026-03-22T09:53:21Z</time></trkpt><trkpt lat="40.975023125367365" lon="14.277151350398283"><ele>24.0</ele><time>2026-03-22T09:53:22Z</time></trkpt><trkpt lat="40.97485645798943" lon="14.277660688241916"><ele>24.0</ele><time>2026-03-22T09:53:23Z</time></trkpt><trkpt lat="40.97468815607474" lon="14.278183234928786"><ele>24.0</ele><time>2026-03-22T09:53:24Z</time></trkpt><trkpt lat="40.97453259793352" lon="14.27872712367264"><ele>23.5</ele><time>2026-03-22T09:53:25Z</time></trkpt><trkpt lat="40.97437866020349" lon="14.279284481095678"><ele>23.0</ele><time>2026-03-22T09:53:26Z</time></trkpt><trkpt lat="40.97423445022944" lon="14.279834347072477"><ele>23.5</ele><time>2026-03-22T09:53:27Z</time></trkpt><trkpt lat="40.9741241913913" lon="14.28032894779614"><ele>24.0</ele><time>2026-03-22T09:53:28Z</time></trkpt><trkpt lat="40.97402760723898" lon="14.280788514805073"><ele>24.0</ele><time>2026-03-22T09:53:29Z</time></trkpt><trkpt lat="40.973943264831114" lon="14.281232626874457"><ele>24.0</ele><time>2026-03-22T09:53:30Z</time></trkpt><trkpt lat="40.97386835952414" lon="14.281669162030393"><ele>24.0</ele><time>2026-03-22T09:53:31Z</time></trkpt><trkpt lat="40.97379967751169" lon="14.282111721818824"><ele>24.0</ele><time>2026-03-22T09:53:32Z</time></trkpt><trkpt lat="40.973726910552266" lon="14.28259108038124"><ele>24.5</ele><time>2026-03-22T09:53:33Z</time></trkpt><trkpt lat="40.97365865011093" lon="14.283092231489135"><ele>25.0</ele><time>2026-03-22T09:53:34Z</time></trkpt><trkpt lat="40.97359332331607" lon="14.283614813461654"><ele>25.0</ele><time>2026-03-22T09:53:35Z</time></trkpt><trkpt lat="40.973542412178574" lon="14.284129832004908"><ele>25.0</ele><time>2026-03-22T09:53:36Z</time></trkpt><trkpt lat="40.97350119279953" lon="14.28464413440397"><ele>25.0</ele><time>2026-03-22T09:53:37Z</time></trkpt><trkpt lat="40.9734734642382" lon="14.285141104303218"><ele>25.0</ele><time>2026-03-22T09:53:38Z</time></trkpt><trkpt lat="40.973448415692246" lon="14.285602014589342"><ele>24.0</ele><time>2026-03-22T09:53:39Z</time></trkpt><trkpt lat="40.97342920029163" lon="14.286045298816537"><ele>23.0</ele><time>2026-03-22T09:53:40Z</time></trkpt><trkpt lat="40.973415544649164" lon="14.286482886527494"><ele>23.0</ele><time>2026-03-22T09:53:41Z</time></trkpt><trkpt lat="40.97340956948422" lon="14.286899756889634"><ele>23.0</ele><time>2026-03-22T09:53:42Z</time></trkpt><trkpt lat="40.973405483836885" lon="14.287290588598898"><ele>23.5</ele><time>2026-03-22T09:53:43Z</time></trkpt><trkpt lat="40.97340988581409" lon="14.287677187507704"><ele>24.0</ele><time>2026-03-22T09:53:44Z</time></trkpt><trkpt lat="40.973414844256574" lon="14.288063842480984"><ele>25.0</ele><time>2026-03-22T09:53:45Z</time></trkpt><trkpt lat="40.973423993834345" lon="14.288468830763298"><ele>26.0</ele><time>2026-03-22T09:53:46Z</time></trkpt><trkpt lat="40.97342887715581" lon="14.288895703927412"><ele>25.5</ele><time>2026-03-22T09:53:47Z</time></trkpt><trkpt lat="40.973424481421326" lon="14.289329672833821"><ele>25.0</ele><time>2026-03-22T09:53:48Z</time></trkpt><trkpt lat="40.973420307907794" lon="14.289782715699669"><ele>25.0</ele><time>2026-03-22T09:53:49Z</time></trkpt><trkpt lat="40.97341154636238" lon="14.290243652817637"><ele>25.0</ele><time>2026-03-22T09:53:50Z</time></trkpt><trkpt lat="40.97341214006962" lon="14.290687925458926"><ele>25.0</ele><time>2026-03-22T09:53:51Z</time></trkpt><trkpt lat="40.973414839195605" lon="14.291125432182263"><ele>25.0</ele><time>2026-03-22T09:53:52Z</time></trkpt><trkpt lat="40.97341745217549" lon="14.29156388791735"><ele>25.0</ele><time>2026-03-22T09:53:53Z</time></trkpt><trkpt lat="40.97341591849147" lon="14.291969431497213"><ele>25.0</ele><time>2026-03-22T09:53:54Z</time></trkpt><trkpt lat="40.97341492856979" lon="14.292346129411602"><ele>25.0</ele><time>2026-03-22T09:53:55Z</time></trkpt><trkpt lat="40.97341447271815" lon="14.292696647101119"><ele>25.0</ele><time>2026-03-22T09:53:56Z</time></trkpt><trkpt lat="40.97341504708563" lon="14.293039113863317"><ele>25.0</ele><time>2026-03-22T09:53:57Z</time></trkpt><trkpt lat="40.97341859314135" lon="14.293389907099943"><ele>25.0</ele><time>2026-03-22T09:53:58Z</time></trkpt><trkpt lat="40.9734076773203" lon="14.293732394222301"><ele>24.5</ele><time>2026-03-22T09:53:59Z</time></trkpt><trkpt lat="40.97341155839232" lon="14.294091515812232"><ele>24.0</ele><time>2026-03-22T09:54:00Z</time></trkpt><trkpt lat="40.973413323569005" lon="14.294454497436906"><ele>24.0</ele><time>2026-03-22T09:54:01Z</time></trkpt><trkpt lat="40.973414501918484" lon="14.294820010275199"><ele>24.0</ele><time>2026-03-22T09:54:02Z</time></trkpt><trkpt lat="40.97341527042913" lon="14.295184010725277"><ele>24.0</ele><time>2026-03-22T09:54:03Z</time></trkpt><trkpt lat="40.97341249473948" lon="14.295543312793642"><ele>24.0</ele><time>2026-03-22T09:54:04Z</time></trkpt><trkpt lat="40.97340876054004" lon="14.295907691808207"><ele>23.5</ele><time>2026-03-22T09:54:05Z</time></trkpt><trkpt lat="40.973410635390785" lon="14.296268051077153"><ele>23.0</ele><time>2026-03-22T09:54:06Z</time></trkpt><trkpt lat="40.97341626328999" lon="14.296626519283326"><ele>23.0</ele><time>2026-03-22T09:54:07Z</time></trkpt><trkpt lat="40.97342092630595" lon="14.296984539127898"><ele>23.0</ele><time>2026-03-22T09:54:08Z</time></trkpt><trkpt lat="40.973425881436405" lon="14.297344300165909"><ele>23.5</ele><time>2026-03-22T09:54:09Z</time></trkpt><trkpt lat="40.973431550468135" lon="14.297706330946355"><ele>24.0</ele><time>2026-03-22T09:54:10Z</time></trkpt><trkpt lat="40.97343518697415" lon="14.298062891768094"><ele>24.0</ele><time>2026-03-22T09:54:10.999Z</time></trkpt><trkpt lat="40.97343573034622" lon="14.298430603101913"><ele>24.0</ele><time>2026-03-22T09:54:11.999Z</time></trkpt><trkpt lat="40.97343383753529" lon="14.298802031438608"><ele>24.0</ele><time>2026-03-22T09:54:12.999Z</time></trkpt><trkpt lat="40.973434328875726" lon="14.299147683174791"><ele>24.0</ele><time>2026-03-22T09:54:13.999Z</time></trkpt><trkpt lat="40.973435180076336" lon="14.299487951789029"><ele>23.5</ele><time>2026-03-22T09:54:14.999Z</time></trkpt><trkpt lat="40.973437808485244" lon="14.299837614158319"><ele>23.0</ele><time>2026-03-22T09:54:15.999Z</time></trkpt><trkpt lat="40.973444997023236" lon="14.300194952056597"><ele>23.0</ele><time>2026-03-22T09:54:16.999Z</time></trkpt><trkpt lat="40.973454013120254" lon="14.300556105110097"><ele>23.0</ele><time>2026-03-22T09:54:17.999Z</time></trkpt><trkpt lat="40.97345738908601" lon="14.300932972601615"><ele>23.0</ele><time>2026-03-22T09:54:18.999Z</time></trkpt><trkpt lat="40.97345335313308" lon="14.301344306290392"><ele>23.0</ele><time>2026-03-22T09:54:19.999Z</time></trkpt><trkpt lat="40.97344559102849" lon="14.30178734583272"><ele>24.0</ele><time>2026-03-22T09:54:20.999Z</time></trkpt><trkpt lat="40.97344216145009" lon="14.302267377576788"><ele>25.0</ele><time>2026-03-22T09:54:21.999Z</time></trkpt><trkpt lat="40.97344199884836" lon="14.302770789853943"><ele>24.5</ele><time>2026-03-22T09:54:22.999Z</time></trkpt><trkpt lat="40.97344402952986" lon="14.303266203731178"><ele>24.0</ele><time>2026-03-22T09:54:23.999Z</time></trkpt><trkpt lat="40.97344559243778" lon="14.303751379123456"><ele>24.0</ele><time>2026-03-22T09:54:24.999Z</time></trkpt><trkpt lat="40.97344640206564" lon="14.304250516569715"><ele>24.0</ele><time>2026-03-22T09:54:25.999Z</time></trkpt><trkpt lat="40.97344660961781" lon="14.3047645964837"><ele>23.5</ele><time>2026-03-22T09:54:26.999Z</time></trkpt><trkpt lat="40.97344658502529" lon="14.305316000403252"><ele>23.0</ele><time>2026-03-22T09:54:27.999Z</time></trkpt><trkpt lat="40.97344764889209" lon="14.305874854502402"><ele>22.5</ele><time>2026-03-22T09:54:28.999Z</time></trkpt><trkpt lat="40.973451248343025" lon="14.306403385118697"><ele>22.0</ele><time>2026-03-22T09:54:29.999Z</time></trkpt><trkpt lat="40.9734567620329" lon="14.306931098140623"><ele>22.0</ele><time>2026-03-22T09:54:30.999Z</time></trkpt><trkpt lat="40.973458613378334" lon="14.30746719872261"><ele>22.0</ele><time>2026-03-22T09:54:31.999Z</time></trkpt><trkpt lat="40.973459373057146" lon="14.308020123559606"><ele>22.0</ele><time>2026-03-22T09:54:32.999Z</time></trkpt><trkpt lat="40.97345725449394" lon="14.308596539391036"><ele>22.0</ele><time>2026-03-22T09:54:33.999Z</time></trkpt><trkpt lat="40.973456576178464" lon="14.309158941832088"><ele>22.0</ele><time>2026-03-22T09:54:34.999Z</time></trkpt><trkpt lat="40.973455160887745" lon="14.309665196400857"><ele>22.0</ele><time>2026-03-22T09:54:35.999Z</time></trkpt><trkpt lat="40.97345557541473" lon="14.310137609291075"><ele>23.0</ele><time>2026-03-22T09:54:36.999Z</time></trkpt><trkpt lat="40.97345710951484" lon="14.31058221981181"><ele>24.0</ele><time>2026-03-22T09:54:37.999Z</time></trkpt><trkpt lat="40.973454724686015" lon="14.311027956744068"><ele>23.0</ele><time>2026-03-22T09:54:38.999Z</time></trkpt><trkpt lat="40.973452357704296" lon="14.31147207744966"><ele>22.0</ele><time>2026-03-22T09:54:39.999Z</time></trkpt><trkpt lat="40.973456672289714" lon="14.311910551652533"><ele>22.0</ele><time>2026-03-22T09:54:40.999Z</time></trkpt><trkpt lat="40.97346081010415" lon="14.312309314547946"><ele>22.0</ele><time>2026-03-22T09:54:41.999Z</time></trkpt><trkpt lat="40.973464045605205" lon="14.312685145668661"><ele>22.0</ele><time>2026-03-22T09:54:42.999Z</time></trkpt><trkpt lat="40.97346269216107" lon="14.313044644197179"><ele>22.0</ele><time>2026-03-22T09:54:43.999Z</time></trkpt><trkpt lat="40.9734654070862" lon="14.313377245377344"><ele>21.5</ele><time>2026-03-22T09:54:44.999Z</time></trkpt><trkpt lat="40.97346593810737" lon="14.313714900386218"><ele>21.0</ele><time>2026-03-22T09:54:45.999Z</time></trkpt><trkpt lat="40.973468989952835" lon="14.314054469856101"><ele>21.0</ele><time>2026-03-22T09:54:46.999Z</time></trkpt><trkpt lat="40.97347348734591" lon="14.314392168290992"><ele>21.0</ele><time>2026-03-22T09:54:47.999Z</time></trkpt><trkpt lat="40.97347897370311" lon="14.31471356234911"><ele>21.5</ele><time>2026-03-22T09:54:48.999Z</time></trkpt><trkpt lat="40.97348526204797" lon="14.315037495544875"><ele>22.0</ele><time>2026-03-22T09:54:49.999Z</time></trkpt><trkpt lat="40.97348803436195" lon="14.315369713629481"><ele>22.0</ele><time>2026-03-22T09:54:50.999Z</time></trkpt><trkpt lat="40.97348792679718" lon="14.315751269830002"><ele>22.0</ele><time>2026-03-22T09:54:51.999Z</time></trkpt><trkpt lat="40.97348151666336" lon="14.316189154338177"><ele>21.0</ele><time>2026-03-22T09:54:52.999Z</time></trkpt><trkpt lat="40.97347188837373" lon="14.316629406926495"><ele>20.0</ele><time>2026-03-22T09:54:53.999Z</time></trkpt><trkpt lat="40.97346326282785" lon="14.317038466677175"><ele>21.0</ele><time>2026-03-22T09:54:54.999Z</time></trkpt><trkpt lat="40.97345987021273" lon="14.317413053663573"><ele>22.0</ele><time>2026-03-22T09:54:55.999Z</time></trkpt><trkpt lat="40.97345638921537" lon="14.31776092438035"><ele>21.5</ele><time>2026-03-22T09:54:56.999Z</time></trkpt><trkpt lat="40.97345618225528" lon="14.318092658677864"><ele>21.0</ele><time>2026-03-22T09:54:57.999Z</time></trkpt><trkpt lat="40.97345488119501" lon="14.31841414526599"><ele>21.0</ele><time>2026-03-22T09:54:58.999Z</time></trkpt><trkpt lat="40.97345589660207" lon="14.318711555517346"><ele>21.0</ele><time>2026-03-22T09:54:59.999Z</time></trkpt><trkpt lat="40.97344974606115" lon="14.318986501096598"><ele>21.0</ele><time>2026-03-22T09:55:00.999Z</time></trkpt><trkpt lat="40.97343900100316" lon="14.31924820084416"><ele>20.666666666666668</ele><time>2026-03-22T09:55:01.999Z</time></trkpt><trkpt lat="40.973432860614174" lon="14.319497695769607"><ele>20.333333333333336</ele><time>2026-03-22T09:55:02.999Z</time></trkpt><trkpt lat="40.97342996751835" lon="14.319725860266999"><ele>20.0</ele><time>2026-03-22T09:55:03.999Z</time></trkpt><trkpt lat="40.973428758144884" lon="14.319942315223997"><ele>20.0</ele><time>2026-03-22T09:55:04.999Z</time></trkpt><trkpt lat="40.97342486314821" lon="14.320143877429429"><ele>20.0</ele><time>2026-03-22T09:55:05.999Z</time></trkpt><trkpt lat="40.9734118059877" lon="14.32033087462467"><ele>20.0</ele><time>2026-03-22T09:55:06.999Z</time></trkpt><trkpt lat="40.97337737027029" lon="14.320494974910588"><ele>20.0</ele><time>2026-03-22T09:55:07.999Z</time></trkpt><trkpt lat="40.97334010304339" lon="14.320646989832527"><ele>20.0</ele><time>2026-03-22T09:55:08.999Z</time></trkpt><trkpt lat="40.97329444594683" lon="14.320783714026527"><ele>20.0</ele><time>2026-03-22T09:55:09.999Z</time></trkpt><trkpt lat="40.97323677724242" lon="14.32091501692548"><ele>20.0</ele><time>2026-03-22T09:55:10.999Z</time></trkpt><trkpt lat="40.973155423291786" lon="14.321043912173701"><ele>20.0</ele><time>2026-03-22T09:55:11.999Z</time></trkpt><trkpt lat="40.97304586717829" lon="14.321200689667695"><ele>20.0</ele><time>2026-03-22T09:55:12.999Z</time></trkpt><trkpt lat="40.97292990472698" lon="14.321373692166151"><ele>20.0</ele><time>2026-03-22T09:55:13.999Z</time></trkpt><trkpt lat="40.972787702410535" lon="14.321596002838888"><ele>20.0</ele><time>2026-03-22T09:55:14.999Z</time></trkpt><trkpt lat="40.97262270958178" lon="14.321751991596757"><ele>20.666666666666668</ele><time>2026-03-22T09:55:15.999Z</time></trkpt><trkpt lat="40.972518902276704" lon="14.321925498292522"><ele>21.333333333333332</ele><time>2026-03-22T09:55:16.999Z</time></trkpt><trkpt lat="40.97239882595365" lon="14.322073332085582"><ele>22.0</ele><time>2026-03-22T09:55:17.999Z</time></trkpt><trkpt lat="40.972278953123464" lon="14.32222369653362"><ele>22.0</ele><time>2026-03-22T09:55:18.999Z</time></trkpt><trkpt lat="40.97217598517066" lon="14.32238325958244"><ele>22.0</ele><time>2026-03-22T09:55:20Z</time></trkpt><trkpt lat="40.97206314624004" lon="14.322525322817558"><ele>22.0</ele><time>2026-03-22T09:55:21Z</time></trkpt><trkpt lat="40.97201167716379" lon="14.32272748341616"><ele>22.0</ele><time>2026-03-22T09:55:22Z</time></trkpt><trkpt lat="40.971991746634316" lon="14.3229423054598"><ele>22.0</ele><time>2026-03-22T09:55:23Z</time></trkpt><trkpt lat="40.97201549904243" lon="14.323158548842436"><ele>22.0</ele><time>2026-03-22T09:55:24Z</time></trkpt><trkpt lat="40.972072448504115" lon="14.323348444623447"><ele>21.333333333333332</ele><time>2026-03-22T09:55:25Z</time></trkpt><trkpt lat="40.97216286458181" lon="14.323528122725639"><ele>20.666666666666668</ele><time>2026-03-22T09:55:26Z</time></trkpt><trkpt lat="40.97229477607116" lon="14.323670773912292"><ele>20.0</ele><time>2026-03-22T09:55:27Z</time></trkpt><trkpt lat="40.97243591794232" lon="14.323798485031217"><ele>20.666666666666668</ele><time>2026-03-22T09:55:28Z</time></trkpt><trkpt lat="40.972581467524975" lon="14.32387041618528"><ele>21.333333333333332</ele><time>2026-03-22T09:55:29Z</time></trkpt><trkpt lat="40.97274989027701" lon="14.323897337820963"><ele>22.0</ele><time>2026-03-22T09:55:30Z</time></trkpt><trkpt lat="40.972955381891786" lon="14.323884569678302"><ele>22.5</ele><time>2026-03-22T09:55:31Z</time></trkpt><trkpt lat="40.973204879938415" lon="14.323839718157204"><ele>23.0</ele><time>2026-03-22T09:55:32Z</time></trkpt><trkpt lat="40.97348904670058" lon="14.323837279734638"><ele>22.0</ele><time>2026-03-22T09:55:33Z</time></trkpt><trkpt lat="40.97375177700568" lon="14.323834270866303"><ele>21.0</ele><time>2026-03-22T09:55:34Z</time></trkpt><trkpt lat="40.973979569621115" lon="14.323819370816572"><ele>21.0</ele><time>2026-03-22T09:55:35Z</time></trkpt><trkpt lat="40.97418233159196" lon="14.323846562440373"><ele>21.0</ele><time>2026-03-22T09:55:36Z</time></trkpt><trkpt lat="40.97437190433181" lon="14.323858094266058"><ele>21.0</ele><time>2026-03-22T09:55:37Z</time></trkpt><trkpt lat="40.97455176739853" lon="14.32386407544469"><ele>21.0</ele><time>2026-03-22T09:55:38Z</time></trkpt><trkpt lat="40.9747115031744" lon="14.323896091578534"><ele>21.0</ele><time>2026-03-22T09:55:39Z</time></trkpt><trkpt lat="40.974836686149914" lon="14.323997474224706"><ele>21.0</ele><time>2026-03-22T09:55:40Z</time></trkpt><trkpt lat="40.97494818867096" lon="14.324106310257296"><ele>21.0</ele><time>2026-03-22T09:55:41Z</time></trkpt><trkpt lat="40.975046957599794" lon="14.324227643883958"><ele>21.0</ele><time>2026-03-22T09:55:42Z</time></trkpt><trkpt lat="40.97513634762318" lon="14.324385168052125"><ele>21.0</ele><time>2026-03-22T09:55:43Z</time></trkpt><trkpt lat="40.97521001524871" lon="14.324570095629191"><ele>21.0</ele><time>2026-03-22T09:55:44Z</time></trkpt><trkpt lat="40.97525789800393" lon="14.324744268246045"><ele>21.0</ele><time>2026-03-22T09:55:45Z</time></trkpt><trkpt lat="40.97527843689779" lon="14.324913470377199"><ele>20.75</ele><time>2026-03-22T09:55:46Z</time></trkpt><trkpt lat="40.975280024656456" lon="14.325088224788379"><ele>20.5</ele><time>2026-03-22T09:55:47Z</time></trkpt><trkpt lat="40.97526124420022" lon="14.325259713210011"><ele>20.25</ele><time>2026-03-22T09:55:48Z</time></trkpt><trkpt lat="40.97522383167056" lon="14.32541418350701"><ele>20.0</ele><time>2026-03-22T09:55:49Z</time></trkpt><trkpt lat="40.975171882047114" lon="14.32555673637759"><ele>19.75</ele><time>2026-03-22T09:55:50Z</time></trkpt><trkpt lat="40.97512158024966" lon="14.325691537475361"><ele>19.5</ele><time>2026-03-22T09:55:51Z</time></trkpt><trkpt lat="40.975041906481025" lon="14.325806704829064"><ele>19.25</ele><time>2026-03-22T09:55:52Z</time></trkpt><trkpt lat="40.974959474420416" lon="14.325903163471597"><ele>19.0</ele><time>2026-03-22T09:55:53Z</time></trkpt><trkpt lat="40.9748688467584" lon="14.325983186368218"><ele>19.5</ele><time>2026-03-22T09:55:54Z</time></trkpt><trkpt lat="40.97475958667647" lon="14.32602935861154"><ele>20.0</ele><time>2026-03-22T09:55:55Z</time></trkpt><trkpt lat="40.974659600364454" lon="14.3260993779614"><ele>20.5</ele><time>2026-03-22T09:55:56Z</time></trkpt><trkpt lat="40.97454090182632" lon="14.326134118964255"><ele>21.0</ele><time>2026-03-22T09:55:57Z</time></trkpt><trkpt lat="40.97440926039968" lon="14.32615653549295"><ele>21.0</ele><time>2026-03-22T09:55:58Z</time></trkpt><trkpt lat="40.97426265378016" lon="14.326168616296592"><ele>21.0</ele><time>2026-03-22T09:55:59Z</time></trkpt><trkpt lat="40.97406905457062" lon="14.326192114796653"><ele>21.0</ele><time>2026-03-22T09:56:00Z</time></trkpt><trkpt lat="40.97381207287114" lon="14.326227441563713"><ele>21.0</ele><time>2026-03-22T09:56:01Z</time></trkpt><trkpt lat="40.97354305530131" lon="14.326278582075226"><ele>21.0</ele><time>2026-03-22T09:56:02Z</time></trkpt><trkpt lat="40.97323879801399" lon="14.326331283118797"><ele>22.0</ele><time>2026-03-22T09:56:03Z</time></trkpt><trkpt lat="40.97289759655914" lon="14.32636452656964"><ele>23.0</ele><time>2026-03-22T09:56:03.999Z</time></trkpt><trkpt lat="40.9725236526579" lon="14.326381074389401"><ele>22.5</ele><time>2026-03-22T09:56:04.999Z</time></trkpt><trkpt lat="40.97212108854303" lon="14.326413006529231"><ele>22.0</ele><time>2026-03-22T09:56:05.999Z</time></trkpt><trkpt lat="40.97170775144555" lon="14.326448386031807"><ele>22.0</ele><time>2026-03-22T09:56:06.999Z</time></trkpt><trkpt lat="40.97128794704187" lon="14.326487849081477"><ele>22.0</ele><time>2026-03-22T09:56:07.999Z</time></trkpt><trkpt lat="40.97085523910937" lon="14.326535240743777"><ele>21.0</ele><time>2026-03-22T09:56:08.999Z</time></trkpt><trkpt lat="40.9704051867403" lon="14.326576938092181"><ele>20.0</ele><time>2026-03-22T09:56:09.999Z</time></trkpt><trkpt lat="40.96995364108204" lon="14.326618332369668"><ele>20.0</ele><time>2026-03-22T09:56:10.999Z</time></trkpt><trkpt lat="40.96950405336486" lon="14.326663210741302"><ele>20.0</ele><time>2026-03-22T09:56:11.999Z</time></trkpt><trkpt lat="40.96903866892377" lon="14.326708597556959"><ele>20.0</ele><time>2026-03-22T09:56:12.999Z</time></trkpt><trkpt lat="40.96857328572154" lon="14.326758722123692"><ele>21.0</ele><time>2026-03-22T09:56:13.999Z</time></trkpt><trkpt lat="40.96812079931496" lon="14.326809554822097"><ele>21.0</ele><time>2026-03-22T09:56:14.999Z</time></trkpt><trkpt lat="40.96772203025112" lon="14.326856927920007"><ele>21.0</ele><time>2026-03-22T09:56:15.999Z</time></trkpt><trkpt lat="40.96735072065715" lon="14.326897774490522"><ele>21.5</ele><time>2026-03-22T09:56:16.999Z</time></trkpt><trkpt lat="40.966973217748006" lon="14.326930993906412"><ele>22.0</ele><time>2026-03-22T09:56:17.999Z</time></trkpt><trkpt lat="40.96658606428483" lon="14.326964446701156"><ele>22.0</ele><time>2026-03-22T09:56:18.999Z</time></trkpt><trkpt lat="40.96617322832539" lon="14.327002866691586"><ele>22.0</ele><time>2026-03-22T09:56:19.999Z</time></trkpt><trkpt lat="40.96574572889082" lon="14.327039249063814"><ele>22.0</ele><time>2026-03-22T09:56:20.999Z</time></trkpt><trkpt lat="40.96531503302131" lon="14.327071518041233"><ele>22.0</ele><time>2026-03-22T09:56:21.999Z</time></trkpt><trkpt lat="40.96486959580931" lon="14.327106896639604"><ele>21.5</ele><time>2026-03-22T09:56:22.999Z</time></trkpt><trkpt lat="40.96443021625786" lon="14.327151673240454"><ele>21.0</ele><time>2026-03-22T09:56:23.999Z</time></trkpt><trkpt lat="40.96397922120375" lon="14.327201080738122"><ele>21.5</ele><time>2026-03-22T09:56:24.999Z</time></trkpt><trkpt lat="40.96354923861555" lon="14.327247065602819"><ele>22.0</ele><time>2026-03-22T09:56:25.999Z</time></trkpt><trkpt lat="40.96315881752656" lon="14.327285132241986"><ele>22.0</ele><time>2026-03-22T09:56:26.999Z</time></trkpt><trkpt lat="40.9627990830098" lon="14.32731380381699"><ele>22.0</ele><time>2026-03-22T09:56:27.999Z</time></trkpt><trkpt lat="40.96246407833386" lon="14.327340572804205"><ele>22.0</ele><time>2026-03-22T09:56:28.999Z</time></trkpt><trkpt lat="40.96213967759784" lon="14.327371780583213"><ele>22.0</ele><time>2026-03-22T09:56:29.999Z</time></trkpt><trkpt lat="40.96180633256209" lon="14.327404892005136"><ele>21.5</ele><time>2026-03-22T09:56:30.999Z</time></trkpt><trkpt lat="40.96147790074741" lon="14.327437483373943"><ele>21.0</ele><time>2026-03-22T09:56:31.999Z</time></trkpt><trkpt lat="40.96114492374156" lon="14.327474373767073"><ele>21.5</ele><time>2026-03-22T09:56:32.999Z</time></trkpt><trkpt lat="40.960802950483966" lon="14.327513733684823"><ele>22.0</ele><time>2026-03-22T09:56:33.999Z</time></trkpt><trkpt lat="40.96046579096354" lon="14.327547871408834"><ele>22.0</ele><time>2026-03-22T09:56:34.999Z</time></trkpt><trkpt lat="40.960115904052984" lon="14.327578030992985"><ele>22.0</ele><time>2026-03-22T09:56:35.999Z</time></trkpt><trkpt lat="40.95977135465456" lon="14.327598023481181"><ele>22.0</ele><time>2026-03-22T09:56:36.999Z</time></trkpt><trkpt lat="40.95942253845137" lon="14.327640529291905"><ele>22.0</ele><time>2026-03-22T09:56:37.999Z</time></trkpt><trkpt lat="40.95907397418765" lon="14.327684591734936"><ele>22.0</ele><time>2026-03-22T09:56:38.999Z</time></trkpt><trkpt lat="40.95870908268381" lon="14.327720880978722"><ele>22.0</ele><time>2026-03-22T09:56:39.999Z</time></trkpt><trkpt lat="40.95835131070099" lon="14.327747066900308"><ele>22.5</ele><time>2026-03-22T09:56:40.999Z</time></trkpt><trkpt lat="40.957988413861" lon="14.327755131633225"><ele>23.0</ele><time>2026-03-22T09:56:41.999Z</time></trkpt><trkpt lat="40.95763619720508" lon="14.32774818263879"><ele>22.5</ele><time>2026-03-22T09:56:42.999Z</time></trkpt><trkpt lat="40.957286065658344" lon="14.327735536955313"><ele>22.0</ele><time>2026-03-22T09:56:43.999Z</time></trkpt><trkpt lat="40.95694513611741" lon="14.327724031939185"><ele>22.0</ele><time>2026-03-22T09:56:44.999Z</time></trkpt><trkpt lat="40.95661819397654" lon="14.32771103844458"><ele>22.0</ele><time>2026-03-22T09:56:45.999Z</time></trkpt><trkpt lat="40.95629663048961" lon="14.327681013389142"><ele>22.0</ele><time>2026-03-22T09:56:46.999Z</time></trkpt><trkpt lat="40.95597949029738" lon="14.327647354478358"><ele>22.0</ele><time>2026-03-22T09:56:47.999Z</time></trkpt><trkpt lat="40.95566612318114" lon="14.32761259039412"><ele>22.5</ele><time>2026-03-22T09:56:48.999Z</time></trkpt><trkpt lat="40.95534946909313" lon="14.327579503078843"><ele>23.0</ele><time>2026-03-22T09:56:49.999Z</time></trkpt><trkpt lat="40.95503384336311" lon="14.32753951599797"><ele>23.0</ele><time>2026-03-22T09:56:50.999Z</time></trkpt><trkpt lat="40.95471360573505" lon="14.32749025947634"><ele>23.0</ele><time>2026-03-22T09:56:51.999Z</time></trkpt><trkpt lat="40.95439436176118" lon="14.327438035417954"><ele>22.5</ele><time>2026-03-22T09:56:52.999Z</time></trkpt><trkpt lat="40.95407218923163" lon="14.327386473171938"><ele>22.0</ele><time>2026-03-22T09:56:53.999Z</time></trkpt><trkpt lat="40.95374840641319" lon="14.327334984256861"><ele>22.0</ele><time>2026-03-22T09:56:54.999Z</time></trkpt><trkpt lat="40.95342333453696" lon="14.327284656866077"><ele>22.0</ele><time>2026-03-22T09:56:55.999Z</time></trkpt><trkpt lat="40.95309880913153" lon="14.32723597755242"><ele>22.0</ele><time>2026-03-22T09:56:56.999Z</time></trkpt><trkpt lat="40.952771123103446" lon="14.327185899576932"><ele>22.0</ele><time>2026-03-22T09:56:57.999Z</time></trkpt><trkpt lat="40.95244069133936" lon="14.327135148591733"><ele>22.0</ele><time>2026-03-22T09:56:58.999Z</time></trkpt><trkpt lat="40.95211259465365" lon="14.327084215887975"><ele>22.0</ele><time>2026-03-22T09:56:59.999Z</time></trkpt><trkpt lat="40.95178060867644" lon="14.327031357284804"><ele>22.0</ele><time>2026-03-22T09:57:00.999Z</time></trkpt><trkpt lat="40.95145250594929" lon="14.32698139906375"><ele>22.0</ele><time>2026-03-22T09:57:01.999Z</time></trkpt><trkpt lat="40.95111724675683" lon="14.326930647895614"><ele>22.0</ele><time>2026-03-22T09:57:02.999Z</time></trkpt><trkpt lat="40.95078412016913" lon="14.326877462921548"><ele>22.0</ele><time>2026-03-22T09:57:03.999Z</time></trkpt><trkpt lat="40.95044505364341" lon="14.32682280480945"><ele>22.0</ele><time>2026-03-22T09:57:04.999Z</time></trkpt><trkpt lat="40.95010617986083" lon="14.326770578759376"><ele>22.0</ele><time>2026-03-22T09:57:05.999Z</time></trkpt><trkpt lat="40.94977029981613" lon="14.326720946418043"><ele>22.0</ele><time>2026-03-22T09:57:06.999Z</time></trkpt><trkpt lat="40.949430924661954" lon="14.326672683678092"><ele>22.0</ele><time>2026-03-22T09:57:07.999Z</time></trkpt><trkpt lat="40.949091916547516" lon="14.326624759312756"><ele>22.5</ele><time>2026-03-22T09:57:08.999Z</time></trkpt><trkpt lat="40.94874959430694" lon="14.326572216399592"><ele>23.0</ele><time>2026-03-22T09:57:09.999Z</time></trkpt><trkpt lat="40.948412551007564" lon="14.32651805174608"><ele>23.0</ele><time>2026-03-22T09:57:10.999Z</time></trkpt><trkpt lat="40.948082281421925" lon="14.326464546788092"><ele>23.0</ele><time>2026-03-22T09:57:11.999Z</time></trkpt><trkpt lat="40.947756944515696" lon="14.326414741190412"><ele>23.5</ele><time>2026-03-22T09:57:12.999Z</time></trkpt><trkpt lat="40.947434475100735" lon="14.326366865153343"><ele>24.0</ele><time>2026-03-22T09:57:13.999Z</time></trkpt><trkpt lat="40.94711361214158" lon="14.32631971675776"><ele>24.0</ele><time>2026-03-22T09:57:14.999Z</time></trkpt><trkpt lat="40.94680584028761" lon="14.326274967687072"><ele>24.0</ele><time>2026-03-22T09:57:15.999Z</time></trkpt><trkpt lat="40.94649426699423" lon="14.326228460555015"><ele>23.5</ele><time>2026-03-22T09:57:16.999Z</time></trkpt><trkpt lat="40.94619140857258" lon="14.326185819910924"><ele>23.0</ele><time>2026-03-22T09:57:17.999Z</time></trkpt><trkpt lat="40.9458824213134" lon="14.32613818608588"><ele>23.0</ele><time>2026-03-22T09:57:18.999Z</time></trkpt><trkpt lat="40.94557578631894" lon="14.326089550145648"><ele>23.0</ele><time>2026-03-22T09:57:19.999Z</time></trkpt><trkpt lat="40.94526807112385" lon="14.326040077801236"><ele>23.5</ele><time>2026-03-22T09:57:20.999Z</time></trkpt><trkpt lat="40.944969273223876" lon="14.325993544390428"><ele>24.0</ele><time>2026-03-22T09:57:21.999Z</time></trkpt><trkpt lat="40.94467707253316" lon="14.325945885310924"><ele>24.0</ele><time>2026-03-22T09:57:22.999Z</time></trkpt><trkpt lat="40.94439045384802" lon="14.325899839812053"><ele>24.0</ele><time>2026-03-22T09:57:23.999Z</time></trkpt><trkpt lat="40.94410040016824" lon="14.325850978074449"><ele>24.0</ele><time>2026-03-22T09:57:24.999Z</time></trkpt><trkpt lat="40.94381325652942" lon="14.325804676515734"><ele>24.0</ele><time>2026-03-22T09:57:26Z</time></trkpt><trkpt lat="40.94352365092652" lon="14.325760937354977"><ele>24.0</ele><time>2026-03-22T09:57:27Z</time></trkpt><trkpt lat="40.94323392271513" lon="14.325718953824152"><ele>24.0</ele><time>2026-03-22T09:57:28Z</time></trkpt><trkpt lat="40.942943762837515" lon="14.325677379530626"><ele>24.0</ele><time>2026-03-22T09:57:29Z</time></trkpt><trkpt lat="40.9426525079248" lon="14.325632916611902"><ele>24.0</ele><time>2026-03-22T09:57:30Z</time></trkpt><trkpt lat="40.942362708946206" lon="14.325588647878861"><ele>23.5</ele><time>2026-03-22T09:57:31Z</time></trkpt><trkpt lat="40.94207049098784" lon="14.325542677887311"><ele>23.0</ele><time>2026-03-22T09:57:32Z</time></trkpt><trkpt lat="40.94178527278195" lon="14.325498597329187"><ele>23.0</ele><time>2026-03-22T09:57:33Z</time></trkpt><trkpt lat="40.941499675396955" lon="14.325453449178921"><ele>23.0</ele><time>2026-03-22T09:57:34Z</time></trkpt><trkpt lat="40.94122818183752" lon="14.325410167324934"><ele>23.0</ele><time>2026-03-22T09:57:35Z</time></trkpt><trkpt lat="40.940951652923275" lon="14.325371004793586"><ele>23.0</ele><time>2026-03-22T09:57:36Z</time></trkpt><trkpt lat="40.94067808275538" lon="14.325331868964243"><ele>24.0</ele><time>2026-03-22T09:57:37Z</time></trkpt><trkpt lat="40.94041169438091" lon="14.325288777766442"><ele>25.0</ele><time>2026-03-22T09:57:38Z</time></trkpt><trkpt lat="40.94014486734537" lon="14.325242587632403"><ele>24.5</ele><time>2026-03-22T09:57:39Z</time></trkpt><trkpt lat="40.93987596161088" lon="14.325196803150572"><ele>24.0</ele><time>2026-03-22T09:57:40Z</time></trkpt><trkpt lat="40.93960704549597" lon="14.32515454309517"><ele>24.0</ele><time>2026-03-22T09:57:41Z</time></trkpt><trkpt lat="40.93936074988557" lon="14.3251132927928"><ele>24.0</ele><time>2026-03-22T09:57:42Z</time></trkpt><trkpt lat="40.93913467179345" lon="14.325072929094894"><ele>25.0</ele><time>2026-03-22T09:57:43Z</time></trkpt><trkpt lat="40.938907935436184" lon="14.325036524528862"><ele>26.0</ele><time>2026-03-22T09:57:44Z</time></trkpt><trkpt lat="40.938680899920286" lon="14.32500383959536"><ele>26.0</ele><time>2026-03-22T09:57:45Z</time></trkpt><trkpt lat="40.93845034269844" lon="14.324970916941467"><ele>26.0</ele><time>2026-03-22T09:57:46Z</time></trkpt><trkpt lat="40.93820928947534" lon="14.324938690095571"><ele>26.666666666666664</ele><time>2026-03-22T09:57:47Z</time></trkpt><trkpt lat="40.938001002332946" lon="14.324900421810698"><ele>27.333333333333336</ele><time>2026-03-22T09:57:48Z</time></trkpt><trkpt lat="40.937780097355166" lon="14.324867103408923"><ele>28.0</ele><time>2026-03-22T09:57:49Z</time></trkpt><trkpt lat="40.93756676035521" lon="14.324835603423463"><ele>27.0</ele><time>2026-03-22T09:57:50Z</time></trkpt><trkpt lat="40.93735693238362" lon="14.324801954798044"><ele>26.0</ele><time>2026-03-22T09:57:51Z</time></trkpt><trkpt lat="40.93714492447304" lon="14.32477158300388"><ele>25.0</ele><time>2026-03-22T09:57:52Z</time></trkpt><trkpt lat="40.93692715540001" lon="14.324739119599585"><ele>25.333333333333336</ele><time>2026-03-22T09:57:53Z</time></trkpt><trkpt lat="40.936710130283906" lon="14.324701185334497"><ele>25.666666666666664</ele><time>2026-03-22T09:57:54Z</time></trkpt><trkpt lat="40.93649475985889" lon="14.32465460526674"><ele>26.0</ele><time>2026-03-22T09:57:55Z</time></trkpt><trkpt lat="40.93628345741523" lon="14.324604243671129"><ele>26.0</ele><time>2026-03-22T09:57:56Z</time></trkpt><trkpt lat="40.93609886075216" lon="14.324556953943445"><ele>26.0</ele><time>2026-03-22T09:57:57Z</time></trkpt><trkpt lat="40.93592227164687" lon="14.324528892707669"><ele>26.0</ele><time>2026-03-22T09:57:58Z</time></trkpt><trkpt lat="40.93575793357293" lon="14.324505589390727"><ele>25.5</ele><time>2026-03-22T09:57:59Z</time></trkpt><trkpt lat="40.93560496438293" lon="14.324480271129056"><ele>25.0</ele><time>2026-03-22T09:58:00Z</time></trkpt><trkpt lat="40.93546191833095" lon="14.324452738958012"><ele>24.5</ele><time>2026-03-22T09:58:01Z</time></trkpt><trkpt lat="40.93533234113328" lon="14.324424405565951"><ele>24.0</ele><time>2026-03-22T09:58:02Z</time></trkpt><trkpt lat="40.93520915338788" lon="14.324406220264708"><ele>24.0</ele><time>2026-03-22T09:58:03Z</time></trkpt><trkpt lat="40.93509314556497" lon="14.324385118494604"><ele>24.0</ele><time>2026-03-22T09:58:04Z</time></trkpt><trkpt lat="40.93498135336776" lon="14.324367043673274"><ele>24.0</ele><time>2026-03-22T09:58:05Z</time></trkpt><trkpt lat="40.93487689197632" lon="14.324350097029194"><ele>24.0</ele><time>2026-03-22T09:58:06Z</time></trkpt><trkpt lat="40.934778834365204" lon="14.324334761399832"><ele>24.0</ele><time>2026-03-22T09:58:07Z</time></trkpt><trkpt lat="40.93468563692082" lon="14.324317747218368"><ele>24.166666666666668</ele><time>2026-03-22T09:58:08Z</time></trkpt><trkpt lat="40.93459596159006" lon="14.324301361468128"><ele>24.333333333333336</ele><time>2026-03-22T09:58:09Z</time></trkpt><trkpt lat="40.93451392604454" lon="14.324286407212892"><ele>24.5</ele><time>2026-03-22T09:58:10Z</time></trkpt><trkpt lat="40.93444570728312" lon="14.324272473556176"><ele>24.666666666666668</ele><time>2026-03-22T09:58:11Z</time></trkpt><trkpt lat="40.934364350697805" lon="14.32425430088715"><ele>24.833333333333336</ele><time>2026-03-22T09:58:12.999Z</time></trkpt><trkpt lat="40.934271367069776" lon="14.324260929446634"><ele>25.0</ele><time>2026-03-22T09:58:32.999Z</time></trkpt><trkpt lat="40.934193961185905" lon="14.32424424675052"><ele>25.0</ele><time>2026-03-22T09:58:33.999Z</time></trkpt><trkpt lat="40.93408693004357" lon="14.324233264622395"><ele>25.0</ele><time>2026-03-22T09:58:34.999Z</time></trkpt><trkpt lat="40.933923468392166" lon="14.32421887885073"><ele>25.0</ele><time>2026-03-22T09:58:35.999Z</time></trkpt><trkpt lat="40.933711849183" lon="14.324189631825393"><ele>25.0</ele><time>2026-03-22T09:58:36.999Z</time></trkpt><trkpt lat="40.933466922833624" lon="14.32415480203044"><ele>25.0</ele><time>2026-03-22T09:58:37.999Z</time></trkpt><trkpt lat="40.933204681144616" lon="14.324120001185971"><ele>25.333333333333336</ele><time>2026-03-22T09:58:38.999Z</time></trkpt><trkpt lat="40.932960860535474" lon="14.324078173199846"><ele>25.666666666666664</ele><time>2026-03-22T09:58:39.999Z</time></trkpt><trkpt lat="40.93279784757262" lon="14.32408273429988"><ele>26.0</ele><time>2026-03-22T09:58:40.999Z</time></trkpt><trkpt lat="40.932569017320105" lon="14.32404981664018"><ele>27.5</ele><time>2026-03-22T09:58:41.999Z</time></trkpt><trkpt lat="40.93234311752417" lon="14.32402318118138"><ele>29.0</ele><time>2026-03-22T09:58:42.999Z</time></trkpt><trkpt lat="40.93210611130832" lon="14.323990534803366"><ele>29.0</ele><time>2026-03-22T09:58:43.999Z</time></trkpt><trkpt lat="40.931862318939054" lon="14.323950631326301"><ele>29.0</ele><time>2026-03-22T09:58:44.999Z</time></trkpt><trkpt lat="40.9315917493208" lon="14.323890182468636"><ele>28.0</ele><time>2026-03-22T09:58:45.999Z</time></trkpt><trkpt lat="40.93129332331379" lon="14.323834760196236"><ele>27.0</ele><time>2026-03-22T09:58:46.999Z</time></trkpt><trkpt lat="40.93095773660881" lon="14.323779999704513"><ele>26.5</ele><time>2026-03-22T09:58:47.999Z</time></trkpt><trkpt lat="40.93059885580834" lon="14.323726437773784"><ele>26.0</ele><time>2026-03-22T09:58:48.999Z</time></trkpt><trkpt lat="40.93021686761052" lon="14.32366652827342"><ele>27.0</ele><time>2026-03-22T09:58:49.999Z</time></trkpt><trkpt lat="40.929837165269156" lon="14.323609164206948"><ele>28.0</ele><time>2026-03-22T09:58:50.999Z</time></trkpt><trkpt lat="40.92948144235691" lon="14.323556907911733"><ele>26.5</ele><time>2026-03-22T09:58:51.999Z</time></trkpt><trkpt lat="40.92914505293121" lon="14.323503440521666"><ele>25.0</ele><time>2026-03-22T09:58:52.999Z</time></trkpt><trkpt lat="40.92881922722083" lon="14.323452397542706"><ele>25.0</ele><time>2026-03-22T09:58:53.999Z</time></trkpt><trkpt lat="40.92849314712458" lon="14.323399800441095"><ele>25.0</ele><time>2026-03-22T09:58:54.999Z</time></trkpt><trkpt lat="40.92816457681534" lon="14.323345132447379"><ele>25.0</ele><time>2026-03-22T09:58:55.999Z</time></trkpt><trkpt lat="40.92783515634946" lon="14.323292949971853"><ele>25.0</ele><time>2026-03-22T09:58:56.999Z</time></trkpt><trkpt lat="40.927516899055256" lon="14.323243738594732"><ele>25.5</ele><time>2026-03-22T09:58:57.999Z</time></trkpt><trkpt lat="40.92719606612525" lon="14.323199633129919"><ele>26.0</ele><time>2026-03-22T09:58:58.999Z</time></trkpt><trkpt lat="40.926879472518564" lon="14.323150681723355"><ele>27.0</ele><time>2026-03-22T09:58:59.999Z</time></trkpt><trkpt lat="40.92656844891065" lon="14.323098241801592"><ele>28.0</ele><time>2026-03-22T09:59:00.999Z</time></trkpt><trkpt lat="40.92625911426082" lon="14.323051329097433"><ele>29.0</ele><time>2026-03-22T09:59:01.999Z</time></trkpt><trkpt lat="40.92595272558535" lon="14.32300108617283"><ele>30.0</ele><time>2026-03-22T09:59:02.999Z</time></trkpt><trkpt lat="40.925639844147156" lon="14.322951799250944"><ele>31.0</ele><time>2026-03-22T09:59:03.999Z</time></trkpt><trkpt lat="40.92532997326795" lon="14.322898350318152"><ele>32.0</ele><time>2026-03-22T09:59:04.999Z</time></trkpt><trkpt lat="40.925023837097456" lon="14.322848085549213"><ele>32.0</ele><time>2026-03-22T09:59:05.999Z</time></trkpt><trkpt lat="40.9247186857504" lon="14.322797095088463"><ele>32.0</ele><time>2026-03-22T09:59:06.999Z</time></trkpt><trkpt lat="40.92441090720942" lon="14.322743389807556"><ele>31.5</ele><time>2026-03-22T09:59:07.999Z</time></trkpt><trkpt lat="40.92410770514804" lon="14.322704010612707"><ele>31.0</ele><time>2026-03-22T09:59:08.999Z</time></trkpt><trkpt lat="40.92380640240224" lon="14.32266241600685"><ele>31.0</ele><time>2026-03-22T09:59:09.999Z</time></trkpt><trkpt lat="40.9235188900411" lon="14.322629113909791"><ele>31.0</ele><time>2026-03-22T09:59:10.999Z</time></trkpt><trkpt lat="40.92324511831274" lon="14.322601483316877"><ele>31.0</ele><time>2026-03-22T09:59:11.999Z</time></trkpt><trkpt lat="40.92298574459616" lon="14.322582428933986"><ele>31.0</ele><time>2026-03-22T09:59:12.999Z</time></trkpt><trkpt lat="40.922724028845074" lon="14.322539581788666"><ele>33.0</ele><time>2026-03-22T09:59:13.999Z</time></trkpt><trkpt lat="40.92246202314481" lon="14.322503201425095"><ele>35.0</ele><time>2026-03-22T09:59:14.999Z</time></trkpt><trkpt lat="40.922200446064416" lon="14.322468980543917"><ele>35.0</ele><time>2026-03-22T09:59:15.999Z</time></trkpt><trkpt lat="40.921946768521615" lon="14.322432123808303"><ele>35.0</ele><time>2026-03-22T09:59:16.999Z</time></trkpt><trkpt lat="40.9216944320279" lon="14.322390910431139"><ele>36.0</ele><time>2026-03-22T09:59:17.999Z</time></trkpt><trkpt lat="40.921450070009406" lon="14.32235331619812"><ele>37.0</ele><time>2026-03-22T09:59:18.999Z</time></trkpt><trkpt lat="40.92123226605964" lon="14.322318602280275"><ele>37.0</ele><time>2026-03-22T09:59:19.999Z</time></trkpt><trkpt lat="40.92100959374165" lon="14.322285323892682"><ele>37.0</ele><time>2026-03-22T09:59:20.999Z</time></trkpt><trkpt lat="40.92079040893155" lon="14.32225477684354"><ele>37.0</ele><time>2026-03-22T09:59:21.999Z</time></trkpt><trkpt lat="40.92057579686518" lon="14.322222934830263"><ele>36.66666666666667</ele><time>2026-03-22T09:59:22.999Z</time></trkpt><trkpt lat="40.92037141631383" lon="14.32219374317954"><ele>36.333333333333336</ele><time>2026-03-22T09:59:23.999Z</time></trkpt><trkpt lat="40.92016416709012" lon="14.32215687992077"><ele>36.0</ele><time>2026-03-22T09:59:24.999Z</time></trkpt><trkpt lat="40.91996994935074" lon="14.322127715706335"><ele>35.333333333333336</ele><time>2026-03-22T09:59:25.999Z</time></trkpt><trkpt lat="40.91977149135265" lon="14.3220935940862"><ele>34.66666666666667</ele><time>2026-03-22T09:59:26.999Z</time></trkpt><trkpt lat="40.91958140476663" lon="14.322060683727805"><ele>34.0</ele><time>2026-03-22T09:59:27.999Z</time></trkpt><trkpt lat="40.91939030832459" lon="14.322027988073897"><ele>35.0</ele><time>2026-03-22T09:59:28.999Z</time></trkpt><trkpt lat="40.919198088160776" lon="14.321998393439268"><ele>36.0</ele><time>2026-03-22T09:59:29.999Z</time></trkpt><trkpt lat="40.91900900966748" lon="14.321971796391695"><ele>37.0</ele><time>2026-03-22T09:59:30.999Z</time></trkpt><trkpt lat="40.9188112140906" lon="14.321941448956391"><ele>37.0</ele><time>2026-03-22T09:59:32Z</time></trkpt><trkpt lat="40.9186096560516" lon="14.321910034640277"><ele>37.0</ele><time>2026-03-22T09:59:33Z</time></trkpt><trkpt lat="40.918405367906246" lon="14.32188254541047"><ele>37.0</ele><time>2026-03-22T09:59:34Z</time></trkpt><trkpt lat="40.91819596916575" lon="14.32185439665612"><ele>37.0</ele><time>2026-03-22T09:59:35Z</time></trkpt><trkpt lat="40.91798384746517" lon="14.321825010521476"><ele>37.0</ele><time>2026-03-22T09:59:36Z</time></trkpt><trkpt lat="40.91777198132019" lon="14.321794516902107"><ele>37.0</ele><time>2026-03-22T09:59:37Z</time></trkpt><trkpt lat="40.9175560704404" lon="14.321762629148946"><ele>38.5</ele><time>2026-03-22T09:59:38Z</time></trkpt><trkpt lat="40.917335777425144" lon="14.321729102424328"><ele>40.0</ele><time>2026-03-22T09:59:39Z</time></trkpt><trkpt lat="40.917106414501355" lon="14.32169219208149"><ele>40.0</ele><time>2026-03-22T09:59:40Z</time></trkpt><trkpt lat="40.91687064409896" lon="14.32165330830505"><ele>40.0</ele><time>2026-03-22T09:59:41Z</time></trkpt><trkpt lat="40.9166214392394" lon="14.321612026619071"><ele>40.0</ele><time>2026-03-22T09:59:42Z</time></trkpt><trkpt lat="40.91636389821687" lon="14.321567680622884"><ele>40.0</ele><time>2026-03-22T09:59:43Z</time></trkpt><trkpt lat="40.91610200912753" lon="14.321517549025854"><ele>39.5</ele><time>2026-03-22T09:59:44Z</time></trkpt><trkpt lat="40.91583067630378" lon="14.321464791825377"><ele>39.0</ele><time>2026-03-22T09:59:45Z</time></trkpt><trkpt lat="40.91555243542754" lon="14.321415423164272"><ele>39.5</ele><time>2026-03-22T09:59:46Z</time></trkpt><trkpt lat="40.91527327923601" lon="14.321369322178512"><ele>40.0</ele><time>2026-03-22T09:59:47Z</time></trkpt><trkpt lat="40.91499573705619" lon="14.321322338371795"><ele>40.0</ele><time>2026-03-22T09:59:48Z</time></trkpt><trkpt lat="40.91471545039242" lon="14.321274666321592"><ele>40.0</ele><time>2026-03-22T09:59:49Z</time></trkpt><trkpt lat="40.91443285345988" lon="14.321228349180613"><ele>40.0</ele><time>2026-03-22T09:59:50Z</time></trkpt><trkpt lat="40.91415180884867" lon="14.321183324737634"><ele>40.0</ele><time>2026-03-22T09:59:51Z</time></trkpt><trkpt lat="40.91387388536933" lon="14.32113902017599"><ele>40.0</ele><time>2026-03-22T09:59:52Z</time></trkpt><trkpt lat="40.913591213393154" lon="14.321099755846548"><ele>40.0</ele><time>2026-03-22T09:59:53Z</time></trkpt><trkpt lat="40.91331851956472" lon="14.321060375828376"><ele>41.0</ele><time>2026-03-22T09:59:54Z</time></trkpt><trkpt lat="40.913047701356376" lon="14.321019080665353"><ele>42.0</ele><time>2026-03-22T09:59:55Z</time></trkpt><trkpt lat="40.91277520276448" lon="14.320978428141496"><ele>42.5</ele><time>2026-03-22T09:59:56Z</time></trkpt><trkpt lat="40.912504187970676" lon="14.320937547095507"><ele>43.0</ele><time>2026-03-22T09:59:57Z</time></trkpt><trkpt lat="40.9122352527585" lon="14.320898644204332"><ele>43.0</ele><time>2026-03-22T09:59:58Z</time></trkpt><trkpt lat="40.91196484943749" lon="14.320860456472793"><ele>43.0</ele><time>2026-03-22T09:59:59Z</time></trkpt><trkpt lat="40.911687083484836" lon="14.320824515685464"><ele>44.0</ele><time>2026-03-22T10:00:00Z</time></trkpt><trkpt lat="40.911404735755056" lon="14.320790573761727"><ele>45.0</ele><time>2026-03-22T10:00:01Z</time></trkpt><trkpt lat="40.91111680318725" lon="14.320761187317796"><ele>43.5</ele><time>2026-03-22T10:00:02Z</time></trkpt><trkpt lat="40.910830013561906" lon="14.320726707636258"><ele>42.0</ele><time>2026-03-22T10:00:03Z</time></trkpt><trkpt lat="40.91054272270627" lon="14.320690847886684"><ele>42.0</ele><time>2026-03-22T10:00:04Z</time></trkpt><trkpt lat="40.910272515330206" lon="14.320649953428585"><ele>42.0</ele><time>2026-03-22T10:00:05Z</time></trkpt><trkpt lat="40.91002404860237" lon="14.320610870039895"><ele>43.5</ele><time>2026-03-22T10:00:06Z</time></trkpt><trkpt lat="40.90978791783935" lon="14.320569872945516"><ele>45.0</ele><time>2026-03-22T10:00:07Z</time></trkpt><trkpt lat="40.90956434035002" lon="14.320537572093135"><ele>45.0</ele><time>2026-03-22T10:00:08Z</time></trkpt><trkpt lat="40.909342669036846" lon="14.320502154266848"><ele>45.0</ele><time>2026-03-22T10:00:09Z</time></trkpt><trkpt lat="40.909107305363044" lon="14.320462793389423"><ele>45.0</ele><time>2026-03-22T10:00:09.999Z</time></trkpt><trkpt lat="40.90886461735559" lon="14.320427766721492"><ele>45.0</ele><time>2026-03-22T10:00:10.999Z</time></trkpt><trkpt lat="40.90862509852078" lon="14.320393779540307"><ele>46.0</ele><time>2026-03-22T10:00:11.999Z</time></trkpt><trkpt lat="40.90838316103968" lon="14.320360666467309"><ele>47.0</ele><time>2026-03-22T10:00:12.999Z</time></trkpt><trkpt lat="40.908122142383135" lon="14.320332010484947"><ele>47.0</ele><time>2026-03-22T10:00:13.999Z</time></trkpt><trkpt lat="40.907853818546556" lon="14.32029703385763"><ele>47.0</ele><time>2026-03-22T10:00:14.999Z</time></trkpt><trkpt lat="40.90758802274832" lon="14.320249002334302"><ele>48.5</ele><time>2026-03-22T10:00:15.999Z</time></trkpt><trkpt lat="40.9073239721336" lon="14.320199518421788"><ele>50.0</ele><time>2026-03-22T10:00:16.999Z</time></trkpt><trkpt lat="40.907057978888844" lon="14.320155012123342"><ele>50.0</ele><time>2026-03-22T10:00:17.999Z</time></trkpt><trkpt lat="40.90679392722339" lon="14.32011366620114"><ele>50.0</ele><time>2026-03-22T10:00:18.999Z</time></trkpt><trkpt lat="40.9065410786246" lon="14.320075648234154"><ele>49.5</ele><time>2026-03-22T10:00:19.999Z</time></trkpt><trkpt lat="40.90630213702493" lon="14.320036842069117"><ele>49.0</ele><time>2026-03-22T10:00:20.999Z</time></trkpt><trkpt lat="40.90606708285692" lon="14.32000034059167"><ele>49.5</ele><time>2026-03-22T10:00:21.999Z</time></trkpt><trkpt lat="40.90583773337019" lon="14.319966036674087"><ele>50.0</ele><time>2026-03-22T10:00:22.999Z</time></trkpt><trkpt lat="40.90561898718236" lon="14.31993544604902"><ele>50.0</ele><time>2026-03-22T10:00:23.999Z</time></trkpt><trkpt lat="40.90541681337296" lon="14.319904923501701"><ele>50.0</ele><time>2026-03-22T10:00:24.999Z</time></trkpt><trkpt lat="40.90522759625135" lon="14.319874546599623"><ele>50.0</ele><time>2026-03-22T10:00:25.999Z</time></trkpt><trkpt lat="40.90504779335497" lon="14.319845578335633"><ele>49.333333333333336</ele><time>2026-03-22T10:00:26.999Z</time></trkpt><trkpt lat="40.904870420394666" lon="14.319811101052611"><ele>48.66666666666667</ele><time>2026-03-22T10:00:27.999Z</time></trkpt><trkpt lat="40.90466961826768" lon="14.319775955016487"><ele>48.0</ele><time>2026-03-22T10:00:28.999Z</time></trkpt><trkpt lat="40.904464122247994" lon="14.319748676285743"><ele>48.0</ele><time>2026-03-22T10:00:29.999Z</time></trkpt><trkpt lat="40.90425076487994" lon="14.319715185994564"><ele>48.0</ele><time>2026-03-22T10:00:30.999Z</time></trkpt><trkpt lat="40.90403444862203" lon="14.319684890906078"><ele>48.0</ele><time>2026-03-22T10:00:31.999Z</time></trkpt><trkpt lat="40.903824435147" lon="14.3196488172244"><ele>48.0</ele><time>2026-03-22T10:00:32.999Z</time></trkpt><trkpt lat="40.903622307139365" lon="14.319615152673709"><ele>48.0</ele><time>2026-03-22T10:00:33.999Z</time></trkpt><trkpt lat="40.90341853462349" lon="14.319580265157144"><ele>48.0</ele><time>2026-03-22T10:00:34.999Z</time></trkpt><trkpt lat="40.9032225013474" lon="14.319545287880958"><ele>47.666666666666664</ele><time>2026-03-22T10:00:35.999Z</time></trkpt><trkpt lat="40.903028132560806" lon="14.319516024297593"><ele>47.33333333333333</ele><time>2026-03-22T10:00:36.999Z</time></trkpt><trkpt lat="40.90283603667966" lon="14.31948554523408"><ele>47.0</ele><time>2026-03-22T10:00:37.999Z</time></trkpt><trkpt lat="40.90263734834613" lon="14.31945070557844"><ele>46.0</ele><time>2026-03-22T10:00:38.999Z</time></trkpt><trkpt lat="40.902437095447794" lon="14.31941558187062"><ele>45.0</ele><time>2026-03-22T10:00:39.999Z</time></trkpt><trkpt lat="40.90223415271718" lon="14.319379326897892"><ele>44.0</ele><time>2026-03-22T10:00:40.999Z</time></trkpt><trkpt lat="40.9020307743531" lon="14.31934891401295"><ele>44.0</ele><time>2026-03-22T10:00:41.999Z</time></trkpt><trkpt lat="40.90182491222885" lon="14.31931748798344"><ele>44.0</ele><time>2026-03-22T10:00:42.999Z</time></trkpt><trkpt lat="40.901620785398734" lon="14.319285089832542"><ele>44.0</ele><time>2026-03-22T10:00:43.999Z</time></trkpt><trkpt lat="40.901414241841934" lon="14.319252164365606"><ele>44.666666666666664</ele><time>2026-03-22T10:00:44.999Z</time></trkpt><trkpt lat="40.90120951937452" lon="14.319220486366428"><ele>45.333333333333336</ele><time>2026-03-22T10:00:45.999Z</time></trkpt><trkpt lat="40.90100392475339" lon="14.319191427155268"><ele>46.0</ele><time>2026-03-22T10:00:46.999Z</time></trkpt><trkpt lat="40.900803098837166" lon="14.31916487511168"><ele>47.0</ele><time>2026-03-22T10:00:47.999Z</time></trkpt><trkpt lat="40.900602689146865" lon="14.31913589526973"><ele>48.0</ele><time>2026-03-22T10:00:48.999Z</time></trkpt><trkpt lat="40.900402874446264" lon="14.319102459403224"><ele>49.0</ele><time>2026-03-22T10:00:49.999Z</time></trkpt><trkpt lat="40.90020646063273" lon="14.319072902988248"><ele>48.33333333333333</ele><time>2026-03-22T10:00:50.999Z</time></trkpt><trkpt lat="40.90001128368778" lon="14.319042340090535"><ele>47.666666666666664</ele><time>2026-03-22T10:00:51.999Z</time></trkpt><trkpt lat="40.899817265930984" lon="14.319013140259269"><ele>47.0</ele><time>2026-03-22T10:00:52.999Z</time></trkpt><trkpt lat="40.899618001390564" lon="14.318980508946737"><ele>47.0</ele><time>2026-03-22T10:00:53.999Z</time></trkpt><trkpt lat="40.899404770208" lon="14.318945520670164"><ele>47.0</ele><time>2026-03-22T10:00:54.999Z</time></trkpt><trkpt lat="40.8991885158484" lon="14.318910671638035"><ele>47.0</ele><time>2026-03-22T10:00:55.999Z</time></trkpt><trkpt lat="40.89896970615189" lon="14.318878422302385"><ele>47.33333333333333</ele><time>2026-03-22T10:00:56.999Z</time></trkpt><trkpt lat="40.89874545015673" lon="14.318846768339649"><ele>47.666666666666664</ele><time>2026-03-22T10:00:57.999Z</time></trkpt><trkpt lat="40.89853407905717" lon="14.318815138020515"><ele>48.0</ele><time>2026-03-22T10:00:58.999Z</time></trkpt><trkpt lat="40.89832201549829" lon="14.318783563498576"><ele>48.0</ele><time>2026-03-22T10:00:59.999Z</time></trkpt><trkpt lat="40.898113906387096" lon="14.318751785481021"><ele>48.0</ele><time>2026-03-22T10:01:00.999Z</time></trkpt><trkpt lat="40.89790556211887" lon="14.318721206973539"><ele>48.0</ele><time>2026-03-22T10:01:01.999Z</time></trkpt><trkpt lat="40.89769949767409" lon="14.318688601048853"><ele>46.333333333333336</ele><time>2026-03-22T10:01:02.999Z</time></trkpt><trkpt lat="40.89748842650219" lon="14.318654790993067"><ele>44.66666666666667</ele><time>2026-03-22T10:01:03.999Z</time></trkpt><trkpt lat="40.89727213173151" lon="14.318620963519107"><ele>43.0</ele><time>2026-03-22T10:01:04.999Z</time></trkpt><trkpt lat="40.8970553147449" lon="14.31859082001585"><ele>43.0</ele><time>2026-03-22T10:01:05.999Z</time></trkpt><trkpt lat="40.896829616883714" lon="14.318561274765496"><ele>43.0</ele><time>2026-03-22T10:01:06.999Z</time></trkpt><trkpt lat="40.89660274376621" lon="14.318528403211062"><ele>42.5</ele><time>2026-03-22T10:01:07.999Z</time></trkpt><trkpt lat="40.89637532215889" lon="14.318489339857305"><ele>42.0</ele><time>2026-03-22T10:01:08.999Z</time></trkpt><trkpt lat="40.89615163593505" lon="14.318447633168706"><ele>42.0</ele><time>2026-03-22T10:01:09.999Z</time></trkpt><trkpt lat="40.89593260837821" lon="14.318409969469316"><ele>42.0</ele><time>2026-03-22T10:01:10.999Z</time></trkpt><trkpt lat="40.89571266081326" lon="14.318374714097741"><ele>42.0</ele><time>2026-03-22T10:01:11.999Z</time></trkpt><trkpt lat="40.8955013096694" lon="14.318342013622418"><ele>42.333333333333336</ele><time>2026-03-22T10:01:12.999Z</time></trkpt><trkpt lat="40.895294462668616" lon="14.318310251253283"><ele>42.66666666666667</ele><time>2026-03-22T10:01:13.999Z</time></trkpt><trkpt lat="40.895088679338556" lon="14.318280498244782"><ele>43.0</ele><time>2026-03-22T10:01:14.999Z</time></trkpt><trkpt lat="40.8948803415006" lon="14.318248744615119"><ele>44.0</ele><time>2026-03-22T10:01:15.999Z</time></trkpt><trkpt lat="40.89467571580301" lon="14.318220088742315"><ele>45.0</ele><time>2026-03-22T10:01:16.999Z</time></trkpt><trkpt lat="40.89446960345966" lon="14.318190752504549"><ele>46.0</ele><time>2026-03-22T10:01:17.999Z</time></trkpt><trkpt lat="40.894267199592846" lon="14.318158976472468"><ele>45.66666666666667</ele><time>2026-03-22T10:01:18.999Z</time></trkpt><trkpt lat="40.89406154482165" lon="14.318124992617145"><ele>45.333333333333336</ele><time>2026-03-22T10:01:19.999Z</time></trkpt><trkpt lat="40.893850524795475" lon="14.31809118226911"><ele>45.0</ele><time>2026-03-22T10:01:20.999Z</time></trkpt><trkpt lat="40.8936368146285" lon="14.318059021293319"><ele>44.666666666666664</ele><time>2026-03-22T10:01:21.999Z</time></trkpt><trkpt lat="40.89341912441254" lon="14.318027466989012"><ele>44.33333333333333</ele><time>2026-03-22T10:01:22.999Z</time></trkpt><trkpt lat="40.893210524783086" lon="14.31799209240807"><ele>44.0</ele><time>2026-03-22T10:01:23.999Z</time></trkpt><trkpt lat="40.89299747777046" lon="14.31795321104461"><ele>44.0</ele><time>2026-03-22T10:01:24.999Z</time></trkpt><trkpt lat="40.89279251788741" lon="14.31792139430423"><ele>44.0</ele><time>2026-03-22T10:01:25.999Z</time></trkpt><trkpt lat="40.89258264165166" lon="14.317889588398721"><ele>44.0</ele><time>2026-03-22T10:01:26.999Z</time></trkpt><trkpt lat="40.89237694072589" lon="14.317859716656276"><ele>43.666666666666664</ele><time>2026-03-22T10:01:27.999Z</time></trkpt><trkpt lat="40.89216885855754" lon="14.317826883754345"><ele>43.333333333333336</ele><time>2026-03-22T10:01:28.999Z</time></trkpt><trkpt lat="40.89196085832464" lon="14.317794473225518"><ele>43.0</ele><time>2026-03-22T10:01:29.999Z</time></trkpt><trkpt lat="40.89175476310221" lon="14.317764661149685"><ele>40.333333333333336</ele><time>2026-03-22T10:01:30.999Z</time></trkpt><trkpt lat="40.89154745931678" lon="14.3177344502279"><ele>37.666666666666664</ele><time>2026-03-22T10:01:31.999Z</time></trkpt><trkpt lat="40.89133940206272" lon="14.317708655796727"><ele>35.0</ele><time>2026-03-22T10:01:32.999Z</time></trkpt><trkpt lat="40.89113214078168" lon="14.317678690982984"><ele>35.33333333333333</ele><time>2026-03-22T10:01:33.999Z</time></trkpt><trkpt lat="40.89092240144646" lon="14.317652802803819"><ele>35.666666666666664</ele><time>2026-03-22T10:01:34.999Z</time></trkpt><trkpt lat="40.890709324722124" lon="14.317617628517693"><ele>36.0</ele><time>2026-03-22T10:01:35.999Z</time></trkpt><trkpt lat="40.89049414212852" lon="14.317583660632849"><ele>36.0</ele><time>2026-03-22T10:01:36.999Z</time></trkpt><trkpt lat="40.89027393207477" lon="14.317545433504003"><ele>36.0</ele><time>2026-03-22T10:01:38Z</time></trkpt><trkpt lat="40.89005558978899" lon="14.317510778770133"><ele>36.0</ele><time>2026-03-22T10:01:39Z</time></trkpt><trkpt lat="40.889834170409195" lon="14.317474734505842"><ele>36.0</ele><time>2026-03-22T10:01:40Z</time></trkpt><trkpt lat="40.889614713027356" lon="14.317447511003591"><ele>36.0</ele><time>2026-03-22T10:01:41Z</time></trkpt><trkpt lat="40.88939029304591" lon="14.317417801635807"><ele>36.0</ele><time>2026-03-22T10:01:42Z</time></trkpt><trkpt lat="40.88916545450568" lon="14.317390891653423"><ele>35.333333333333336</ele><time>2026-03-22T10:01:43Z</time></trkpt><trkpt lat="40.88894385235171" lon="14.317359750547158"><ele>34.66666666666667</ele><time>2026-03-22T10:01:44Z</time></trkpt><trkpt lat="40.88872362908862" lon="14.317338194048572"><ele>34.0</ele><time>2026-03-22T10:01:45Z</time></trkpt><trkpt lat="40.888500373756514" lon="14.31732736377945"><ele>33.66666666666667</ele><time>2026-03-22T10:01:46Z</time></trkpt><trkpt lat="40.88827711116002" lon="14.317322323004628"><ele>33.333333333333336</ele><time>2026-03-22T10:01:47Z</time></trkpt><trkpt lat="40.88805497047691" lon="14.317317033811351"><ele>33.0</ele><time>2026-03-22T10:01:48Z</time></trkpt><trkpt lat="40.88782174731467" lon="14.31731118954685"><ele>33.0</ele><time>2026-03-22T10:01:49Z</time></trkpt><trkpt lat="40.88755366997247" lon="14.317299426468779"><ele>33.0</ele><time>2026-03-22T10:01:50Z</time></trkpt><trkpt lat="40.88726067820408" lon="14.317311516631552"><ele>33.0</ele><time>2026-03-22T10:01:51Z</time></trkpt><trkpt lat="40.88697727068794" lon="14.317348455844922"><ele>33.0</ele><time>2026-03-22T10:01:52Z</time></trkpt><trkpt lat="40.88669764005434" lon="14.317391462743991"><ele>32.5</ele><time>2026-03-22T10:01:53Z</time></trkpt><trkpt lat="40.88641996372417" lon="14.31743809295568"><ele>32.0</ele><time>2026-03-22T10:01:54Z</time></trkpt><trkpt lat="40.886150120671445" lon="14.317487264445946"><ele>31.0</ele><time>2026-03-22T10:01:55Z</time></trkpt><trkpt lat="40.885881101194215" lon="14.317542535671477"><ele>30.0</ele><time>2026-03-22T10:01:56Z</time></trkpt><trkpt lat="40.885614330691055" lon="14.317605457874205"><ele>30.0</ele><time>2026-03-22T10:01:57Z</time></trkpt><trkpt lat="40.885348613593145" lon="14.317671639940343"><ele>30.0</ele><time>2026-03-22T10:01:58Z</time></trkpt><trkpt lat="40.88507396366735" lon="14.31774505681441"><ele>30.5</ele><time>2026-03-22T10:01:59Z</time></trkpt><trkpt lat="40.88480082121655" lon="14.31781989101831"><ele>31.0</ele><time>2026-03-22T10:02:00Z</time></trkpt><trkpt lat="40.88452399862437" lon="14.31789850665882"><ele>31.5</ele><time>2026-03-22T10:02:01Z</time></trkpt><trkpt lat="40.88425054984478" lon="14.317968817121058"><ele>32.0</ele><time>2026-03-22T10:02:02Z</time></trkpt><trkpt lat="40.88397024673241" lon="14.318032725023059"><ele>31.5</ele><time>2026-03-22T10:02:03Z</time></trkpt><trkpt lat="40.883691807032406" lon="14.318102101329082"><ele>31.0</ele><time>2026-03-22T10:02:04Z</time></trkpt><trkpt lat="40.88341060389521" lon="14.318164593621466"><ele>31.0</ele><time>2026-03-22T10:02:05Z</time></trkpt><trkpt lat="40.88312634545643" lon="14.318233941807321"><ele>31.0</ele><time>2026-03-22T10:02:06Z</time></trkpt><trkpt lat="40.882845751410436" lon="14.31830645482107"><ele>30.5</ele><time>2026-03-22T10:02:07Z</time></trkpt><trkpt lat="40.88256951232132" lon="14.318374948464035"><ele>30.0</ele><time>2026-03-22T10:02:08Z</time></trkpt><trkpt lat="40.882302895128625" lon="14.318439963899515"><ele>30.0</ele><time>2026-03-22T10:02:09Z</time></trkpt><trkpt lat="40.88204198407477" lon="14.318499146751648"><ele>30.0</ele><time>2026-03-22T10:02:10Z</time></trkpt><trkpt lat="40.881795547251784" lon="14.318568405640756"><ele>29.0</ele><time>2026-03-22T10:02:11Z</time></trkpt><trkpt lat="40.88154248658056" lon="14.318640218555016"><ele>28.0</ele><time>2026-03-22T10:02:12Z</time></trkpt><trkpt lat="40.881283551182094" lon="14.318712507397121"><ele>28.0</ele><time>2026-03-22T10:02:13Z</time></trkpt><trkpt lat="40.88102821078306" lon="14.318777746370467"><ele>28.0</ele><time>2026-03-22T10:02:14Z</time></trkpt><trkpt lat="40.88076577419467" lon="14.318846844650798"><ele>29.0</ele><time>2026-03-22T10:02:15Z</time></trkpt><trkpt lat="40.88049950468832" lon="14.318899349036455"><ele>30.0</ele><time>2026-03-22T10:02:16Z</time></trkpt><trkpt lat="40.880239376270424" lon="14.318970262621642"><ele>27.0</ele><time>2026-03-22T10:02:17Z</time></trkpt><trkpt lat="40.879983347386016" lon="14.31903041542129"><ele>24.0</ele><time>2026-03-22T10:02:17.999Z</time></trkpt><trkpt lat="40.879736526467674" lon="14.319090109900479"><ele>24.0</ele><time>2026-03-22T10:02:18.999Z</time></trkpt><trkpt lat="40.87949405225556" lon="14.319151367917426"><ele>24.0</ele><time>2026-03-22T10:02:19.999Z</time></trkpt><trkpt lat="40.87925272804305" lon="14.319210593637175"><ele>21.5</ele><time>2026-03-22T10:02:20.999Z</time></trkpt><trkpt lat="40.879014789204064" lon="14.319271885922758"><ele>19.0</ele><time>2026-03-22T10:02:21.999Z</time></trkpt><trkpt lat="40.87878214439665" lon="14.319332865309017"><ele>19.0</ele><time>2026-03-22T10:02:22.999Z</time></trkpt><trkpt lat="40.8785505731704" lon="14.319391731172557"><ele>19.0</ele><time>2026-03-22T10:02:23.999Z</time></trkpt><trkpt lat="40.878316749732015" lon="14.319446488711302"><ele>19.0</ele><time>2026-03-22T10:02:24.999Z</time></trkpt><trkpt lat="40.87808245759485" lon="14.319508697632433"><ele>19.0</ele><time>2026-03-22T10:02:25.999Z</time></trkpt><trkpt lat="40.87785245175581" lon="14.319566080354399"><ele>19.0</ele><time>2026-03-22T10:02:26.999Z</time></trkpt><trkpt lat="40.87763499249717" lon="14.319625227014672"><ele>19.0</ele><time>2026-03-22T10:02:27.999Z</time></trkpt><trkpt lat="40.87741283487712" lon="14.319679237917002"><ele>19.0</ele><time>2026-03-22T10:02:28.999Z</time></trkpt><trkpt lat="40.87718291958979" lon="14.319733538755914"><ele>19.0</ele><time>2026-03-22T10:02:29.999Z</time></trkpt><trkpt lat="40.87695346376435" lon="14.319791104666088"><ele>19.0</ele><time>2026-03-22T10:02:30.999Z</time></trkpt><trkpt lat="40.8767197101112" lon="14.319848322221628"><ele>19.0</ele><time>2026-03-22T10:02:31.999Z</time></trkpt><trkpt lat="40.876482145985655" lon="14.319908226031263"><ele>19.0</ele><time>2026-03-22T10:02:32.999Z</time></trkpt><trkpt lat="40.87624775872765" lon="14.319967229746569"><ele>19.0</ele><time>2026-03-22T10:02:33.999Z</time></trkpt><trkpt lat="40.8760231310295" lon="14.32002268094839"><ele>19.0</ele><time>2026-03-22T10:02:34.999Z</time></trkpt><trkpt lat="40.87579868989219" lon="14.320074932401086"><ele>21.0</ele><time>2026-03-22T10:02:35.999Z</time></trkpt><trkpt lat="40.87557564273508" lon="14.32012587920552"><ele>23.0</ele><time>2026-03-22T10:02:36.999Z</time></trkpt><trkpt lat="40.8753444575001" lon="14.320178887092595"><ele>23.0</ele><time>2026-03-22T10:02:37.999Z</time></trkpt><trkpt lat="40.87511252194405" lon="14.320228041336092"><ele>23.0</ele><time>2026-03-22T10:02:38.999Z</time></trkpt><trkpt lat="40.87488594413386" lon="14.320272196987306"><ele>23.5</ele><time>2026-03-22T10:02:39.999Z</time></trkpt><trkpt lat="40.87465924021212" lon="14.320314579010018"><ele>24.0</ele><time>2026-03-22T10:02:40.999Z</time></trkpt><trkpt lat="40.874435280053966" lon="14.320361138634127"><ele>22.0</ele><time>2026-03-22T10:02:41.999Z</time></trkpt><trkpt lat="40.87420463865042" lon="14.32041159552499"><ele>20.0</ele><time>2026-03-22T10:02:42.999Z</time></trkpt><trkpt lat="40.87398329206249" lon="14.320463322077536"><ele>20.0</ele><time>2026-03-22T10:02:43.999Z</time></trkpt><trkpt lat="40.873759913946714" lon="14.320515416268648"><ele>20.0</ele><time>2026-03-22T10:02:44.999Z</time></trkpt><trkpt lat="40.87353382900099" lon="14.320565843896988"><ele>17.5</ele><time>2026-03-22T10:02:45.999Z</time></trkpt><trkpt lat="40.873307724460794" lon="14.32061641938165"><ele>15.0</ele><time>2026-03-22T10:02:46.999Z</time></trkpt><trkpt lat="40.87307841351167" lon="14.320666574386879"><ele>15.0</ele><time>2026-03-22T10:02:47.999Z</time></trkpt><trkpt lat="40.872853732127844" lon="14.320714051136823"><ele>15.0</ele><time>2026-03-22T10:02:48.999Z</time></trkpt><trkpt lat="40.872629477551236" lon="14.320761852532636"><ele>15.0</ele><time>2026-03-22T10:02:49.999Z</time></trkpt><trkpt lat="40.872409367001445" lon="14.320808029760046"><ele>15.0</ele><time>2026-03-22T10:02:50.999Z</time></trkpt><trkpt lat="40.87219343320564" lon="14.32085492053343"><ele>15.0</ele><time>2026-03-22T10:02:51.999Z</time></trkpt><trkpt lat="40.87197780962933" lon="14.320900172306004"><ele>15.666666666666668</ele><time>2026-03-22T10:02:52.999Z</time></trkpt><trkpt lat="40.871763884830415" lon="14.320948758512083"><ele>16.333333333333336</ele><time>2026-03-22T10:02:53.999Z</time></trkpt><trkpt lat="40.87154876570708" lon="14.320995826912725"><ele>17.0</ele><time>2026-03-22T10:02:54.999Z</time></trkpt><trkpt lat="40.87133577773323" lon="14.321040956540115"><ele>17.0</ele><time>2026-03-22T10:02:55.999Z</time></trkpt><trkpt lat="40.871127680089664" lon="14.321081940661113"><ele>17.0</ele><time>2026-03-22T10:02:56.999Z</time></trkpt><trkpt lat="40.87093421759014" lon="14.321117004458923"><ele>17.0</ele><time>2026-03-22T10:02:57.999Z</time></trkpt><trkpt lat="40.8707447898386" lon="14.32115071911669"><ele>16.333333333333336</ele><time>2026-03-22T10:02:58.999Z</time></trkpt><trkpt lat="40.87055390260518" lon="14.321176438683622"><ele>15.666666666666668</ele><time>2026-03-22T10:02:59.999Z</time></trkpt><trkpt lat="40.87037937196867" lon="14.32120435893778"><ele>15.0</ele><time>2026-03-22T10:03:00.999Z</time></trkpt><trkpt lat="40.87020479133512" lon="14.321226793660584"><ele>13.666666666666666</ele><time>2026-03-22T10:03:01.999Z</time></trkpt><trkpt lat="40.87003228339792" lon="14.321245233131418"><ele>12.333333333333332</ele><time>2026-03-22T10:03:02.999Z</time></trkpt><trkpt lat="40.869849986373104" lon="14.32126181885642"><ele>11.0</ele><time>2026-03-22T10:03:03.999Z</time></trkpt><trkpt lat="40.869667158501095" lon="14.321276606306267"><ele>11.0</ele><time>2026-03-22T10:03:04.999Z</time></trkpt><trkpt lat="40.86949343034936" lon="14.321284343912902"><ele>11.0</ele><time>2026-03-22T10:03:05.999Z</time></trkpt><trkpt lat="40.86933204551319" lon="14.321284296745315"><ele>11.0</ele><time>2026-03-22T10:03:06.999Z</time></trkpt><trkpt lat="40.8691783650557" lon="14.321280634198464"><ele>11.333333333333332</ele><time>2026-03-22T10:03:07.999Z</time></trkpt><trkpt lat="40.869028466035395" lon="14.32126754814123"><ele>11.666666666666666</ele><time>2026-03-22T10:03:08.999Z</time></trkpt><trkpt lat="40.8688724965869" lon="14.321243421827935"><ele>12.0</ele><time>2026-03-22T10:03:09.999Z</time></trkpt><trkpt lat="40.868719578092495" lon="14.32120583406763"><ele>12.0</ele><time>2026-03-22T10:03:10.999Z</time></trkpt><trkpt lat="40.868588626945794" lon="14.321147201745113"><ele>12.0</ele><time>2026-03-22T10:03:11.999Z</time></trkpt><trkpt lat="40.86848442364549" lon="14.321066058989436"><ele>12.0</ele><time>2026-03-22T10:03:12.999Z</time></trkpt><trkpt lat="40.86839982809115" lon="14.320968235392927"><ele>12.0</ele><time>2026-03-22T10:03:13.999Z</time></trkpt><trkpt lat="40.86832692319727" lon="14.320860158838718"><ele>12.0</ele><time>2026-03-22T10:03:14.999Z</time></trkpt><trkpt lat="40.86823669362726" lon="14.32073421461023"><ele>12.0</ele><time>2026-03-22T10:03:15.999Z</time></trkpt><trkpt lat="40.868127723228255" lon="14.320596502743033"><ele>12.0</ele><time>2026-03-22T10:03:16.999Z</time></trkpt><trkpt lat="40.868003853494" lon="14.320442028034876"><ele>11.0</ele><time>2026-03-22T10:03:17.999Z</time></trkpt><trkpt lat="40.867875989823325" lon="14.320283839714206"><ele>10.0</ele><time>2026-03-22T10:03:18.999Z</time></trkpt><trkpt lat="40.86774819793813" lon="14.32012123561834"><ele>9.0</ele><time>2026-03-22T10:03:19.999Z</time></trkpt><trkpt lat="40.867625703274534" lon="14.319964822126193"><ele>9.666666666666666</ele><time>2026-03-22T10:03:20.999Z</time></trkpt><trkpt lat="40.86750129987819" lon="14.319808539916238"><ele>10.333333333333332</ele><time>2026-03-22T10:03:21.999Z</time></trkpt><trkpt lat="40.8673774281659" lon="14.31965464995626"><ele>11.0</ele><time>2026-03-22T10:03:22.999Z</time></trkpt><trkpt lat="40.86726098930957" lon="14.319494437966297"><ele>11.0</ele><time>2026-03-22T10:03:23.999Z</time></trkpt><trkpt lat="40.86716391439866" lon="14.319327141694952"><ele>11.0</ele><time>2026-03-22T10:03:24.999Z</time></trkpt><trkpt lat="40.86708774559509" lon="14.319150447603256"><ele>11.0</ele><time>2026-03-22T10:03:25.999Z</time></trkpt><trkpt lat="40.86702632494488" lon="14.318955628324144"><ele>10.666666666666666</ele><time>2026-03-22T10:03:26.999Z</time></trkpt><trkpt lat="40.86699097876964" lon="14.318765017967456"><ele>10.333333333333334</ele><time>2026-03-22T10:03:27.999Z</time></trkpt><trkpt lat="40.86697401819342" lon="14.318555435760217"><ele>10.0</ele><time>2026-03-22T10:03:28.999Z</time></trkpt><trkpt lat="40.86696867559507" lon="14.318310660513614"><ele>9.666666666666668</ele><time>2026-03-22T10:03:29.999Z</time></trkpt><trkpt lat="40.866941684292165" lon="14.318040949421093"><ele>9.333333333333334</ele><time>2026-03-22T10:03:30.999Z</time></trkpt><trkpt lat="40.86693518177901" lon="14.317766706531799"><ele>9.0</ele><time>2026-03-22T10:03:31.999Z</time></trkpt><trkpt lat="40.86690635717734" lon="14.31752383195189"><ele>9.0</ele><time>2026-03-22T10:03:32.999Z</time></trkpt><trkpt lat="40.86687936502161" lon="14.317298610569122"><ele>9.0</ele><time>2026-03-22T10:03:33.999Z</time></trkpt><trkpt lat="40.86683389484782" lon="14.317090912428164"><ele>9.0</ele><time>2026-03-22T10:03:34.999Z</time></trkpt><trkpt lat="40.86683978120335" lon="14.31684712543851"><ele>9.0</ele><time>2026-03-22T10:03:35.999Z</time></trkpt><trkpt lat="40.86681908716789" lon="14.31660164132241"><ele>9.0</ele><time>2026-03-22T10:03:36.999Z</time></trkpt><trkpt lat="40.86679903004527" lon="14.316342472794584"><ele>9.0</ele><time>2026-03-22T10:03:37.999Z</time></trkpt><trkpt lat="40.86677841338769" lon="14.316069169842596"><ele>10.0</ele><time>2026-03-22T10:03:38.999Z</time></trkpt><trkpt lat="40.866754665888784" lon="14.315784344361997"><ele>11.0</ele><time>2026-03-22T10:03:39.999Z</time></trkpt><trkpt lat="40.86672593816281" lon="14.31548512233496"><ele>12.0</ele><time>2026-03-22T10:03:40.999Z</time></trkpt><trkpt lat="40.866694942975826" lon="14.315189634825899"><ele>12.0</ele><time>2026-03-22T10:03:41.999Z</time></trkpt><trkpt lat="40.866662656931254" lon="14.314887403046479"><ele>12.0</ele><time>2026-03-22T10:03:43Z</time></trkpt><trkpt lat="40.86662816164464" lon="14.314587227046776"><ele>11.0</ele><time>2026-03-22T10:03:44Z</time></trkpt><trkpt lat="40.866591002888946" lon="14.314292002080983"><ele>10.0</ele><time>2026-03-22T10:03:45Z</time></trkpt><trkpt lat="40.866554614206144" lon="14.314006474059184"><ele>9.0</ele><time>2026-03-22T10:03:46Z</time></trkpt><trkpt lat="40.86651676450421" lon="14.313728413630358"><ele>8.333333333333334</ele><time>2026-03-22T10:03:47Z</time></trkpt><trkpt lat="40.86647467398304" lon="14.313441752688325"><ele>7.666666666666667</ele><time>2026-03-22T10:03:48Z</time></trkpt><trkpt lat="40.866434816566326" lon="14.313164968186255"><ele>7.0</ele><time>2026-03-22T10:03:49Z</time></trkpt><trkpt lat="40.866395571950086" lon="14.312881565731377"><ele>6.666666666666667</ele><time>2026-03-22T10:03:50Z</time></trkpt><trkpt lat="40.86635847574929" lon="14.312603231525069"><ele>6.333333333333334</ele><time>2026-03-22T10:03:51Z</time></trkpt><trkpt lat="40.86631952036726" lon="14.31231933687194"><ele>6.0</ele><time>2026-03-22T10:03:52Z</time></trkpt><trkpt lat="40.86627965244132" lon="14.312041480567816"><ele>6.333333333333334</ele><time>2026-03-22T10:03:53Z</time></trkpt><trkpt lat="40.86623910237915" lon="14.311762787049808"><ele>6.666666666666667</ele><time>2026-03-22T10:03:54Z</time></trkpt><trkpt lat="40.86619960612772" lon="14.311492775339516"><ele>7.0</ele><time>2026-03-22T10:03:55Z</time></trkpt><trkpt lat="40.8661635580197" lon="14.31123234135346"><ele>7.0</ele><time>2026-03-22T10:03:56Z</time></trkpt><trkpt lat="40.866129360930145" lon="14.310981681457875"><ele>7.0</ele><time>2026-03-22T10:03:57Z</time></trkpt><trkpt lat="40.86609772907805" lon="14.310740345071807"><ele>7.0</ele><time>2026-03-22T10:03:58Z</time></trkpt><trkpt lat="40.866069352506045" lon="14.310515675297552"><ele>6.333333333333334</ele><time>2026-03-22T10:03:59Z</time></trkpt><trkpt lat="40.86604657229326" lon="14.310303954143706"><ele>5.666666666666667</ele><time>2026-03-22T10:04:00Z</time></trkpt><trkpt lat="40.86602221475869" lon="14.31010338786737"><ele>5.0</ele><time>2026-03-22T10:04:01Z</time></trkpt><trkpt lat="40.8659984584918" lon="14.309911136620197"><ele>5.5</ele><time>2026-03-22T10:04:02Z</time></trkpt><trkpt lat="40.86597446243572" lon="14.309732394643769"><ele>6.0</ele><time>2026-03-22T10:04:03Z</time></trkpt><trkpt lat="40.86595602347352" lon="14.30957836451467"><ele>6.5</ele><time>2026-03-22T10:04:04Z</time></trkpt><trkpt lat="40.86593747846872" lon="14.309434071521801"><ele>7.0</ele><time>2026-03-22T10:04:05Z</time></trkpt><trkpt lat="40.86592237733745" lon="14.309313983570519"><ele>7.333333333333334</ele><time>2026-03-22T10:04:06Z</time></trkpt><trkpt lat="40.86590757612295" lon="14.30920174562999"><ele>7.666666666666667</ele><time>2026-03-22T10:04:07Z</time></trkpt><trkpt lat="40.86589542618219" lon="14.30911468039992"><ele>8.0</ele><time>2026-03-22T10:04:08Z</time></trkpt><trkpt lat="40.865886928913426" lon="14.309028611263644"><ele>8.333333333333334</ele><time>2026-03-22T10:04:11Z</time></trkpt><trkpt lat="40.865867802600626" lon="14.308933570414657"><ele>8.666666666666666</ele><time>2026-03-22T10:07:57Z</time></trkpt><trkpt lat="40.86585024115251" lon="14.308787442995927"><ele>9.0</ele><time>2026-03-22T10:07:59Z</time></trkpt><trkpt lat="40.865832434895154" lon="14.308676401344886"><ele>9.25</ele><time>2026-03-22T10:08:00Z</time></trkpt><trkpt lat="40.865808428270874" lon="14.308538848703655"><ele>9.5</ele><time>2026-03-22T10:08:01Z</time></trkpt><trkpt lat="40.86578437222386" lon="14.308379359320194"><ele>9.75</ele><time>2026-03-22T10:08:02Z</time></trkpt><trkpt lat="40.86575520105055" lon="14.308182475232998"><ele>10.0</ele><time>2026-03-22T10:08:03Z</time></trkpt><trkpt lat="40.8657187114847" lon="14.307945163875631"><ele>9.333333333333334</ele><time>2026-03-22T10:08:04Z</time></trkpt><trkpt lat="40.86568465733823" lon="14.307704511132547"><ele>8.666666666666666</ele><time>2026-03-22T10:08:05Z</time></trkpt><trkpt lat="40.86565475686025" lon="14.307484036607779"><ele>8.0</ele><time>2026-03-22T10:08:06Z</time></trkpt><trkpt lat="40.86562874799615" lon="14.307279382330519"><ele>7.75</ele><time>2026-03-22T10:08:07Z</time></trkpt><trkpt lat="40.8656024261234" lon="14.307088535780538"><ele>7.5</ele><time>2026-03-22T10:08:08Z</time></trkpt><trkpt lat="40.86557967690836" lon="14.306915053188186"><ele>7.25</ele><time>2026-03-22T10:08:09Z</time></trkpt><trkpt lat="40.865559059575986" lon="14.306760395174924"><ele>7.0</ele><time>2026-03-22T10:08:10Z</time></trkpt><trkpt lat="40.865536971182834" lon="14.306601918542388"><ele>7.0</ele><time>2026-03-22T10:08:11Z</time></trkpt><trkpt lat="40.86550845833171" lon="14.30640633088738"><ele>7.0</ele><time>2026-03-22T10:08:12Z</time></trkpt><trkpt lat="40.86546896941409" lon="14.306138864414082"><ele>7.0</ele><time>2026-03-22T10:08:13Z</time></trkpt><trkpt lat="40.865419397810705" lon="14.305805001473423"><ele>7.5</ele><time>2026-03-22T10:08:14Z</time></trkpt><trkpt lat="40.86536552671415" lon="14.30543920608941"><ele>8.0</ele><time>2026-03-22T10:08:15Z</time></trkpt><trkpt lat="40.86531102954842" lon="14.305068374070697"><ele>7.0</ele><time>2026-03-22T10:08:16Z</time></trkpt><trkpt lat="40.86525947337653" lon="14.304702565820973"><ele>6.0</ele><time>2026-03-22T10:08:17Z</time></trkpt><trkpt lat="40.86521363249292" lon="14.304375007716306"><ele>6.0</ele><time>2026-03-22T10:08:18Z</time></trkpt><trkpt lat="40.8651721031278" lon="14.304071537801184"><ele>6.0</ele><time>2026-03-22T10:08:19Z</time></trkpt><trkpt lat="40.86513013843145" lon="14.303766940101559"><ele>5.0</ele><time>2026-03-22T10:08:20Z</time></trkpt><trkpt lat="40.8650864775758" lon="14.303474529435055"><ele>4.0</ele><time>2026-03-22T10:08:21Z</time></trkpt><trkpt lat="40.86503899508274" lon="14.30317047716203"><ele>3.5</ele><time>2026-03-22T10:08:22Z</time></trkpt><trkpt lat="40.865001589717174" lon="14.302856479592167"><ele>3.0</ele><time>2026-03-22T10:08:22.999Z</time></trkpt><trkpt lat="40.864957113120525" lon="14.302558723763541"><ele>3.0</ele><time>2026-03-22T10:08:23.999Z</time></trkpt><trkpt lat="40.86491683259362" lon="14.302264724036597"><ele>3.0</ele><time>2026-03-22T10:08:24.999Z</time></trkpt><trkpt lat="40.864874842061724" lon="14.301963797876303"><ele>3.5</ele><time>2026-03-22T10:08:25.999Z</time></trkpt><trkpt lat="40.86483358206409" lon="14.30166817669522"><ele>4.0</ele><time>2026-03-22T10:08:26.999Z</time></trkpt><trkpt lat="40.86479529603783" lon="14.301369395757412"><ele>3.0</ele><time>2026-03-22T10:08:27.999Z</time></trkpt><trkpt lat="40.86476111310819" lon="14.301066395156662"><ele>2.0</ele><time>2026-03-22T10:08:28.999Z</time></trkpt><trkpt lat="40.864727036766354" lon="14.300764764880038"><ele>1.5</ele><time>2026-03-22T10:08:29.999Z</time></trkpt><trkpt lat="40.864689306577944" lon="14.300466615885115"><ele>1.0</ele><time>2026-03-22T10:08:30.999Z</time></trkpt><trkpt lat="40.86465029683031" lon="14.300170551531656"><ele>1.0</ele><time>2026-03-22T10:08:31.999Z</time></trkpt><trkpt lat="40.86461854152705" lon="14.299900293411511"><ele>1.0</ele><time>2026-03-22T10:08:32.999Z</time></trkpt><trkpt lat="40.864591554875254" lon="14.299657650378158"><ele>1.0</ele><time>2026-03-22T10:08:33.999Z</time></trkpt><trkpt lat="40.86456378458266" lon="14.299407313814138"><ele>0.6666666666666666</ele><time>2026-03-22T10:08:34.999Z</time></trkpt><trkpt lat="40.86453374826108" lon="14.299148850430711"><ele>0.3333333333333333</ele><time>2026-03-22T10:08:35.999Z</time></trkpt><trkpt lat="40.864500450157436" lon="14.298880593597854"><ele>0.0</ele><time>2026-03-22T10:08:36.999Z</time></trkpt><trkpt lat="40.86446665294063" lon="14.298604869956822"><ele>1.6666666666666667</ele><time>2026-03-22T10:08:37.999Z</time></trkpt><trkpt lat="40.86443585246387" lon="14.29834313090735"><ele>3.3333333333333335</ele><time>2026-03-22T10:08:38.999Z</time></trkpt><trkpt lat="40.8644084449311" lon="14.29809711878046"><ele>5.0</ele><time>2026-03-22T10:08:39.999Z</time></trkpt><trkpt lat="40.86438355595938" lon="14.29786929653923"><ele>5.0</ele><time>2026-03-22T10:08:40.999Z</time></trkpt><trkpt lat="40.86436015665247" lon="14.297648859747909"><ele>5.0</ele><time>2026-03-22T10:08:41.999Z</time></trkpt><trkpt lat="40.86433249340765" lon="14.29742154277631"><ele>5.0</ele><time>2026-03-22T10:08:42.999Z</time></trkpt><trkpt lat="40.86429972706278" lon="14.297190572634586"><ele>6.333333333333334</ele><time>2026-03-22T10:08:43.999Z</time></trkpt><trkpt lat="40.86426658291879" lon="14.296948743917696"><ele>7.666666666666667</ele><time>2026-03-22T10:08:44.999Z</time></trkpt><trkpt lat="40.86422919843157" lon="14.296684612098288"><ele>9.0</ele><time>2026-03-22T10:08:45.999Z</time></trkpt><trkpt lat="40.864191877065444" lon="14.296376213191724"><ele>9.0</ele><time>2026-03-22T10:08:46.999Z</time></trkpt><trkpt lat="40.8641578604661" lon="14.296077210324372"><ele>9.0</ele><time>2026-03-22T10:08:47.999Z</time></trkpt><trkpt lat="40.86412923516967" lon="14.295806496779491"><ele>9.0</ele><time>2026-03-22T10:08:48.999Z</time></trkpt><trkpt lat="40.864099065228146" lon="14.295540788355442"><ele>9.0</ele><time>2026-03-22T10:08:49.999Z</time></trkpt><trkpt lat="40.86406861729499" lon="14.295296327771165"><ele>9.0</ele><time>2026-03-22T10:08:50.999Z</time></trkpt><trkpt lat="40.864039131750616" lon="14.295059269633693"><ele>9.0</ele><time>2026-03-22T10:08:51.999Z</time></trkpt><trkpt lat="40.86401456649632" lon="14.294827375627365"><ele>8.333333333333334</ele><time>2026-03-22T10:08:52.999Z</time></trkpt><trkpt lat="40.86399051590124" lon="14.294578794968356"><ele>7.666666666666667</ele><time>2026-03-22T10:08:53.999Z</time></trkpt><trkpt lat="40.86397149863914" lon="14.294315648186744"><ele>7.0</ele><time>2026-03-22T10:08:54.999Z</time></trkpt><trkpt lat="40.86395890640873" lon="14.294038603800406"><ele>7.0</ele><time>2026-03-22T10:08:55.999Z</time></trkpt><trkpt lat="40.86395288774489" lon="14.293773607334188"><ele>7.0</ele><time>2026-03-22T10:08:56.999Z</time></trkpt><trkpt lat="40.86395005762684" lon="14.293510350932785"><ele>7.0</ele><time>2026-03-22T10:08:57.999Z</time></trkpt><trkpt lat="40.86395176313723" lon="14.293234478797174"><ele>8.0</ele><time>2026-03-22T10:08:58.999Z</time></trkpt><trkpt lat="40.863958828452674" lon="14.292943099443653"><ele>9.0</ele><time>2026-03-22T10:08:59.999Z</time></trkpt><trkpt lat="40.86397203804581" lon="14.292657001887653"><ele>10.0</ele><time>2026-03-22T10:09:00.999Z</time></trkpt><trkpt lat="40.863991052683176" lon="14.292368030872838"><ele>9.666666666666668</ele><time>2026-03-22T10:09:01.999Z</time></trkpt><trkpt lat="40.864006124359356" lon="14.292078645763036"><ele>9.333333333333334</ele><time>2026-03-22T10:09:02.999Z</time></trkpt><trkpt lat="40.86401491149944" lon="14.291799563833084"><ele>9.0</ele><time>2026-03-22T10:09:03.999Z</time></trkpt><trkpt lat="40.86401671012631" lon="14.291533289115128"><ele>8.666666666666666</ele><time>2026-03-22T10:09:04.999Z</time></trkpt><trkpt lat="40.864014799223106" lon="14.291261706596718"><ele>8.333333333333332</ele><time>2026-03-22T10:09:05.999Z</time></trkpt><trkpt lat="40.86400706831039" lon="14.29099078069756"><ele>8.0</ele><time>2026-03-22T10:09:06.999Z</time></trkpt><trkpt lat="40.86399396563018" lon="14.290693825143586"><ele>7.0</ele><time>2026-03-22T10:09:07.999Z</time></trkpt><trkpt lat="40.863973320827135" lon="14.290354226212672"><ele>6.0</ele><time>2026-03-22T10:09:08.999Z</time></trkpt><trkpt lat="40.863940141323056" lon="14.289968319798131"><ele>7.5</ele><time>2026-03-22T10:09:09.999Z</time></trkpt><trkpt lat="40.86389744366729" lon="14.289558881909253"><ele>9.0</ele><time>2026-03-22T10:09:10.999Z</time></trkpt><trkpt lat="40.86385399924064" lon="14.289162077100086"><ele>9.5</ele><time>2026-03-22T10:09:11.999Z</time></trkpt><trkpt lat="40.86381030708154" lon="14.288812784218617"><ele>10.0</ele><time>2026-03-22T10:09:12.999Z</time></trkpt><trkpt lat="40.86377583457262" lon="14.288483220577286"><ele>10.0</ele><time>2026-03-22T10:09:13.999Z</time></trkpt><trkpt lat="40.863743245525505" lon="14.288156879092346"><ele>10.0</ele><time>2026-03-22T10:09:14.999Z</time></trkpt><trkpt lat="40.863708485343714" lon="14.28782507823763"><ele>10.5</ele><time>2026-03-22T10:09:15.999Z</time></trkpt><trkpt lat="40.86367382881207" lon="14.287501650036011"><ele>11.0</ele><time>2026-03-22T10:09:16.999Z</time></trkpt><trkpt lat="40.86364075886842" lon="14.287183293167729"><ele>13.5</ele><time>2026-03-22T10:09:17.999Z</time></trkpt><trkpt lat="40.86361103030461" lon="14.28686662318122"><ele>16.0</ele><time>2026-03-22T10:09:18.999Z</time></trkpt><trkpt lat="40.86358816932716" lon="14.286547880788712"><ele>17.0</ele><time>2026-03-22T10:09:19.999Z</time></trkpt><trkpt lat="40.863575327487844" lon="14.286245854073107"><ele>18.0</ele><time>2026-03-22T10:09:20.999Z</time></trkpt><trkpt lat="40.86356686108056" lon="14.2859451175899"><ele>18.0</ele><time>2026-03-22T10:09:21.999Z</time></trkpt><trkpt lat="40.863561065285204" lon="14.285662942247528"><ele>18.0</ele><time>2026-03-22T10:09:22.999Z</time></trkpt><trkpt lat="40.86356015206825" lon="14.285372711952935"><ele>18.0</ele><time>2026-03-22T10:09:23.999Z</time></trkpt><trkpt lat="40.863564554623466" lon="14.285088018212724"><ele>19.5</ele><time>2026-03-22T10:09:24.999Z</time></trkpt><trkpt lat="40.86357187371759" lon="14.284794315596503"><ele>21.0</ele><time>2026-03-22T10:09:25.999Z</time></trkpt><trkpt lat="40.86358014198425" lon="14.284488803468024"><ele>18.5</ele><time>2026-03-22T10:09:26.999Z</time></trkpt><trkpt lat="40.863583686355156" lon="14.28416115038955"><ele>16.0</ele><time>2026-03-22T10:09:27.999Z</time></trkpt><trkpt lat="40.863583550637124" lon="14.28380952878212"><ele>16.0</ele><time>2026-03-22T10:09:28.999Z</time></trkpt><trkpt lat="40.86357748559003" lon="14.283452441984709"><ele>16.0</ele><time>2026-03-22T10:09:29.999Z</time></trkpt><trkpt lat="40.86356573909241" lon="14.283060207592735"><ele>15.5</ele><time>2026-03-22T10:09:30.999Z</time></trkpt><trkpt lat="40.86355050184208" lon="14.282628035268191"><ele>15.0</ele><time>2026-03-22T10:09:31.999Z</time></trkpt><trkpt lat="40.86352847698482" lon="14.282174454073909"><ele>15.0</ele><time>2026-03-22T10:09:32.999Z</time></trkpt><trkpt lat="40.86349748055555" lon="14.281709438420746"><ele>15.0</ele><time>2026-03-22T10:09:33.999Z</time></trkpt><trkpt lat="40.86345661261021" lon="14.281242109858171"><ele>16.0</ele><time>2026-03-22T10:09:34.999Z</time></trkpt><trkpt lat="40.86341264871078" lon="14.280831012529285"><ele>17.0</ele><time>2026-03-22T10:09:35.999Z</time></trkpt><trkpt lat="40.86337633745271" lon="14.28045822260747"><ele>18.0</ele><time>2026-03-22T10:09:36.999Z</time></trkpt><trkpt lat="40.86334356123551" lon="14.280100426204024"><ele>19.0</ele><time>2026-03-22T10:09:37.999Z</time></trkpt><trkpt lat="40.86330718051156" lon="14.27976000129416"><ele>20.0</ele><time>2026-03-22T10:09:38.999Z</time></trkpt><trkpt lat="40.86327042011713" lon="14.279441027014945"><ele>21.0</ele><time>2026-03-22T10:09:39.999Z</time></trkpt><trkpt lat="40.863240321814345" lon="14.279143402312746"><ele>21.333333333333332</ele><time>2026-03-22T10:09:40.999Z</time></trkpt><trkpt lat="40.863211352727106" lon="14.278854589057872"><ele>21.666666666666664</ele><time>2026-03-22T10:09:41.999Z</time></trkpt><trkpt lat="40.863181251887774" lon="14.278580923973902"><ele>22.0</ele><time>2026-03-22T10:09:42.999Z</time></trkpt><trkpt lat="40.863151517381795" lon="14.27832644305709"><ele>22.333333333333332</ele><time>2026-03-22T10:09:43.999Z</time></trkpt><trkpt lat="40.8631250749082" lon="14.278083832813614"><ele>22.666666666666668</ele><time>2026-03-22T10:09:44.999Z</time></trkpt><trkpt lat="40.86310219060938" lon="14.277861690526588"><ele>23.0</ele><time>2026-03-22T10:09:45.999Z</time></trkpt><trkpt lat="40.86308106974494" lon="14.277644825796994"><ele>23.0</ele><time>2026-03-22T10:09:46.999Z</time></trkpt><trkpt lat="40.86306180580717" lon="14.277445373619262"><ele>23.0</ele><time>2026-03-22T10:09:47.999Z</time></trkpt><trkpt lat="40.8630420724532" lon="14.277258245726076"><ele>23.0</ele><time>2026-03-22T10:09:48.999Z</time></trkpt><trkpt lat="40.8630227938023" lon="14.27708513373134"><ele>23.0</ele><time>2026-03-22T10:09:49.999Z</time></trkpt><trkpt lat="40.863003790141924" lon="14.276926704264245"><ele>23.5</ele><time>2026-03-22T10:09:50.999Z</time></trkpt><trkpt lat="40.86299195235363" lon="14.276769918227219"><ele>24.0</ele><time>2026-03-22T10:09:51.999Z</time></trkpt><trkpt lat="40.86298987087543" lon="14.27662463631749"><ele>24.5</ele><time>2026-03-22T10:09:52.999Z</time></trkpt><trkpt lat="40.86300412799165" lon="14.276472539343132"><ele>25.0</ele><time>2026-03-22T10:09:53.999Z</time></trkpt><trkpt lat="40.86304539735822" lon="14.276328123560143"><ele>26.25</ele><time>2026-03-22T10:09:54.999Z</time></trkpt><trkpt lat="40.863108559340645" lon="14.27620333355647"><ele>27.5</ele><time>2026-03-22T10:09:55.999Z</time></trkpt><trkpt lat="40.86319044501495" lon="14.276098638208882"><ele>28.75</ele><time>2026-03-22T10:09:56.999Z</time></trkpt><trkpt lat="40.86329276377961" lon="14.276014855234356"><ele>30.0</ele><time>2026-03-22T10:09:57.999Z</time></trkpt><trkpt lat="40.863420160243265" lon="14.27596397569216"><ele>30.0</ele><time>2026-03-22T10:09:58.999Z</time></trkpt><trkpt lat="40.86356398670011" lon="14.275937975441728"><ele>30.0</ele><time>2026-03-22T10:10:00Z</time></trkpt><trkpt lat="40.863731725928325" lon="14.275920441173003"><ele>30.0</ele><time>2026-03-22T10:10:01Z</time></trkpt><trkpt lat="40.86391021657127" lon="14.275903179466912"><ele>30.0</ele><time>2026-03-22T10:10:02Z</time></trkpt><trkpt lat="40.864095755639596" lon="14.275870081356318"><ele>30.0</ele><time>2026-03-22T10:10:03Z</time></trkpt><trkpt lat="40.86430093271127" lon="14.275831617204274"><ele>30.0</ele><time>2026-03-22T10:10:04Z</time></trkpt><trkpt lat="40.86452248195798" lon="14.275790297285987"><ele>31.0</ele><time>2026-03-22T10:10:05Z</time></trkpt><trkpt lat="40.86476494725718" lon="14.27574667596683"><ele>32.0</ele><time>2026-03-22T10:10:06Z</time></trkpt><trkpt lat="40.86498207431926" lon="14.275705608519004"><ele>32.0</ele><time>2026-03-22T10:10:07Z</time></trkpt><trkpt lat="40.865173756041415" lon="14.275665995498183"><ele>32.0</ele><time>2026-03-22T10:10:08Z</time></trkpt><trkpt lat="40.8653616378871" lon="14.275635751469114"><ele>32.0</ele><time>2026-03-22T10:10:09Z</time></trkpt><trkpt lat="40.86553618848493" lon="14.275608244575029"><ele>32.33333333333333</ele><time>2026-03-22T10:10:10Z</time></trkpt><trkpt lat="40.86570155369246" lon="14.275580106977229"><ele>32.666666666666664</ele><time>2026-03-22T10:10:11Z</time></trkpt><trkpt lat="40.86584944128342" lon="14.275550658503418"><ele>33.0</ele><time>2026-03-22T10:10:12Z</time></trkpt><trkpt lat="40.86600566138071" lon="14.27551812754691"><ele>35.0</ele><time>2026-03-22T10:10:13Z</time></trkpt><trkpt lat="40.866173030270815" lon="14.27547564606614"><ele>37.0</ele><time>2026-03-22T10:10:14Z</time></trkpt><trkpt lat="40.866320351190126" lon="14.275428814188587"><ele>39.0</ele><time>2026-03-22T10:10:15Z</time></trkpt><trkpt lat="40.86647395939396" lon="14.275380454388861"><ele>39.0</ele><time>2026-03-22T10:10:16Z</time></trkpt><trkpt lat="40.86662839319443" lon="14.275330060742114"><ele>39.0</ele><time>2026-03-22T10:10:17Z</time></trkpt><trkpt lat="40.86679613564394" lon="14.275284639289335"><ele>39.0</ele><time>2026-03-22T10:10:18Z</time></trkpt><trkpt lat="40.866964782976126" lon="14.275255684980113"><ele>40.0</ele><time>2026-03-22T10:10:19Z</time></trkpt><trkpt lat="40.86713694559237" lon="14.27522486357882"><ele>41.0</ele><time>2026-03-22T10:10:20Z</time></trkpt><trkpt lat="40.867312693282386" lon="14.275191198071221"><ele>42.0</ele><time>2026-03-22T10:10:21Z</time></trkpt><trkpt lat="40.86749717742437" lon="14.27514223282072"><ele>42.666666666666664</ele><time>2026-03-22T10:10:22Z</time></trkpt><trkpt lat="40.86769694289699" lon="14.275096081619305"><ele>43.33333333333333</ele><time>2026-03-22T10:10:23Z</time></trkpt><trkpt lat="40.867898100734116" lon="14.275057512974687"><ele>44.0</ele><time>2026-03-22T10:10:24Z</time></trkpt><trkpt lat="40.8680920502566" lon="14.275026436590897"><ele>44.0</ele><time>2026-03-22T10:10:25Z</time></trkpt><trkpt lat="40.86827807624337" lon="14.274995432584149"><ele>44.0</ele><time>2026-03-22T10:10:26Z</time></trkpt><trkpt lat="40.868451655883746" lon="14.27496324198518"><ele>44.0</ele><time>2026-03-22T10:10:27Z</time></trkpt><trkpt lat="40.868606423036034" lon="14.274932908960691"><ele>46.75</ele><time>2026-03-22T10:10:28Z</time></trkpt><trkpt lat="40.86874024906141" lon="14.274905620816282"><ele>49.5</ele><time>2026-03-22T10:10:28.999Z</time></trkpt><trkpt lat="40.868856936872184" lon="14.274886111095217"><ele>52.25</ele><time>2026-03-22T10:10:29.999Z</time></trkpt><trkpt lat="40.86896355103797" lon="14.274870702660813"><ele>55.0</ele><time>2026-03-22T10:10:30.999Z</time></trkpt><trkpt lat="40.86906246759072" lon="14.274856036139166"><ele>55.0</ele><time>2026-03-22T10:10:31.999Z</time></trkpt><trkpt lat="40.86916709445397" lon="14.274837700080232"><ele>55.0</ele><time>2026-03-22T10:10:32.999Z</time></trkpt><trkpt lat="40.869278417507445" lon="14.274803182723499"><ele>55.0</ele><time>2026-03-22T10:10:33.999Z</time></trkpt><trkpt lat="40.869397430058974" lon="14.274740608033275"><ele>55.0</ele><time>2026-03-22T10:10:34.999Z</time></trkpt><trkpt lat="40.86951095798677" lon="14.274657299477845"><ele>56.75</ele><time>2026-03-22T10:10:35.999Z</time></trkpt><trkpt lat="40.86962910511418" lon="14.274562534517413"><ele>58.5</ele><time>2026-03-22T10:10:36.999Z</time></trkpt><trkpt lat="40.869755832710645" lon="14.274459028947408"><ele>60.25</ele><time>2026-03-22T10:10:37.999Z</time></trkpt><trkpt lat="40.869881448255086" lon="14.274355261435463"><ele>62.0</ele><time>2026-03-22T10:10:38.999Z</time></trkpt><trkpt lat="40.86999674209638" lon="14.274263658480491"><ele>62.0</ele><time>2026-03-22T10:10:39.999Z</time></trkpt><trkpt lat="40.87010219402831" lon="14.274186181197846"><ele>62.0</ele><time>2026-03-22T10:10:40.999Z</time></trkpt><trkpt lat="40.870188603322184" lon="14.27408792372308"><ele>62.0</ele><time>2026-03-22T10:10:41.999Z</time></trkpt><trkpt lat="40.87026453793092" lon="14.273982370663933"><ele>62.0</ele><time>2026-03-22T10:10:42.999Z</time></trkpt><trkpt lat="40.8703283647695" lon="14.273876464185578"><ele>62.0</ele><time>2026-03-22T10:10:43.999Z</time></trkpt><trkpt lat="40.87036465333107" lon="14.273763785366473"><ele>64.0</ele><time>2026-03-22T10:10:44.999Z</time></trkpt><trkpt lat="40.870372736102226" lon="14.273674078145593"><ele>66.0</ele><time>2026-03-22T10:10:45.999Z</time></trkpt><trkpt lat="40.87035936156312" lon="14.27353809681456"><ele>68.0</ele><time>2026-03-22T10:10:47.999Z</time></trkpt><trkpt lat="40.87035759634045" lon="14.273400946723145"><ele>70.0</ele><time>2026-03-22T10:10:49.999Z</time></trkpt><trkpt lat="40.87034016492446" lon="14.273229148978922"><ele>72.0</ele><time>2026-03-22T10:10:51.999Z</time></trkpt><trkpt lat="40.870312720445966" lon="14.273120781257184"><ele>71.4</ele><time>2026-03-22T10:10:52.999Z</time></trkpt><trkpt lat="40.870302791827584" lon="14.272969885839808"><ele>70.80000000000001</ele><time>2026-03-22T10:10:53.999Z</time></trkpt><trkpt lat="40.87025456534884" lon="14.272840560545394"><ele>70.2</ele><time>2026-03-22T10:10:54.999Z</time></trkpt><trkpt lat="40.87020942116283" lon="14.272733931349599"><ele>69.60000000000001</ele><time>2026-03-22T10:10:55.999Z</time></trkpt><trkpt lat="40.87016413975768" lon="14.272617023550437"><ele>69.0</ele><time>2026-03-22T10:10:56.999Z</time></trkpt><trkpt lat="40.870090991656205" lon="14.27251390367866"><ele>67.0</ele><time>2026-03-22T10:10:57.999Z</time></trkpt><trkpt lat="40.870036111653036" lon="14.27240676441521"><ele>65.0</ele><time>2026-03-22T10:10:58.999Z</time></trkpt><trkpt lat="40.86994576745007" lon="14.272261032431333"><ele>63.0</ele><time>2026-03-22T10:10:59.999Z</time></trkpt><trkpt lat="40.86986063532989" lon="14.272132224600544"><ele>61.0</ele><time>2026-03-22T10:11:00.999Z</time></trkpt><trkpt lat="40.86977204866751" lon="14.271972790066485"><ele>60.5</ele><time>2026-03-22T10:11:01.999Z</time></trkpt><trkpt lat="40.86969283593308" lon="14.271802466869103"><ele>60.0</ele><time>2026-03-22T10:11:02.999Z</time></trkpt><trkpt lat="40.869620801102755" lon="14.271627205297927"><ele>59.5</ele><time>2026-03-22T10:11:03.999Z</time></trkpt><trkpt lat="40.86956895645616" lon="14.271473065263164"><ele>59.0</ele><time>2026-03-22T10:11:04.999Z</time></trkpt><trkpt lat="40.86952195780192" lon="14.271307337967674"><ele>59.0</ele><time>2026-03-22T10:11:05.999Z</time></trkpt><trkpt lat="40.8694899874005" lon="14.271153473348248"><ele>59.0</ele><time>2026-03-22T10:11:06.999Z</time></trkpt><trkpt lat="40.86946334148874" lon="14.27099846628773"><ele>59.0</ele><time>2026-03-22T10:11:07.999Z</time></trkpt><trkpt lat="40.869433385216524" lon="14.270827521886494"><ele>59.0</ele><time>2026-03-22T10:11:08.999Z</time></trkpt><trkpt lat="40.86940659686913" lon="14.270632346055846"><ele>57.66666666666667</ele><time>2026-03-22T10:11:09.999Z</time></trkpt><trkpt lat="40.86938221563651" lon="14.270404971749974"><ele>56.33333333333333</ele><time>2026-03-22T10:11:10.999Z</time></trkpt><trkpt lat="40.869360445821926" lon="14.270199561582679"><ele>55.0</ele><time>2026-03-22T10:11:11.999Z</time></trkpt><trkpt lat="40.86933878393315" lon="14.270009552439232"><ele>55.0</ele><time>2026-03-22T10:11:12.999Z</time></trkpt><trkpt lat="40.86931531034003" lon="14.269833145692873"><ele>55.0</ele><time>2026-03-22T10:11:13.999Z</time></trkpt><trkpt lat="40.86928808776267" lon="14.269678662879993"><ele>55.0</ele><time>2026-03-22T10:11:14.999Z</time></trkpt><trkpt lat="40.86925458312526" lon="14.269515611433775"><ele>55.0</ele><time>2026-03-22T10:11:15.999Z</time></trkpt><trkpt lat="40.86922782398591" lon="14.269362714128023"><ele>52.25</ele><time>2026-03-22T10:11:16.999Z</time></trkpt><trkpt lat="40.86919200606107" lon="14.26923936663223"><ele>49.5</ele><time>2026-03-22T10:11:17.999Z</time></trkpt><trkpt lat="40.86915372962695" lon="14.26909065906209"><ele>46.75</ele><time>2026-03-22T10:11:18.999Z</time></trkpt><trkpt lat="40.86910633185378" lon="14.26890273014308"><ele>44.0</ele><time>2026-03-22T10:11:19.999Z</time></trkpt><trkpt lat="40.8690539060679" lon="14.268685004418364"><ele>42.33333333333333</ele><time>2026-03-22T10:11:20.999Z</time></trkpt><trkpt lat="40.86902748730591" lon="14.268424407871986"><ele>40.666666666666664</ele><time>2026-03-22T10:11:21.999Z</time></trkpt><trkpt lat="40.86900422500597" lon="14.26817324451343"><ele>39.0</ele><time>2026-03-22T10:11:22.999Z</time></trkpt><trkpt lat="40.868984455969155" lon="14.267945729067588"><ele>39.0</ele><time>2026-03-22T10:11:23.999Z</time></trkpt><trkpt lat="40.868951738821835" lon="14.267678969745905"><ele>39.0</ele><time>2026-03-22T10:11:24.999Z</time></trkpt><trkpt lat="40.86892091834238" lon="14.26737667765547"><ele>39.0</ele><time>2026-03-22T10:11:25.999Z</time></trkpt><trkpt lat="40.86888507162248" lon="14.266995459503686"><ele>44.5</ele><time>2026-03-22T10:11:26.999Z</time></trkpt><trkpt lat="40.86884659715402" lon="14.266588844264266"><ele>50.0</ele><time>2026-03-22T10:11:27.999Z</time></trkpt><trkpt lat="40.868814390689764" lon="14.266218350335826"><ele>55.0</ele><time>2026-03-22T10:11:28.999Z</time></trkpt><trkpt lat="40.868789004762846" lon="14.26588779010005"><ele>60.0</ele><time>2026-03-22T10:11:29.999Z</time></trkpt><trkpt lat="40.86877198331143" lon="14.26555169183566"><ele>64.0</ele><time>2026-03-22T10:11:30.999Z</time></trkpt><trkpt lat="40.868754466839555" lon="14.265160096120063"><ele>68.0</ele><time>2026-03-22T10:11:31.999Z</time></trkpt><trkpt lat="40.868753704641314" lon="14.264743473820587"><ele>68.0</ele><time>2026-03-22T10:11:32.999Z</time></trkpt><trkpt lat="40.86876768336966" lon="14.264312312849409"><ele>68.0</ele><time>2026-03-22T10:11:33.999Z</time></trkpt><trkpt lat="40.86879332976621" lon="14.263942405441714"><ele>68.0</ele><time>2026-03-22T10:11:34.999Z</time></trkpt><trkpt lat="40.86882898904298" lon="14.263595669186847"><ele>68.0</ele><time>2026-03-22T10:11:35.999Z</time></trkpt><trkpt lat="40.868869535818526" lon="14.263263630256471"><ele>69.0</ele><time>2026-03-22T10:11:36.999Z</time></trkpt><trkpt lat="40.86891621473615" lon="14.26296058861187"><ele>70.0</ele><time>2026-03-22T10:11:37.999Z</time></trkpt><trkpt lat="40.86897422590667" lon="14.26265582749305"><ele>70.0</ele><time>2026-03-22T10:11:38.999Z</time></trkpt><trkpt lat="40.86904142185059" lon="14.262340065084024"><ele>70.0</ele><time>2026-03-22T10:11:39.999Z</time></trkpt><trkpt lat="40.869119454583824" lon="14.261986570602952"><ele>73.5</ele><time>2026-03-22T10:11:40.999Z</time></trkpt><trkpt lat="40.86920418127042" lon="14.261605245585299"><ele>77.0</ele><time>2026-03-22T10:11:41.999Z</time></trkpt><trkpt lat="40.869284900770324" lon="14.261255270783105"><ele>85.5</ele><time>2026-03-22T10:11:42.999Z</time></trkpt><trkpt lat="40.86935602968785" lon="14.260945234118527"><ele>94.0</ele><time>2026-03-22T10:11:43.999Z</time></trkpt><trkpt lat="40.86940866502084" lon="14.26065839038379"><ele>98.33333333333333</ele><time>2026-03-22T10:11:44.999Z</time></trkpt><trkpt lat="40.8694619195568" lon="14.260385817961444"><ele>102.66666666666666</ele><time>2026-03-22T10:11:45.999Z</time></trkpt><trkpt lat="40.869512813337415" lon="14.260125203544883"><ele>107.0</ele><time>2026-03-22T10:11:46.999Z</time></trkpt><trkpt lat="40.86955294725356" lon="14.259812708500428"><ele>107.0</ele><time>2026-03-22T10:11:47.999Z</time></trkpt><trkpt lat="40.86956941896004" lon="14.259477511616044"><ele>107.0</ele><time>2026-03-22T10:11:48.999Z</time></trkpt><trkpt lat="40.869555204755436" lon="14.259094566632243"><ele>107.5</ele><time>2026-03-22T10:11:49.999Z</time></trkpt><trkpt lat="40.86952961395869" lon="14.258701504341303"><ele>108.0</ele><time>2026-03-22T10:11:50.999Z</time></trkpt><trkpt lat="40.86949304479361" lon="14.258291608271547"><ele>111.5</ele><time>2026-03-22T10:11:51.999Z</time></trkpt><trkpt lat="40.86944404547156" lon="14.257903812440379"><ele>115.0</ele><time>2026-03-22T10:11:52.999Z</time></trkpt><trkpt lat="40.869383673771345" lon="14.25755231105573"><ele>119.0</ele><time>2026-03-22T10:11:53.999Z</time></trkpt><trkpt lat="40.86933097508727" lon="14.25723974103237"><ele>123.0</ele><time>2026-03-22T10:11:54.999Z</time></trkpt><trkpt lat="40.86928862400375" lon="14.256948909724017"><ele>123.33333333333334</ele><time>2026-03-22T10:11:55.999Z</time></trkpt><trkpt lat="40.86925634013465" lon="14.25665230358875"><ele>123.66666666666667</ele><time>2026-03-22T10:11:56.999Z</time></trkpt><trkpt lat="40.86923979052809" lon="14.256365980225572"><ele>124.0</ele><time>2026-03-22T10:11:57.999Z</time></trkpt><trkpt lat="40.86924416173106" lon="14.256107907422663"><ele>124.0</ele><time>2026-03-22T10:11:58.999Z</time></trkpt><trkpt lat="40.86927100665041" lon="14.255863497649313"><ele>124.0</ele><time>2026-03-22T10:11:59.999Z</time></trkpt><trkpt lat="40.869330256164545" lon="14.255618891914422"><ele>124.0</ele><time>2026-03-22T10:12:00.999Z</time></trkpt><trkpt lat="40.86940570785506" lon="14.255372747684326"><ele>127.0</ele><time>2026-03-22T10:12:01.999Z</time></trkpt><trkpt lat="40.86949000719256" lon="14.255105911103554"><ele>130.0</ele><time>2026-03-22T10:12:02.999Z</time></trkpt><trkpt lat="40.86956415195521" lon="14.25483378851131"><ele>133.0</ele><time>2026-03-22T10:12:03.999Z</time></trkpt><trkpt lat="40.86964536416274" lon="14.254553332975746"><ele>139.5</ele><time>2026-03-22T10:12:04.999Z</time></trkpt><trkpt lat="40.869736984806856" lon="14.254230152651472"><ele>146.0</ele><time>2026-03-22T10:12:06.066Z</time></trkpt><trkpt lat="40.86982076741623" lon="14.253941908698295"><ele>149.0</ele><time>2026-03-22T10:12:07.065Z</time></trkpt><trkpt lat="40.8699043838606" lon="14.253662348638297"><ele>152.0</ele><time>2026-03-22T10:12:08.068Z</time></trkpt><trkpt lat="40.86961123781298" lon="14.251065912658936"><ele>152.0</ele><time>2026-03-22T10:12:11.651Z</time></trkpt><trkpt lat="40.86922254260944" lon="14.250267138384917"><ele>157.0</ele><time>2026-03-22T10:12:12.651Z</time></trkpt><trkpt lat="40.86888617180389" lon="14.249430065841151"><ele>155.0</ele><time>2026-03-22T10:12:13.651Z</time></trkpt><trkpt lat="40.86867397390615" lon="14.248524125043057"><ele>155.0</ele><time>2026-03-22T10:12:14.651Z</time></trkpt><trkpt lat="40.868478658346184" lon="14.247610847326433"><ele>161.0</ele><time>2026-03-22T10:12:15.651Z</time></trkpt><trkpt lat="40.86819996156213" lon="14.24673643372859"><ele>169.0</ele><time>2026-03-22T10:12:16.651Z</time></trkpt><trkpt lat="40.86783243279896" lon="14.245921357337693"><ele>145.0</ele><time>2026-03-22T10:12:17.651Z</time></trkpt><trkpt lat="40.86738796260449" lon="14.245174955422893"><ele>130.0</ele><time>2026-03-22T10:12:18.651Z</time></trkpt><trkpt lat="40.86682575102095" lon="14.244234448193275"><ele>129.0</ele><time>2026-03-22T10:12:46.999Z</time></trkpt><trkpt lat="40.86670788061595" lon="14.244072224307033"><ele>128.0</ele><time>2026-03-22T10:12:47.999Z</time></trkpt><trkpt lat="40.86658090494904" lon="14.243881619168477"><ele>127.0</ele><time>2026-03-22T10:12:48.999Z</time></trkpt><trkpt lat="40.86645426204685" lon="14.243718462525942"><ele>127.0</ele><time>2026-03-22T10:12:49.999Z</time></trkpt><trkpt lat="40.86632209234901" lon="14.243536828608057"><ele>127.0</ele><time>2026-03-22T10:12:50.999Z</time></trkpt><trkpt lat="40.86617135420555" lon="14.243281471695719"><ele>127.0</ele><time>2026-03-22T10:12:51.999Z</time></trkpt><trkpt lat="40.86595794474361" lon="14.242962143909436"><ele>130.0</ele><time>2026-03-22T10:12:52.999Z</time></trkpt><trkpt lat="40.8657745260523" lon="14.242714810450606"><ele>133.0</ele><time>2026-03-22T10:12:53.999Z</time></trkpt><trkpt lat="40.86561919382891" lon="14.24251613551529"><ele>133.0</ele><time>2026-03-22T10:12:54.999Z</time></trkpt><trkpt lat="40.8654863762564" lon="14.24234125610727"><ele>133.0</ele><time>2026-03-22T10:12:55.999Z</time></trkpt><trkpt lat="40.8653590448158" lon="14.242167400177543"><ele>133.0</ele><time>2026-03-22T10:12:56.999Z</time></trkpt><trkpt lat="40.86523227498326" lon="14.241974469463106"><ele>134.0</ele><time>2026-03-22T10:12:57.999Z</time></trkpt><trkpt lat="40.86511029666566" lon="14.241760953829466"><ele>135.0</ele><time>2026-03-22T10:12:58.999Z</time></trkpt><trkpt lat="40.865006224353756" lon="14.24153175486825"><ele>136.0</ele><time>2026-03-22T10:12:59.999Z</time></trkpt><trkpt lat="40.86490621505386" lon="14.241293053968002"><ele>138.66666666666669</ele><time>2026-03-22T10:13:00.999Z</time></trkpt><trkpt lat="40.86481205593683" lon="14.241062437108273"><ele>141.33333333333334</ele><time>2026-03-22T10:13:01.999Z</time></trkpt><trkpt lat="40.86473955633984" lon="14.240859225318205"><ele>144.0</ele><time>2026-03-22T10:13:02.999Z</time></trkpt><trkpt lat="40.86465181216777" lon="14.240637534508483"><ele>148.0</ele><time>2026-03-22T10:13:03.999Z</time></trkpt><trkpt lat="40.864556813585" lon="14.240410624084948"><ele>152.0</ele><time>2026-03-22T10:13:04.999Z</time></trkpt><trkpt lat="40.8644489159493" lon="14.240138578057396"><ele>156.0</ele><time>2026-03-22T10:13:05.999Z</time></trkpt><trkpt lat="40.86433930363648" lon="14.239806991285215"><ele>150.5</ele><time>2026-03-22T10:13:06.999Z</time></trkpt><trkpt lat="40.86422429556932" lon="14.239539617705187"><ele>145.0</ele><time>2026-03-22T10:13:07.999Z</time></trkpt><trkpt lat="40.864117288396535" lon="14.239285563967158"><ele>145.0</ele><time>2026-03-22T10:13:08.999Z</time></trkpt><trkpt lat="40.86401482665475" lon="14.239045262851917"><ele>145.0</ele><time>2026-03-22T10:13:09.999Z</time></trkpt><trkpt lat="40.863913985181725" lon="14.238790860608358"><ele>145.0</ele><time>2026-03-22T10:13:10.999Z</time></trkpt><trkpt lat="40.86380846777393" lon="14.238497195662296"><ele>144.5</ele><time>2026-03-22T10:13:11.999Z</time></trkpt><trkpt lat="40.86369481558902" lon="14.238204154924565"><ele>144.0</ele><time>2026-03-22T10:13:12.999Z</time></trkpt><trkpt lat="40.863578723846416" lon="14.23792678343339"><ele>140.33333333333334</ele><time>2026-03-22T10:13:13.999Z</time></trkpt><trkpt lat="40.863471087523486" lon="14.237674770962482"><ele>136.66666666666669</ele><time>2026-03-22T10:13:14.999Z</time></trkpt><trkpt lat="40.86336670412466" lon="14.237421543894799"><ele>133.0</ele><time>2026-03-22T10:13:15.999Z</time></trkpt><trkpt lat="40.86326416406732" lon="14.23717408695906"><ele>133.0</ele><time>2026-03-22T10:13:16.999Z</time></trkpt><trkpt lat="40.86316954335536" lon="14.236947279480363"><ele>133.0</ele><time>2026-03-22T10:13:17.999Z</time></trkpt><trkpt lat="40.863078260762585" lon="14.23673442651928"><ele>133.0</ele><time>2026-03-22T10:13:18.999Z</time></trkpt><trkpt lat="40.862984703725246" lon="14.236516660323106"><ele>137.33333333333334</ele><time>2026-03-22T10:13:19.999Z</time></trkpt><trkpt lat="40.862895592565586" lon="14.236299048028227"><ele>141.66666666666666</ele><time>2026-03-22T10:13:20.999Z</time></trkpt><trkpt lat="40.86280627311241" lon="14.236074188503279"><ele>146.0</ele><time>2026-03-22T10:13:21.999Z</time></trkpt><trkpt lat="40.86271513731334" lon="14.235848708703488"><ele>150.0</ele><time>2026-03-22T10:13:22.999Z</time></trkpt><trkpt lat="40.86262168056157" lon="14.235612805698842"><ele>154.0</ele><time>2026-03-22T10:13:23.999Z</time></trkpt><trkpt lat="40.8625350273456" lon="14.235372924549777"><ele>158.0</ele><time>2026-03-22T10:13:24.999Z</time></trkpt><trkpt lat="40.862452751525275" lon="14.235132509053786"><ele>159.33333333333331</ele><time>2026-03-22T10:13:25.999Z</time></trkpt><trkpt lat="40.862377532220464" lon="14.234901378771871"><ele>160.66666666666666</ele><time>2026-03-22T10:13:26.999Z</time></trkpt><trkpt lat="40.86229762066256" lon="14.234661191728732"><ele>162.0</ele><time>2026-03-22T10:13:27.999Z</time></trkpt><trkpt lat="40.86220390792418" lon="14.234374832326713"><ele>171.5</ele><time>2026-03-22T10:13:28.999Z</time></trkpt><trkpt lat="40.86210050241733" lon="14.234062798555113"><ele>181.0</ele><time>2026-03-22T10:13:29.999Z</time></trkpt><trkpt lat="40.861994419037096" lon="14.233761161881652"><ele>182.33333333333334</ele><time>2026-03-22T10:13:30.999Z</time></trkpt><trkpt lat="40.861899680209454" lon="14.233497817650164"><ele>183.66666666666666</ele><time>2026-03-22T10:13:31.999Z</time></trkpt><trkpt lat="40.86181349465806" lon="14.233262847319134"><ele>185.0</ele><time>2026-03-22T10:13:32.999Z</time></trkpt><trkpt lat="40.861734228784776" lon="14.23305219228619"><ele>185.0</ele><time>2026-03-22T10:13:33.999Z</time></trkpt><trkpt lat="40.86165781141659" lon="14.232856536344684"><ele>185.0</ele><time>2026-03-22T10:13:34.999Z</time></trkpt><trkpt lat="40.86157722701915" lon="14.232665859621411"><ele>185.0</ele><time>2026-03-22T10:13:35.999Z</time></trkpt><trkpt lat="40.86149708408592" lon="14.232478550603426"><ele>187.33333333333331</ele><time>2026-03-22T10:13:36.999Z</time></trkpt><trkpt lat="40.861411158317374" lon="14.232273358111431"><ele>189.66666666666666</ele><time>2026-03-22T10:13:37.999Z</time></trkpt><trkpt lat="40.86132243947738" lon="14.232059511426938"><ele>192.0</ele><time>2026-03-22T10:13:38.999Z</time></trkpt><trkpt lat="40.86122974621702" lon="14.231837761724348"><ele>192.0</ele><time>2026-03-22T10:13:39.999Z</time></trkpt><trkpt lat="40.86114111169195" lon="14.231624753126036"><ele>192.0</ele><time>2026-03-22T10:13:40.999Z</time></trkpt><trkpt lat="40.861087468089195" lon="14.231393425079586"><ele>192.0</ele><time>2026-03-22T10:13:41.999Z</time></trkpt><trkpt lat="40.86101120763739" lon="14.231179364805783"><ele>203.66666666666669</ele><time>2026-03-22T10:13:42.999Z</time></trkpt><trkpt lat="40.860933794041685" lon="14.23097107638837"><ele>215.33333333333334</ele><time>2026-03-22T10:13:43.999Z</time></trkpt><trkpt lat="40.86085135492784" lon="14.23074893349151"><ele>227.0</ele><time>2026-03-22T10:13:44.999Z</time></trkpt><trkpt lat="40.86076959020052" lon="14.23051658758659"><ele>253.0</ele><time>2026-03-22T10:13:46.058Z</time></trkpt><trkpt lat="40.85978156690455" lon="14.22818683380987"><ele>217.0</ele><time>2026-03-22T10:13:49.65Z</time></trkpt><trkpt lat="40.85626566513505" lon="14.22096023272964"><ele>217.0</ele><time>2026-03-22T10:14:21.526Z</time></trkpt><trkpt lat="40.856623953374594" lon="14.22111497054849"><ele>217.0</ele><time>2026-03-22T10:14:22.998Z</time></trkpt><trkpt lat="40.85646555157669" lon="14.220874476908888"><ele>217.0</ele><time>2026-03-22T10:14:23.998Z</time></trkpt><trkpt lat="40.85629975861573" lon="14.220688465167019"><ele>217.0</ele><time>2026-03-22T10:14:24.998Z</time></trkpt><trkpt lat="40.85611909143528" lon="14.220489333899124"><ele>213.66666666666666</ele><time>2026-03-22T10:14:25.998Z</time></trkpt><trkpt lat="40.85594275685779" lon="14.220319022911445"><ele>210.33333333333331</ele><time>2026-03-22T10:14:26.998Z</time></trkpt><trkpt lat="40.85577033331186" lon="14.220155002944662"><ele>207.0</ele><time>2026-03-22T10:14:27.998Z</time></trkpt><trkpt lat="40.85558397269405" lon="14.220002294702283"><ele>207.0</ele><time>2026-03-22T10:14:29Z</time></trkpt><trkpt lat="40.85540359988924" lon="14.219862113508755"><ele>207.0</ele><time>2026-03-22T10:14:30Z</time></trkpt><trkpt lat="40.85523156645814" lon="14.219713100059506"><ele>207.0</ele><time>2026-03-22T10:14:31Z</time></trkpt><trkpt lat="40.85504325741247" lon="14.219550127766373"><ele>207.5</ele><time>2026-03-22T10:14:32Z</time></trkpt><trkpt lat="40.85483045040609" lon="14.219348251586393"><ele>208.0</ele><time>2026-03-22T10:14:33Z</time></trkpt><trkpt lat="40.85460439132966" lon="14.219139655090347"><ele>208.0</ele><time>2026-03-22T10:14:34Z</time></trkpt><trkpt lat="40.85437417846022" lon="14.218949439303172"><ele>208.0</ele><time>2026-03-22T10:14:35Z</time></trkpt><trkpt lat="40.854158327933966" lon="14.218751394519622"><ele>202.0</ele><time>2026-03-22T10:14:36Z</time></trkpt><trkpt lat="40.853964148472194" lon="14.218537043898456"><ele>196.0</ele><time>2026-03-22T10:14:37Z</time></trkpt><trkpt lat="40.85379169704736" lon="14.218328311522356"><ele>195.66666666666666</ele><time>2026-03-22T10:14:38Z</time></trkpt><trkpt lat="40.853637529952486" lon="14.218129112759975"><ele>195.33333333333331</ele><time>2026-03-22T10:14:39Z</time></trkpt><trkpt lat="40.85349238380479" lon="14.217914818708307"><ele>195.0</ele><time>2026-03-22T10:14:40Z</time></trkpt><trkpt lat="40.85333933911607" lon="14.21768940211612"><ele>195.0</ele><time>2026-03-22T10:14:41Z</time></trkpt><trkpt lat="40.85315837315999" lon="14.217422539115654"><ele>195.0</ele><time>2026-03-22T10:14:42Z</time></trkpt><trkpt lat="40.852968239897855" lon="14.217133540852787"><ele>199.5</ele><time>2026-03-22T10:14:43Z</time></trkpt><trkpt lat="40.852789311974895" lon="14.216878509383948"><ele>204.0</ele><time>2026-03-22T10:14:44Z</time></trkpt><trkpt lat="40.85262526201178" lon="14.216667033614529"><ele>203.5</ele><time>2026-03-22T10:14:45Z</time></trkpt><trkpt lat="40.85245522055402" lon="14.216453875744028"><ele>203.0</ele><time>2026-03-22T10:14:46Z</time></trkpt><trkpt lat="40.85228661053098" lon="14.216245539565111"><ele>203.0</ele><time>2026-03-22T10:14:47Z</time></trkpt><trkpt lat="40.85211885444608" lon="14.21603524311911"><ele>203.0</ele><time>2026-03-22T10:14:48Z</time></trkpt><trkpt lat="40.85195342642695" lon="14.215827050120325"><ele>203.0</ele><time>2026-03-22T10:14:49Z</time></trkpt><trkpt lat="40.85179032687926" lon="14.21561728014793"><ele>203.0</ele><time>2026-03-22T10:14:50Z</time></trkpt><trkpt lat="40.85172246250981" lon="14.21547998387077"><ele>203.0</ele><time>2026-03-22T10:14:51Z</time></trkpt><trkpt lat="40.85162363525544" lon="14.21533040442195"><ele>197.0</ele><time>2026-03-22T10:14:52Z</time></trkpt><trkpt lat="40.85148415132274" lon="14.215174582291144"><ele>191.0</ele><time>2026-03-22T10:14:52.999Z</time></trkpt><trkpt lat="40.85129673557418" lon="14.215026263482036"><ele>185.0</ele><time>2026-03-22T10:14:53.999Z</time></trkpt><trkpt lat="40.851108212215344" lon="14.214892937179291"><ele>179.0</ele><time>2026-03-22T10:14:54.999Z</time></trkpt><trkpt lat="40.85092491945149" lon="14.214797192173252"><ele>173.0</ele><time>2026-03-22T10:14:55.999Z</time></trkpt><trkpt lat="40.85074593519009" lon="14.214725253461271"><ele>167.0</ele><time>2026-03-22T10:14:56.999Z</time></trkpt><trkpt lat="40.850571821117846" lon="14.214667776351147"><ele>167.0</ele><time>2026-03-22T10:14:57.999Z</time></trkpt><trkpt lat="40.85038909795421" lon="14.214624981665292"><ele>167.0</ele><time>2026-03-22T10:14:58.999Z</time></trkpt><trkpt lat="40.85019353292626" lon="14.21461092996151"><ele>167.0</ele><time>2026-03-22T10:14:59.999Z</time></trkpt><trkpt lat="40.84997955948436" lon="14.21462688583933"><ele>157.0</ele><time>2026-03-22T10:15:00.999Z</time></trkpt><trkpt lat="40.849753196214316" lon="14.214674980130242"><ele>147.0</ele><time>2026-03-22T10:15:01.999Z</time></trkpt><trkpt lat="40.849522890649766" lon="14.214753504666934"><ele>143.0</ele><time>2026-03-22T10:15:02.999Z</time></trkpt><trkpt lat="40.84925648248892" lon="14.2148611255512"><ele>139.0</ele><time>2026-03-22T10:15:03.999Z</time></trkpt><trkpt lat="40.848959389295636" lon="14.214994499028442"><ele>139.0</ele><time>2026-03-22T10:15:04.999Z</time></trkpt><trkpt lat="40.848656762840186" lon="14.215147086081398"><ele>139.0</ele><time>2026-03-22T10:15:05.999Z</time></trkpt><trkpt lat="40.848393119381235" lon="14.215273719281324"><ele>138.0</ele><time>2026-03-22T10:15:06.999Z</time></trkpt><trkpt lat="40.84814982113413" lon="14.21538534200091"><ele>137.0</ele><time>2026-03-22T10:15:07.999Z</time></trkpt><trkpt lat="40.847911497136835" lon="14.215488574069152"><ele>137.0</ele><time>2026-03-22T10:15:08.999Z</time></trkpt><trkpt lat="40.84766756526639" lon="14.215599708194816"><ele>137.0</ele><time>2026-03-22T10:15:09.999Z</time></trkpt><trkpt lat="40.84743286966287" lon="14.215710636208756"><ele>137.5</ele><time>2026-03-22T10:15:10.999Z</time></trkpt><trkpt lat="40.84721545038022" lon="14.215808173445295"><ele>138.0</ele><time>2026-03-22T10:15:11.999Z</time></trkpt><trkpt lat="40.84699783078435" lon="14.215905810506158"><ele>133.5</ele><time>2026-03-22T10:15:12.999Z</time></trkpt><trkpt lat="40.846773631905194" lon="14.216003440140785"><ele>129.0</ele><time>2026-03-22T10:15:13.999Z</time></trkpt><trkpt lat="40.846555734397306" lon="14.21610057921687"><ele>129.0</ele><time>2026-03-22T10:15:14.999Z</time></trkpt><trkpt lat="40.84632347441596" lon="14.216195675476152"><ele>129.0</ele><time>2026-03-22T10:15:15.999Z</time></trkpt><trkpt lat="40.84607761533856" lon="14.216268994175492"><ele>123.5</ele><time>2026-03-22T10:15:16.999Z</time></trkpt><trkpt lat="40.84583527793423" lon="14.216314924016089"><ele>118.0</ele><time>2026-03-22T10:15:17.999Z</time></trkpt><trkpt lat="40.845603902406204" lon="14.216319626567902"><ele>118.0</ele><time>2026-03-22T10:15:18.999Z</time></trkpt><trkpt lat="40.84537018922858" lon="14.216302552762334"><ele>118.0</ele><time>2026-03-22T10:15:19.999Z</time></trkpt><trkpt lat="40.84512288447236" lon="14.216243262353991"><ele>123.5</ele><time>2026-03-22T10:15:20.999Z</time></trkpt><trkpt lat="40.84489054414005" lon="14.216152950140883"><ele>129.0</ele><time>2026-03-22T10:15:21.999Z</time></trkpt><trkpt lat="40.84467740752624" lon="14.216046788019632"><ele>129.0</ele><time>2026-03-22T10:15:22.999Z</time></trkpt><trkpt lat="40.84445352304123" lon="14.215918115536335"><ele>129.0</ele><time>2026-03-22T10:15:23.999Z</time></trkpt><trkpt lat="40.84420411344819" lon="14.21574604818974"><ele>130.0</ele><time>2026-03-22T10:15:24.999Z</time></trkpt><trkpt lat="40.843938615975866" lon="14.21554527112609"><ele>131.0</ele><time>2026-03-22T10:15:25.999Z</time></trkpt><trkpt lat="40.84368544055374" lon="14.21534219900936"><ele>131.0</ele><time>2026-03-22T10:15:26.999Z</time></trkpt><trkpt lat="40.843439171148624" lon="14.215136424859065"><ele>131.0</ele><time>2026-03-22T10:15:27.999Z</time></trkpt><trkpt lat="40.84315618294722" lon="14.214906617519807"><ele>129.5</ele><time>2026-03-22T10:15:28.999Z</time></trkpt><trkpt lat="40.84284929982856" lon="14.214653383422759"><ele>128.0</ele><time>2026-03-22T10:15:29.999Z</time></trkpt><trkpt lat="40.84257904415739" lon="14.214431730194084"><ele>128.0</ele><time>2026-03-22T10:15:30.999Z</time></trkpt><trkpt lat="40.842322127374715" lon="14.214237367473958"><ele>128.0</ele><time>2026-03-22T10:15:31.999Z</time></trkpt><trkpt lat="40.84206650211001" lon="14.214073628310754"><ele>124.0</ele><time>2026-03-22T10:15:32.999Z</time></trkpt><trkpt lat="40.84180077189773" lon="14.213947663508332"><ele>120.0</ele><time>2026-03-22T10:15:33.999Z</time></trkpt><trkpt lat="40.84153469061113" lon="14.213863214441048"><ele>119.0</ele><time>2026-03-22T10:15:34.999Z</time></trkpt><trkpt lat="40.84125443870343" lon="14.21381132893401"><ele>118.0</ele><time>2026-03-22T10:15:35.999Z</time></trkpt><trkpt lat="40.84096815991627" lon="14.21378989036381"><ele>119.5</ele><time>2026-03-22T10:15:36.999Z</time></trkpt><trkpt lat="40.8406846754724" lon="14.213787386051"><ele>121.0</ele><time>2026-03-22T10:15:37.999Z</time></trkpt><trkpt lat="40.84041466544542" lon="14.213762330025387"><ele>121.0</ele><time>2026-03-22T10:15:38.999Z</time></trkpt><trkpt lat="40.840169262623014" lon="14.213712023712715"><ele>121.0</ele><time>2026-03-22T10:15:39.999Z</time></trkpt><trkpt lat="40.83995115076921" lon="14.213638209395445"><ele>123.66666666666667</ele><time>2026-03-22T10:15:40.999Z</time></trkpt><trkpt lat="40.83975012328867" lon="14.213526953092346"><ele>126.33333333333334</ele><time>2026-03-22T10:15:41.999Z</time></trkpt><trkpt lat="40.83956350823024" lon="14.213381242607518"><ele>129.0</ele><time>2026-03-22T10:15:42.999Z</time></trkpt><trkpt lat="40.839393391678975" lon="14.213207068497772"><ele>131.0</ele><time>2026-03-22T10:15:43.999Z</time></trkpt><trkpt lat="40.83924762582618" lon="14.213015554564645"><ele>133.0</ele><time>2026-03-22T10:15:44.999Z</time></trkpt><trkpt lat="40.83911160024368" lon="14.212807839101941"><ele>135.0</ele><time>2026-03-22T10:15:45.999Z</time></trkpt><trkpt lat="40.838992266345166" lon="14.212598285348665"><ele>135.0</ele><time>2026-03-22T10:15:46.999Z</time></trkpt><trkpt lat="40.838882063759065" lon="14.212361784909321"><ele>135.0</ele><time>2026-03-22T10:15:47.999Z</time></trkpt><trkpt lat="40.83875949139721" lon="14.21209082133442"><ele>135.0</ele><time>2026-03-22T10:15:48.999Z</time></trkpt><trkpt lat="40.83861574446892" lon="14.211771861665708"><ele>129.5</ele><time>2026-03-22T10:15:49.999Z</time></trkpt><trkpt lat="40.838469473713786" lon="14.211452794248887"><ele>124.0</ele><time>2026-03-22T10:15:50.999Z</time></trkpt><trkpt lat="40.83833490187696" lon="14.211156667219552"><ele>124.0</ele><time>2026-03-22T10:15:51.999Z</time></trkpt><trkpt lat="40.83820505336488" lon="14.210881572001062"><ele>124.0</ele><time>2026-03-22T10:15:52.999Z</time></trkpt><trkpt lat="40.83808537561388" lon="14.210629641887897"><ele>117.5</ele><time>2026-03-22T10:15:53.999Z</time></trkpt><trkpt lat="40.8379590747111" lon="14.21033483819825"><ele>111.0</ele><time>2026-03-22T10:15:54.999Z</time></trkpt><trkpt lat="40.837813839772785" lon="14.210000698773591"><ele>112.0</ele><time>2026-03-22T10:15:55.999Z</time></trkpt><trkpt lat="40.83768538348808" lon="14.209699180884591"><ele>113.0</ele><time>2026-03-22T10:15:56.999Z</time></trkpt><trkpt lat="40.83756682896125" lon="14.209437182637307"><ele>113.0</ele><time>2026-03-22T10:15:57.999Z</time></trkpt><trkpt lat="40.83746337661832" lon="14.209207576928526"><ele>113.0</ele><time>2026-03-22T10:15:58.999Z</time></trkpt><trkpt lat="40.83737552818262" lon="14.20898875055983"><ele>113.0</ele><time>2026-03-22T10:15:59.999Z</time></trkpt><trkpt lat="40.83730162917895" lon="14.20876467729842"><ele>112.0</ele><time>2026-03-22T10:16:00.999Z</time></trkpt><trkpt lat="40.83723516818153" lon="14.208519669552597"><ele>111.0</ele><time>2026-03-22T10:16:01.999Z</time></trkpt><trkpt lat="40.83718266593119" lon="14.208239742960066"><ele>110.0</ele><time>2026-03-22T10:16:02.999Z</time></trkpt><trkpt lat="40.83714550417032" lon="14.207952735225101"><ele>108.33333333333333</ele><time>2026-03-22T10:16:03.999Z</time></trkpt><trkpt lat="40.83712770415699" lon="14.207672896313303"><ele>106.66666666666666</ele><time>2026-03-22T10:16:04.999Z</time></trkpt><trkpt lat="40.8371305742526" lon="14.207382461166235"><ele>105.0</ele><time>2026-03-22T10:16:05.999Z</time></trkpt><trkpt lat="40.83715217171355" lon="14.207077688963263"><ele>102.0</ele><time>2026-03-22T10:16:06.999Z</time></trkpt><trkpt lat="40.837199312878084" lon="14.206753445931131"><ele>99.0</ele><time>2026-03-22T10:16:07.999Z</time></trkpt><trkpt lat="40.83727404902495" lon="14.206414964285166"><ele>98.5</ele><time>2026-03-22T10:16:08.999Z</time></trkpt><trkpt lat="40.83735714402112" lon="14.206080769706706"><ele>98.0</ele><time>2026-03-22T10:16:09.999Z</time></trkpt><trkpt lat="40.83742471152581" lon="14.205759090530975"><ele>98.0</ele><time>2026-03-22T10:16:10.999Z</time></trkpt><trkpt lat="40.83746507704571" lon="14.20546509328435"><ele>98.0</ele><time>2026-03-22T10:16:11.999Z</time></trkpt><trkpt lat="40.837496479393366" lon="14.2051425591345"><ele>95.5</ele><time>2026-03-22T10:16:12.999Z</time></trkpt><trkpt lat="40.83752312177786" lon="14.204784638411175"><ele>93.0</ele><time>2026-03-22T10:16:13.999Z</time></trkpt><trkpt lat="40.837538128624665" lon="14.20439821476943"><ele>93.0</ele><time>2026-03-22T10:16:14.999Z</time></trkpt><trkpt lat="40.837540294382215" lon="14.204044423350016"><ele>93.0</ele><time>2026-03-22T10:16:15.999Z</time></trkpt><trkpt lat="40.837537751628915" lon="14.203721909498803"><ele>90.0</ele><time>2026-03-22T10:16:16.999Z</time></trkpt><trkpt lat="40.837531054186655" lon="14.203374683873202"><ele>87.0</ele><time>2026-03-22T10:16:17.999Z</time></trkpt><trkpt lat="40.837514915374015" lon="14.203035087470058"><ele>85.5</ele><time>2026-03-22T10:16:18.999Z</time></trkpt><trkpt lat="40.83748878771303" lon="14.202642444693469"><ele>84.0</ele><time>2026-03-22T10:16:19.999Z</time></trkpt><trkpt lat="40.83745685082991" lon="14.202214332217935"><ele>82.0</ele><time>2026-03-22T10:16:20.999Z</time></trkpt><trkpt lat="40.837410162101214" lon="14.201772524137349"><ele>80.0</ele><time>2026-03-22T10:16:21.999Z</time></trkpt><trkpt lat="40.83734631779524" lon="14.201320663377311"><ele>79.0</ele><time>2026-03-22T10:16:22.999Z</time></trkpt><trkpt lat="40.83727528212243" lon="14.200927725492877"><ele>78.0</ele><time>2026-03-22T10:16:23.999Z</time></trkpt><trkpt lat="40.83719840979357" lon="14.200564994550287"><ele>76.0</ele><time>2026-03-22T10:16:24.999Z</time></trkpt><trkpt lat="40.8371228752007" lon="14.200219687658368"><ele>74.0</ele><time>2026-03-22T10:16:25.999Z</time></trkpt><trkpt lat="40.83704503198642" lon="14.199887574085539"><ele>74.0</ele><time>2026-03-22T10:16:26.999Z</time></trkpt><trkpt lat="40.83695808753774" lon="14.199565149885013"><ele>74.0</ele><time>2026-03-22T10:16:27.999Z</time></trkpt><trkpt lat="40.83686272860979" lon="14.199234462844116"><ele>74.0</ele><time>2026-03-22T10:16:28.999Z</time></trkpt><trkpt lat="40.83676764565877" lon="14.198917043815065"><ele>74.0</ele><time>2026-03-22T10:16:29.998Z</time></trkpt><trkpt lat="40.836683547984464" lon="14.198620667903949"><ele>74.0</ele><time>2026-03-22T10:16:30.998Z</time></trkpt><trkpt lat="40.836609408840175" lon="14.198332891185744"><ele>74.0</ele><time>2026-03-22T10:16:31.998Z</time></trkpt><trkpt lat="40.836542039649736" lon="14.198058628679894"><ele>74.0</ele><time>2026-03-22T10:16:32.998Z</time></trkpt><trkpt lat="40.836471900055685" lon="14.197797289249637"><ele>73.66666666666667</ele><time>2026-03-22T10:16:34Z</time></trkpt><trkpt lat="40.83640189133398" lon="14.197542573912315"><ele>73.33333333333333</ele><time>2026-03-22T10:16:35Z</time></trkpt><trkpt lat="40.83631546483956" lon="14.197315680220855"><ele>73.0</ele><time>2026-03-22T10:16:36Z</time></trkpt><trkpt lat="40.83627378865868" lon="14.197079607004943"><ele>73.66666666666666</ele><time>2026-03-22T10:16:37Z</time></trkpt><trkpt lat="40.83621548816569" lon="14.19686510338196"><ele>74.33333333333333</ele><time>2026-03-22T10:16:38Z</time></trkpt><trkpt lat="40.83616194966553" lon="14.196654862223927"><ele>75.0</ele><time>2026-03-22T10:16:39Z</time></trkpt><trkpt lat="40.836111276924086" lon="14.196456421287523"><ele>75.0</ele><time>2026-03-22T10:16:40Z</time></trkpt><trkpt lat="40.83605693928541" lon="14.196248609359905"><ele>75.0</ele><time>2026-03-22T10:16:41Z</time></trkpt><trkpt lat="40.8360029918972" lon="14.196052016161953"><ele>75.0</ele><time>2026-03-22T10:16:42Z</time></trkpt><trkpt lat="40.83593722602916" lon="14.19583250500361"><ele>73.33333333333333</ele><time>2026-03-22T10:16:43Z</time></trkpt><trkpt lat="40.83586072830026" lon="14.195594560656305"><ele>71.66666666666666</ele><time>2026-03-22T10:16:44Z</time></trkpt><trkpt lat="40.83578279099903" lon="14.195357001774887"><ele>70.0</ele><time>2026-03-22T10:16:45Z</time></trkpt><trkpt lat="40.835727909850526" lon="14.1951469008735"><ele>70.0</ele><time>2026-03-22T10:16:46Z</time></trkpt><trkpt lat="40.835679802836765" lon="14.194947816412906"><ele>70.0</ele><time>2026-03-22T10:16:47Z</time></trkpt><trkpt lat="40.835654232703554" lon="14.194766074763878"><ele>70.0</ele><time>2026-03-22T10:16:48Z</time></trkpt><trkpt lat="40.83565039995854" lon="14.194583363429457"><ele>70.0</ele><time>2026-03-22T10:16:49Z</time></trkpt><trkpt lat="40.83566885242408" lon="14.194408081243953"><ele>69.5</ele><time>2026-03-22T10:16:50Z</time></trkpt><trkpt lat="40.835706876020396" lon="14.194240156893143"><ele>69.0</ele><time>2026-03-22T10:16:51Z</time></trkpt><trkpt lat="40.83576541392576" lon="14.194079927027728"><ele>68.5</ele><time>2026-03-22T10:16:52Z</time></trkpt><trkpt lat="40.83583471925887" lon="14.193925081611884"><ele>68.0</ele><time>2026-03-22T10:16:53Z</time></trkpt><trkpt lat="40.835884707871344" lon="14.193766139962873"><ele>67.2</ele><time>2026-03-22T10:16:54Z</time></trkpt><trkpt lat="40.835919175982355" lon="14.193624124230492"><ele>66.4</ele><time>2026-03-22T10:16:55Z</time></trkpt><trkpt lat="40.83594778757752" lon="14.193492995710564"><ele>65.60000000000001</ele><time>2026-03-22T10:16:56Z</time></trkpt><trkpt lat="40.83596435791256" lon="14.193373677721688"><ele>64.8</ele><time>2026-03-22T10:16:57Z</time></trkpt><trkpt lat="40.83596957646312" lon="14.193266302040987"><ele>64.0</ele><time>2026-03-22T10:16:58Z</time></trkpt><trkpt lat="40.83598766415892" lon="14.193168935375017"><ele>63.99999999999999</ele><time>2026-03-22T10:16:59Z</time></trkpt><trkpt lat="40.8359886536656" lon="14.193081363793144"><ele>64.0</ele><time>2026-03-22T10:16:59.999Z</time></trkpt><trkpt lat="40.8359696911154" lon="14.193000932726514"><ele>64.0</ele><time>2026-03-22T10:17:00.999Z</time></trkpt><trkpt lat="40.8359750649703" lon="14.192847948954942"><ele>64.0</ele><time>2026-03-22T10:17:02.999Z</time></trkpt><trkpt lat="40.83595861689596" lon="14.192733019633078"><ele>63.99999999999999</ele><time>2026-03-22T10:17:04.999Z</time></trkpt><trkpt lat="40.83593511628336" lon="14.192646323799053"><ele>64.0</ele><time>2026-03-22T10:17:06.999Z</time></trkpt><trkpt lat="40.83590972152623" lon="14.192554960874347"><ele>63.49999999999999</ele><time>2026-03-22T10:17:09.999Z</time></trkpt><trkpt lat="40.83588355866239" lon="14.192474261343776"><ele>63.0</ele><time>2026-03-22T10:17:19.999Z</time></trkpt><trkpt lat="40.83585809382349" lon="14.19239679231108"><ele>62.5</ele><time>2026-03-22T10:18:21.999Z</time></trkpt><trkpt lat="40.83583183616335" lon="14.192318019269706"><ele>62.0</ele><time>2026-03-22T10:19:10.999Z</time></trkpt><trkpt lat="40.83579050690232" lon="14.192208532438745"><ele>61.49999999999999</ele><time>2026-03-22T10:19:12.999Z</time></trkpt><trkpt lat="40.83573346906719" lon="14.19207652038177"><ele>61.0</ele><time>2026-03-22T10:19:14.999Z</time></trkpt><trkpt lat="40.83568563998714" lon="14.191967251307288"><ele>62.5</ele><time>2026-03-22T10:19:16.999Z</time></trkpt><trkpt lat="40.83563814425061" lon="14.191898009364051"><ele>64.0</ele><time>2026-03-22T10:19:17.999Z</time></trkpt><trkpt lat="40.835558214413346" lon="14.191755647781209"><ele>65.5</ele><time>2026-03-22T10:19:18.999Z</time></trkpt><trkpt lat="40.83550904472347" lon="14.191603149399258"><ele>67.0</ele><time>2026-03-22T10:19:19.999Z</time></trkpt><trkpt lat="40.83545516138545" lon="14.191461393432695"><ele>66.8</ele><time>2026-03-22T10:19:20.999Z</time></trkpt><trkpt lat="40.83539492139931" lon="14.191344151661985"><ele>66.6</ele><time>2026-03-22T10:19:21.999Z</time></trkpt><trkpt lat="40.835331547806874" lon="14.19125632710134"><ele>66.39999999999999</ele><time>2026-03-22T10:19:22.999Z</time></trkpt><trkpt lat="40.835256236717186" lon="14.191170867383942"><ele>66.2</ele><time>2026-03-22T10:19:23.999Z</time></trkpt><trkpt lat="40.83516456012146" lon="14.191097100661077"><ele>66.0</ele><time>2026-03-22T10:19:24.999Z</time></trkpt><trkpt lat="40.835079904577064" lon="14.19105062110909"><ele>66.0</ele><time>2026-03-22T10:19:25.999Z</time></trkpt><trkpt lat="40.834998310860705" lon="14.191017644771307"><ele>66.0</ele><time>2026-03-22T10:19:26.999Z</time></trkpt><trkpt lat="40.834913405313216" lon="14.190997644684913"><ele>66.0</ele><time>2026-03-22T10:19:27.999Z</time></trkpt><trkpt lat="40.834815068884105" lon="14.190990650300492"><ele>66.0</ele><time>2026-03-22T10:19:28.999Z</time></trkpt><trkpt lat="40.8347085299763" lon="14.19099701450183"><ele>66.0</ele><time>2026-03-22T10:19:29.999Z</time></trkpt><trkpt lat="40.83450389091405" lon="14.191029915143567"><ele>66.0</ele><time>2026-03-22T10:19:30.999Z</time></trkpt><trkpt lat="40.834388503131606" lon="14.191032602292104"><ele>66.0</ele><time>2026-03-22T10:19:31.999Z</time></trkpt><trkpt lat="40.83424485761424" lon="14.191057794750972"><ele>66.0</ele><time>2026-03-22T10:19:32.999Z</time></trkpt><trkpt lat="40.83414532607219" lon="14.191053991010204"><ele>66.0</ele><time>2026-03-22T10:19:33.999Z</time></trkpt><trkpt lat="40.83405046539796" lon="14.19106468175142"><ele>65.16666666666667</ele><time>2026-03-22T10:19:34.999Z</time></trkpt><trkpt lat="40.83397313143253" lon="14.191072758286024"><ele>64.33333333333333</ele><time>2026-03-22T10:19:35.999Z</time></trkpt><trkpt lat="40.833892685345866" lon="14.191105243044719"><ele>63.5</ele><time>2026-03-22T10:19:36.999Z</time></trkpt><trkpt lat="40.83381729257845" lon="14.191115147894006"><ele>62.666666666666664</ele><time>2026-03-22T10:19:37.999Z</time></trkpt><trkpt lat="40.83373899512182" lon="14.191125673874291"><ele>61.83333333333333</ele><time>2026-03-22T10:19:38.999Z</time></trkpt><trkpt lat="40.83365869955702" lon="14.191121788807761"><ele>61.0</ele><time>2026-03-22T10:19:39.999Z</time></trkpt><trkpt lat="40.83357942150445" lon="14.191137987108325"><ele>60.99999999999999</ele><time>2026-03-22T10:19:40.999Z</time></trkpt><trkpt lat="40.83350285944577" lon="14.19114746029468"><ele>61.0</ele><time>2026-03-22T10:19:41.999Z</time></trkpt><trkpt lat="40.833423656702095" lon="14.19116575600153"><ele>60.99999999999999</ele><time>2026-03-22T10:19:42.999Z</time></trkpt><trkpt lat="40.83334721981985" lon="14.191178387125376"><ele>60.99999999999999</ele><time>2026-03-22T10:19:43.999Z</time></trkpt><trkpt lat="40.83327533624565" lon="14.191189956286308"><ele>61.0</ele><time>2026-03-22T10:19:44.999Z</time></trkpt><trkpt lat="40.83320668654617" lon="14.19117741168753"><ele>60.99999999999999</ele><time>2026-03-22T10:19:45.999Z</time></trkpt><trkpt lat="40.833135884390664" lon="14.191171851128672"><ele>60.99999999999999</ele><time>2026-03-22T10:19:46.999Z</time></trkpt><trkpt lat="40.83302751667041" lon="14.191208638433926"><ele>60.33333333333333</ele><time>2026-03-22T10:19:48.999Z</time></trkpt><trkpt lat="40.83294757122202" lon="14.191205937323954"><ele>59.666666666666664</ele><time>2026-03-22T10:19:50.999Z</time></trkpt><trkpt lat="40.83287582613308" lon="14.191241275633658"><ele>59.0</ele><time>2026-03-22T10:20:13.999Z</time></trkpt><trkpt lat="40.832813060497344" lon="14.191254526168144"><ele>58.33333333333333</ele><time>2026-03-22T10:20:19.999Z</time></trkpt><trkpt lat="40.83274284740666" lon="14.191221629071324"><ele>57.666666666666664</ele><time>2026-03-22T10:20:26.999Z</time></trkpt><trkpt lat="40.83261599518567" lon="14.191242185027686"><ele>57.0</ele><time>2026-03-22T10:20:28.999Z</time></trkpt><trkpt lat="40.83254069995874" lon="14.191255691352533"><ele>56.833333333333336</ele><time>2026-03-22T10:20:29.999Z</time></trkpt><trkpt lat="40.83245634313441" lon="14.19126831908135"><ele>56.66666666666667</ele><time>2026-03-22T10:20:31.999Z</time></trkpt><trkpt lat="40.83238063863221" lon="14.1912616738077"><ele>56.5</ele><time>2026-03-22T10:20:33.999Z</time></trkpt><trkpt lat="40.83231111662216" lon="14.191278116063485"><ele>56.333333333333336</ele><time>2026-03-22T10:20:36.999Z</time></trkpt><trkpt lat="40.83222673261085" lon="14.191298582557534"><ele>56.16666666666667</ele><time>2026-03-22T10:20:39.998Z</time></trkpt><trkpt lat="40.83214706040909" lon="14.19132436089829"><ele>56.0</ele><time>2026-03-22T10:20:42.998Z</time></trkpt><trkpt lat="40.83206730186319" lon="14.191359232444317"><ele>56.00000000000001</ele><time>2026-03-22T10:20:51Z</time></trkpt><trkpt lat="40.83197633182591" lon="14.191373730536444"><ele>56.0</ele><time>2026-03-22T10:20:53Z</time></trkpt><trkpt lat="40.83190528090038" lon="14.191384540784194"><ele>56.0</ele><time>2026-03-22T10:20:54Z</time></trkpt><trkpt lat="40.83182103175352" lon="14.191399756919997"><ele>56.0</ele><time>2026-03-22T10:20:55Z</time></trkpt><trkpt lat="40.8317350618682" lon="14.191395241814522"><ele>56.00000000000001</ele><time>2026-03-22T10:20:56Z</time></trkpt><trkpt lat="40.83162463696356" lon="14.191372318054997"><ele>56.0</ele><time>2026-03-22T10:20:57Z</time></trkpt><trkpt lat="40.83153523275802" lon="14.191358426040807"><ele>54.4</ele><time>2026-03-22T10:20:58Z</time></trkpt><trkpt lat="40.83145264467558" lon="14.191342491887433"><ele>52.8</ele><time>2026-03-22T10:20:59Z</time></trkpt><trkpt lat="40.831369585492624" lon="14.191323696920215"><ele>51.199999999999996</ele><time>2026-03-22T10:21:00Z</time></trkpt><trkpt lat="40.8312747640222" lon="14.19130775745131"><ele>49.599999999999994</ele><time>2026-03-22T10:21:01Z</time></trkpt><trkpt lat="40.83117550931468" lon="14.191294064311226"><ele>48.0</ele><time>2026-03-22T10:21:02Z</time></trkpt><trkpt lat="40.831041534418546" lon="14.191262105476369"><ele>47.4</ele><time>2026-03-22T10:21:03Z</time></trkpt><trkpt lat="40.830931188788675" lon="14.191225720830117"><ele>46.8</ele><time>2026-03-22T10:21:04Z</time></trkpt><trkpt lat="40.83082743395222" lon="14.191211153187371"><ele>46.2</ele><time>2026-03-22T10:21:05Z</time></trkpt><trkpt lat="40.830726867579" lon="14.191183648027515"><ele>45.6</ele><time>2026-03-22T10:21:05.999Z</time></trkpt><trkpt lat="40.830611893074334" lon="14.19115238414817"><ele>45.0</ele><time>2026-03-22T10:21:06.999Z</time></trkpt><trkpt lat="40.83050264025538" lon="14.191135061629629"><ele>45.0</ele><time>2026-03-22T10:21:07.999Z</time></trkpt><trkpt lat="40.830399397196736" lon="14.191119592633857"><ele>45.0</ele><time>2026-03-22T10:21:08.999Z</time></trkpt><trkpt lat="40.83029808633034" lon="14.191111451160765"><ele>45.0</ele><time>2026-03-22T10:21:09.999Z</time></trkpt><trkpt lat="40.83017993709695" lon="14.191107744360748"><ele>45.0</ele><time>2026-03-22T10:21:10.999Z</time></trkpt><trkpt lat="40.83005565332215" lon="14.191114183288477"><ele>45.0</ele><time>2026-03-22T10:21:11.999Z</time></trkpt><trkpt lat="40.829914887296376" lon="14.191124697018806"><ele>44.333333333333336</ele><time>2026-03-22T10:21:12.999Z</time></trkpt><trkpt lat="40.829762325988874" lon="14.191143515404423"><ele>43.66666666666667</ele><time>2026-03-22T10:21:13.999Z</time></trkpt><trkpt lat="40.829590362554384" lon="14.191160763071682"><ele>43.0</ele><time>2026-03-22T10:21:14.999Z</time></trkpt><trkpt lat="40.82939664193779" lon="14.191168685427385"><ele>43.0</ele><time>2026-03-22T10:21:15.999Z</time></trkpt><trkpt lat="40.829211277791046" lon="14.191178765148134"><ele>43.0</ele><time>2026-03-22T10:21:16.999Z</time></trkpt><trkpt lat="40.82903911602542" lon="14.191194576089112"><ele>43.0</ele><time>2026-03-22T10:21:17.999Z</time></trkpt><trkpt lat="40.828836382353614" lon="14.19119894294156"><ele>43.0</ele><time>2026-03-22T10:21:18.999Z</time></trkpt><trkpt lat="40.8286498092529" lon="14.191214015721597"><ele>43.0</ele><time>2026-03-22T10:21:20.074Z</time></trkpt><trkpt lat="40.82846973406904" lon="14.191229651227005"><ele>43.0</ele><time>2026-03-22T10:21:21.06Z</time></trkpt><trkpt lat="40.828308308190955" lon="14.191246723220818"><ele>44.0</ele><time>2026-03-22T10:21:22.06Z</time></trkpt><trkpt lat="40.828152058100315" lon="14.191262107855673"><ele>45.0</ele><time>2026-03-22T10:21:23.058Z</time></trkpt><trkpt lat="40.82777326739053" lon="14.191536175708956"><ele>46.33333333333333</ele><time>2026-03-22T10:21:24.999Z</time></trkpt><trkpt lat="40.827543918738435" lon="14.191624653215719"><ele>47.666666666666664</ele><time>2026-03-22T10:21:25.999Z</time></trkpt><trkpt lat="40.82735169599291" lon="14.19168480033757"><ele>49.0</ele><time>2026-03-22T10:21:26.999Z</time></trkpt><trkpt lat="40.82718390384606" lon="14.191722592947533"><ele>49.0</ele><time>2026-03-22T10:21:27.999Z</time></trkpt><trkpt lat="40.827030704551646" lon="14.19179768049908"><ele>49.0</ele><time>2026-03-22T10:21:28.999Z</time></trkpt><trkpt lat="40.82687198759305" lon="14.191872623145038"><ele>49.0</ele><time>2026-03-22T10:21:29.999Z</time></trkpt><trkpt lat="40.82671002662392" lon="14.191929030194498"><ele>46.25</ele><time>2026-03-22T10:21:30.999Z</time></trkpt><trkpt lat="40.826549179511694" lon="14.192024904928749"><ele>43.5</ele><time>2026-03-22T10:21:31.999Z</time></trkpt><trkpt lat="40.82638172498698" lon="14.192102185128569"><ele>40.75</ele><time>2026-03-22T10:21:32.999Z</time></trkpt><trkpt lat="40.82629479122812" lon="14.192101072812465"><ele>38.0</ele><time>2026-03-22T10:21:33.999Z</time></trkpt><trkpt lat="40.8261712352584" lon="14.192109081646223"><ele>38.0</ele><time>2026-03-22T10:21:34.999Z</time></trkpt><trkpt lat="40.8260292857855" lon="14.19207323758242"><ele>38.0</ele><time>2026-03-22T10:21:35.999Z</time></trkpt><trkpt lat="40.82590788782189" lon="14.192109284825788"><ele>38.0</ele><time>2026-03-22T10:21:36.999Z</time></trkpt><trkpt lat="40.825786885850526" lon="14.192177501011102"><ele>38.0</ele><time>2026-03-22T10:21:37.999Z</time></trkpt><trkpt lat="40.825647936279196" lon="14.192210143324251"><ele>37.25</ele><time>2026-03-22T10:21:38.999Z</time></trkpt><trkpt lat="40.82551677631171" lon="14.19226356626368"><ele>36.5</ele><time>2026-03-22T10:21:39.999Z</time></trkpt><trkpt lat="40.82538677979014" lon="14.192315002383273"><ele>35.75</ele><time>2026-03-22T10:21:40.999Z</time></trkpt><trkpt lat="40.82526026559188" lon="14.192374024173258"><ele>35.0</ele><time>2026-03-22T10:21:41.999Z</time></trkpt><trkpt lat="40.82511822831782" lon="14.192430907921276"><ele>34.666666666666664</ele><time>2026-03-22T10:21:42.999Z</time></trkpt><trkpt lat="40.82497033747993" lon="14.192460571025213"><ele>34.333333333333336</ele><time>2026-03-22T10:21:44.055Z</time></trkpt><trkpt lat="40.82480693165972" lon="14.192513017379394"><ele>34.0</ele><time>2026-03-22T10:21:45.055Z</time></trkpt><trkpt lat="40.82466874191858" lon="14.192561989624506"><ele>34.0</ele><time>2026-03-22T10:21:46.059Z</time></trkpt><trkpt lat="40.82451125240727" lon="14.192571353810367"><ele>34.0</ele><time>2026-03-22T10:21:46.999Z</time></trkpt><trkpt lat="40.824401260534664" lon="14.192561668349368"><ele>34.0</ele><time>2026-03-22T10:21:47.999Z</time></trkpt><trkpt lat="40.82421243913676" lon="14.19268915117401"><ele>33.2</ele><time>2026-03-22T10:21:48.999Z</time></trkpt><trkpt lat="40.82408366841767" lon="14.192741525571387"><ele>32.4</ele><time>2026-03-22T10:21:49.999Z</time></trkpt><trkpt lat="40.82398350814706" lon="14.192773180750516"><ele>31.6</ele><time>2026-03-22T10:21:50.999Z</time></trkpt><trkpt lat="40.823891544468246" lon="14.192816754327561"><ele>30.8</ele><time>2026-03-22T10:21:51.999Z</time></trkpt><trkpt lat="40.8238180309953" lon="14.19286515469192"><ele>30.0</ele><time>2026-03-22T10:21:52.999Z</time></trkpt><trkpt lat="40.82374649980278" lon="14.192910241294518"><ele>30.0</ele><time>2026-03-22T10:21:53.999Z</time></trkpt><trkpt lat="40.82368044392546" lon="14.192955958702052"><ele>30.0</ele><time>2026-03-22T10:21:54.999Z</time></trkpt><trkpt lat="40.823604778460265" lon="14.193004354255452"><ele>30.0</ele><time>2026-03-22T10:21:55.999Z</time></trkpt><trkpt lat="40.82354536422699" lon="14.193067084046866"><ele>30.0</ele><time>2026-03-22T10:21:56.999Z</time></trkpt><trkpt lat="40.82344261886182" lon="14.193140480551593"><ele>30.0</ele><time>2026-03-22T10:21:58.999Z</time></trkpt><trkpt lat="40.823349268114555" lon="14.193206220717022"><ele>29.833333333333332</ele><time>2026-03-22T10:22:00.999Z</time></trkpt><trkpt lat="40.82326438708139" lon="14.193232003457211"><ele>29.666666666666664</ele><time>2026-03-22T10:22:02.999Z</time></trkpt><trkpt lat="40.823177823981005" lon="14.193256182511602"><ele>29.5</ele><time>2026-03-22T10:22:04.999Z</time></trkpt><trkpt lat="40.823108568222565" lon="14.193309564730107"><ele>29.333333333333332</ele><time>2026-03-22T10:22:06.999Z</time></trkpt><trkpt lat="40.823044990176065" lon="14.193355595446238"><ele>29.166666666666664</ele><time>2026-03-22T10:22:08.999Z</time></trkpt><trkpt lat="40.822974383948626" lon="14.193409698658863"><ele>29.0</ele><time>2026-03-22T10:22:10.999Z</time></trkpt><trkpt lat="40.822899109762226" lon="14.193467621432752"><ele>29.0</ele><time>2026-03-22T10:22:12.999Z</time></trkpt><trkpt lat="40.82299244137469" lon="14.19369364186622"><ele>29.0</ele><time>2026-03-22T10:22:15.999Z</time></trkpt><trkpt lat="40.82303052160535" lon="14.19380275198277"><ele>29.0</ele><time>2026-03-22T10:22:16.999Z</time></trkpt><trkpt lat="40.8230728179537" lon="14.193925363901132"><ele>29.0</ele><time>2026-03-22T10:22:17.999Z</time></trkpt><trkpt lat="40.82316020968303" lon="14.194175772067544"><ele>29.4</ele><time>2026-03-22T10:22:18.999Z</time></trkpt><trkpt lat="40.82319735457358" lon="14.1943121358053"><ele>29.799999999999997</ele><time>2026-03-22T10:22:19.999Z</time></trkpt><trkpt lat="40.823247664664194" lon="14.194427382274172"><ele>30.200000000000003</ele><time>2026-03-22T10:22:20.999Z</time></trkpt><trkpt lat="40.82328069114327" lon="14.194544019947019"><ele>30.6</ele><time>2026-03-22T10:22:22.999Z</time></trkpt><trkpt lat="40.82332685240087" lon="14.194641834164473"><ele>31.0</ele><time>2026-03-22T10:22:24.999Z</time></trkpt><trkpt lat="40.82340610895922" lon="14.194807899739134"><ele>30.5</ele><time>2026-03-22T10:22:26.999Z</time></trkpt><trkpt lat="40.82344295986414" lon="14.194915991523699"><ele>30.0</ele><time>2026-03-22T10:22:27.999Z</time></trkpt><trkpt lat="40.8234904436641" lon="14.195058399367625"><ele>29.5</ele><time>2026-03-22T10:22:28.999Z</time></trkpt><trkpt lat="40.823560708157174" lon="14.195256325350964"><ele>29.0</ele><time>2026-03-22T10:22:29.999Z</time></trkpt><trkpt lat="40.82363072803269" lon="14.195515604032092"><ele>30.666666666666664</ele><time>2026-03-22T10:22:30.999Z</time></trkpt><trkpt lat="40.82371871893564" lon="14.195785759490622"><ele>32.333333333333336</ele><time>2026-03-22T10:22:31.999Z</time></trkpt><trkpt lat="40.823790060974666" lon="14.196004798332897"><ele>34.0</ele><time>2026-03-22T10:22:32.999Z</time></trkpt><trkpt lat="40.823851294822695" lon="14.196192802365458"><ele>34.0</ele><time>2026-03-22T10:22:33.999Z</time></trkpt><trkpt lat="40.82391043879867" lon="14.196377776147287"><ele>34.0</ele><time>2026-03-22T10:22:34.999Z</time></trkpt><trkpt lat="40.82397210919494" lon="14.19657282118918"><ele>34.0</ele><time>2026-03-22T10:22:35.999Z</time></trkpt><trkpt lat="40.82404491485798" lon="14.19676846577476"><ele>33.0</ele><time>2026-03-22T10:22:36.999Z</time></trkpt><trkpt lat="40.82410357130576" lon="14.196946455413526"><ele>32.0</ele><time>2026-03-22T10:22:37.999Z</time></trkpt><trkpt lat="40.82415611988429" lon="14.19710908122418"><ele>31.0</ele><time>2026-03-22T10:22:38.999Z</time></trkpt><trkpt lat="40.82420130940856" lon="14.197244995044178"><ele>30.0</ele><time>2026-03-22T10:22:39.999Z</time></trkpt><trkpt lat="40.82422129145021" lon="14.197369378300413"><ele>29.833333333333332</ele><time>2026-03-22T10:22:40.999Z</time></trkpt><trkpt lat="40.82426043863936" lon="14.197437959991914"><ele>29.666666666666664</ele><time>2026-03-22T10:22:41.998Z</time></trkpt><trkpt lat="40.824264866946486" lon="14.197561533000943"><ele>29.5</ele><time>2026-03-22T10:22:44.998Z</time></trkpt><trkpt lat="40.82427684984843" lon="14.197646187307097"><ele>29.333333333333332</ele><time>2026-03-22T10:22:46.998Z</time></trkpt><trkpt lat="40.82428431653626" lon="14.197741544652775"><ele>29.166666666666664</ele><time>2026-03-22T10:22:49.998Z</time></trkpt><trkpt lat="40.8243478471718" lon="14.197889334659324"><ele>29.0</ele><time>2026-03-22T10:23:03Z</time></trkpt><trkpt lat="40.82438773440588" lon="14.197991135835576"><ele>29.799999999999997</ele><time>2026-03-22T10:23:04Z</time></trkpt><trkpt lat="40.82443324619987" lon="14.19809410471674"><ele>30.599999999999998</ele><time>2026-03-22T10:23:05Z</time></trkpt><trkpt lat="40.824481547654884" lon="14.198203343864918"><ele>31.4</ele><time>2026-03-22T10:23:06Z</time></trkpt><trkpt lat="40.82453095089985" lon="14.198332509626086"><ele>32.199999999999996</ele><time>2026-03-22T10:23:07Z</time></trkpt><trkpt lat="40.82458442812045" lon="14.19849372603551"><ele>33.0</ele><time>2026-03-22T10:23:08Z</time></trkpt><trkpt lat="40.82464068433144" lon="14.198669046555828"><ele>33.0</ele><time>2026-03-22T10:23:08.999Z</time></trkpt><trkpt lat="40.82470588018837" lon="14.198874967473131"><ele>33.0</ele><time>2026-03-22T10:23:09.999Z</time></trkpt><trkpt lat="40.82476524497714" lon="14.199094474035627"><ele>33.0</ele><time>2026-03-22T10:23:10.999Z</time></trkpt><trkpt lat="40.824824700889515" lon="14.199334852044636"><ele>33.0</ele><time>2026-03-22T10:23:11.999Z</time></trkpt><trkpt lat="40.82486659816972" lon="14.19957322453961"><ele>33.0</ele><time>2026-03-22T10:23:12.999Z</time></trkpt><trkpt lat="40.82489009638484" lon="14.199816889648867"><ele>33.0</ele><time>2026-03-22T10:23:13.999Z</time></trkpt><trkpt lat="40.82492578028143" lon="14.200067087951213"><ele>32.666666666666664</ele><time>2026-03-22T10:23:14.999Z</time></trkpt><trkpt lat="40.82495974883937" lon="14.200335558765769"><ele>32.33333333333333</ele><time>2026-03-22T10:23:15.999Z</time></trkpt><trkpt lat="40.824963659240396" lon="14.20056850635317"><ele>32.0</ele><time>2026-03-22T10:23:16.999Z</time></trkpt><trkpt lat="40.82498155298564" lon="14.200778184254991"><ele>31.5</ele><time>2026-03-22T10:23:17.999Z</time></trkpt><trkpt lat="40.82499682858946" lon="14.200957183019058"><ele>31.0</ele><time>2026-03-22T10:23:18.999Z</time></trkpt><trkpt lat="40.825012891439485" lon="14.201145406165518"><ele>30.5</ele><time>2026-03-22T10:23:19.999Z</time></trkpt><trkpt lat="40.825058394658456" lon="14.201313604351645"><ele>30.0</ele><time>2026-03-22T10:23:20.999Z</time></trkpt><trkpt lat="40.82506955166935" lon="14.201463197715606"><ele>30.8</ele><time>2026-03-22T10:23:21.999Z</time></trkpt><trkpt lat="40.82507595379519" lon="14.20159781151274"><ele>31.6</ele><time>2026-03-22T10:23:22.999Z</time></trkpt><trkpt lat="40.825083836263936" lon="14.201722870168867"><ele>32.4</ele><time>2026-03-22T10:23:23.999Z</time></trkpt><trkpt lat="40.82507858399475" lon="14.201869129515188"><ele>33.2</ele><time>2026-03-22T10:23:24.999Z</time></trkpt><trkpt lat="40.82509390484347" lon="14.202030727423699"><ele>34.0</ele><time>2026-03-22T10:23:25.999Z</time></trkpt><trkpt lat="40.82510924118541" lon="14.202195497491406"><ele>36.75</ele><time>2026-03-22T10:23:26.999Z</time></trkpt><trkpt lat="40.825124739824574" lon="14.20236238053162"><ele>39.5</ele><time>2026-03-22T10:23:27.999Z</time></trkpt><trkpt lat="40.82514238136628" lon="14.202544167297193"><ele>42.25</ele><time>2026-03-22T10:23:28.999Z</time></trkpt><trkpt lat="40.82516250873021" lon="14.202705394140272"><ele>45.0</ele><time>2026-03-22T10:23:29.999Z</time></trkpt><trkpt lat="40.82518021155857" lon="14.202841158239574"><ele>45.0</ele><time>2026-03-22T10:23:30.999Z</time></trkpt><trkpt lat="40.825215905136176" lon="14.20296396009889"><ele>45.0</ele><time>2026-03-22T10:23:31.999Z</time></trkpt><trkpt lat="40.82523222015943" lon="14.203079894496147"><ele>45.0</ele><time>2026-03-22T10:23:32.999Z</time></trkpt><trkpt lat="40.82524603700929" lon="14.20318253484332"><ele>45.0</ele><time>2026-03-22T10:23:33.999Z</time></trkpt><trkpt lat="40.82526085268863" lon="14.20327849361881"><ele>45.0</ele><time>2026-03-22T10:23:34.999Z</time></trkpt><trkpt lat="40.82527789870404" lon="14.203365532471743"><ele>45.0</ele><time>2026-03-22T10:23:35.999Z</time></trkpt><trkpt lat="40.8253132489412" lon="14.203504599662672"><ele>45.0</ele><time>2026-03-22T10:23:37.999Z</time></trkpt><trkpt lat="40.82533896661513" lon="14.203599786680355"><ele>45.0</ele><time>2026-03-22T10:23:40.999Z</time></trkpt><trkpt lat="40.82538903082999" lon="14.203709099930956"><ele>45.0</ele><time>2026-03-22T10:23:55.999Z</time></trkpt><trkpt lat="40.82544864657725" lon="14.203847466069558"><ele>45.0</ele><time>2026-03-22T10:23:57.999Z</time></trkpt><trkpt lat="40.825483896610166" lon="14.204007876521896"><ele>45.0</ele><time>2026-03-22T10:23:59.999Z</time></trkpt><trkpt lat="40.825512552201154" lon="14.204098638185696"><ele>44.333333333333336</ele><time>2026-03-22T10:24:00.999Z</time></trkpt><trkpt lat="40.82554392998591" lon="14.20419705976687"><ele>43.666666666666664</ele><time>2026-03-22T10:24:01.999Z</time></trkpt><trkpt lat="40.82557371310201" lon="14.204291216781332"><ele>43.0</ele><time>2026-03-22T10:24:02.999Z</time></trkpt><trkpt lat="40.825615030111095" lon="14.204423416898235"><ele>42.33333333333333</ele><time>2026-03-22T10:24:04.999Z</time></trkpt><trkpt lat="40.82564083088363" lon="14.20450597048633"><ele>41.666666666666664</ele><time>2026-03-22T10:24:05.999Z</time></trkpt><trkpt lat="40.82567412402066" lon="14.204612496984964"><ele>41.0</ele><time>2026-03-22T10:24:06.999Z</time></trkpt><trkpt lat="40.82572872848266" lon="14.204745219526645"><ele>40.75</ele><time>2026-03-22T10:24:07.999Z</time></trkpt><trkpt lat="40.82577869451392" lon="14.204896929238695"><ele>40.5</ele><time>2026-03-22T10:24:08.999Z</time></trkpt><trkpt lat="40.82583466166089" lon="14.205045418022424"><ele>40.25</ele><time>2026-03-22T10:24:09.999Z</time></trkpt><trkpt lat="40.82587849284753" lon="14.205209983550096"><ele>40.0</ele><time>2026-03-22T10:24:10.999Z</time></trkpt><trkpt lat="40.82592944795003" lon="14.205392853535288"><ele>40.25</ele><time>2026-03-22T10:24:11.999Z</time></trkpt><trkpt lat="40.82598527867419" lon="14.205556089502844"><ele>40.5</ele><time>2026-03-22T10:24:12.999Z</time></trkpt><trkpt lat="40.8260420165564" lon="14.205691725778768"><ele>40.75</ele><time>2026-03-22T10:24:13.999Z</time></trkpt><trkpt lat="40.82610762453682" lon="14.20582575894972"><ele>41.0</ele><time>2026-03-22T10:24:14.999Z</time></trkpt><trkpt lat="40.826159841080454" lon="14.205950872584772"><ele>41.599999999999994</ele><time>2026-03-22T10:24:15.999Z</time></trkpt><trkpt lat="40.8262008933541" lon="14.2060717385739"><ele>42.2</ele><time>2026-03-22T10:24:16.999Z</time></trkpt><trkpt lat="40.82624990553271" lon="14.206188648107464"><ele>42.8</ele><time>2026-03-22T10:24:17.999Z</time></trkpt><trkpt lat="40.826288475353394" lon="14.206302747816467"><ele>43.400000000000006</ele><time>2026-03-22T10:24:18.999Z</time></trkpt><trkpt lat="40.826321899003794" lon="14.206418311372772"><ele>44.0</ele><time>2026-03-22T10:24:19.999Z</time></trkpt><trkpt lat="40.82635224734912" lon="14.206530707050359"><ele>44.5</ele><time>2026-03-22T10:24:20.999Z</time></trkpt><trkpt lat="40.82638403463854" lon="14.206659864846396"><ele>45.0</ele><time>2026-03-22T10:24:21.999Z</time></trkpt><trkpt lat="40.8264142667447" lon="14.206795064889986"><ele>45.5</ele><time>2026-03-22T10:24:22.999Z</time></trkpt><trkpt lat="40.8264556160913" lon="14.206986500336129"><ele>46.0</ele><time>2026-03-22T10:24:23.999Z</time></trkpt><trkpt lat="40.826502858080815" lon="14.20721488539975"><ele>46.66666666666667</ele><time>2026-03-22T10:24:24.999Z</time></trkpt><trkpt lat="40.82654908110932" lon="14.207426892893789"><ele>47.333333333333336</ele><time>2026-03-22T10:24:25.999Z</time></trkpt><trkpt lat="40.826586223823824" lon="14.207618332352359"><ele>48.0</ele><time>2026-03-22T10:24:26.999Z</time></trkpt><trkpt lat="40.826622483285675" lon="14.207810995362408"><ele>48.0</ele><time>2026-03-22T10:24:27.999Z</time></trkpt><trkpt lat="40.82660951793169" lon="14.208020509237855"><ele>48.0</ele><time>2026-03-22T10:24:28.999Z</time></trkpt><trkpt lat="40.826647223119814" lon="14.208235359810033"><ele>48.0</ele><time>2026-03-22T10:24:29.999Z</time></trkpt><trkpt lat="40.82669336439736" lon="14.208496600102697"><ele>48.5</ele><time>2026-03-22T10:24:30.999Z</time></trkpt><trkpt lat="40.826750595889955" lon="14.20881471611336"><ele>49.0</ele><time>2026-03-22T10:24:31.999Z</time></trkpt><trkpt lat="40.82682117850003" lon="14.209204389439194"><ele>56.0</ele><time>2026-03-22T10:24:32.999Z</time></trkpt><trkpt lat="40.82689014200168" lon="14.2095873365291"><ele>63.0</ele><time>2026-03-22T10:24:33.999Z</time></trkpt><trkpt lat="40.82695476210118" lon="14.209944040875506"><ele>70.0</ele><time>2026-03-22T10:24:34.999Z</time></trkpt><trkpt lat="40.82701993150989" lon="14.210303882663341"><ele>77.0</ele><time>2026-03-22T10:24:35.999Z</time></trkpt><trkpt lat="40.82708787394831" lon="14.210683776535316"><ele>89.0</ele><time>2026-03-22T10:24:36.999Z</time></trkpt><trkpt lat="40.82715264300651" lon="14.211041701274189"><ele>101.0</ele><time>2026-03-22T10:24:38.057Z</time></trkpt><trkpt lat="40.82736898530675" lon="14.212281933787114"><ele>127.5</ele><time>2026-03-22T10:24:41.643Z</time></trkpt><trkpt lat="40.82743314953302" lon="14.212627493920358"><ele>154.0</ele><time>2026-03-22T10:24:42.644Z</time></trkpt><trkpt lat="40.82749754748127" lon="14.212973082046343"><ele>159.0</ele><time>2026-03-22T10:24:43.644Z</time></trkpt><trkpt lat="40.82756279374219" lon="14.21331792395788"><ele>164.0</ele><time>2026-03-22T10:24:44.643Z</time></trkpt><trkpt lat="40.82762760156821" lon="14.213663113924023"><ele>160.0</ele><time>2026-03-22T10:24:45.643Z</time></trkpt><trkpt lat="40.827689821888725" lon="14.214009538965529"><ele>156.0</ele><time>2026-03-22T10:24:46.644Z</time></trkpt><trkpt lat="40.82775181347928" lon="14.214355682932835"><ele>156.0</ele><time>2026-03-22T10:24:47.644Z</time></trkpt><trkpt lat="40.82781423514172" lon="14.214701703007803"><ele>156.0</ele><time>2026-03-22T10:24:48.644Z</time></trkpt><trkpt lat="40.827876022106956" lon="14.215047898675609"><ele>146.5</ele><time>2026-03-22T10:24:49.644Z</time></trkpt><trkpt lat="40.82793787307116" lon="14.215393754660303"><ele>137.0</ele><time>2026-03-22T10:24:50.643Z</time></trkpt><trkpt lat="40.82800061632556" lon="14.215739672097746"><ele>129.0</ele><time>2026-03-22T10:24:51.643Z</time></trkpt><trkpt lat="40.82806298645761" lon="14.216085933445877"><ele>121.0</ele><time>2026-03-22T10:24:52.644Z</time></trkpt><trkpt lat="40.82812450854058" lon="14.216431961625632"><ele>108.0</ele><time>2026-03-22T10:24:53.643Z</time></trkpt><trkpt lat="40.82818674204682" lon="14.216778378800779"><ele>95.0</ele><time>2026-03-22T10:24:54.644Z</time></trkpt><trkpt lat="40.82824850788354" lon="14.217124255752942"><ele>86.0</ele><time>2026-03-22T10:24:55.643Z</time></trkpt><trkpt lat="40.82831377418055" lon="14.21746922000816"><ele>77.0</ele><time>2026-03-22T10:24:56.643Z</time></trkpt><trkpt lat="40.82837725532689" lon="14.217815082932193"><ele>65.5</ele><time>2026-03-22T10:24:57.644Z</time></trkpt><trkpt lat="40.828439516343636" lon="14.218161030308051"><ele>54.0</ele><time>2026-03-22T10:24:58.643Z</time></trkpt><trkpt lat="40.82850156929979" lon="14.218507084312419"><ele>49.5</ele><time>2026-03-22T10:24:59.643Z</time></trkpt><trkpt lat="40.82856231803243" lon="14.21885361685549"><ele>45.0</ele><time>2026-03-22T10:25:00.643Z</time></trkpt><trkpt lat="40.82862368423607" lon="14.219199968157383"><ele>33.5</ele><time>2026-03-22T10:25:01.643Z</time></trkpt><trkpt lat="40.82860837513215" lon="14.219744855290031"><ele>22.0</ele><time>2026-03-22T10:25:16.998Z</time></trkpt><trkpt lat="40.82869225923626" lon="14.219847384220879"><ele>17.0</ele><time>2026-03-22T10:25:17.998Z</time></trkpt><trkpt lat="40.82863981893397" lon="14.219994899683373"><ele>12.0</ele><time>2026-03-22T10:25:18.998Z</time></trkpt><trkpt lat="40.82860222193261" lon="14.22020768693664"><ele>7.0</ele><time>2026-03-22T10:25:19.998Z</time></trkpt><trkpt lat="40.82854276458002" lon="14.220428480544651"><ele>7.000000000000001</ele><time>2026-03-22T10:25:20.998Z</time></trkpt><trkpt lat="40.82850323094626" lon="14.220526261745286"><ele>7.0</ele><time>2026-03-22T10:25:22Z</time></trkpt><trkpt lat="40.82848544967258" lon="14.220658410100677"><ele>7.0</ele><time>2026-03-22T10:25:23Z</time></trkpt><trkpt lat="40.828393406900155" lon="14.220711593686213"><ele>7.0</ele><time>2026-03-22T10:25:24Z</time></trkpt><trkpt lat="40.82834079487745" lon="14.220763043625427"><ele>7.000000000000001</ele><time>2026-03-22T10:25:25Z</time></trkpt><trkpt lat="40.828259335490394" lon="14.220833717003469"><ele>7.0</ele><time>2026-03-22T10:25:26Z</time></trkpt><trkpt lat="40.82818415354974" lon="14.220900900109124"><ele>6.8</ele><time>2026-03-22T10:25:27Z</time></trkpt><trkpt lat="40.82812232731892" lon="14.220944122445404"><ele>6.6</ele><time>2026-03-22T10:25:28Z</time></trkpt><trkpt lat="40.82804987484488" lon="14.221020260810542"><ele>6.3999999999999995</ele><time>2026-03-22T10:25:30Z</time></trkpt><trkpt lat="40.82799184843944" lon="14.221074931389882"><ele>6.199999999999999</ele><time>2026-03-22T10:25:34Z</time></trkpt><trkpt lat="40.82789381920439" lon="14.220928744723997"><ele>6.0</ele><time>2026-03-22T10:25:35Z</time></trkpt><trkpt lat="40.82783204711716" lon="14.220827860946306"><ele>6.0</ele><time>2026-03-22T10:25:35.999Z</time></trkpt><trkpt lat="40.827724647902436" lon="14.220699472828752"><ele>6.0</ele><time>2026-03-22T10:25:36.999Z</time></trkpt><trkpt lat="40.827579454438975" lon="14.220610257763687"><ele>6.0</ele><time>2026-03-22T10:25:37.999Z</time></trkpt><trkpt lat="40.82749916839915" lon="14.220483619339596"><ele>6.0</ele><time>2026-03-22T10:25:38.999Z</time></trkpt><trkpt lat="40.827404656003615" lon="14.220410856061001"><ele>7.0</ele><time>2026-03-22T10:25:39.999Z</time></trkpt><trkpt lat="40.82732592188326" lon="14.220345265715325"><ele>8.0</ele><time>2026-03-22T10:25:40.999Z</time></trkpt><trkpt lat="40.82726264641049" lon="14.22028851444144"><ele>9.0</ele><time>2026-03-22T10:25:41.999Z</time></trkpt><trkpt lat="40.827201581698894" lon="14.220225136176536"><ele>10.0</ele><time>2026-03-22T10:25:43.999Z</time></trkpt><trkpt lat="40.82713391163161" lon="14.220116853806905"><ele>11.0</ele><time>2026-03-22T10:27:06Z</time></trkpt><trkpt lat="40.82705616126082" lon="14.220022019856035"><ele>11.0</ele><time>2026-03-22T10:27:07Z</time></trkpt><trkpt lat="40.82697736089123" lon="14.219922066249579"><ele>11.0</ele><time>2026-03-22T10:27:08Z</time></trkpt><trkpt lat="40.82687719649236" lon="14.219857168981143"><ele>11.0</ele><time>2026-03-22T10:27:09Z</time></trkpt><trkpt lat="40.82682598022516" lon="14.21975719965237"><ele>11.0</ele><time>2026-03-22T10:27:10Z</time></trkpt><trkpt lat="40.82676901580988" lon="14.219666843675995"><ele>11.0</ele><time>2026-03-22T10:27:10.999Z</time></trkpt><trkpt lat="40.826598112760166" lon="14.219842308662647"><ele>10.4</ele><time>2026-03-22T10:27:11.999Z</time></trkpt><trkpt lat="40.82653144901528" lon="14.219837419654386"><ele>9.8</ele><time>2026-03-22T10:27:12.999Z</time></trkpt><trkpt lat="40.826426290314004" lon="14.219863237719379"><ele>9.200000000000001</ele><time>2026-03-22T10:27:14.999Z</time></trkpt><trkpt lat="40.82633990730828" lon="14.219843776965712"><ele>8.600000000000001</ele><time>2026-03-22T10:27:17.999Z</time></trkpt><trkpt lat="40.82631425072126" lon="14.220044102400031"><ele>8.0</ele><time>2026-03-22T10:27:19.999Z</time></trkpt><trkpt lat="40.826327792144085" lon="14.220125403689297"><ele>7.999999999999999</ele><time>2026-03-22T10:27:20.999Z</time></trkpt><trkpt lat="40.82634071180923" lon="14.22026043273697"><ele>8.0</ele><time>2026-03-22T10:27:22.999Z</time></trkpt><trkpt lat="40.82644266719144" lon="14.22030722194075"><ele>8.0</ele><time>2026-03-22T10:27:23.999Z</time></trkpt><trkpt lat="40.82653960288508" lon="14.22031631313148"><ele>8.0</ele><time>2026-03-22T10:27:25.999Z</time></trkpt><trkpt lat="40.82660275856237" lon="14.220320756096152"><ele>7.999999999999999</ele><time>2026-03-22T10:27:28Z</time></trkpt><trkpt lat="40.82667862016022" lon="14.220325762671532"><ele>8.0</ele><time>2026-03-22T10:27:32Z</time></trkpt><trkpt lat="40.826741193654684" lon="14.220312078284346"><ele>7.999999999999999</ele><time>2026-03-22T10:27:40Z</time></trkpt><trkpt lat="40.826809429972315" lon="14.220340508861241"><ele>8.0</ele><time>2026-03-22T10:27:43Z</time></trkpt><trkpt lat="40.826872363570736" lon="14.220352427757131"><ele>8.0</ele><time>2026-03-22T10:33:20Z</time></trkpt><trkpt lat="40.826941469091096" lon="14.220228377823728"><ele>8.0</ele><time>2026-03-22T10:33:58Z</time></trkpt><trkpt lat="40.8268674907397" lon="14.220237435614814"><ele>7.999999999999999</ele><time>2026-03-22T10:37:33.999Z</time></trkpt><trkpt lat="40.82679569340752" lon="14.220310507519798"><ele>8.0</ele><time>2026-03-22T10:37:51.999Z</time></trkpt><trkpt lat="40.826726454513214" lon="14.220211273995119"><ele>8.600000000000001</ele><time>2026-03-22T10:38:38.438Z</time></trkpt><trkpt lat="40.826857810064425" lon="14.220127353316597"><ele>9.200000000000001</ele><time>2026-03-22T10:40:53.015Z</time></trkpt><trkpt lat="40.82691382351851" lon="14.220266880667344"><ele>9.8</ele><time>2026-03-22T10:43:28Z</time></trkpt><trkpt lat="40.82699074851982" lon="14.220242237678978"><ele>10.4</ele><time>2026-03-22T10:49:51Z</time></trkpt><trkpt lat="40.827028817551046" lon="14.220134470799184"><ele>11.0</ele><time>2026-03-22T10:49:53Z</time></trkpt><trkpt lat="40.827045340554925" lon="14.220039757788904"><ele>11.0</ele><time>2026-03-22T10:49:55Z</time></trkpt><trkpt lat="40.82701664171083" lon="14.219945127074938"><ele>11.0</ele><time>2026-03-22T10:49:57Z</time></trkpt><trkpt lat="40.8269531557869" lon="14.219884888938338"><ele>11.0</ele><time>2026-03-22T10:50:01Z</time></trkpt><trkpt lat="40.826903825725346" lon="14.219798105377805"><ele>11.0</ele><time>2026-03-22T10:50:04Z</time></trkpt><trkpt lat="40.82688564402104" lon="14.219664680403087"><ele>11.0</ele><time>2026-03-22T10:50:06Z</time></trkpt><trkpt lat="40.82689656482595" lon="14.219557110766049"><ele>11.0</ele><time>2026-03-22T10:50:08Z</time></trkpt><trkpt lat="40.82693908995638" lon="14.219454180850171"><ele>14.8</ele><time>2026-03-22T10:50:10Z</time></trkpt><trkpt lat="40.82701595393998" lon="14.219366112711892"><ele>18.6</ele><time>2026-03-22T10:50:12Z</time></trkpt><trkpt lat="40.82708220650101" lon="14.21931158101885"><ele>22.4</ele><time>2026-03-22T10:50:14Z</time></trkpt><trkpt lat="40.82725474956987" lon="14.219371651495827"><ele>26.2</ele><time>2026-03-22T10:50:15Z</time></trkpt><trkpt lat="40.82732268564909" lon="14.219375886559641"><ele>30.0</ele><time>2026-03-22T10:50:16Z</time></trkpt><trkpt lat="40.82738805849727" lon="14.219373786259412"><ele>30.0</ele><time>2026-03-22T10:50:17Z</time></trkpt><trkpt lat="40.827498549700444" lon="14.219314847473097"><ele>30.0</ele><time>2026-03-22T10:50:19Z</time></trkpt><trkpt lat="40.82756011545768" lon="14.219173691359831"><ele>30.0</ele><time>2026-03-22T10:50:21Z</time></trkpt><trkpt lat="40.82758318600558" lon="14.219018416050853"><ele>30.0</ele><time>2026-03-22T10:50:23Z</time></trkpt><trkpt lat="40.82754820641659" lon="14.2188650710133"><ele>38.0</ele><time>2026-03-22T10:50:25Z</time></trkpt><trkpt lat="40.8275102097217" lon="14.218797749011799"><ele>46.0</ele><time>2026-03-22T10:50:26Z</time></trkpt><trkpt lat="40.827395253615876" lon="14.218729361846448"><ele>54.0</ele><time>2026-03-22T10:50:28Z</time></trkpt><trkpt lat="40.827311081903936" lon="14.21873059471545"><ele>62.0</ele><time>2026-03-22T10:50:29Z</time></trkpt><trkpt lat="40.827199555152106" lon="14.21873460088889"><ele>70.0</ele><time>2026-03-22T10:50:30Z</time></trkpt><trkpt lat="40.82705835873067" lon="14.218730172120374"><ele>70.0</ele><time>2026-03-22T10:50:31Z</time></trkpt><trkpt lat="40.826878992449124" lon="14.21872488349759"><ele>70.0</ele><time>2026-03-22T10:50:32Z</time></trkpt><trkpt lat="40.82669761409683" lon="14.218717671389207"><ele>70.0</ele><time>2026-03-22T10:50:33Z</time></trkpt><trkpt lat="40.82655424781543" lon="14.218718751217477"><ele>69.0</ele><time>2026-03-22T10:50:34Z</time></trkpt><trkpt lat="40.82643423216427" lon="14.218720024585652"><ele>68.0</ele><time>2026-03-22T10:50:35Z</time></trkpt><trkpt lat="40.82634925870288" lon="14.21875528847183"><ele>67.0</ele><time>2026-03-22T10:50:36Z</time></trkpt><trkpt lat="40.8262731678715" lon="14.218778788444023"><ele>66.0</ele><time>2026-03-22T10:50:37Z</time></trkpt><trkpt lat="40.826194200157985" lon="14.218796766724"><ele>65.0</ele><time>2026-03-22T10:50:38Z</time></trkpt><trkpt lat="40.82611177020956" lon="14.218818898412591"><ele>65.0</ele><time>2026-03-22T10:50:39Z</time></trkpt><trkpt lat="40.82602242375104" lon="14.218835398830862"><ele>65.0</ele><time>2026-03-22T10:50:40Z</time></trkpt><trkpt lat="40.82593420896282" lon="14.21884545830491"><ele>65.0</ele><time>2026-03-22T10:50:41Z</time></trkpt><trkpt lat="40.825816350634796" lon="14.218861606887751"><ele>65.0</ele><time>2026-03-22T10:50:42Z</time></trkpt><trkpt lat="40.825646408970464" lon="14.218885366342064"><ele>64.66666666666667</ele><time>2026-03-22T10:50:43Z</time></trkpt><trkpt lat="40.82546093562108" lon="14.218906706989749"><ele>64.33333333333333</ele><time>2026-03-22T10:50:44Z</time></trkpt><trkpt lat="40.82530984592409" lon="14.218913519830826"><ele>64.0</ele><time>2026-03-22T10:50:45Z</time></trkpt><trkpt lat="40.82518767443351" lon="14.21892642403086"><ele>58.5</ele><time>2026-03-22T10:50:46Z</time></trkpt><trkpt lat="40.82507909401749" lon="14.218985986903892"><ele>53.0</ele><time>2026-03-22T10:50:47Z</time></trkpt><trkpt lat="40.824969225058155" lon="14.219072933164528"><ele>47.5</ele><time>2026-03-22T10:50:48Z</time></trkpt><trkpt lat="40.82484863891942" lon="14.219150960816425"><ele>42.0</ele><time>2026-03-22T10:50:49Z</time></trkpt><trkpt lat="40.82474339928366" lon="14.219208848905224"><ele>42.0</ele><time>2026-03-22T10:50:50Z</time></trkpt><trkpt lat="40.82463919490829" lon="14.219242150583169"><ele>42.0</ele><time>2026-03-22T10:50:51Z</time></trkpt><trkpt lat="40.82455910656198" lon="14.219252155735601"><ele>42.0</ele><time>2026-03-22T10:50:52Z</time></trkpt><trkpt lat="40.824476707069316" lon="14.219235823184093"><ele>42.0</ele><time>2026-03-22T10:50:52.999Z</time></trkpt><trkpt lat="40.82439479753873" lon="14.219195165546594"><ele>42.0</ele><time>2026-03-22T10:50:53.999Z</time></trkpt><trkpt lat="40.82432220813754" lon="14.219128514403549"><ele>42.0</ele><time>2026-03-22T10:50:54.999Z</time></trkpt><trkpt lat="40.82426306114971" lon="14.219045024443009"><ele>44.6</ele><time>2026-03-22T10:50:55.999Z</time></trkpt><trkpt lat="40.82421021629722" lon="14.218925691755182"><ele>47.2</ele><time>2026-03-22T10:50:56.999Z</time></trkpt><trkpt lat="40.824160922312124" lon="14.218792162138609"><ele>49.8</ele><time>2026-03-22T10:50:57.999Z</time></trkpt><trkpt lat="40.82412269352544" lon="14.218672191954283"><ele>52.4</ele><time>2026-03-22T10:50:58.999Z</time></trkpt><trkpt lat="40.82408478594398" lon="14.2185596604214"><ele>55.0</ele><time>2026-03-22T10:50:59.999Z</time></trkpt><trkpt lat="40.824058186916055" lon="14.218433375470994"><ele>55.0</ele><time>2026-03-22T10:51:00.999Z</time></trkpt><trkpt lat="40.8240475455738" lon="14.21827718360172"><ele>55.0</ele><time>2026-03-22T10:51:01.999Z</time></trkpt><trkpt lat="40.82403366455895" lon="14.218127971245417"><ele>55.0</ele><time>2026-03-22T10:51:02.999Z</time></trkpt><trkpt lat="40.8239842431429" lon="14.217972382730462"><ele>55.0</ele><time>2026-03-22T10:51:03.999Z</time></trkpt><trkpt lat="40.82392990849056" lon="14.217821714398516"><ele>56.8</ele><time>2026-03-22T10:51:04.999Z</time></trkpt><trkpt lat="40.8238755450856" lon="14.217686232303286"><ele>58.6</ele><time>2026-03-22T10:51:05.999Z</time></trkpt><trkpt lat="40.823830005901264" lon="14.21757418805755"><ele>60.400000000000006</ele><time>2026-03-22T10:51:06.999Z</time></trkpt><trkpt lat="40.82380298125171" lon="14.217471883170338"><ele>62.2</ele><time>2026-03-22T10:51:07.999Z</time></trkpt><trkpt lat="40.82380111349973" lon="14.217353053512326"><ele>64.0</ele><time>2026-03-22T10:51:08.999Z</time></trkpt><trkpt lat="40.82383783545073" lon="14.21726847876666"><ele>64.0</ele><time>2026-03-22T10:51:09.999Z</time></trkpt><trkpt lat="40.82388620918158" lon="14.217176993408495"><ele>64.0</ele><time>2026-03-22T10:51:10.999Z</time></trkpt><trkpt lat="40.824008773287574" lon="14.217253666930672"><ele>64.0</ele><time>2026-03-22T10:51:14.999Z</time></trkpt><trkpt lat="40.824084763950474" lon="14.217378530935067"><ele>64.0</ele><time>2026-03-22T10:51:16.999Z</time></trkpt><trkpt lat="40.824063407788294" lon="14.217549295834038"><ele>64.0</ele><time>2026-03-22T10:51:18.999Z</time></trkpt><trkpt lat="40.824041488331645" lon="14.217671960592513"><ele>64.0</ele><time>2026-03-22T10:51:19.999Z</time></trkpt><trkpt lat="40.8240350967517" lon="14.21779979893092"><ele>64.0</ele><time>2026-03-22T10:51:20.999Z</time></trkpt><trkpt lat="40.82404264981049" lon="14.217918082090339"><ele>64.0</ele><time>2026-03-22T10:51:21.999Z</time></trkpt><trkpt lat="40.82406503364864" lon="14.218027385616917"><ele>64.0</ele><time>2026-03-22T10:51:22.999Z</time></trkpt><trkpt lat="40.82409967633723" lon="14.218138874376377"><ele>64.8</ele><time>2026-03-22T10:51:23.999Z</time></trkpt><trkpt lat="40.82415583696322" lon="14.218242705392926"><ele>65.60000000000001</ele><time>2026-03-22T10:51:24.999Z</time></trkpt><trkpt lat="40.82423406644243" lon="14.218324334400434"><ele>66.4</ele><time>2026-03-22T10:51:25.999Z</time></trkpt><trkpt lat="40.82431327180917" lon="14.218384340574174"><ele>67.2</ele><time>2026-03-22T10:51:26.999Z</time></trkpt><trkpt lat="40.82441216392953" lon="14.218417955968103"><ele>68.0</ele><time>2026-03-22T10:51:27.999Z</time></trkpt><trkpt lat="40.82452218687568" lon="14.218405691618031"><ele>68.0</ele><time>2026-03-22T10:51:28.999Z</time></trkpt><trkpt lat="40.82464534809051" lon="14.218391002776354"><ele>68.0</ele><time>2026-03-22T10:51:30Z</time></trkpt><trkpt lat="40.82477786368699" lon="14.218348139173271"><ele>68.0</ele><time>2026-03-22T10:51:31Z</time></trkpt><trkpt lat="40.824918199203466" lon="14.218295196910892"><ele>68.0</ele><time>2026-03-22T10:51:32Z</time></trkpt><trkpt lat="40.82508424085473" lon="14.218234090239298"><ele>67.0</ele><time>2026-03-22T10:51:33Z</time></trkpt><trkpt lat="40.8252441009975" lon="14.218180153522665"><ele>66.0</ele><time>2026-03-22T10:51:34Z</time></trkpt><trkpt lat="40.825377354755595" lon="14.218137738455301"><ele>65.0</ele><time>2026-03-22T10:51:35Z</time></trkpt><trkpt lat="40.82549437648877" lon="14.218108113223987"><ele>64.0</ele><time>2026-03-22T10:51:36Z</time></trkpt><trkpt lat="40.82560674714064" lon="14.218077737541769"><ele>71.75</ele><time>2026-03-22T10:51:37Z</time></trkpt><trkpt lat="40.82571832410343" lon="14.218045176744889"><ele>79.5</ele><time>2026-03-22T10:51:38Z</time></trkpt><trkpt lat="40.82583010009638" lon="14.218024936383376"><ele>87.25</ele><time>2026-03-22T10:51:39Z</time></trkpt><trkpt lat="40.82593658976397" lon="14.217999332923512"><ele>95.0</ele><time>2026-03-22T10:51:40Z</time></trkpt><trkpt lat="40.82606258459371" lon="14.217975947095692"><ele>95.25</ele><time>2026-03-22T10:51:41Z</time></trkpt><trkpt lat="40.82619111131941" lon="14.217952445931864"><ele>95.5</ele><time>2026-03-22T10:51:42Z</time></trkpt><trkpt lat="40.82630620248813" lon="14.217924794058202"><ele>95.75</ele><time>2026-03-22T10:51:43Z</time></trkpt><trkpt lat="40.82642795627172" lon="14.217949091093699"><ele>96.0</ele><time>2026-03-22T10:51:44Z</time></trkpt><trkpt lat="40.826543580572235" lon="14.21812176069296"><ele>90.8</ele><time>2026-03-22T10:51:46Z</time></trkpt><trkpt lat="40.826636566445735" lon="14.218161013942593"><ele>85.6</ele><time>2026-03-22T10:51:47Z</time></trkpt><trkpt lat="40.82673727522345" lon="14.218176511732354"><ele>80.4</ele><time>2026-03-22T10:51:48Z</time></trkpt><trkpt lat="40.82683396010528" lon="14.218197799991444"><ele>75.2</ele><time>2026-03-22T10:51:49Z</time></trkpt><trkpt lat="40.826920216187716" lon="14.218206073451098"><ele>70.0</ele><time>2026-03-22T10:51:50Z</time></trkpt><trkpt lat="40.82701351933042" lon="14.218199090038349"><ele>70.0</ele><time>2026-03-22T10:51:51Z</time></trkpt><trkpt lat="40.82711030969344" lon="14.218163421847231"><ele>70.0</ele><time>2026-03-22T10:51:52Z</time></trkpt><trkpt lat="40.827202902100154" lon="14.218109011839932"><ele>70.0</ele><time>2026-03-22T10:51:53Z</time></trkpt><trkpt lat="40.827298103882455" lon="14.218044663558382"><ele>70.0</ele><time>2026-03-22T10:51:54Z</time></trkpt><trkpt lat="40.827407763484096" lon="14.21800386472496"><ele>70.0</ele><time>2026-03-22T10:51:55Z</time></trkpt><trkpt lat="40.82756002447012" lon="14.21798634998605"><ele>71.4</ele><time>2026-03-22T10:51:56Z</time></trkpt><trkpt lat="40.82770012370887" lon="14.217980357209171"><ele>72.8</ele><time>2026-03-22T10:51:57Z</time></trkpt><trkpt lat="40.82780861336611" lon="14.217963378318546"><ele>74.2</ele><time>2026-03-22T10:51:58Z</time></trkpt><trkpt lat="40.827900956044985" lon="14.217919383341487"><ele>75.6</ele><time>2026-03-22T10:51:59Z</time></trkpt><trkpt lat="40.82798701010454" lon="14.217849507847767"><ele>77.0</ele><time>2026-03-22T10:52:00Z</time></trkpt><trkpt lat="40.828041699171685" lon="14.217756599708007"><ele>77.0</ele><time>2026-03-22T10:52:01Z</time></trkpt><trkpt lat="40.82806603987773" lon="14.217647395562622"><ele>77.0</ele><time>2026-03-22T10:52:02Z</time></trkpt><trkpt lat="40.82805484067962" lon="14.217534006012068"><ele>77.0</ele><time>2026-03-22T10:52:03Z</time></trkpt><trkpt lat="40.82802506578598" lon="14.21743805935046"><ele>77.0</ele><time>2026-03-22T10:52:04Z</time></trkpt><trkpt lat="40.82797653184814" lon="14.21735915226519"><ele>77.0</ele><time>2026-03-22T10:52:05Z</time></trkpt><trkpt lat="40.82790105733291" lon="14.217300266815183"><ele>77.0</ele><time>2026-03-22T10:52:06Z</time></trkpt><trkpt lat="40.827800005525916" lon="14.217271151309198"><ele>80.6</ele><time>2026-03-22T10:52:07Z</time></trkpt><trkpt lat="40.82767139238483" lon="14.21726200755925"><ele>84.2</ele><time>2026-03-22T10:52:08Z</time></trkpt><trkpt lat="40.827580549043745" lon="14.217253297215548"><ele>87.8</ele><time>2026-03-22T10:52:09Z</time></trkpt><trkpt lat="40.827458341145814" lon="14.2172522647283"><ele>91.4</ele><time>2026-03-22T10:52:11Z</time></trkpt><trkpt lat="40.82737038536328" lon="14.217226696847838"><ele>95.0</ele><time>2026-03-22T10:52:12Z</time></trkpt><trkpt lat="40.827234673323616" lon="14.217194022677818"><ele>100.0</ele><time>2026-03-22T10:52:13Z</time></trkpt><trkpt lat="40.82707289643442" lon="14.217169505814706"><ele>105.0</ele><time>2026-03-22T10:52:14Z</time></trkpt><trkpt lat="40.82690236677867" lon="14.217148483534306"><ele>110.0</ele><time>2026-03-22T10:52:15Z</time></trkpt><trkpt lat="40.82674413772525" lon="14.217118061192291"><ele>110.4</ele><time>2026-03-22T10:52:16Z</time></trkpt><trkpt lat="40.82660336880437" lon="14.217127154903036"><ele>110.8</ele><time>2026-03-22T10:52:17Z</time></trkpt><trkpt lat="40.826493530751414" lon="14.21711375019932"><ele>111.19999999999999</ele><time>2026-03-22T10:52:18Z</time></trkpt><trkpt lat="40.826397388456094" lon="14.217113727631544"><ele>111.6</ele><time>2026-03-22T10:52:19Z</time></trkpt><trkpt lat="40.826296094726054" lon="14.217119728087143"><ele>112.0</ele><time>2026-03-22T10:52:20Z</time></trkpt><trkpt lat="40.82619850882655" lon="14.217126239690852"><ele>112.0</ele><time>2026-03-22T10:52:21Z</time></trkpt><trkpt lat="40.82607307483365" lon="14.217175483484917"><ele>112.0</ele><time>2026-03-22T10:52:22Z</time></trkpt><trkpt lat="40.82591928431393" lon="14.217240582349412"><ele>112.0</ele><time>2026-03-22T10:52:23Z</time></trkpt><trkpt lat="40.82579706781111" lon="14.217279579207357"><ele>112.0</ele><time>2026-03-22T10:52:24Z</time></trkpt><trkpt lat="40.825698013730076" lon="14.217325176038518"><ele>112.19999999999999</ele><time>2026-03-22T10:52:25Z</time></trkpt><trkpt lat="40.82561251442257" lon="14.217348583469558"><ele>112.39999999999999</ele><time>2026-03-22T10:52:26Z</time></trkpt><trkpt lat="40.825541661877324" lon="14.217329598369"><ele>112.60000000000001</ele><time>2026-03-22T10:52:27Z</time></trkpt><trkpt lat="40.8254429122274" lon="14.217239145709486"><ele>112.80000000000001</ele><time>2026-03-22T10:52:29Z</time></trkpt><trkpt lat="40.82541173675282" lon="14.217164151142818"><ele>113.0</ele><time>2026-03-22T10:52:30Z</time></trkpt><trkpt lat="40.82538514042985" lon="14.216986848394079"><ele>112.99999999999999</ele><time>2026-03-22T10:52:32Z</time></trkpt><trkpt lat="40.82539489161598" lon="14.216883307049022"><ele>113.0</ele><time>2026-03-22T10:52:33Z</time></trkpt><trkpt lat="40.82542008706546" lon="14.216779501724673"><ele>113.0</ele><time>2026-03-22T10:52:34Z</time></trkpt><trkpt lat="40.825509828080264" lon="14.216661870776854"><ele>113.0</ele><time>2026-03-22T10:52:36Z</time></trkpt><trkpt lat="40.82557231010123" lon="14.216613835446154"><ele>112.99999999999999</ele><time>2026-03-22T10:52:37Z</time></trkpt><trkpt lat="40.825641132606464" lon="14.216579266317545"><ele>113.0</ele><time>2026-03-22T10:52:38Z</time></trkpt><trkpt lat="40.82571152225215" lon="14.21656253877978"><ele>113.0</ele><time>2026-03-22T10:52:39Z</time></trkpt><trkpt lat="40.82578151847843" lon="14.216550856363511"><ele>113.0</ele><time>2026-03-22T10:52:40Z</time></trkpt><trkpt lat="40.82585056961474" lon="14.21654771082601"><ele>113.0</ele><time>2026-03-22T10:52:41Z</time></trkpt><trkpt lat="40.82594627624713" lon="14.216555690317456"><ele>113.0</ele><time>2026-03-22T10:52:43Z</time></trkpt><trkpt lat="40.826013533710395" lon="14.216540445120577"><ele>113.0</ele><time>2026-03-22T10:52:47Z</time></trkpt><trkpt lat="40.82607721958882" lon="14.216529530120184"><ele>113.0</ele><time>2026-03-22T10:52:49Z</time></trkpt><trkpt lat="40.82615335455295" lon="14.216533862221818"><ele>113.0</ele><time>2026-03-22T10:52:51Z</time></trkpt><trkpt lat="40.82623427590998" lon="14.216516527803915"><ele>112.80000000000001</ele><time>2026-03-22T10:52:53Z</time></trkpt><trkpt lat="40.82634730153287" lon="14.21649611276313"><ele>112.60000000000001</ele><time>2026-03-22T10:52:55Z</time></trkpt><trkpt lat="40.82642872132663" lon="14.216494249041851"><ele>112.39999999999999</ele><time>2026-03-22T10:52:56Z</time></trkpt><trkpt lat="40.826525765724334" lon="14.21646346718511"><ele>112.19999999999999</ele><time>2026-03-22T10:52:57Z</time></trkpt><trkpt lat="40.82664930126563" lon="14.216464390999857"><ele>112.0</ele><time>2026-03-22T10:52:57.999Z</time></trkpt><trkpt lat="40.82677663232478" lon="14.216456308802004"><ele>114.39999999999999</ele><time>2026-03-22T10:52:58.999Z</time></trkpt><trkpt lat="40.82689756953617" lon="14.216454423002453"><ele>116.79999999999998</ele><time>2026-03-22T10:52:59.999Z</time></trkpt><trkpt lat="40.8270207420421" lon="14.216445757906461"><ele>119.2</ele><time>2026-03-22T10:53:00.999Z</time></trkpt><trkpt lat="40.8271267102482" lon="14.216442006853452"><ele>121.6</ele><time>2026-03-22T10:53:01.999Z</time></trkpt><trkpt lat="40.827222714085515" lon="14.216426390065514"><ele>124.0</ele><time>2026-03-22T10:53:02.999Z</time></trkpt><trkpt lat="40.82729844888723" lon="14.216409190199077"><ele>124.00000000000001</ele><time>2026-03-22T10:53:03.999Z</time></trkpt><trkpt lat="40.82737214261139" lon="14.21639924098899"><ele>124.0</ele><time>2026-03-22T10:53:04.999Z</time></trkpt><trkpt lat="40.82745928623008" lon="14.216286121726078"><ele>124.0</ele><time>2026-03-22T10:53:06.999Z</time></trkpt><trkpt lat="40.82749231652924" lon="14.216211519217183"><ele>124.0</ele><time>2026-03-22T10:53:07.999Z</time></trkpt><trkpt lat="40.827506725370846" lon="14.216128616140578"><ele>124.00000000000001</ele><time>2026-03-22T10:53:08.999Z</time></trkpt><trkpt lat="40.827496266008744" lon="14.215987651353444"><ele>124.0</ele><time>2026-03-22T10:53:10.999Z</time></trkpt><trkpt lat="40.82747265301658" lon="14.215843483000452"><ele>124.0</ele><time>2026-03-22T10:53:12.999Z</time></trkpt><trkpt lat="40.82740932099933" lon="14.215728773602182"><ele>124.0</ele><time>2026-03-22T10:53:14.999Z</time></trkpt><trkpt lat="40.82734055080349" lon="14.21564327419731"><ele>124.0</ele><time>2026-03-22T10:53:16.999Z</time></trkpt><trkpt lat="40.82725473900634" lon="14.215611746458208"><ele>124.0</ele><time>2026-03-22T10:53:19.999Z</time></trkpt><trkpt lat="40.82715613783369" lon="14.215534915553304"><ele>124.0</ele><time>2026-03-22T10:53:21.999Z</time></trkpt><trkpt lat="40.82707942997191" lon="14.21553465667473"><ele>126.0</ele><time>2026-03-22T10:53:22.999Z</time></trkpt><trkpt lat="40.82695744100543" lon="14.215520744213968"><ele>128.0</ele><time>2026-03-22T10:53:23.999Z</time></trkpt><trkpt lat="40.82678946039055" lon="14.215542831929207"><ele>130.0</ele><time>2026-03-22T10:53:24.999Z</time></trkpt><trkpt lat="40.826617818633395" lon="14.215561183449978"><ele>131.0</ele><time>2026-03-22T10:53:25.999Z</time></trkpt><trkpt lat="40.826464213786785" lon="14.215577699700228"><ele>132.0</ele><time>2026-03-22T10:53:26.999Z</time></trkpt><trkpt lat="40.82634343244698" lon="14.215588832565551"><ele>133.0</ele><time>2026-03-22T10:53:27.999Z</time></trkpt><trkpt lat="40.82622937992224" lon="14.215605212652665"><ele>134.0</ele><time>2026-03-22T10:53:28.999Z</time></trkpt><trkpt lat="40.82611333534483" lon="14.215581588787709"><ele>134.0</ele><time>2026-03-22T10:53:29.999Z</time></trkpt><trkpt lat="40.82599735738734" lon="14.215528783086484"><ele>134.0</ele><time>2026-03-22T10:53:30.999Z</time></trkpt><trkpt lat="40.825888774320475" lon="14.215452477911962"><ele>134.0</ele><time>2026-03-22T10:53:31.999Z</time></trkpt><trkpt lat="40.82579469689026" lon="14.215358538833216"><ele>134.0</ele><time>2026-03-22T10:53:32.999Z</time></trkpt><trkpt lat="40.825724739479746" lon="14.215270274402776"><ele>134.0</ele><time>2026-03-22T10:53:33.999Z</time></trkpt><trkpt lat="40.82567449588682" lon="14.215185955904357"><ele>134.0</ele><time>2026-03-22T10:53:34.999Z</time></trkpt><trkpt lat="40.82562881891985" lon="14.215096850570886"><ele>134.0</ele><time>2026-03-22T10:53:36Z</time></trkpt><trkpt lat="40.8255851929611" lon="14.21500645204013"><ele>134.0</ele><time>2026-03-22T10:53:37Z</time></trkpt><trkpt lat="40.82555006694464" lon="14.21490172849011"><ele>134.0</ele><time>2026-03-22T10:53:38Z</time></trkpt><trkpt lat="40.82552321188143" lon="14.214780032444326"><ele>134.0</ele><time>2026-03-22T10:53:39Z</time></trkpt><trkpt lat="40.825500725178294" lon="14.214649151977799"><ele>135.8</ele><time>2026-03-22T10:53:40Z</time></trkpt><trkpt lat="40.825485252107995" lon="14.214515343352463"><ele>137.60000000000002</ele><time>2026-03-22T10:53:41Z</time></trkpt><trkpt lat="40.82547695089108" lon="14.214380468001616"><ele>139.4</ele><time>2026-03-22T10:53:42Z</time></trkpt><trkpt lat="40.825465558091196" lon="14.214242575299584"><ele>141.20000000000002</ele><time>2026-03-22T10:53:43Z</time></trkpt><trkpt lat="40.8254478923142" lon="14.214110246858016"><ele>143.0</ele><time>2026-03-22T10:53:44Z</time></trkpt><trkpt lat="40.82543343400828" lon="14.21397972922849"><ele>144.16666666666666</ele><time>2026-03-22T10:53:45Z</time></trkpt><trkpt lat="40.82541866901744" lon="14.213857905982724"><ele>145.33333333333331</ele><time>2026-03-22T10:53:46Z</time></trkpt><trkpt lat="40.82539794046673" lon="14.213740010093654"><ele>146.5</ele><time>2026-03-22T10:53:47Z</time></trkpt><trkpt lat="40.82538004778356" lon="14.213628865930424"><ele>147.66666666666666</ele><time>2026-03-22T10:53:48Z</time></trkpt><trkpt lat="40.825355551035436" lon="14.213523630242324"><ele>148.83333333333334</ele><time>2026-03-22T10:53:49Z</time></trkpt><trkpt lat="40.82531886613648" lon="14.213421978992223"><ele>150.0</ele><time>2026-03-22T10:53:50Z</time></trkpt><trkpt lat="40.825278539530764" lon="14.213329632460857"><ele>150.0</ele><time>2026-03-22T10:53:51Z</time></trkpt><trkpt lat="40.825231139669654" lon="14.213241084763647"><ele>150.0</ele><time>2026-03-22T10:53:52Z</time></trkpt><trkpt lat="40.82517936441735" lon="14.213165973674206"><ele>150.0</ele><time>2026-03-22T10:53:53Z</time></trkpt><trkpt lat="40.82512493778995" lon="14.21308934209411"><ele>150.0</ele><time>2026-03-22T10:53:54Z</time></trkpt><trkpt lat="40.82507234812901" lon="14.21300941583505"><ele>150.0</ele><time>2026-03-22T10:53:55Z</time></trkpt><trkpt lat="40.82500973343558" lon="14.212935296307439"><ele>150.0</ele><time>2026-03-22T10:53:56Z</time></trkpt><trkpt lat="40.82494897736222" lon="14.212856912511423"><ele>150.33333333333334</ele><time>2026-03-22T10:53:57Z</time></trkpt><trkpt lat="40.82488872340032" lon="14.212773366365706"><ele>150.66666666666666</ele><time>2026-03-22T10:53:58Z</time></trkpt><trkpt lat="40.82482848351473" lon="14.21268837264514"><ele>151.0</ele><time>2026-03-22T10:53:59Z</time></trkpt><trkpt lat="40.824766481932784" lon="14.212609141703103"><ele>151.33333333333331</ele><time>2026-03-22T10:54:00Z</time></trkpt><trkpt lat="40.82471389379093" lon="14.21253596633664"><ele>151.66666666666666</ele><time>2026-03-22T10:54:01Z</time></trkpt><trkpt lat="40.82466563311439" lon="14.21246675370531"><ele>152.0</ele><time>2026-03-22T10:54:02Z</time></trkpt><trkpt lat="40.824585200159554" lon="14.212336527099332"><ele>153.14285714285714</ele><time>2026-03-22T10:54:04Z</time></trkpt><trkpt lat="40.824581444807464" lon="14.212235597563568"><ele>154.2857142857143</ele><time>2026-03-22T10:54:05Z</time></trkpt><trkpt lat="40.82457826871689" lon="14.21214887904459"><ele>155.42857142857144</ele><time>2026-03-22T10:54:06Z</time></trkpt><trkpt lat="40.82457442747531" lon="14.212043999661976"><ele>156.57142857142856</ele><time>2026-03-22T10:54:07Z</time></trkpt><trkpt lat="40.824570482040315" lon="14.211947631031697"><ele>157.71428571428572</ele><time>2026-03-22T10:54:08Z</time></trkpt><trkpt lat="40.824564077525025" lon="14.211847926243356"><ele>158.85714285714286</ele><time>2026-03-22T10:54:09Z</time></trkpt><trkpt lat="40.82455146079178" lon="14.211748219391588"><ele>160.0</ele><time>2026-03-22T10:54:10Z</time></trkpt><trkpt lat="40.82452514704987" lon="14.211666283269755"><ele>160.0</ele><time>2026-03-22T10:54:11Z</time></trkpt><trkpt lat="40.82449042436961" lon="14.211578823147383"><ele>160.0</ele><time>2026-03-22T10:54:12Z</time></trkpt><trkpt lat="40.824427681668375" lon="14.211511845113305"><ele>160.0</ele><time>2026-03-22T10:54:13Z</time></trkpt><trkpt lat="40.824360289687974" lon="14.211455463334849"><ele>160.0</ele><time>2026-03-22T10:54:14Z</time></trkpt><trkpt lat="40.82429083269848" lon="14.211398711541786"><ele>160.0</ele><time>2026-03-22T10:54:15Z</time></trkpt><trkpt lat="40.824218999758344" lon="14.211347702805783"><ele>160.0</ele><time>2026-03-22T10:54:16Z</time></trkpt><trkpt lat="40.82414790825225" lon="14.211293349558535"><ele>160.5</ele><time>2026-03-22T10:54:17Z</time></trkpt><trkpt lat="40.82406978295003" lon="14.21124106365973"><ele>161.0</ele><time>2026-03-22T10:54:18Z</time></trkpt><trkpt lat="40.82398973439427" lon="14.211184948252166"><ele>161.5</ele><time>2026-03-22T10:54:19Z</time></trkpt><trkpt lat="40.823917935098876" lon="14.211132399266068"><ele>162.0</ele><time>2026-03-22T10:54:20Z</time></trkpt><trkpt lat="40.823836179533075" lon="14.211075188841841"><ele>162.5</ele><time>2026-03-22T10:54:21Z</time></trkpt><trkpt lat="40.82375531035969" lon="14.21102201583869"><ele>163.0</ele><time>2026-03-22T10:54:22Z</time></trkpt><trkpt lat="40.82367638693149" lon="14.210958785756421"><ele>163.0</ele><time>2026-03-22T10:54:23Z</time></trkpt><trkpt lat="40.8235969342959" lon="14.210894335352153"><ele>163.0</ele><time>2026-03-22T10:54:24Z</time></trkpt><trkpt lat="40.82351924334711" lon="14.210836372701676"><ele>163.0</ele><time>2026-03-22T10:54:25Z</time></trkpt><trkpt lat="40.82343938465661" lon="14.210772470200093"><ele>163.0</ele><time>2026-03-22T10:54:26Z</time></trkpt><trkpt lat="40.82337483013174" lon="14.210722508132527"><ele>163.0</ele><time>2026-03-22T10:54:27Z</time></trkpt><trkpt lat="40.8232881176969" lon="14.210618516900604"><ele>163.2</ele><time>2026-03-22T10:54:29Z</time></trkpt><trkpt lat="40.823252606171195" lon="14.210495529564636"><ele>163.4</ele><time>2026-03-22T10:54:31Z</time></trkpt><trkpt lat="40.823241287659414" lon="14.210379725464703"><ele>163.6</ele><time>2026-03-22T10:54:33Z</time></trkpt><trkpt lat="40.82328231427036" lon="14.210296987320488"><ele>163.79999999999998</ele><time>2026-03-22T10:54:35Z</time></trkpt><trkpt lat="40.82341629556911" lon="14.210375200436781"><ele>164.0</ele><time>2026-03-22T10:54:37Z</time></trkpt><trkpt lat="40.82348230901237" lon="14.21043109368263"><ele>164.0</ele><time>2026-03-22T10:54:38Z</time></trkpt><trkpt lat="40.823584023249744" lon="14.21051721428062"><ele>164.0</ele><time>2026-03-22T10:54:39Z</time></trkpt><trkpt lat="40.82373068948647" lon="14.21061691424287"><ele>164.0</ele><time>2026-03-22T10:54:40Z</time></trkpt><trkpt lat="40.82384849522036" lon="14.21074113936295"><ele>164.0</ele><time>2026-03-22T10:54:41Z</time></trkpt><trkpt lat="40.82394467200644" lon="14.210821865949727"><ele>163.79999999999998</ele><time>2026-03-22T10:54:42Z</time></trkpt><trkpt lat="40.82402064996444" lon="14.210885602727625"><ele>163.6</ele><time>2026-03-22T10:54:43Z</time></trkpt><trkpt lat="40.82410864569046" lon="14.210959875050316"><ele>163.4</ele><time>2026-03-22T10:54:44Z</time></trkpt><trkpt lat="40.82418083805435" lon="14.211021455846653"><ele>163.2</ele><time>2026-03-22T10:54:45Z</time></trkpt><trkpt lat="40.82424799485981" lon="14.211054358464686"><ele>163.0</ele><time>2026-03-22T10:54:46Z</time></trkpt><trkpt lat="40.82433669077625" lon="14.211141310836394"><ele>163.0</ele><time>2026-03-22T10:54:48Z</time></trkpt><trkpt lat="40.8244089110644" lon="14.211207514214493"><ele>163.0</ele><time>2026-03-22T10:54:50Z</time></trkpt><trkpt lat="40.82449582841171" lon="14.211293420302681"><ele>163.0</ele><time>2026-03-22T10:54:52Z</time></trkpt><trkpt lat="40.824579374588254" lon="14.211365858334185"><ele>163.0</ele><time>2026-03-22T10:54:54Z</time></trkpt><trkpt lat="40.824648667778135" lon="14.211418633468943"><ele>163.0</ele><time>2026-03-22T10:54:57Z</time></trkpt><trkpt lat="40.82478795012256" lon="14.211542599678983"><ele>163.2</ele><time>2026-03-22T10:54:59Z</time></trkpt><trkpt lat="40.82490285266182" lon="14.211634799842223"><ele>163.4</ele><time>2026-03-22T10:55:00Z</time></trkpt><trkpt lat="40.82499127336758" lon="14.211709070768192"><ele>163.6</ele><time>2026-03-22T10:55:01Z</time></trkpt><trkpt lat="40.82506483141791" lon="14.211779875498303"><ele>163.79999999999998</ele><time>2026-03-22T10:55:02Z</time></trkpt><trkpt lat="40.825146195932945" lon="14.211851124537562"><ele>164.0</ele><time>2026-03-22T10:55:03Z</time></trkpt><trkpt lat="40.82522496274379" lon="14.211916074711786"><ele>164.0</ele><time>2026-03-22T10:55:04Z</time></trkpt><trkpt lat="40.825297935085246" lon="14.211978959049029"><ele>164.0</ele><time>2026-03-22T10:55:04.999Z</time></trkpt><trkpt lat="40.82537334744204" lon="14.212040684682608"><ele>164.0</ele><time>2026-03-22T10:55:05.999Z</time></trkpt><trkpt lat="40.82544162786376" lon="14.212090341105734"><ele>164.0</ele><time>2026-03-22T10:55:06.999Z</time></trkpt><trkpt lat="40.82549688036028" lon="14.212140879802314"><ele>164.0</ele><time>2026-03-22T10:55:07.999Z</time></trkpt><trkpt lat="40.82557888693991" lon="14.212232650036281"><ele>164.0</ele><time>2026-03-22T10:55:09.999Z</time></trkpt><trkpt lat="40.82565953938066" lon="14.212308868370837"><ele>163.6</ele><time>2026-03-22T10:55:11.999Z</time></trkpt><trkpt lat="40.82574349106299" lon="14.212389985066629"><ele>163.2</ele><time>2026-03-22T10:55:13.999Z</time></trkpt><trkpt lat="40.82578311375911" lon="14.21246020831218"><ele>162.79999999999998</ele><time>2026-03-22T10:55:16.999Z</time></trkpt><trkpt lat="40.825885149877365" lon="14.212517168595577"><ele>162.39999999999998</ele><time>2026-03-22T10:55:40.999Z</time></trkpt><trkpt lat="40.82596505891546" lon="14.212552049011318"><ele>162.0</ele><time>2026-03-22T10:55:42Z</time></trkpt><trkpt lat="40.82605469241362" lon="14.212555371587502"><ele>161.4</ele><time>2026-03-22T10:55:43Z</time></trkpt><trkpt lat="40.82614865240306" lon="14.212530764139435"><ele>160.79999999999998</ele><time>2026-03-22T10:55:44Z</time></trkpt><trkpt lat="40.82624234767761" lon="14.212493636897065"><ele>160.2</ele><time>2026-03-22T10:55:45Z</time></trkpt><trkpt lat="40.82634392619448" lon="14.212430583124682"><ele>159.6</ele><time>2026-03-22T10:55:46Z</time></trkpt><trkpt lat="40.82644943749794" lon="14.212360894783787"><ele>159.0</ele><time>2026-03-22T10:55:47Z</time></trkpt><trkpt lat="40.826554796805965" lon="14.212313803134316"><ele>158.0</ele><time>2026-03-22T10:55:48Z</time></trkpt><trkpt lat="40.82666627054266" lon="14.212282358958486"><ele>157.0</ele><time>2026-03-22T10:55:49Z</time></trkpt><trkpt lat="40.82677596557301" lon="14.212291030150128"><ele>156.0</ele><time>2026-03-22T10:55:50Z</time></trkpt><trkpt lat="40.82687804445523" lon="14.212332806677216"><ele>155.0</ele><time>2026-03-22T10:55:51Z</time></trkpt><trkpt lat="40.826953746347215" lon="14.212376484459721"><ele>154.0</ele><time>2026-03-22T10:55:52Z</time></trkpt><trkpt lat="40.82702339000428" lon="14.212417131212618"><ele>154.0</ele><time>2026-03-22T10:55:54Z</time></trkpt><trkpt lat="40.82708987903417" lon="14.212437678333641"><ele>154.0</ele><time>2026-03-22T10:55:56Z</time></trkpt><trkpt lat="40.827170063610446" lon="14.21247687627773"><ele>154.0</ele><time>2026-03-22T10:55:57Z</time></trkpt><trkpt lat="40.827305602891855" lon="14.212540625060974"><ele>154.0</ele><time>2026-03-22T10:55:58Z</time></trkpt><trkpt lat="40.827431430990934" lon="14.212596161403896"><ele>154.0</ele><time>2026-03-22T10:55:59Z</time></trkpt><trkpt lat="40.82754833994548" lon="14.212641244438196"><ele>154.16666666666669</ele><time>2026-03-22T10:56:00Z</time></trkpt><trkpt lat="40.82764992069022" lon="14.21264367896355"><ele>154.33333333333334</ele><time>2026-03-22T10:56:01Z</time></trkpt><trkpt lat="40.82773920776001" lon="14.212632546655945"><ele>154.5</ele><time>2026-03-22T10:56:02Z</time></trkpt><trkpt lat="40.827820770592794" lon="14.212630806199039"><ele>154.66666666666666</ele><time>2026-03-22T10:56:03Z</time></trkpt><trkpt lat="40.82788678381849" lon="14.212645689367767"><ele>154.83333333333331</ele><time>2026-03-22T10:56:05Z</time></trkpt><trkpt lat="40.82796125942421" lon="14.21264091287137"><ele>155.0</ele><time>2026-03-22T10:56:08Z</time></trkpt><trkpt lat="40.82805680937234" lon="14.212649664169705"><ele>155.0</ele><time>2026-03-22T10:56:12Z</time></trkpt><trkpt lat="40.82813950721674" lon="14.212658597763628"><ele>155.0</ele><time>2026-03-22T10:56:14Z</time></trkpt><trkpt lat="40.82822665355662" lon="14.212654065496881"><ele>155.0</ele><time>2026-03-22T10:56:17Z</time></trkpt><trkpt lat="40.828297515224236" lon="14.212660864045473"><ele>155.0</ele><time>2026-03-22T10:56:19Z</time></trkpt><trkpt lat="40.828368011320556" lon="14.212674191598103"><ele>155.0</ele><time>2026-03-22T10:56:21Z</time></trkpt><trkpt lat="40.828458766966406" lon="14.212667801249133"><ele>155.0</ele><time>2026-03-22T10:56:24Z</time></trkpt><trkpt lat="40.82856802396734" lon="14.212702515364798"><ele>156.33333333333331</ele><time>2026-03-22T10:56:26Z</time></trkpt><trkpt lat="40.82864161525005" lon="14.212730592925451"><ele>157.66666666666666</ele><time>2026-03-22T10:56:27Z</time></trkpt><trkpt lat="40.82872737843519" lon="14.212750892150845"><ele>159.0</ele><time>2026-03-22T10:56:28Z</time></trkpt><trkpt lat="40.82880615482632" lon="14.212804144146812"><ele>160.33333333333334</ele><time>2026-03-22T10:56:29Z</time></trkpt><trkpt lat="40.828897633268184" lon="14.212844851604066"><ele>161.66666666666669</ele><time>2026-03-22T10:56:30Z</time></trkpt><trkpt lat="40.82899028357238" lon="14.212886003276537"><ele>163.0</ele><time>2026-03-22T10:56:31Z</time></trkpt><trkpt lat="40.82908020100736" lon="14.21292465868578"><ele>163.0</ele><time>2026-03-22T10:56:32Z</time></trkpt><trkpt lat="40.82915476366605" lon="14.212952828626435"><ele>163.0</ele><time>2026-03-22T10:56:33Z</time></trkpt><trkpt lat="40.82921665323789" lon="14.212973888152845"><ele>163.0</ele><time>2026-03-22T10:56:34Z</time></trkpt><trkpt lat="40.82931460799417" lon="14.212996539050273"><ele>163.0</ele><time>2026-03-22T10:56:36Z</time></trkpt><trkpt lat="40.829399114430196" lon="14.212987289744413"><ele>163.0</ele><time>2026-03-22T10:56:38Z</time></trkpt><trkpt lat="40.829464972431545" lon="14.212994105532756"><ele>163.0</ele><time>2026-03-22T10:56:40Z</time></trkpt><trkpt lat="40.82954754342848" lon="14.212994573360705"><ele>163.16666666666669</ele><time>2026-03-22T10:56:42Z</time></trkpt><trkpt lat="40.82963432100148" lon="14.213015272295701"><ele>163.33333333333334</ele><time>2026-03-22T10:56:45Z</time></trkpt><trkpt lat="40.829727430081185" lon="14.21295108967624"><ele>163.5</ele><time>2026-03-22T10:56:48Z</time></trkpt><trkpt lat="40.82978995391884" lon="14.212936661788877"><ele>163.66666666666666</ele><time>2026-03-22T10:56:50Z</time></trkpt><trkpt lat="40.82985308589785" lon="14.212912431447021"><ele>163.83333333333331</ele><time>2026-03-22T10:56:52Z</time></trkpt><trkpt lat="40.829922534660334" lon="14.212889906440697"><ele>164.0</ele><time>2026-03-22T10:56:54Z</time></trkpt><trkpt lat="40.82999036391282" lon="14.21286856247431"><ele>164.0</ele><time>2026-03-22T10:56:56Z</time></trkpt><trkpt lat="40.8300630239768" lon="14.212843192698738"><ele>164.0</ele><time>2026-03-22T10:56:58Z</time></trkpt><trkpt lat="40.83015684801893" lon="14.212813180553951"><ele>164.0</ele><time>2026-03-22T10:57:01Z</time></trkpt><trkpt lat="40.8302637577038" lon="14.212779425327643"><ele>164.0</ele><time>2026-03-22T10:57:03Z</time></trkpt><trkpt lat="40.83035475301857" lon="14.212778400811672"><ele>164.0</ele><time>2026-03-22T10:57:05Z</time></trkpt><trkpt lat="40.830471936624626" lon="14.212785892108908"><ele>165.39999999999998</ele><time>2026-03-22T10:57:07Z</time></trkpt><trkpt lat="40.83054586277941" lon="14.212800881458987"><ele>166.8</ele><time>2026-03-22T10:57:09Z</time></trkpt><trkpt lat="40.830639422990934" lon="14.212807422824973"><ele>168.2</ele><time>2026-03-22T10:57:11Z</time></trkpt><trkpt lat="40.830713030331104" lon="14.212832327877692"><ele>169.60000000000002</ele><time>2026-03-22T10:57:13Z</time></trkpt><trkpt lat="40.830823875924125" lon="14.212798636498597"><ele>171.0</ele><time>2026-03-22T10:57:15Z</time></trkpt><trkpt lat="40.83092131678776" lon="14.212778793167933"><ele>170.83333333333334</ele><time>2026-03-22T10:57:17Z</time></trkpt><trkpt lat="40.83100123398304" lon="14.212756703420066"><ele>170.66666666666666</ele><time>2026-03-22T10:57:18.999Z</time></trkpt><trkpt lat="40.83108004725674" lon="14.212713270108944"><ele>170.5</ele><time>2026-03-22T10:57:21.999Z</time></trkpt><trkpt lat="40.83115629852921" lon="14.212668489469479"><ele>170.33333333333331</ele><time>2026-03-22T10:57:22.999Z</time></trkpt><trkpt lat="40.83124531360234" lon="14.212630794784582"><ele>170.16666666666666</ele><time>2026-03-22T10:57:23.999Z</time></trkpt><trkpt lat="40.8313152404799" lon="14.212599319660512"><ele>170.0</ele><time>2026-03-22T10:57:24.999Z</time></trkpt><trkpt lat="40.83142899091419" lon="14.212540811081679"><ele>170.0</ele><time>2026-03-22T10:57:26.999Z</time></trkpt><trkpt lat="40.83150535946746" lon="14.212490469595691"><ele>170.0</ele><time>2026-03-22T10:57:27.999Z</time></trkpt><trkpt lat="40.8315995506256" lon="14.212427117349865"><ele>170.0</ele><time>2026-03-22T10:57:28.999Z</time></trkpt><trkpt lat="40.83172168113501" lon="14.212364668200948"><ele>170.0</ele><time>2026-03-22T10:57:29.999Z</time></trkpt><trkpt lat="40.83183992829484" lon="14.212314635149454"><ele>170.0</ele><time>2026-03-22T10:57:30.999Z</time></trkpt><trkpt lat="40.8319381301819" lon="14.212273651750369"><ele>169.83333333333331</ele><time>2026-03-22T10:57:31.999Z</time></trkpt><trkpt lat="40.832019954609585" lon="14.212228619382957"><ele>169.66666666666666</ele><time>2026-03-22T10:57:32.999Z</time></trkpt><trkpt lat="40.83211549979153" lon="14.212173310702521"><ele>169.5</ele><time>2026-03-22T10:57:34.999Z</time></trkpt><trkpt lat="40.832178880200296" lon="14.212125830367834"><ele>169.33333333333334</ele><time>2026-03-22T10:57:36.999Z</time></trkpt><trkpt lat="40.83224263253979" lon="14.212090545243495"><ele>169.16666666666669</ele><time>2026-03-22T10:57:40.999Z</time></trkpt><trkpt lat="40.832301632232344" lon="14.21206010197984"><ele>169.0</ele><time>2026-03-22T10:57:48Z</time></trkpt><trkpt lat="40.83238043379271" lon="14.212021354482562"><ele>169.0</ele><time>2026-03-22T10:57:49Z</time></trkpt><trkpt lat="40.83247087365777" lon="14.211978332559505"><ele>169.0</ele><time>2026-03-22T10:57:50Z</time></trkpt><trkpt lat="40.832557314331694" lon="14.211923514583285"><ele>169.0</ele><time>2026-03-22T10:57:51Z</time></trkpt><trkpt lat="40.83264697789963" lon="14.21187029788362"><ele>169.0</ele><time>2026-03-22T10:57:52Z</time></trkpt><trkpt lat="40.83273091718625" lon="14.211841157113486"><ele>169.0</ele><time>2026-03-22T10:57:53Z</time></trkpt><trkpt lat="40.83279321861168" lon="14.211816449827449"><ele>169.0</ele><time>2026-03-22T10:57:54Z</time></trkpt><trkpt lat="40.83288067757226" lon="14.21176328362764"><ele>169.83333333333334</ele><time>2026-03-22T10:57:56Z</time></trkpt><trkpt lat="40.83298785541875" lon="14.211705535897698"><ele>170.66666666666669</ele><time>2026-03-22T10:57:58Z</time></trkpt><trkpt lat="40.833076700788325" lon="14.211658325430431"><ele>171.5</ele><time>2026-03-22T10:57:59Z</time></trkpt><trkpt lat="40.83315202663423" lon="14.211610284150503"><ele>172.33333333333334</ele><time>2026-03-22T10:58:00Z</time></trkpt><trkpt lat="40.83322262545566" lon="14.21156531450117"><ele>173.16666666666666</ele><time>2026-03-22T10:58:01Z</time></trkpt><trkpt lat="40.83327967982472" lon="14.21152769413064"><ele>174.0</ele><time>2026-03-22T10:58:02Z</time></trkpt><trkpt lat="40.83335370062894" lon="14.211492540496725"><ele>174.39999999999998</ele><time>2026-03-22T10:58:04Z</time></trkpt><trkpt lat="40.83344522052224" lon="14.211434948855244"><ele>174.8</ele><time>2026-03-22T10:58:12Z</time></trkpt><trkpt lat="40.833542449390386" lon="14.211380708030285"><ele>175.2</ele><time>2026-03-22T10:58:18Z</time></trkpt><trkpt lat="40.83364286780394" lon="14.21132849327861"><ele>175.60000000000002</ele><time>2026-03-22T10:58:20Z</time></trkpt><trkpt lat="40.833716104995865" lon="14.211293822206562"><ele>176.0</ele><time>2026-03-22T10:58:22Z</time></trkpt><trkpt lat="40.8338113113326" lon="14.21125051487237"><ele>176.0</ele><time>2026-03-22T10:58:24Z</time></trkpt><trkpt lat="40.83392327828415" lon="14.211213949176601"><ele>176.0</ele><time>2026-03-22T10:58:26Z</time></trkpt><trkpt lat="40.83402089173614" lon="14.211205447469302"><ele>176.0</ele><time>2026-03-22T10:58:28Z</time></trkpt><trkpt lat="40.83411387768159" lon="14.211191853493785"><ele>176.0</ele><time>2026-03-22T10:58:30Z</time></trkpt><trkpt lat="40.83418003888702" lon="14.211184703483115"><ele>176.0</ele><time>2026-03-22T10:58:31Z</time></trkpt><trkpt lat="40.834250170276384" lon="14.211176317342622"><ele>176.0</ele><time>2026-03-22T10:58:32Z</time></trkpt><trkpt lat="40.83432641836123" lon="14.211170504490736"><ele>176.5</ele><time>2026-03-22T10:58:33Z</time></trkpt><trkpt lat="40.834396606689666" lon="14.211161770329493"><ele>177.0</ele><time>2026-03-22T10:58:34Z</time></trkpt><trkpt lat="40.83446696167365" lon="14.21114947056505"><ele>177.5</ele><time>2026-03-22T10:58:35Z</time></trkpt><trkpt lat="40.83455393546696" lon="14.211162282959593"><ele>178.0</ele><time>2026-03-22T10:58:36Z</time></trkpt><trkpt lat="40.83464106282545" lon="14.211153750528291"><ele>178.5</ele><time>2026-03-22T10:58:37Z</time></trkpt><trkpt lat="40.83471356015696" lon="14.211147589043625"><ele>179.0</ele><time>2026-03-22T10:58:38Z</time></trkpt><trkpt lat="40.8348090551452" lon="14.21116595006477"><ele>179.0</ele><time>2026-03-22T10:58:40Z</time></trkpt><trkpt lat="40.83487196288894" lon="14.21119434443303"><ele>179.0</ele><time>2026-03-22T10:58:43Z</time></trkpt><trkpt lat="40.83494351324094" lon="14.211225739764716"><ele>179.0</ele><time>2026-03-22T10:58:46Z</time></trkpt><trkpt lat="40.83504861449817" lon="14.211272579790565"><ele>179.0</ele><time>2026-03-22T10:58:48Z</time></trkpt><trkpt lat="40.835115716185875" lon="14.211302484085646"><ele>179.0</ele><time>2026-03-22T10:58:49Z</time></trkpt><trkpt lat="40.83520465030637" lon="14.211349736568598"><ele>179.0</ele><time>2026-03-22T10:58:51Z</time></trkpt><trkpt lat="40.8352846835072" lon="14.211402576726092"><ele>179.0</ele><time>2026-03-22T10:58:54Z</time></trkpt><trkpt lat="40.83535349705763" lon="14.211468496348518"><ele>179.0</ele><time>2026-03-22T10:58:57Z</time></trkpt><trkpt lat="40.83540452565962" lon="14.211522933264384"><ele>179.0</ele><time>2026-03-22T10:58:59Z</time></trkpt><trkpt lat="40.83547412812385" lon="14.211596355341747"><ele>179.0</ele><time>2026-03-22T10:59:02Z</time></trkpt><trkpt lat="40.83554925880061" lon="14.211662946503674"><ele>179.0</ele><time>2026-03-22T10:59:04Z</time></trkpt><trkpt lat="40.83561945507432" lon="14.211705826073796"><ele>179.0</ele><time>2026-03-22T10:59:06Z</time></trkpt><trkpt lat="40.83566895578403" lon="14.211772733938105"><ele>178.83333333333331</ele><time>2026-03-22T10:59:08Z</time></trkpt><trkpt lat="40.835717887679344" lon="14.211857205611455"><ele>178.66666666666666</ele><time>2026-03-22T10:59:10Z</time></trkpt><trkpt lat="40.83570914396337" lon="14.211965738630225"><ele>178.5</ele><time>2026-03-22T10:59:12Z</time></trkpt><trkpt lat="40.83569391624286" lon="14.212073990791252"><ele>178.33333333333334</ele><time>2026-03-22T10:59:14Z</time></trkpt><trkpt lat="40.83568085904832" lon="14.212185505530014"><ele>178.16666666666669</ele><time>2026-03-22T10:59:16Z</time></trkpt><trkpt lat="40.835664788172494" lon="14.212322758479306"><ele>178.0</ele><time>2026-03-22T10:59:17.999Z</time></trkpt><trkpt lat="40.835650705400965" lon="14.212443032354122"><ele>178.0</ele><time>2026-03-22T10:59:19.999Z</time></trkpt><trkpt lat="40.835636816663715" lon="14.21254845004874"><ele>178.0</ele><time>2026-03-22T10:59:21.999Z</time></trkpt><trkpt lat="40.83562108634453" lon="14.212666880611696"><ele>178.0</ele><time>2026-03-22T10:59:23.999Z</time></trkpt><trkpt lat="40.83560346330455" lon="14.212805193552905"><ele>178.0</ele><time>2026-03-22T10:59:25.999Z</time></trkpt><trkpt lat="40.83559419066746" lon="14.21288937063684"><ele>178.0</ele><time>2026-03-22T10:59:26.999Z</time></trkpt><trkpt lat="40.83558757431104" lon="14.212985222923896"><ele>178.0</ele><time>2026-03-22T10:59:27.999Z</time></trkpt><trkpt lat="40.835598991540024" lon="14.213093170191033"><ele>176.5</ele><time>2026-03-22T10:59:28.999Z</time></trkpt><trkpt lat="40.835634465956545" lon="14.213185651094017"><ele>175.0</ele><time>2026-03-22T10:59:29.999Z</time></trkpt><trkpt lat="40.83569170753584" lon="14.213275542590946"><ele>173.5</ele><time>2026-03-22T10:59:30.999Z</time></trkpt><trkpt lat="40.83573454437279" lon="14.213337260562165"><ele>172.0</ele><time>2026-03-22T10:59:31.999Z</time></trkpt><trkpt lat="40.83578635462059" lon="14.213410825800965"><ele>170.5</ele><time>2026-03-22T10:59:32.999Z</time></trkpt><trkpt lat="40.83586306767818" lon="14.213519576334273"><ele>169.0</ele><time>2026-03-22T10:59:33.999Z</time></trkpt><trkpt lat="40.835949363827645" lon="14.213610976786427"><ele>168.83333333333334</ele><time>2026-03-22T10:59:34.999Z</time></trkpt><trkpt lat="40.83602956485797" lon="14.213658351005348"><ele>168.66666666666669</ele><time>2026-03-22T10:59:35.999Z</time></trkpt><trkpt lat="40.8361012728673" lon="14.213699714306932"><ele>168.5</ele><time>2026-03-22T10:59:36.999Z</time></trkpt><trkpt lat="40.836187541172514" lon="14.213718334295237"><ele>168.33333333333334</ele><time>2026-03-22T10:59:37.999Z</time></trkpt><trkpt lat="40.83626293504689" lon="14.213725702173493"><ele>168.16666666666666</ele><time>2026-03-22T10:59:38.999Z</time></trkpt><trkpt lat="40.83632995496606" lon="14.213724570814842"><ele>168.0</ele><time>2026-03-22T10:59:39.999Z</time></trkpt><trkpt lat="40.83639579518107" lon="14.213689388597002"><ele>168.0</ele><time>2026-03-22T10:59:40.999Z</time></trkpt><trkpt lat="40.83646081647951" lon="14.213629985654972"><ele>168.0</ele><time>2026-03-22T10:59:41.999Z</time></trkpt><trkpt lat="40.83653728428575" lon="14.213564092245534"><ele>168.0</ele><time>2026-03-22T10:59:42.999Z</time></trkpt><trkpt lat="40.83661834287631" lon="14.213504605085966"><ele>168.0</ele><time>2026-03-22T10:59:43.999Z</time></trkpt><trkpt lat="40.836693136641344" lon="14.213459399941865"><ele>168.0</ele><time>2026-03-22T10:59:44.999Z</time></trkpt><trkpt lat="40.83676363704984" lon="14.213419951813956"><ele>168.0</ele><time>2026-03-22T10:59:45.999Z</time></trkpt><trkpt lat="40.83684960693016" lon="14.213356191186936"><ele>166.5</ele><time>2026-03-22T10:59:46.999Z</time></trkpt><trkpt lat="40.836920566001346" lon="14.213329609913076"><ele>165.0</ele><time>2026-03-22T10:59:47.999Z</time></trkpt><trkpt lat="40.836987609426" lon="14.213335577012858"><ele>163.5</ele><time>2026-03-22T10:59:48.999Z</time></trkpt><trkpt lat="40.837059221075435" lon="14.213378557350255"><ele>162.0</ele><time>2026-03-22T10:59:49.999Z</time></trkpt><trkpt lat="40.83711442111046" lon="14.213420486353915"><ele>160.5</ele><time>2026-03-22T10:59:50.999Z</time></trkpt><trkpt lat="40.83717249371403" lon="14.213543601173818"><ele>159.0</ele><time>2026-03-22T10:59:52.999Z</time></trkpt><trkpt lat="40.83722570277689" lon="14.213628777504084"><ele>159.0</ele><time>2026-03-22T10:59:55Z</time></trkpt><trkpt lat="40.837309814294535" lon="14.213579800798374"><ele>159.0</ele><time>2026-03-22T10:59:56Z</time></trkpt><trkpt lat="40.837437557903634" lon="14.213514557042815"><ele>159.0</ele><time>2026-03-22T10:59:58Z</time></trkpt><trkpt lat="40.837519229500934" lon="14.213502998318305"><ele>159.0</ele><time>2026-03-22T10:59:59Z</time></trkpt><trkpt lat="40.83760311173764" lon="14.213493690894543"><ele>159.0</ele><time>2026-03-22T11:00:00Z</time></trkpt><trkpt lat="40.83767143618787" lon="14.213505501409447"><ele>158.6</ele><time>2026-03-22T11:00:01Z</time></trkpt><trkpt lat="40.83775429952322" lon="14.213564956093103"><ele>158.2</ele><time>2026-03-22T11:00:03Z</time></trkpt><trkpt lat="40.83778408782138" lon="14.213674861522737"><ele>157.79999999999998</ele><time>2026-03-22T11:00:05Z</time></trkpt><trkpt lat="40.83783090003376" lon="14.213761923617406"><ele>157.4</ele><time>2026-03-22T11:00:08Z</time></trkpt><trkpt lat="40.837868611899076" lon="14.213859584118637"><ele>157.0</ele><time>2026-03-22T11:00:10Z</time></trkpt><trkpt lat="40.837903402429674" lon="14.213989763181303"><ele>157.0</ele><time>2026-03-22T11:00:12Z</time></trkpt><trkpt lat="40.83793723637777" lon="14.21413592278099"><ele>157.0</ele><time>2026-03-22T11:00:14Z</time></trkpt><trkpt lat="40.83796169838394" lon="14.214249355484858"><ele>157.0</ele><time>2026-03-22T11:00:16Z</time></trkpt><trkpt lat="40.83799037655469" lon="14.214381193349942"><ele>157.0</ele><time>2026-03-22T11:00:23Z</time></trkpt><trkpt lat="40.83801511650684" lon="14.214495482036007"><ele>157.0</ele><time>2026-03-22T11:00:24Z</time></trkpt><trkpt lat="40.838039597596776" lon="14.214612498581104"><ele>157.0</ele><time>2026-03-22T11:00:25Z</time></trkpt><trkpt lat="40.838066586376556" lon="14.214738172564312"><ele>157.0</ele><time>2026-03-22T11:00:26Z</time></trkpt><trkpt lat="40.83809958790258" lon="14.214876940769965"><ele>157.0</ele><time>2026-03-22T11:00:27Z</time></trkpt><trkpt lat="40.838134370901784" lon="14.215001308497495"><ele>157.0</ele><time>2026-03-22T11:00:28Z</time></trkpt><trkpt lat="40.83816972103299" lon="14.215111733904688"><ele>157.0</ele><time>2026-03-22T11:00:29Z</time></trkpt><trkpt lat="40.83820857140269" lon="14.215222744632479"><ele>157.5</ele><time>2026-03-22T11:00:30Z</time></trkpt><trkpt lat="40.83824375061414" lon="14.215318331601976"><ele>158.0</ele><time>2026-03-22T11:00:31Z</time></trkpt><trkpt lat="40.83828249218188" lon="14.215419651864616"><ele>158.5</ele><time>2026-03-22T11:00:32Z</time></trkpt><trkpt lat="40.83831862405419" lon="14.215509363576832"><ele>159.0</ele><time>2026-03-22T11:00:33Z</time></trkpt><trkpt lat="40.83835984990459" lon="14.215606996985834"><ele>159.5</ele><time>2026-03-22T11:00:34Z</time></trkpt><trkpt lat="40.83840103031346" lon="14.21569976793931"><ele>160.0</ele><time>2026-03-22T11:00:35Z</time></trkpt><trkpt lat="40.83845166216668" lon="14.215799483044783"><ele>160.83333333333334</ele><time>2026-03-22T11:00:36Z</time></trkpt><trkpt lat="40.83849789132986" lon="14.215886997467747"><ele>161.66666666666669</ele><time>2026-03-22T11:00:37Z</time></trkpt><trkpt lat="40.8385517580816" lon="14.215988232647517"><ele>162.5</ele><time>2026-03-22T11:00:38Z</time></trkpt><trkpt lat="40.83859443995835" lon="14.216068447415855"><ele>163.33333333333334</ele><time>2026-03-22T11:00:39Z</time></trkpt><trkpt lat="40.838631227013565" lon="14.21613758367299"><ele>164.16666666666666</ele><time>2026-03-22T11:00:40Z</time></trkpt><trkpt lat="40.83869609515766" lon="14.216259033177705"><ele>165.0</ele><time>2026-03-22T11:00:42Z</time></trkpt><trkpt lat="40.838752878828416" lon="14.21636323416661"><ele>165.4</ele><time>2026-03-22T11:00:44Z</time></trkpt><trkpt lat="40.8388268535267" lon="14.216496306872825"><ele>165.8</ele><time>2026-03-22T11:00:46Z</time></trkpt><trkpt lat="40.83887316819839" lon="14.216579954590612"><ele>166.2</ele><time>2026-03-22T11:00:47Z</time></trkpt><trkpt lat="40.83893583527593" lon="14.216693008901546"><ele>166.6</ele><time>2026-03-22T11:00:48Z</time></trkpt><trkpt lat="40.83900916299117" lon="14.216825295417859"><ele>167.0</ele><time>2026-03-22T11:00:49Z</time></trkpt><trkpt lat="40.83910298263392" lon="14.216993696168062"><ele>167.0</ele><time>2026-03-22T11:00:50Z</time></trkpt><trkpt lat="40.83920630126929" lon="14.217176854766025"><ele>167.0</ele><time>2026-03-22T11:00:51Z</time></trkpt><trkpt lat="40.83928299669124" lon="14.217308548835327"><ele>167.0</ele><time>2026-03-22T11:00:52Z</time></trkpt><trkpt lat="40.83935890572298" lon="14.217433751896197"><ele>167.0</ele><time>2026-03-22T11:00:53Z</time></trkpt><trkpt lat="40.83945417885641" lon="14.217547106820499"><ele>167.8</ele><time>2026-03-22T11:00:54Z</time></trkpt><trkpt lat="40.839540868970985" lon="14.21762983414743"><ele>168.6</ele><time>2026-03-22T11:00:55Z</time></trkpt><trkpt lat="40.83964272797524" lon="14.217687120199466"><ele>169.4</ele><time>2026-03-22T11:00:56Z</time></trkpt><trkpt lat="40.83973290235014" lon="14.217745340128788"><ele>170.20000000000002</ele><time>2026-03-22T11:00:57Z</time></trkpt><trkpt lat="40.83982671709707" lon="14.217785926632883"><ele>171.0</ele><time>2026-03-22T11:00:58Z</time></trkpt><trkpt lat="40.839911584461355" lon="14.217806347805398"><ele>171.0</ele><time>2026-03-22T11:00:59Z</time></trkpt><trkpt lat="40.83997716817962" lon="14.217808581895511"><ele>171.0</ele><time>2026-03-22T11:01:00Z</time></trkpt><trkpt lat="40.8400896169647" lon="14.217807621733547"><ele>171.0</ele><time>2026-03-22T11:01:02Z</time></trkpt><trkpt lat="40.840166311759944" lon="14.21778583473436"><ele>171.0</ele><time>2026-03-22T11:01:04Z</time></trkpt><trkpt lat="40.840259052895696" lon="14.217758743391276"><ele>171.0</ele><time>2026-03-22T11:02:17Z</time></trkpt><trkpt lat="40.84033219311232" lon="14.217740443605477"><ele>171.0</ele><time>2026-03-22T11:02:18Z</time></trkpt><trkpt lat="40.8404313630994" lon="14.217710449729944"><ele>172.4</ele><time>2026-03-22T11:02:19Z</time></trkpt><trkpt lat="40.840580160769825" lon="14.217669275885227"><ele>173.8</ele><time>2026-03-22T11:02:21Z</time></trkpt><trkpt lat="40.84064886023231" lon="14.21764333605097"><ele>175.20000000000002</ele><time>2026-03-22T11:02:22Z</time></trkpt><trkpt lat="40.84072326604339" lon="14.217608147985123"><ele>176.60000000000002</ele><time>2026-03-22T11:02:23Z</time></trkpt><trkpt lat="40.84084207196237" lon="14.217552383107764"><ele>178.0</ele><time>2026-03-22T11:02:24Z</time></trkpt><trkpt lat="40.84097218217907" lon="14.217509161530671"><ele>178.60000000000002</ele><time>2026-03-22T11:02:25Z</time></trkpt><trkpt lat="40.84110281135776" lon="14.217486128082164"><ele>179.20000000000002</ele><time>2026-03-22T11:02:26Z</time></trkpt><trkpt lat="40.84121476803934" lon="14.217488779814317"><ele>179.8</ele><time>2026-03-22T11:02:27Z</time></trkpt><trkpt lat="40.841297621615126" lon="14.21756138426469"><ele>180.4</ele><time>2026-03-22T11:02:28Z</time></trkpt><trkpt lat="40.841363008600574" lon="14.217630738682594"><ele>181.0</ele><time>2026-03-22T11:02:29Z</time></trkpt><trkpt lat="40.84139711163524" lon="14.217731496897832"><ele>181.0</ele><time>2026-03-22T11:02:30Z</time></trkpt><trkpt lat="40.84145809223649" lon="14.217850532651699"><ele>181.0</ele><time>2026-03-22T11:02:31Z</time></trkpt><trkpt lat="40.84154401305111" lon="14.218017444659681"><ele>181.0</ele><time>2026-03-22T11:02:32Z</time></trkpt><trkpt lat="40.84163016083825" lon="14.218180680718396"><ele>181.0</ele><time>2026-03-22T11:02:33Z</time></trkpt><trkpt lat="40.841702174287335" lon="14.218317732901365"><ele>182.60000000000002</ele><time>2026-03-22T11:02:34Z</time></trkpt><trkpt lat="40.841768267457496" lon="14.218445384486936"><ele>184.2</ele><time>2026-03-22T11:02:35Z</time></trkpt><trkpt lat="40.8418345805256" lon="14.218574671444067"><ele>185.8</ele><time>2026-03-22T11:02:36Z</time></trkpt><trkpt lat="40.84189152348104" lon="14.218685688947447"><ele>187.39999999999998</ele><time>2026-03-22T11:02:37Z</time></trkpt><trkpt lat="40.84197151463265" lon="14.218786026746956"><ele>189.0</ele><time>2026-03-22T11:02:38Z</time></trkpt><trkpt lat="40.84202706663189" lon="14.218891744942004"><ele>186.83333333333334</ele><time>2026-03-22T11:02:39Z</time></trkpt><trkpt lat="40.84207909769364" lon="14.218979137911804"><ele>184.66666666666666</ele><time>2026-03-22T11:02:40Z</time></trkpt><trkpt lat="40.842131441391665" lon="14.219064207217093"><ele>182.5</ele><time>2026-03-22T11:02:41Z</time></trkpt><trkpt lat="40.84219663823419" lon="14.21912432265858"><ele>180.33333333333331</ele><time>2026-03-22T11:02:42Z</time></trkpt><trkpt lat="40.84228145561441" lon="14.219188286500364"><ele>178.16666666666666</ele><time>2026-03-22T11:02:44Z</time></trkpt><trkpt lat="40.842346569088505" lon="14.21926995982435"><ele>176.0</ele><time>2026-03-22T11:02:46Z</time></trkpt><trkpt lat="40.84242625595101" lon="14.219141781007197"><ele>176.0</ele><time>2026-03-22T11:02:47Z</time></trkpt><trkpt lat="40.84243326665627" lon="14.219015208137652"><ele>176.0</ele><time>2026-03-22T11:02:50Z</time></trkpt><trkpt lat="40.84243582359941" lon="14.218840612458203"><ele>176.0</ele><time>2026-03-22T11:02:52Z</time></trkpt><trkpt lat="40.84259081579337" lon="14.218746115353525"><ele>176.0</ele><time>2026-03-22T11:02:53Z</time></trkpt><trkpt lat="40.842699314825175" lon="14.218678737193324"><ele>169.25</ele><time>2026-03-22T11:02:54Z</time></trkpt><trkpt lat="40.842821314566656" lon="14.218670984459614"><ele>162.5</ele><time>2026-03-22T11:02:55Z</time></trkpt><trkpt lat="40.84296138443623" lon="14.21867630147459"><ele>155.75</ele><time>2026-03-22T11:02:56Z</time></trkpt><trkpt lat="40.84310889049502" lon="14.21871150045229"><ele>149.0</ele><time>2026-03-22T11:02:57Z</time></trkpt><trkpt lat="40.84328173665188" lon="14.218744100489253"><ele>148.0</ele><time>2026-03-22T11:02:58Z</time></trkpt><trkpt lat="40.84346442970348" lon="14.21878123487468"><ele>147.0</ele><time>2026-03-22T11:02:59Z</time></trkpt><trkpt lat="40.843656044493365" lon="14.218820388342966"><ele>146.0</ele><time>2026-03-22T11:03:00Z</time></trkpt><trkpt lat="40.84383380117322" lon="14.218855753515927"><ele>146.0</ele><time>2026-03-22T11:03:01Z</time></trkpt><trkpt lat="40.84399400789345" lon="14.218887411917777"><ele>146.0</ele><time>2026-03-22T11:03:02Z</time></trkpt><trkpt lat="40.8441425317408" lon="14.218916761696988"><ele>146.0</ele><time>2026-03-22T11:03:03Z</time></trkpt><trkpt lat="40.84428587812748" lon="14.218945088306901"><ele>146.25</ele><time>2026-03-22T11:03:04Z</time></trkpt><trkpt lat="40.84442471555186" lon="14.218973927549095"><ele>146.5</ele><time>2026-03-22T11:03:05Z</time></trkpt><trkpt lat="40.84457050006114" lon="14.219004379153244"><ele>146.75</ele><time>2026-03-22T11:03:06Z</time></trkpt><trkpt lat="40.84470577860234" lon="14.219032585987458"><ele>147.0</ele><time>2026-03-22T11:03:07Z</time></trkpt><trkpt lat="40.84484953019959" lon="14.219060548303883"><ele>149.25</ele><time>2026-03-22T11:03:08Z</time></trkpt><trkpt lat="40.844987128369866" lon="14.219086530347559"><ele>151.5</ele><time>2026-03-22T11:03:09Z</time></trkpt><trkpt lat="40.84511848097949" lon="14.219099968296542"><ele>153.75</ele><time>2026-03-22T11:03:10Z</time></trkpt><trkpt lat="40.84525006776055" lon="14.219075757876396"><ele>156.0</ele><time>2026-03-22T11:03:11Z</time></trkpt><trkpt lat="40.84537983483304" lon="14.219020768204087"><ele>154.5</ele><time>2026-03-22T11:03:12Z</time></trkpt><trkpt lat="40.845485994367614" lon="14.218930985374698"><ele>153.0</ele><time>2026-03-22T11:03:13Z</time></trkpt><trkpt lat="40.84556287080986" lon="14.218816560605273"><ele>151.5</ele><time>2026-03-22T11:03:14Z</time></trkpt><trkpt lat="40.84561247162787" lon="14.218679223888586"><ele>150.0</ele><time>2026-03-22T11:03:15Z</time></trkpt><trkpt lat="40.845642302597284" lon="14.218550727133344"><ele>150.0</ele><time>2026-03-22T11:03:16Z</time></trkpt><trkpt lat="40.845644129309136" lon="14.218414192699566"><ele>150.0</ele><time>2026-03-22T11:03:17Z</time></trkpt><trkpt lat="40.84562904338985" lon="14.218263370289517"><ele>150.0</ele><time>2026-03-22T11:03:18Z</time></trkpt><trkpt lat="40.84557448379155" lon="14.218124479628443"><ele>150.0</ele><time>2026-03-22T11:03:19Z</time></trkpt><trkpt lat="40.84551032566823" lon="14.217977587786576"><ele>147.5</ele><time>2026-03-22T11:03:20Z</time></trkpt><trkpt lat="40.84539724988238" lon="14.217874453030012"><ele>145.0</ele><time>2026-03-22T11:03:21Z</time></trkpt><trkpt lat="40.84527188120717" lon="14.217811611643231"><ele>142.5</ele><time>2026-03-22T11:03:22Z</time></trkpt><trkpt lat="40.845133532071586" lon="14.217788435710247"><ele>140.0</ele><time>2026-03-22T11:03:23Z</time></trkpt><trkpt lat="40.84499493418229" lon="14.217811209230756"><ele>139.66666666666666</ele><time>2026-03-22T11:03:24Z</time></trkpt><trkpt lat="40.84486397570283" lon="14.217877893343726"><ele>139.33333333333334</ele><time>2026-03-22T11:03:25Z</time></trkpt><trkpt lat="40.84473266607476" lon="14.217977848818876"><ele>139.0</ele><time>2026-03-22T11:03:26Z</time></trkpt><trkpt lat="40.84458932020898" lon="14.218082196837504"><ele>141.33333333333334</ele><time>2026-03-22T11:03:27Z</time></trkpt><trkpt lat="40.84444770361236" lon="14.218193439067976"><ele>143.66666666666666</ele><time>2026-03-22T11:03:27.999Z</time></trkpt><trkpt lat="40.84431540433812" lon="14.218294453497933"><ele>146.0</ele><time>2026-03-22T11:03:28.999Z</time></trkpt><trkpt lat="40.844193887742904" lon="14.21838401640414"><ele>146.0</ele><time>2026-03-22T11:03:29.999Z</time></trkpt><trkpt lat="40.8440833307375" lon="14.218466473745963"><ele>146.0</ele><time>2026-03-22T11:03:30.999Z</time></trkpt><trkpt lat="40.84395433704609" lon="14.218464303793269"><ele>146.0</ele><time>2026-03-22T11:03:31.999Z</time></trkpt><trkpt lat="40.843825650663106" lon="14.218462482734143"><ele>146.0</ele><time>2026-03-22T11:03:32.999Z</time></trkpt><trkpt lat="40.84369805381037" lon="14.218411210080541"><ele>146.0</ele><time>2026-03-22T11:03:33.999Z</time></trkpt><trkpt lat="40.84358861932677" lon="14.218330931288365"><ele>146.0</ele><time>2026-03-22T11:03:34.999Z</time></trkpt><trkpt lat="40.84349547113835" lon="14.21822338631448"><ele>146.0</ele><time>2026-03-22T11:03:35.999Z</time></trkpt><trkpt lat="40.84342834060272" lon="14.218097530217808"><ele>146.0</ele><time>2026-03-22T11:03:36.999Z</time></trkpt><trkpt lat="40.84337532547579" lon="14.217947376291095"><ele>143.75</ele><time>2026-03-22T11:03:37.999Z</time></trkpt><trkpt lat="40.843349038980556" lon="14.2177837604959"><ele>141.5</ele><time>2026-03-22T11:03:38.999Z</time></trkpt><trkpt lat="40.84334616851168" lon="14.217614799815232"><ele>139.25</ele><time>2026-03-22T11:03:39.999Z</time></trkpt><trkpt lat="40.84336735923572" lon="14.217455105644284"><ele>137.0</ele><time>2026-03-22T11:03:40.999Z</time></trkpt><trkpt lat="40.84338053728274" lon="14.217300800100649"><ele>136.25</ele><time>2026-03-22T11:03:41.999Z</time></trkpt><trkpt lat="40.84341806777122" lon="14.217134663366059"><ele>135.5</ele><time>2026-03-22T11:03:42.999Z</time></trkpt><trkpt lat="40.84345126278624" lon="14.21696808485668"><ele>134.75</ele><time>2026-03-22T11:03:43.999Z</time></trkpt><trkpt lat="40.84355578206011" lon="14.216793167532229"><ele>134.0</ele><time>2026-03-22T11:03:44.999Z</time></trkpt><trkpt lat="40.843661336538695" lon="14.216625025733363"><ele>133.25</ele><time>2026-03-22T11:03:45.999Z</time></trkpt><trkpt lat="40.843791079045964" lon="14.216529677951746"><ele>132.5</ele><time>2026-03-22T11:03:46.999Z</time></trkpt><trkpt lat="40.84392130441747" lon="14.216447053602675"><ele>131.75</ele><time>2026-03-22T11:03:47.999Z</time></trkpt><trkpt lat="40.844064597699756" lon="14.216395741691649"><ele>131.0</ele><time>2026-03-22T11:03:48.999Z</time></trkpt><trkpt lat="40.84423084069844" lon="14.21637845893005"><ele>130.33333333333331</ele><time>2026-03-22T11:03:49.999Z</time></trkpt><trkpt lat="40.84442464564172" lon="14.216396797691946"><ele>129.66666666666666</ele><time>2026-03-22T11:03:50.999Z</time></trkpt><trkpt lat="40.84462359552146" lon="14.21643074047706"><ele>129.0</ele><time>2026-03-22T11:03:51.999Z</time></trkpt><trkpt lat="40.844841933322186" lon="14.216446878893308"><ele>129.0</ele><time>2026-03-22T11:03:52.999Z</time></trkpt><trkpt lat="40.845054854536144" lon="14.216462719835377"><ele>129.0</ele><time>2026-03-22T11:03:53.999Z</time></trkpt><trkpt lat="40.84524382125942" lon="14.21647811299621"><ele>129.0</ele><time>2026-03-22T11:03:54.999Z</time></trkpt><trkpt lat="40.84540579000537" lon="14.216489666216654"><ele>129.0</ele><time>2026-03-22T11:03:55.999Z</time></trkpt><trkpt lat="40.845557945762586" lon="14.216499876294515"><ele>129.0</ele><time>2026-03-22T11:03:56.999Z</time></trkpt><trkpt lat="40.84568936547894" lon="14.216512351398718"><ele>129.0</ele><time>2026-03-22T11:03:57.999Z</time></trkpt><trkpt lat="40.84582218789951" lon="14.216505436333035"><ele>129.0</ele><time>2026-03-22T11:03:58.999Z</time></trkpt><trkpt lat="40.845963793401864" lon="14.216485908992246"><ele>129.0</ele><time>2026-03-22T11:03:59.999Z</time></trkpt><trkpt lat="40.84611328011301" lon="14.216458695246896"><ele>129.0</ele><time>2026-03-22T11:04:00.999Z</time></trkpt><trkpt lat="40.84628206634758" lon="14.216423627936585"><ele>129.0</ele><time>2026-03-22T11:04:01.999Z</time></trkpt><trkpt lat="40.846462927953496" lon="14.21637215561273"><ele>129.0</ele><time>2026-03-22T11:04:02.999Z</time></trkpt><trkpt lat="40.84662437235337" lon="14.21630906108369"><ele>129.0</ele><time>2026-03-22T11:04:03.999Z</time></trkpt><trkpt lat="40.84676514357664" lon="14.216243975634084"><ele>129.0</ele><time>2026-03-22T11:04:04.999Z</time></trkpt><trkpt lat="40.846907916907774" lon="14.21617040842906"><ele>132.0</ele><time>2026-03-22T11:04:06Z</time></trkpt><trkpt lat="40.847053302746666" lon="14.216096319434545"><ele>135.0</ele><time>2026-03-22T11:04:07Z</time></trkpt><trkpt lat="40.84720208700412" lon="14.216019535533862"><ele>138.0</ele><time>2026-03-22T11:04:08Z</time></trkpt><trkpt lat="40.84734192739841" lon="14.215947838382311"><ele>138.0</ele><time>2026-03-22T11:04:09Z</time></trkpt><trkpt lat="40.84748137397615" lon="14.215881679568481"><ele>138.0</ele><time>2026-03-22T11:04:10Z</time></trkpt><trkpt lat="40.847614551302854" lon="14.215819795447285"><ele>138.0</ele><time>2026-03-22T11:04:11Z</time></trkpt><trkpt lat="40.84775520296282" lon="14.215750021197298"><ele>138.0</ele><time>2026-03-22T11:04:12Z</time></trkpt><trkpt lat="40.847907270506504" lon="14.215667638289004"><ele>137.66666666666666</ele><time>2026-03-22T11:04:13Z</time></trkpt><trkpt lat="40.848082755988884" lon="14.21557764250254"><ele>137.33333333333331</ele><time>2026-03-22T11:04:14Z</time></trkpt><trkpt lat="40.848285235135045" lon="14.21548316451936"><ele>137.0</ele><time>2026-03-22T11:04:15Z</time></trkpt><trkpt lat="40.848501878956995" lon="14.215387029425491"><ele>138.0</ele><time>2026-03-22T11:04:16Z</time></trkpt><trkpt lat="40.8487252490092" lon="14.215288455696399"><ele>139.0</ele><time>2026-03-22T11:04:17Z</time></trkpt><trkpt lat="40.848941290635665" lon="14.21519146319933"><ele>139.0</ele><time>2026-03-22T11:04:18Z</time></trkpt><trkpt lat="40.84913127951188" lon="14.215104365928322"><ele>139.0</ele><time>2026-03-22T11:04:19Z</time></trkpt><trkpt lat="40.84930635776477" lon="14.215027308071187"><ele>139.0</ele><time>2026-03-22T11:04:20Z</time></trkpt><trkpt lat="40.84948080041528" lon="14.214954444188468"><ele>141.66666666666669</ele><time>2026-03-22T11:04:21Z</time></trkpt><trkpt lat="40.84966128297668" lon="14.21488561923815"><ele>144.33333333333334</ele><time>2026-03-22T11:04:22Z</time></trkpt><trkpt lat="40.84984105051752" lon="14.214832843273072"><ele>147.0</ele><time>2026-03-22T11:04:23Z</time></trkpt><trkpt lat="40.850023461508066" lon="14.214802502568453"><ele>153.33333333333334</ele><time>2026-03-22T11:04:24Z</time></trkpt><trkpt lat="40.85020788144391" lon="14.21480028393513"><ele>159.66666666666669</ele><time>2026-03-22T11:04:25Z</time></trkpt><trkpt lat="40.85038940427519" lon="14.214817288215349"><ele>166.0</ele><time>2026-03-22T11:04:26Z</time></trkpt><trkpt lat="40.850558890801366" lon="14.214849842198076"><ele>166.0</ele><time>2026-03-22T11:04:27Z</time></trkpt><trkpt lat="40.85071734733057" lon="14.214894696031772"><ele>166.0</ele><time>2026-03-22T11:04:28Z</time></trkpt><trkpt lat="40.850875353082394" lon="14.214948645801028"><ele>166.0</ele><time>2026-03-22T11:04:29Z</time></trkpt><trkpt lat="40.85102860150252" lon="14.215018646681902"><ele>172.33333333333334</ele><time>2026-03-22T11:04:30Z</time></trkpt><trkpt lat="40.85118432337236" lon="14.215111047435819"><ele>178.66666666666666</ele><time>2026-03-22T11:04:31Z</time></trkpt><trkpt lat="40.851345335410635" lon="14.215228855317802"><ele>185.0</ele><time>2026-03-22T11:04:32Z</time></trkpt><trkpt lat="40.85150638191688" lon="14.21536973374176"><ele>185.0</ele><time>2026-03-22T11:04:33Z</time></trkpt><trkpt lat="40.85166608341859" lon="14.215528503258149"><ele>185.0</ele><time>2026-03-22T11:04:34Z</time></trkpt><trkpt lat="40.85181677507767" lon="14.215717667792626"><ele>185.0</ele><time>2026-03-22T11:04:35Z</time></trkpt><trkpt lat="40.85198290657696" lon="14.215916682535203"><ele>194.0</ele><time>2026-03-22T11:04:36Z</time></trkpt><trkpt lat="40.85216630445822" lon="14.21616930556024"><ele>203.0</ele><time>2026-03-22T11:04:37Z</time></trkpt><trkpt lat="40.85233121626526" lon="14.216415069413493"><ele>203.33333333333334</ele><time>2026-03-22T11:04:38Z</time></trkpt><trkpt lat="40.85248068654933" lon="14.216624542256076"><ele>203.66666666666669</ele><time>2026-03-22T11:04:39Z</time></trkpt><trkpt lat="40.852638239487796" lon="14.216838714608917"><ele>204.0</ele><time>2026-03-22T11:04:40Z</time></trkpt><trkpt lat="40.85279235630991" lon="14.217051488705543"><ele>204.0</ele><time>2026-03-22T11:04:41Z</time></trkpt><trkpt lat="40.85296336404039" lon="14.217230253952664"><ele>204.0</ele><time>2026-03-22T11:04:42Z</time></trkpt><trkpt lat="40.853113733253956" lon="14.217446950179161"><ele>204.0</ele><time>2026-03-22T11:04:43Z</time></trkpt><trkpt lat="40.853206395834746" lon="14.217624547738238"><ele>202.66666666666669</ele><time>2026-03-22T11:04:44Z</time></trkpt><trkpt lat="40.853325596519824" lon="14.2177803756817"><ele>201.33333333333334</ele><time>2026-03-22T11:04:45Z</time></trkpt><trkpt lat="40.85344972566005" lon="14.217934750427032"><ele>200.0</ele><time>2026-03-22T11:04:46Z</time></trkpt><trkpt lat="40.85357010876419" lon="14.218096581852892"><ele>198.66666666666669</ele><time>2026-03-22T11:04:47Z</time></trkpt><trkpt lat="40.85369068067929" lon="14.21826732337654"><ele>197.33333333333331</ele><time>2026-03-22T11:04:48Z</time></trkpt><trkpt lat="40.85381813660418" lon="14.218445524299423"><ele>196.0</ele><time>2026-03-22T11:04:49Z</time></trkpt><trkpt lat="40.853955277107666" lon="14.218617461765655"><ele>196.0</ele><time>2026-03-22T11:04:50Z</time></trkpt><trkpt lat="40.854098015054554" lon="14.218777971026576"><ele>196.0</ele><time>2026-03-22T11:04:51Z</time></trkpt><trkpt lat="40.85425148562614" lon="14.218930751265344"><ele>196.0</ele><time>2026-03-22T11:04:52Z</time></trkpt><trkpt lat="40.85440648523827" lon="14.21907333801548"><ele>200.0</ele><time>2026-03-22T11:04:53Z</time></trkpt><trkpt lat="40.85457276045694" lon="14.219227306811959"><ele>204.0</ele><time>2026-03-22T11:04:54Z</time></trkpt><trkpt lat="40.85473419026501" lon="14.2193721163918"><ele>208.0</ele><time>2026-03-22T11:04:55Z</time></trkpt><trkpt lat="40.85489428221903" lon="14.219521237672275"><ele>208.0</ele><time>2026-03-22T11:04:56Z</time></trkpt><trkpt lat="40.855053981469446" lon="14.219660467522388"><ele>208.0</ele><time>2026-03-22T11:04:57Z</time></trkpt><trkpt lat="40.855213483651696" lon="14.219798722720643"><ele>208.0</ele><time>2026-03-22T11:04:58Z</time></trkpt><trkpt lat="40.85537632887358" lon="14.219938943395478"><ele>207.66666666666666</ele><time>2026-03-22T11:04:59Z</time></trkpt><trkpt lat="40.855548844432285" lon="14.220085894275977"><ele>207.33333333333331</ele><time>2026-03-22T11:05:00Z</time></trkpt><trkpt lat="40.855711518241755" lon="14.220232743741697"><ele>207.0</ele><time>2026-03-22T11:05:01Z</time></trkpt><trkpt lat="40.85585934546124" lon="14.220366491048729"><ele>210.33333333333331</ele><time>2026-03-22T11:05:02Z</time></trkpt><trkpt lat="40.85600362864133" lon="14.220501400058899"><ele>213.66666666666666</ele><time>2026-03-22T11:05:03Z</time></trkpt><trkpt lat="40.85615073637234" lon="14.220652149834349"><ele>217.0</ele><time>2026-03-22T11:05:04Z</time></trkpt><trkpt lat="40.85629954867747" lon="14.220818942224927"><ele>217.0</ele><time>2026-03-22T11:05:05Z</time></trkpt><trkpt lat="40.856443245932326" lon="14.220998306987225"><ele>217.0</ele><time>2026-03-22T11:05:06Z</time></trkpt><trkpt lat="40.85658222427687" lon="14.221177080059041"><ele>217.0</ele><time>2026-03-22T11:05:07Z</time></trkpt><trkpt lat="40.8567108033859" lon="14.221360734667682"><ele>221.33333333333331</ele><time>2026-03-22T11:05:08Z</time></trkpt><trkpt lat="40.856829461487045" lon="14.22155395676382"><ele>225.66666666666669</ele><time>2026-03-22T11:05:09Z</time></trkpt><trkpt lat="40.85694926850932" lon="14.221752749292728"><ele>230.0</ele><time>2026-03-22T11:05:10Z</time></trkpt><trkpt lat="40.85706422611242" lon="14.221961490950866"><ele>230.0</ele><time>2026-03-22T11:05:11Z</time></trkpt><trkpt lat="40.85717307499908" lon="14.222192747882131"><ele>230.0</ele><time>2026-03-22T11:05:12Z</time></trkpt><trkpt lat="40.85727242643186" lon="14.222428495741346"><ele>230.0</ele><time>2026-03-22T11:05:13Z</time></trkpt><trkpt lat="40.85736403084433" lon="14.22266613412759"><ele>230.33333333333334</ele><time>2026-03-22T11:05:14Z</time></trkpt><trkpt lat="40.85745114375185" lon="14.222905167676247"><ele>230.66666666666669</ele><time>2026-03-22T11:05:15Z</time></trkpt><trkpt lat="40.857534726268426" lon="14.223146547183973"><ele>231.0</ele><time>2026-03-22T11:05:16Z</time></trkpt><trkpt lat="40.857614420466966" lon="14.223388983121836"><ele>232.33333333333331</ele><time>2026-03-22T11:05:17Z</time></trkpt><trkpt lat="40.85769372064481" lon="14.22362918803169"><ele>233.66666666666666</ele><time>2026-03-22T11:05:18.06Z</time></trkpt><trkpt lat="40.85776441163359" lon="14.223842499574642"><ele>235.0</ele><time>2026-03-22T11:05:19.061Z</time></trkpt><trkpt lat="40.85783359464561" lon="14.22406459494683"><ele>235.0</ele><time>2026-03-22T11:05:20.059Z</time></trkpt><trkpt lat="40.85790208437607" lon="14.224286127563758"><ele>235.0</ele><time>2026-03-22T11:05:21.055Z</time></trkpt><trkpt lat="40.859225088150986" lon="14.22746315268242"><ele>253.0</ele><time>2026-03-22T11:05:25.621Z</time></trkpt><trkpt lat="40.85956198834182" lon="14.228301825733647"><ele>249.0</ele><time>2026-03-22T11:05:26.621Z</time></trkpt><trkpt lat="40.859898305848105" lon="14.229139959791306"><ele>243.0</ele><time>2026-03-22T11:05:27.62Z</time></trkpt><trkpt lat="40.86023513502781" lon="14.22997971545949"><ele>227.0</ele><time>2026-03-22T11:05:28.621Z</time></trkpt><trkpt lat="40.8605741600618" lon="14.230816905120891"><ele>213.0</ele><time>2026-03-22T11:05:29.621Z</time></trkpt><trkpt lat="40.8609099050084" lon="14.231655200764422"><ele>185.0</ele><time>2026-03-22T11:05:30.62Z</time></trkpt><trkpt lat="40.861247598283306" lon="14.232494296952632"><ele>197.0</ele><time>2026-03-22T11:05:31.621Z</time></trkpt><trkpt lat="40.86178213886026" lon="14.233860172540084"><ele>189.0</ele><time>2026-03-22T11:05:50.999Z</time></trkpt><trkpt lat="40.86192784002121" lon="14.234090784304517"><ele>181.0</ele><time>2026-03-22T11:05:51.999Z</time></trkpt><trkpt lat="40.8620680324546" lon="14.23437696747449"><ele>181.0</ele><time>2026-03-22T11:05:52.999Z</time></trkpt><trkpt lat="40.862251512112934" lon="14.23468054113115"><ele>181.0</ele><time>2026-03-22T11:05:53.999Z</time></trkpt><trkpt lat="40.86235411542154" lon="14.234954039466361"><ele>171.5</ele><time>2026-03-22T11:05:54.999Z</time></trkpt><trkpt lat="40.86246396318588" lon="14.235253846679589"><ele>162.0</ele><time>2026-03-22T11:05:55.999Z</time></trkpt><trkpt lat="40.86257218059339" lon="14.235552765252699"><ele>154.0</ele><time>2026-03-22T11:05:56.999Z</time></trkpt><trkpt lat="40.862687357941425" lon="14.235817832280137"><ele>146.0</ele><time>2026-03-22T11:05:57.999Z</time></trkpt><trkpt lat="40.86278896673713" lon="14.23609350318786"><ele>146.0</ele><time>2026-03-22T11:05:58.999Z</time></trkpt><trkpt lat="40.86289740757369" lon="14.236359439885398"><ele>146.0</ele><time>2026-03-22T11:05:59.999Z</time></trkpt><trkpt lat="40.86299222361348" lon="14.236617310361158"><ele>146.0</ele><time>2026-03-22T11:06:00.999Z</time></trkpt><trkpt lat="40.86310547988848" lon="14.236896092509"><ele>139.5</ele><time>2026-03-22T11:06:01.999Z</time></trkpt><trkpt lat="40.8632133148276" lon="14.23717106514474"><ele>133.0</ele><time>2026-03-22T11:06:02.999Z</time></trkpt><trkpt lat="40.86332107557273" lon="14.237453674622577"><ele>132.5</ele><time>2026-03-22T11:06:03.999Z</time></trkpt><trkpt lat="40.86344308719417" lon="14.237765021791422"><ele>132.0</ele><time>2026-03-22T11:06:04.999Z</time></trkpt><trkpt lat="40.863577505396684" lon="14.23811023765968"><ele>138.0</ele><time>2026-03-22T11:06:05.999Z</time></trkpt><trkpt lat="40.86371246369992" lon="14.238447153188796"><ele>144.0</ele><time>2026-03-22T11:06:06.999Z</time></trkpt><trkpt lat="40.86384093411416" lon="14.238766796919991"><ele>144.5</ele><time>2026-03-22T11:06:07.999Z</time></trkpt><trkpt lat="40.86397345496458" lon="14.239085614622178"><ele>145.0</ele><time>2026-03-22T11:06:08.999Z</time></trkpt><trkpt lat="40.8641016544438" lon="14.239400704708325"><ele>145.0</ele><time>2026-03-22T11:06:09.999Z</time></trkpt><trkpt lat="40.86423086679352" lon="14.23971560094989"><ele>145.0</ele><time>2026-03-22T11:06:10.999Z</time></trkpt><trkpt lat="40.86436028514251" lon="14.240030436233724"><ele>144.5</ele><time>2026-03-22T11:06:12Z</time></trkpt><trkpt lat="40.86448505854404" lon="14.240345007980615"><ele>144.0</ele><time>2026-03-22T11:06:13Z</time></trkpt><trkpt lat="40.864616676802086" lon="14.240668767116812"><ele>144.0</ele><time>2026-03-22T11:06:14Z</time></trkpt><trkpt lat="40.86474663722131" lon="14.240997132947838"><ele>144.0</ele><time>2026-03-22T11:06:15Z</time></trkpt><trkpt lat="40.86487067716483" lon="14.241304062448183"><ele>140.0</ele><time>2026-03-22T11:06:16Z</time></trkpt><trkpt lat="40.86498997116169" lon="14.241589739011609"><ele>136.0</ele><time>2026-03-22T11:06:17Z</time></trkpt><trkpt lat="40.86510793878088" lon="14.241861563133527"><ele>134.5</ele><time>2026-03-22T11:06:18Z</time></trkpt><trkpt lat="40.865236472408114" lon="14.242128365405364"><ele>133.0</ele><time>2026-03-22T11:06:19Z</time></trkpt><trkpt lat="40.86539063407074" lon="14.24239663482454"><ele>133.0</ele><time>2026-03-22T11:06:20Z</time></trkpt><trkpt lat="40.865565840072506" lon="14.242661415613734"><ele>133.0</ele><time>2026-03-22T11:06:21Z</time></trkpt><trkpt lat="40.865740253187845" lon="14.242913337825273"><ele>131.0</ele><time>2026-03-22T11:06:22Z</time></trkpt><trkpt lat="40.86589699552228" lon="14.243148005184256"><ele>129.0</ele><time>2026-03-22T11:06:23Z</time></trkpt><trkpt lat="40.86603791344698" lon="14.243377201154876"><ele>128.33333333333334</ele><time>2026-03-22T11:06:24Z</time></trkpt><trkpt lat="40.866175367868145" lon="14.243598907965032"><ele>127.66666666666667</ele><time>2026-03-22T11:06:25Z</time></trkpt><trkpt lat="40.86632181242425" lon="14.243832590404045"><ele>127.0</ele><time>2026-03-22T11:06:26Z</time></trkpt><trkpt lat="40.86649474433109" lon="14.244112616182415"><ele>126.0</ele><time>2026-03-22T11:06:27Z</time></trkpt><trkpt lat="40.8666810794068" lon="14.244413815490786"><ele>125.0</ele><time>2026-03-22T11:06:28Z</time></trkpt><trkpt lat="40.8668678989333" lon="14.244713028004714"><ele>135.0</ele><time>2026-03-22T11:06:29Z</time></trkpt><trkpt lat="40.86703642837189" lon="14.24497632250248"><ele>145.0</ele><time>2026-03-22T11:06:30Z</time></trkpt><trkpt lat="40.86720625298557" lon="14.245237169447556"><ele>145.0</ele><time>2026-03-22T11:06:31Z</time></trkpt><trkpt lat="40.86737341503971" lon="14.245504888994656"><ele>145.0</ele><time>2026-03-22T11:06:32Z</time></trkpt><trkpt lat="40.86753829631641" lon="14.245778721391167"><ele>157.0</ele><time>2026-03-22T11:06:33Z</time></trkpt><trkpt lat="40.86770758627941" lon="14.246049280498928"><ele>169.0</ele><time>2026-03-22T11:06:34Z</time></trkpt><trkpt lat="40.867844918823806" lon="14.24634108284865"><ele>165.0</ele><time>2026-03-22T11:06:35Z</time></trkpt><trkpt lat="40.8679843784521" lon="14.246653522106664"><ele>161.0</ele><time>2026-03-22T11:06:36.066Z</time></trkpt><trkpt lat="40.86809837343611" lon="14.246942978213273"><ele>161.0</ele><time>2026-03-22T11:06:37.067Z</time></trkpt><trkpt lat="40.86820192778457" lon="14.247249585811758"><ele>161.0</ele><time>2026-03-22T11:06:38.065Z</time></trkpt><trkpt lat="40.86829169556715" lon="14.247528971987649"><ele>156.5</ele><time>2026-03-22T11:06:39.061Z</time></trkpt><trkpt lat="40.868357484369845" lon="14.247804698919975"><ele>152.0</ele><time>2026-03-22T11:06:40.061Z</time></trkpt><trkpt lat="40.86894710019872" lon="14.25027816019652"><ele>152.0</ele><time>2026-03-22T11:06:43.619Z</time></trkpt><trkpt lat="40.86933943845925" lon="14.251073886411223"><ele>151.0</ele><time>2026-03-22T11:06:44.619Z</time></trkpt><trkpt lat="40.86964355739627" lon="14.25193111470827"><ele>155.0</ele><time>2026-03-22T11:06:45.619Z</time></trkpt><trkpt lat="40.86972966762758" lon="14.252868388718193"><ele>153.0</ele><time>2026-03-22T11:06:46.619Z</time></trkpt><trkpt lat="40.869589920882454" lon="14.253796103051506"><ele>146.0</ele><time>2026-03-22T11:06:47.619Z</time></trkpt><trkpt lat="40.869335016480946" lon="14.254683522876688"><ele>132.0</ele><time>2026-03-22T11:06:48.619Z</time></trkpt><trkpt lat="40.869128957808336" lon="14.255591021551195"><ele>112.0</ele><time>2026-03-22T11:06:49.619Z</time></trkpt><trkpt lat="40.8691366389817" lon="14.256588155797617"><ele>112.0</ele><time>2026-03-22T11:07:17.999Z</time></trkpt><trkpt lat="40.86920669525714" lon="14.256855388091981"><ele>112.0</ele><time>2026-03-22T11:07:18.999Z</time></trkpt><trkpt lat="40.86922830340335" lon="14.257081178439089"><ele>112.0</ele><time>2026-03-22T11:07:19.999Z</time></trkpt><trkpt lat="40.869274952165846" lon="14.257334003328786"><ele>113.0</ele><time>2026-03-22T11:07:20.999Z</time></trkpt><trkpt lat="40.8693239904291" lon="14.257600065133028"><ele>114.0</ele><time>2026-03-22T11:07:21.999Z</time></trkpt><trkpt lat="40.86936548900684" lon="14.257860544356976"><ele>115.0</ele><time>2026-03-22T11:07:22.999Z</time></trkpt><trkpt lat="40.86940379839011" lon="14.258118950280553"><ele>112.66666666666667</ele><time>2026-03-22T11:07:23.999Z</time></trkpt><trkpt lat="40.86943791306004" lon="14.258387893274266"><ele>110.33333333333334</ele><time>2026-03-22T11:07:24.999Z</time></trkpt><trkpt lat="40.86946973723634" lon="14.258655792568147"><ele>108.0</ele><time>2026-03-22T11:07:25.999Z</time></trkpt><trkpt lat="40.86949014913549" lon="14.25892390085608"><ele>107.66666666666666</ele><time>2026-03-22T11:07:26.999Z</time></trkpt><trkpt lat="40.86950035973903" lon="14.259201134870297"><ele>107.33333333333333</ele><time>2026-03-22T11:07:27.999Z</time></trkpt><trkpt lat="40.86949719195854" lon="14.259484798612743"><ele>107.0</ele><time>2026-03-22T11:07:28.999Z</time></trkpt><trkpt lat="40.869464076511406" lon="14.25977820854582"><ele>107.0</ele><time>2026-03-22T11:07:29.999Z</time></trkpt><trkpt lat="40.869425133278575" lon="14.260081611735334"><ele>107.0</ele><time>2026-03-22T11:07:30.999Z</time></trkpt><trkpt lat="40.869366624618735" lon="14.26041343058905"><ele>100.5</ele><time>2026-03-22T11:07:31.999Z</time></trkpt><trkpt lat="40.86930433553699" lon="14.260790499323745"><ele>94.0</ele><time>2026-03-22T11:07:32.999Z</time></trkpt><trkpt lat="40.869214567688566" lon="14.261222346165562"><ele>85.5</ele><time>2026-03-22T11:07:33.999Z</time></trkpt><trkpt lat="40.869106934753226" lon="14.26168231821382"><ele>77.0</ele><time>2026-03-22T11:07:34.999Z</time></trkpt><trkpt lat="40.86901630508972" lon="14.262129780452378"><ele>73.5</ele><time>2026-03-22T11:07:35.999Z</time></trkpt><trkpt lat="40.868937414697086" lon="14.262525995046946"><ele>70.0</ele><time>2026-03-22T11:07:36.999Z</time></trkpt><trkpt lat="40.868868391172114" lon="14.262901752602328"><ele>69.0</ele><time>2026-03-22T11:07:37.999Z</time></trkpt><trkpt lat="40.868828798883996" lon="14.263276383158463"><ele>68.0</ele><time>2026-03-22T11:07:38.999Z</time></trkpt><trkpt lat="40.8687781066581" lon="14.263651886371507"><ele>68.0</ele><time>2026-03-22T11:07:39.999Z</time></trkpt><trkpt lat="40.868738578907944" lon="14.264031044771848"><ele>68.0</ele><time>2026-03-22T11:07:40.999Z</time></trkpt><trkpt lat="40.86871337168015" lon="14.264392285057902"><ele>68.0</ele><time>2026-03-22T11:07:41.999Z</time></trkpt><trkpt lat="40.86870239477359" lon="14.264735197311872"><ele>68.0</ele><time>2026-03-22T11:07:42.999Z</time></trkpt><trkpt lat="40.86870552666249" lon="14.265082998380436"><ele>69.5</ele><time>2026-03-22T11:07:43.999Z</time></trkpt><trkpt lat="40.86871890732808" lon="14.265427368412468"><ele>71.0</ele><time>2026-03-22T11:07:44.999Z</time></trkpt><trkpt lat="40.868734617650915" lon="14.265774478633444"><ele>65.5</ele><time>2026-03-22T11:07:45.999Z</time></trkpt><trkpt lat="40.868750840762345" lon="14.266114917232434"><ele>60.0</ele><time>2026-03-22T11:07:46.999Z</time></trkpt><trkpt lat="40.8687712273802" lon="14.266441654327425"><ele>55.0</ele><time>2026-03-22T11:07:47.999Z</time></trkpt><trkpt lat="40.868801007173914" lon="14.266747103104558"><ele>50.0</ele><time>2026-03-22T11:07:48.999Z</time></trkpt><trkpt lat="40.86884415663914" lon="14.267072542230288"><ele>44.5</ele><time>2026-03-22T11:07:49.999Z</time></trkpt><trkpt lat="40.868901522841256" lon="14.267438740031555"><ele>39.0</ele><time>2026-03-22T11:07:50.999Z</time></trkpt><trkpt lat="40.86893454284926" lon="14.267837804030542"><ele>38.5</ele><time>2026-03-22T11:07:51.999Z</time></trkpt><trkpt lat="40.86897805701473" lon="14.268257597256166"><ele>38.0</ele><time>2026-03-22T11:07:52.999Z</time></trkpt><trkpt lat="40.86903143993156" lon="14.268660948709199"><ele>41.0</ele><time>2026-03-22T11:07:53.999Z</time></trkpt><trkpt lat="40.8690672576697" lon="14.269055483661441"><ele>44.0</ele><time>2026-03-22T11:07:54.999Z</time></trkpt><trkpt lat="40.869108198806764" lon="14.26945191595214"><ele>49.0</ele><time>2026-03-22T11:07:55.999Z</time></trkpt><trkpt lat="40.869147773860654" lon="14.269834251787707"><ele>54.0</ele><time>2026-03-22T11:07:56.999Z</time></trkpt><trkpt lat="40.869187410594634" lon="14.270212604742076"><ele>54.0</ele><time>2026-03-22T11:07:57.999Z</time></trkpt><trkpt lat="40.869225859865836" lon="14.270563549019956"><ele>54.0</ele><time>2026-03-22T11:07:58.999Z</time></trkpt><trkpt lat="40.86925965823919" lon="14.270887645540501"><ele>56.5</ele><time>2026-03-22T11:07:59.999Z</time></trkpt><trkpt lat="40.86930248802499" lon="14.27120305522077"><ele>59.0</ele><time>2026-03-22T11:08:00.999Z</time></trkpt><trkpt lat="40.86935518273129" lon="14.271524330459979"><ele>59.0</ele><time>2026-03-22T11:08:01.999Z</time></trkpt><trkpt lat="40.86941545099017" lon="14.271824755828467"><ele>59.0</ele><time>2026-03-22T11:08:02.999Z</time></trkpt><trkpt lat="40.8694824234843" lon="14.2721177429167"><ele>60.0</ele><time>2026-03-22T11:08:03.999Z</time></trkpt><trkpt lat="40.86955742138588" lon="14.2724143669002"><ele>61.0</ele><time>2026-03-22T11:08:04.999Z</time></trkpt><trkpt lat="40.86963635051432" lon="14.272703078298237"><ele>61.0</ele><time>2026-03-22T11:08:05.999Z</time></trkpt><trkpt lat="40.86972414800833" lon="14.272989157765961"><ele>61.0</ele><time>2026-03-22T11:08:06.999Z</time></trkpt><trkpt lat="40.86982507135109" lon="14.273272630282113"><ele>61.0</ele><time>2026-03-22T11:08:07.999Z</time></trkpt><trkpt lat="40.869926985522895" lon="14.273539722671572"><ele>61.0</ele><time>2026-03-22T11:08:08.999Z</time></trkpt><trkpt lat="40.87002301672364" lon="14.27378813869457"><ele>61.0</ele><time>2026-03-22T11:08:09.999Z</time></trkpt><trkpt lat="40.87011882720636" lon="14.27402669553311"><ele>65.66666666666666</ele><time>2026-03-22T11:08:10.999Z</time></trkpt><trkpt lat="40.87021804658778" lon="14.274254589539108"><ele>70.33333333333333</ele><time>2026-03-22T11:08:11.999Z</time></trkpt><trkpt lat="40.87032643801672" lon="14.274488538584524"><ele>75.0</ele><time>2026-03-22T11:08:12.999Z</time></trkpt><trkpt lat="40.87044112224797" lon="14.274719825348237"><ele>73.5</ele><time>2026-03-22T11:08:13.999Z</time></trkpt><trkpt lat="40.87056396984185" lon="14.274963464481633"><ele>72.0</ele><time>2026-03-22T11:08:14.999Z</time></trkpt><trkpt lat="40.870722011507965" lon="14.275251618548975"><ele>72.0</ele><time>2026-03-22T11:08:15.999Z</time></trkpt><trkpt lat="40.870894961694496" lon="14.275547673966209"><ele>72.0</ele><time>2026-03-22T11:08:16.999Z</time></trkpt><trkpt lat="40.87105451564505" lon="14.275793441175924"><ele>74.0</ele><time>2026-03-22T11:08:18Z</time></trkpt><trkpt lat="40.87117935957318" lon="14.275993229504843"><ele>76.0</ele><time>2026-03-22T11:08:19Z</time></trkpt><trkpt lat="40.87127750882283" lon="14.276157395258524"><ele>78.0</ele><time>2026-03-22T11:08:20Z</time></trkpt><trkpt lat="40.87136048211637" lon="14.276305627211528"><ele>78.0</ele><time>2026-03-22T11:08:21Z</time></trkpt><trkpt lat="40.87144462195381" lon="14.276468210347549"><ele>78.0</ele><time>2026-03-22T11:08:22Z</time></trkpt><trkpt lat="40.87151916035089" lon="14.27662674767284"><ele>78.0</ele><time>2026-03-22T11:08:23Z</time></trkpt><trkpt lat="40.871584316643926" lon="14.27676654165687"><ele>78.0</ele><time>2026-03-22T11:08:24Z</time></trkpt><trkpt lat="40.87164062135704" lon="14.276885014900326"><ele>78.0</ele><time>2026-03-22T11:08:25Z</time></trkpt><trkpt lat="40.87168337497016" lon="14.276976453246165"><ele>78.0</ele><time>2026-03-22T11:08:26Z</time></trkpt><trkpt lat="40.87173072906438" lon="14.277055459526444"><ele>78.0</ele><time>2026-03-22T11:08:28Z</time></trkpt><trkpt lat="40.87176638975635" lon="14.277132771847466"><ele>78.0</ele><time>2026-03-22T11:08:45Z</time></trkpt><trkpt lat="40.8717973421752" lon="14.27721941934198"><ele>78.0</ele><time>2026-03-22T11:09:31.999Z</time></trkpt><trkpt lat="40.87182796636614" lon="14.277315583894795"><ele>78.0</ele><time>2026-03-22T11:10:16.999Z</time></trkpt><trkpt lat="40.87189400038428" lon="14.277416816515977"><ele>79.6</ele><time>2026-03-22T11:10:18.999Z</time></trkpt><trkpt lat="40.87195906937596" lon="14.277500108888027"><ele>81.19999999999999</ele><time>2026-03-22T11:10:19.999Z</time></trkpt><trkpt lat="40.87201403409462" lon="14.277589953266622"><ele>82.8</ele><time>2026-03-22T11:10:20.999Z</time></trkpt><trkpt lat="40.87206063895211" lon="14.277693266297662"><ele>84.39999999999999</ele><time>2026-03-22T11:10:21.999Z</time></trkpt><trkpt lat="40.87210999933512" lon="14.277823614687998"><ele>86.0</ele><time>2026-03-22T11:10:22.999Z</time></trkpt><trkpt lat="40.87217396788182" lon="14.278005572189313"><ele>85.66666666666667</ele><time>2026-03-22T11:10:24Z</time></trkpt><trkpt lat="40.87222687531917" lon="14.278189676543281"><ele>85.33333333333333</ele><time>2026-03-22T11:10:25Z</time></trkpt><trkpt lat="40.87226953325516" lon="14.278402790657625"><ele>85.0</ele><time>2026-03-22T11:10:26Z</time></trkpt><trkpt lat="40.87229622465176" lon="14.278630673968433"><ele>85.0</ele><time>2026-03-22T11:10:27Z</time></trkpt><trkpt lat="40.872312014119125" lon="14.278813599644984"><ele>85.0</ele><time>2026-03-22T11:10:28Z</time></trkpt><trkpt lat="40.872325741261655" lon="14.278975098886525"><ele>85.0</ele><time>2026-03-22T11:10:29Z</time></trkpt><trkpt lat="40.87232417679151" lon="14.279137756006103"><ele>85.0</ele><time>2026-03-22T11:10:30Z</time></trkpt><trkpt lat="40.87232737611724" lon="14.27931016954704"><ele>85.0</ele><time>2026-03-22T11:10:31Z</time></trkpt><trkpt lat="40.87231078901719" lon="14.279481907016423"><ele>85.0</ele><time>2026-03-22T11:10:32Z</time></trkpt><trkpt lat="40.872308221755226" lon="14.279663554174618"><ele>85.0</ele><time>2026-03-22T11:10:33Z</time></trkpt><trkpt lat="40.872260951274576" lon="14.279896822879275"><ele>85.5</ele><time>2026-03-22T11:10:34Z</time></trkpt><trkpt lat="40.87221481873335" lon="14.280204741311533"><ele>86.0</ele><time>2026-03-22T11:10:35Z</time></trkpt><trkpt lat="40.872151920395275" lon="14.280579794063854"><ele>89.0</ele><time>2026-03-22T11:10:36Z</time></trkpt><trkpt lat="40.87207651016322" lon="14.281006553870872"><ele>92.0</ele><time>2026-03-22T11:10:37Z</time></trkpt><trkpt lat="40.872021294680124" lon="14.281416546439862"><ele>92.5</ele><time>2026-03-22T11:10:38Z</time></trkpt><trkpt lat="40.87195746685536" lon="14.28175037283631"><ele>93.0</ele><time>2026-03-22T11:10:39Z</time></trkpt><trkpt lat="40.871903024867784" lon="14.282061775078084"><ele>94.0</ele><time>2026-03-22T11:10:40Z</time></trkpt><trkpt lat="40.87182689106951" lon="14.282327828669889"><ele>95.0</ele><time>2026-03-22T11:10:41Z</time></trkpt><trkpt lat="40.87176271895328" lon="14.282644286458563"><ele>95.5</ele><time>2026-03-22T11:10:42Z</time></trkpt><trkpt lat="40.871815673179185" lon="14.283000567484496"><ele>96.0</ele><time>2026-03-22T11:10:43Z</time></trkpt><trkpt lat="40.87176040715257" lon="14.283289798247894"><ele>96.0</ele><time>2026-03-22T11:10:44Z</time></trkpt><trkpt lat="40.87178705359992" lon="14.283553246186596"><ele>96.0</ele><time>2026-03-22T11:10:45Z</time></trkpt><trkpt lat="40.87194412265765" lon="14.283769964575018"><ele>96.0</ele><time>2026-03-22T11:10:46Z</time></trkpt><trkpt lat="40.87208897357597" lon="14.28399629521977"><ele>94.5</ele><time>2026-03-22T11:10:47Z</time></trkpt><trkpt lat="40.872220141314344" lon="14.284240763566057"><ele>93.0</ele><time>2026-03-22T11:10:48Z</time></trkpt><trkpt lat="40.87237383534026" lon="14.284480016848974"><ele>93.0</ele><time>2026-03-22T11:10:49Z</time></trkpt><trkpt lat="40.87255157674688" lon="14.284719479181744"><ele>93.0</ele><time>2026-03-22T11:10:50Z</time></trkpt><trkpt lat="40.87276976602443" lon="14.284940908554395"><ele>92.5</ele><time>2026-03-22T11:10:51Z</time></trkpt><trkpt lat="40.87298303721963" lon="14.285168511221112"><ele>92.0</ele><time>2026-03-22T11:10:52Z</time></trkpt><trkpt lat="40.87315518230032" lon="14.28537452307587"><ele>92.0</ele><time>2026-03-22T11:10:53Z</time></trkpt><trkpt lat="40.87331886807914" lon="14.28557426228306"><ele>92.0</ele><time>2026-03-22T11:10:54Z</time></trkpt><trkpt lat="40.873472454235156" lon="14.285817136920976"><ele>92.0</ele><time>2026-03-22T11:10:55Z</time></trkpt><trkpt lat="40.87361843199986" lon="14.286104931507705"><ele>92.0</ele><time>2026-03-22T11:10:56Z</time></trkpt><trkpt lat="40.873745669011335" lon="14.286469829966752"><ele>92.0</ele><time>2026-03-22T11:10:57Z</time></trkpt><trkpt lat="40.87387113942184" lon="14.286769818694374"><ele>92.0</ele><time>2026-03-22T11:10:58Z</time></trkpt><trkpt lat="40.874022311176375" lon="14.287108047661793"><ele>90.0</ele><time>2026-03-22T11:10:59Z</time></trkpt><trkpt lat="40.87414052726161" lon="14.287391846192635"><ele>88.0</ele><time>2026-03-22T11:11:00Z</time></trkpt><trkpt lat="40.874258358469085" lon="14.287709423437784"><ele>87.5</ele><time>2026-03-22T11:11:01Z</time></trkpt><trkpt lat="40.874403313476925" lon="14.287974546953675"><ele>87.0</ele><time>2026-03-22T11:11:02Z</time></trkpt><trkpt lat="40.87458152113773" lon="14.288196420285066"><ele>87.0</ele><time>2026-03-22T11:11:03Z</time></trkpt><trkpt lat="40.87478015021899" lon="14.288396671884147"><ele>87.0</ele><time>2026-03-22T11:11:04Z</time></trkpt><trkpt lat="40.87500302655681" lon="14.288582072790819"><ele>87.5</ele><time>2026-03-22T11:11:05Z</time></trkpt><trkpt lat="40.87524066831396" lon="14.288743523572636"><ele>88.0</ele><time>2026-03-22T11:11:06Z</time></trkpt><trkpt lat="40.87548346184638" lon="14.288874378832734"><ele>87.0</ele><time>2026-03-22T11:11:07Z</time></trkpt><trkpt lat="40.875710862183226" lon="14.289002931955222"><ele>86.0</ele><time>2026-03-22T11:11:08Z</time></trkpt><trkpt lat="40.87591711327196" lon="14.289139941720709"><ele>84.5</ele><time>2026-03-22T11:11:09Z</time></trkpt><trkpt lat="40.87613260542211" lon="14.289291515002981"><ele>83.0</ele><time>2026-03-22T11:11:10Z</time></trkpt><trkpt lat="40.876357130169005" lon="14.28944717998804"><ele>83.0</ele><time>2026-03-22T11:11:11Z</time></trkpt><trkpt lat="40.87659078106752" lon="14.289610846320388"><ele>83.0</ele><time>2026-03-22T11:11:12Z</time></trkpt><trkpt lat="40.87685139187609" lon="14.289809676249325"><ele>83.0</ele><time>2026-03-22T11:11:13Z</time></trkpt><trkpt lat="40.87714041652363" lon="14.290034243179294"><ele>83.0</ele><time>2026-03-22T11:11:14Z</time></trkpt><trkpt lat="40.87741186287775" lon="14.29025372819292"><ele>82.5</ele><time>2026-03-22T11:11:15Z</time></trkpt><trkpt lat="40.8776568971107" lon="14.290445456405259"><ele>82.0</ele><time>2026-03-22T11:11:16Z</time></trkpt><trkpt lat="40.87790499029397" lon="14.290642840957949"><ele>79.5</ele><time>2026-03-22T11:11:17Z</time></trkpt><trkpt lat="40.87815652064572" lon="14.290841993926806"><ele>77.0</ele><time>2026-03-22T11:11:18Z</time></trkpt><trkpt lat="40.87840914079762" lon="14.291047546497609"><ele>79.0</ele><time>2026-03-22T11:11:19Z</time></trkpt><trkpt lat="40.87865633436689" lon="14.291254002800944"><ele>81.0</ele><time>2026-03-22T11:11:20Z</time></trkpt><trkpt lat="40.878899368436734" lon="14.291453309151422"><ele>81.0</ele><time>2026-03-22T11:11:21Z</time></trkpt><trkpt lat="40.87912900679699" lon="14.291645294032493"><ele>81.0</ele><time>2026-03-22T11:11:22Z</time></trkpt><trkpt lat="40.87935653733884" lon="14.291839504768475"><ele>80.5</ele><time>2026-03-22T11:11:23Z</time></trkpt><trkpt lat="40.879580827805405" lon="14.292041188923"><ele>80.0</ele><time>2026-03-22T11:11:23.999Z</time></trkpt><trkpt lat="40.87981596203836" lon="14.292275131395128"><ele>80.0</ele><time>2026-03-22T11:11:24.999Z</time></trkpt><trkpt lat="40.880051805232895" lon="14.29253101700772"><ele>80.0</ele><time>2026-03-22T11:11:25.999Z</time></trkpt><trkpt lat="40.88028426216554" lon="14.292808333221416"><ele>80.0</ele><time>2026-03-22T11:11:26.999Z</time></trkpt><trkpt lat="40.880505766389966" lon="14.293094643526866"><ele>80.0</ele><time>2026-03-22T11:11:27.999Z</time></trkpt><trkpt lat="40.880728143847456" lon="14.293393894141452"><ele>79.5</ele><time>2026-03-22T11:11:28.999Z</time></trkpt><trkpt lat="40.88094194062779" lon="14.293697339560607"><ele>79.0</ele><time>2026-03-22T11:11:29.999Z</time></trkpt><trkpt lat="40.88115288328628" lon="14.294015511296065"><ele>78.0</ele><time>2026-03-22T11:11:30.999Z</time></trkpt><trkpt lat="40.88135338966433" lon="14.294340068380842"><ele>77.0</ele><time>2026-03-22T11:11:31.999Z</time></trkpt><trkpt lat="40.88154980078812" lon="14.294671369912734"><ele>77.0</ele><time>2026-03-22T11:11:32.999Z</time></trkpt><trkpt lat="40.88174978783815" lon="14.295011297889053"><ele>77.0</ele><time>2026-03-22T11:11:33.999Z</time></trkpt><trkpt lat="40.8819564539813" lon="14.29534324823122"><ele>75.5</ele><time>2026-03-22T11:11:34.999Z</time></trkpt><trkpt lat="40.88216929855995" lon="14.295675242905975"><ele>74.0</ele><time>2026-03-22T11:11:35.999Z</time></trkpt><trkpt lat="40.88237896767491" lon="14.295994629887888"><ele>74.0</ele><time>2026-03-22T11:11:36.999Z</time></trkpt><trkpt lat="40.882595248260266" lon="14.296341246923005"><ele>74.0</ele><time>2026-03-22T11:11:37.999Z</time></trkpt><trkpt lat="40.88281026633593" lon="14.296680212717575"><ele>71.5</ele><time>2026-03-22T11:11:38.999Z</time></trkpt><trkpt lat="40.88301901262684" lon="14.297028911121044"><ele>69.0</ele><time>2026-03-22T11:11:39.999Z</time></trkpt><trkpt lat="40.88322424275944" lon="14.297376894722893"><ele>69.0</ele><time>2026-03-22T11:11:40.999Z</time></trkpt><trkpt lat="40.88342999961923" lon="14.297715571185666"><ele>69.0</ele><time>2026-03-22T11:11:41.999Z</time></trkpt><trkpt lat="40.88363529531768" lon="14.298042258052535"><ele>68.0</ele><time>2026-03-22T11:11:42.999Z</time></trkpt><trkpt lat="40.88383996516454" lon="14.298365924220542"><ele>67.0</ele><time>2026-03-22T11:11:43.999Z</time></trkpt><trkpt lat="40.884039764673936" lon="14.298689224043715"><ele>66.0</ele><time>2026-03-22T11:11:44.999Z</time></trkpt><trkpt lat="40.88423759000843" lon="14.299006913232741"><ele>65.0</ele><time>2026-03-22T11:11:45.999Z</time></trkpt><trkpt lat="40.884450495604725" lon="14.299334492660321"><ele>65.5</ele><time>2026-03-22T11:11:46.999Z</time></trkpt><trkpt lat="40.88467532991612" lon="14.299679652364857"><ele>66.0</ele><time>2026-03-22T11:11:47.999Z</time></trkpt><trkpt lat="40.88489513466749" lon="14.300023245647763"><ele>66.0</ele><time>2026-03-22T11:11:48.999Z</time></trkpt><trkpt lat="40.88509480805164" lon="14.300346539855727"><ele>66.0</ele><time>2026-03-22T11:11:49.999Z</time></trkpt><trkpt lat="40.88528133411" lon="14.30064930885441"><ele>65.5</ele><time>2026-03-22T11:11:50.999Z</time></trkpt><trkpt lat="40.88546273404594" lon="14.300948486421166"><ele>65.0</ele><time>2026-03-22T11:11:51.999Z</time></trkpt><trkpt lat="40.88563531818754" lon="14.301230318873651"><ele>64.5</ele><time>2026-03-22T11:11:52.999Z</time></trkpt><trkpt lat="40.8858015352508" lon="14.301493677814273"><ele>64.0</ele><time>2026-03-22T11:11:53.999Z</time></trkpt><trkpt lat="40.88596153090643" lon="14.301744161590427"><ele>64.0</ele><time>2026-03-22T11:11:54.999Z</time></trkpt><trkpt lat="40.886121455695864" lon="14.302005052382231"><ele>64.0</ele><time>2026-03-22T11:11:55.999Z</time></trkpt><trkpt lat="40.88629996451836" lon="14.302292554768698"><ele>64.0</ele><time>2026-03-22T11:11:56.999Z</time></trkpt><trkpt lat="40.88649818982953" lon="14.302614445245116"><ele>64.0</ele><time>2026-03-22T11:11:57.999Z</time></trkpt><trkpt lat="40.88671435137188" lon="14.302950778097822"><ele>65.0</ele><time>2026-03-22T11:11:58.999Z</time></trkpt><trkpt lat="40.88693300199096" lon="14.303290112023781"><ele>66.0</ele><time>2026-03-22T11:11:59.999Z</time></trkpt><trkpt lat="40.887137830477705" lon="14.303625657528583"><ele>65.0</ele><time>2026-03-22T11:12:00.999Z</time></trkpt><trkpt lat="40.88732267901322" lon="14.303926437511716"><ele>64.0</ele><time>2026-03-22T11:12:01.999Z</time></trkpt><trkpt lat="40.887508367288554" lon="14.304231555729245"><ele>65.5</ele><time>2026-03-22T11:12:02.999Z</time></trkpt><trkpt lat="40.88769390792815" lon="14.304533521461593"><ele>67.0</ele><time>2026-03-22T11:12:03.999Z</time></trkpt><trkpt lat="40.88788209832181" lon="14.304831830613457"><ele>67.0</ele><time>2026-03-22T11:12:04.999Z</time></trkpt><trkpt lat="40.88807940150276" lon="14.305134546291029"><ele>67.0</ele><time>2026-03-22T11:12:05.999Z</time></trkpt><trkpt lat="40.88827452790489" lon="14.305438455701763"><ele>65.0</ele><time>2026-03-22T11:12:06.999Z</time></trkpt><trkpt lat="40.888465317830835" lon="14.305740771739446"><ele>63.0</ele><time>2026-03-22T11:12:07.999Z</time></trkpt><trkpt lat="40.888649136327956" lon="14.306046714014848"><ele>63.0</ele><time>2026-03-22T11:12:08.999Z</time></trkpt><trkpt lat="40.88884232485298" lon="14.306366942000189"><ele>63.0</ele><time>2026-03-22T11:12:09.999Z</time></trkpt><trkpt lat="40.88903771299402" lon="14.306674987028115"><ele>61.5</ele><time>2026-03-22T11:12:10.999Z</time></trkpt><trkpt lat="40.889231944301926" lon="14.306990977740176"><ele>60.0</ele><time>2026-03-22T11:12:11.999Z</time></trkpt><trkpt lat="40.889414783529645" lon="14.307296778958813"><ele>59.5</ele><time>2026-03-22T11:12:12.999Z</time></trkpt><trkpt lat="40.88958028421955" lon="14.307590975683727"><ele>59.0</ele><time>2026-03-22T11:12:13.999Z</time></trkpt><trkpt lat="40.88973260836061" lon="14.307894383359784"><ele>56.5</ele><time>2026-03-22T11:12:14.999Z</time></trkpt><trkpt lat="40.889873453942684" lon="14.308203340994877"><ele>54.0</ele><time>2026-03-22T11:12:15.999Z</time></trkpt><trkpt lat="40.89000207876656" lon="14.30851963433623"><ele>55.0</ele><time>2026-03-22T11:12:16.999Z</time></trkpt><trkpt lat="40.890116130619234" lon="14.308853236472954"><ele>56.0</ele><time>2026-03-22T11:12:17.999Z</time></trkpt><trkpt lat="40.89022412444965" lon="14.309211477294992"><ele>56.0</ele><time>2026-03-22T11:12:18.999Z</time></trkpt><trkpt lat="40.890323789199584" lon="14.309574028262645"><ele>56.0</ele><time>2026-03-22T11:12:19.999Z</time></trkpt><trkpt lat="40.89040877300616" lon="14.309920165609505"><ele>53.0</ele><time>2026-03-22T11:12:20.999Z</time></trkpt><trkpt lat="40.890479241323476" lon="14.310276066744713"><ele>50.0</ele><time>2026-03-22T11:12:21.999Z</time></trkpt><trkpt lat="40.890543591981874" lon="14.310630807489359"><ele>50.0</ele><time>2026-03-22T11:12:22.999Z</time></trkpt><trkpt lat="40.89060018749513" lon="14.310988307200619"><ele>50.0</ele><time>2026-03-22T11:12:23.999Z</time></trkpt><trkpt lat="40.890627199524026" lon="14.311346477879505"><ele>47.5</ele><time>2026-03-22T11:12:24.999Z</time></trkpt><trkpt lat="40.890661376492005" lon="14.311696085077001"><ele>45.0</ele><time>2026-03-22T11:12:25.999Z</time></trkpt><trkpt lat="40.890686686172714" lon="14.312029556456496"><ele>44.5</ele><time>2026-03-22T11:12:26.999Z</time></trkpt><trkpt lat="40.89070431383655" lon="14.312365703175272"><ele>44.0</ele><time>2026-03-22T11:12:27.999Z</time></trkpt><trkpt lat="40.89071373162027" lon="14.312717004010098"><ele>44.0</ele><time>2026-03-22T11:12:28.999Z</time></trkpt><trkpt lat="40.890715307370364" lon="14.313071888328187"><ele>44.0</ele><time>2026-03-22T11:12:30Z</time></trkpt><trkpt lat="40.89070552616705" lon="14.313426654655895"><ele>43.0</ele><time>2026-03-22T11:12:31Z</time></trkpt><trkpt lat="40.89068890229052" lon="14.313782261275051"><ele>42.0</ele><time>2026-03-22T11:12:32Z</time></trkpt><trkpt lat="40.89066898219537" lon="14.314133427856115"><ele>41.0</ele><time>2026-03-22T11:12:33Z</time></trkpt><trkpt lat="40.890647830578395" lon="14.314483658322033"><ele>40.0</ele><time>2026-03-22T11:12:34Z</time></trkpt><trkpt lat="40.89063911498471" lon="14.314849704885583"><ele>37.5</ele><time>2026-03-22T11:12:35Z</time></trkpt><trkpt lat="40.8906124992619" lon="14.31520172295406"><ele>35.0</ele><time>2026-03-22T11:12:36Z</time></trkpt><trkpt lat="40.890588292009724" lon="14.315536962287226"><ele>37.0</ele><time>2026-03-22T11:12:37Z</time></trkpt><trkpt lat="40.89056456078605" lon="14.315856984390772"><ele>39.0</ele><time>2026-03-22T11:12:38Z</time></trkpt><trkpt lat="40.890541804521426" lon="14.316146405853425"><ele>38.333333333333336</ele><time>2026-03-22T11:12:39Z</time></trkpt><trkpt lat="40.89052502527194" lon="14.316405479146491"><ele>37.66666666666667</ele><time>2026-03-22T11:12:40Z</time></trkpt><trkpt lat="40.89050437296979" lon="14.316689511138902"><ele>37.0</ele><time>2026-03-22T11:12:41Z</time></trkpt><trkpt lat="40.890512812276015" lon="14.316949758970916"><ele>37.0</ele><time>2026-03-22T11:12:42Z</time></trkpt><trkpt lat="40.890547244128605" lon="14.317183374090634"><ele>37.0</ele><time>2026-03-22T11:12:43Z</time></trkpt><trkpt lat="40.89060088402158" lon="14.31739750553856"><ele>37.0</ele><time>2026-03-22T11:12:44Z</time></trkpt><trkpt lat="40.8906717851622" lon="14.317614667632027"><ele>36.66666666666667</ele><time>2026-03-22T11:12:45Z</time></trkpt><trkpt lat="40.890761719811564" lon="14.317825298444742"><ele>36.333333333333336</ele><time>2026-03-22T11:12:46Z</time></trkpt><trkpt lat="40.89087137327745" lon="14.318020489257222"><ele>36.0</ele><time>2026-03-22T11:12:47Z</time></trkpt><trkpt lat="40.89100368274501" lon="14.318217609572988"><ele>35.666666666666664</ele><time>2026-03-22T11:12:48Z</time></trkpt><trkpt lat="40.89115162018201" lon="14.318418359998214"><ele>35.33333333333333</ele><time>2026-03-22T11:12:49Z</time></trkpt><trkpt lat="40.891311942556115" lon="14.318585716416736"><ele>35.0</ele><time>2026-03-22T11:12:50Z</time></trkpt><trkpt lat="40.89146964029332" lon="14.31871104672628"><ele>35.0</ele><time>2026-03-22T11:12:51Z</time></trkpt><trkpt lat="40.891645470028124" lon="14.31881323241511"><ele>35.0</ele><time>2026-03-22T11:12:52Z</time></trkpt><trkpt lat="40.89184554477034" lon="14.318899270190698"><ele>35.0</ele><time>2026-03-22T11:12:53Z</time></trkpt><trkpt lat="40.892072006209155" lon="14.318963798450046"><ele>36.5</ele><time>2026-03-22T11:12:54Z</time></trkpt><trkpt lat="40.892305666942804" lon="14.318995302193951"><ele>38.0</ele><time>2026-03-22T11:12:55Z</time></trkpt><trkpt lat="40.8925244561527" lon="14.318987117810897"><ele>38.0</ele><time>2026-03-22T11:12:56Z</time></trkpt><trkpt lat="40.892753610608565" lon="14.31894882814894"><ele>38.0</ele><time>2026-03-22T11:12:57Z</time></trkpt><trkpt lat="40.89298063385836" lon="14.318887526556413"><ele>39.0</ele><time>2026-03-22T11:12:58Z</time></trkpt><trkpt lat="40.89318686607718" lon="14.318816456438562"><ele>40.0</ele><time>2026-03-22T11:12:59Z</time></trkpt><trkpt lat="40.89339697787711" lon="14.318728762411784"><ele>41.0</ele><time>2026-03-22T11:13:00Z</time></trkpt><trkpt lat="40.893618838174476" lon="14.31863134964659"><ele>41.5</ele><time>2026-03-22T11:13:01Z</time></trkpt><trkpt lat="40.89383902754644" lon="14.318557637613363"><ele>42.0</ele><time>2026-03-22T11:13:02Z</time></trkpt><trkpt lat="40.8940598988196" lon="14.318514631872276"><ele>43.333333333333336</ele><time>2026-03-22T11:13:03Z</time></trkpt><trkpt lat="40.89427650003545" lon="14.318496473108286"><ele>44.66666666666667</ele><time>2026-03-22T11:13:04Z</time></trkpt><trkpt lat="40.8945074050549" lon="14.318493883459919"><ele>46.0</ele><time>2026-03-22T11:13:05Z</time></trkpt><trkpt lat="40.894717993197006" lon="14.318507577148731"><ele>46.0</ele><time>2026-03-22T11:13:06Z</time></trkpt><trkpt lat="40.89492536479876" lon="14.318529435798839"><ele>46.0</ele><time>2026-03-22T11:13:07Z</time></trkpt><trkpt lat="40.8951256726236" lon="14.318548507522527"><ele>46.0</ele><time>2026-03-22T11:13:08Z</time></trkpt><trkpt lat="40.89532108232893" lon="14.31857114795095"><ele>45.0</ele><time>2026-03-22T11:13:09Z</time></trkpt><trkpt lat="40.89552206188532" lon="14.318599807527912"><ele>44.0</ele><time>2026-03-22T11:13:10Z</time></trkpt><trkpt lat="40.89572975260668" lon="14.318630491757016"><ele>43.0</ele><time>2026-03-22T11:13:11Z</time></trkpt><trkpt lat="40.8959625790422" lon="14.31866025533485"><ele>42.5</ele><time>2026-03-22T11:13:12Z</time></trkpt><trkpt lat="40.89622714600303" lon="14.318700282949239"><ele>42.0</ele><time>2026-03-22T11:13:13Z</time></trkpt><trkpt lat="40.89653502529681" lon="14.318751027423911"><ele>42.5</ele><time>2026-03-22T11:13:14Z</time></trkpt><trkpt lat="40.89686861441636" lon="14.318795225114783"><ele>43.0</ele><time>2026-03-22T11:13:15Z</time></trkpt><trkpt lat="40.89720858127264" lon="14.318830934064747"><ele>43.0</ele><time>2026-03-22T11:13:16Z</time></trkpt><trkpt lat="40.89751906704328" lon="14.318866023144446"><ele>43.0</ele><time>2026-03-22T11:13:17Z</time></trkpt><trkpt lat="40.897802176773226" lon="14.318896747187399"><ele>43.5</ele><time>2026-03-22T11:13:18Z</time></trkpt><trkpt lat="40.89807478748051" lon="14.318934820268417"><ele>44.0</ele><time>2026-03-22T11:13:19Z</time></trkpt><trkpt lat="40.89833549976662" lon="14.318965769749042"><ele>46.0</ele><time>2026-03-22T11:13:20Z</time></trkpt><trkpt lat="40.89858890489278" lon="14.31899197834161"><ele>48.0</ele><time>2026-03-22T11:13:21Z</time></trkpt><trkpt lat="40.8988316539394" lon="14.319021726546087"><ele>48.0</ele><time>2026-03-22T11:13:22Z</time></trkpt><trkpt lat="40.899075309480594" lon="14.31904516950776"><ele>48.0</ele><time>2026-03-22T11:13:23Z</time></trkpt><trkpt lat="40.89935065035474" lon="14.319066109519206"><ele>47.5</ele><time>2026-03-22T11:13:24Z</time></trkpt><trkpt lat="40.899662263414086" lon="14.319103354360692"><ele>47.0</ele><time>2026-03-22T11:13:25Z</time></trkpt><trkpt lat="40.89998367280587" lon="14.319153952824415"><ele>48.0</ele><time>2026-03-22T11:13:26Z</time></trkpt><trkpt lat="40.90029557496444" lon="14.319206279093882"><ele>49.0</ele><time>2026-03-22T11:13:27Z</time></trkpt><trkpt lat="40.90059901689888" lon="14.319255260258757"><ele>49.0</ele><time>2026-03-22T11:13:28Z</time></trkpt><trkpt lat="40.90091117949011" lon="14.319307405990891"><ele>49.0</ele><time>2026-03-22T11:13:28.999Z</time></trkpt><trkpt lat="40.90125272567293" lon="14.319377088137472"><ele>47.5</ele><time>2026-03-22T11:13:29.999Z</time></trkpt><trkpt lat="40.90162722082272" lon="14.319447015931749"><ele>46.0</ele><time>2026-03-22T11:13:30.999Z</time></trkpt><trkpt lat="40.90201508086519" lon="14.319493639163934"><ele>46.5</ele><time>2026-03-22T11:13:31.999Z</time></trkpt><trkpt lat="40.90241667063113" lon="14.319539111400308"><ele>47.0</ele><time>2026-03-22T11:13:32.999Z</time></trkpt><trkpt lat="40.90278802979419" lon="14.319590279988704"><ele>47.0</ele><time>2026-03-22T11:13:33.999Z</time></trkpt><trkpt lat="40.90312956112512" lon="14.31964677900902"><ele>47.0</ele><time>2026-03-22T11:13:34.999Z</time></trkpt><trkpt lat="40.903445582046125" lon="14.319701378614715"><ele>47.5</ele><time>2026-03-22T11:13:35.999Z</time></trkpt><trkpt lat="40.90375021195667" lon="14.31974835669987"><ele>48.0</ele><time>2026-03-22T11:13:36.999Z</time></trkpt><trkpt lat="40.90404023235598" lon="14.319798187457046"><ele>48.0</ele><time>2026-03-22T11:13:37.999Z</time></trkpt><trkpt lat="40.90433019604979" lon="14.319844514486686"><ele>48.0</ele><time>2026-03-22T11:13:38.999Z</time></trkpt><trkpt lat="40.904605811129784" lon="14.319887819037879"><ele>48.0</ele><time>2026-03-22T11:13:39.999Z</time></trkpt><trkpt lat="40.904871322142206" lon="14.319929907081358"><ele>48.0</ele><time>2026-03-22T11:13:40.999Z</time></trkpt><trkpt lat="40.905141170929156" lon="14.3199744083069"><ele>49.0</ele><time>2026-03-22T11:13:41.999Z</time></trkpt><trkpt lat="40.90541309531665" lon="14.320015760896833"><ele>50.0</ele><time>2026-03-22T11:13:42.999Z</time></trkpt><trkpt lat="40.905685632118626" lon="14.32005644445706"><ele>49.5</ele><time>2026-03-22T11:13:43.999Z</time></trkpt><trkpt lat="40.90595838591959" lon="14.320100135531431"><ele>49.0</ele><time>2026-03-22T11:13:44.999Z</time></trkpt><trkpt lat="40.9062253100178" lon="14.320146543449855"><ele>49.0</ele><time>2026-03-22T11:13:45.999Z</time></trkpt><trkpt lat="40.906485586541784" lon="14.320189948415635"><ele>49.0</ele><time>2026-03-22T11:13:46.999Z</time></trkpt><trkpt lat="40.90673057534504" lon="14.320227149665795"><ele>49.5</ele><time>2026-03-22T11:13:47.999Z</time></trkpt><trkpt lat="40.90697987284822" lon="14.320259277587688"><ele>50.0</ele><time>2026-03-22T11:13:48.999Z</time></trkpt><trkpt lat="40.907242896886956" lon="14.320298382478589"><ele>50.0</ele><time>2026-03-22T11:13:49.999Z</time></trkpt><trkpt lat="40.90752395451317" lon="14.320347145456681"><ele>50.0</ele><time>2026-03-22T11:13:50.999Z</time></trkpt><trkpt lat="40.90784673042077" lon="14.32040373737609"><ele>48.5</ele><time>2026-03-22T11:13:51.999Z</time></trkpt><trkpt lat="40.908163804038345" lon="14.320462967746781"><ele>47.0</ele><time>2026-03-22T11:13:52.999Z</time></trkpt><trkpt lat="40.90845418687199" lon="14.320513423378648"><ele>47.5</ele><time>2026-03-22T11:13:53.999Z</time></trkpt><trkpt lat="40.90872749322545" lon="14.320553746580496"><ele>48.0</ele><time>2026-03-22T11:13:54.999Z</time></trkpt><trkpt lat="40.90901324310529" lon="14.320595865013951"><ele>46.5</ele><time>2026-03-22T11:13:55.999Z</time></trkpt><trkpt lat="40.90930647724939" lon="14.3206372733444"><ele>45.0</ele><time>2026-03-22T11:13:56.999Z</time></trkpt><trkpt lat="40.90960464798429" lon="14.320679480599866"><ele>45.0</ele><time>2026-03-22T11:13:57.999Z</time></trkpt><trkpt lat="40.90992457581105" lon="14.320720960323749"><ele>45.0</ele><time>2026-03-22T11:13:58.999Z</time></trkpt><trkpt lat="40.910267920676276" lon="14.320755093051183"><ele>43.5</ele><time>2026-03-22T11:13:59.999Z</time></trkpt><trkpt lat="40.91059271965283" lon="14.32079539754426"><ele>42.0</ele><time>2026-03-22T11:14:00.999Z</time></trkpt><trkpt lat="40.910883592067215" lon="14.320835859152952"><ele>43.5</ele><time>2026-03-22T11:14:01.999Z</time></trkpt><trkpt lat="40.91115335831272" lon="14.320880660823523"><ele>45.0</ele><time>2026-03-22T11:14:02.999Z</time></trkpt><trkpt lat="40.91141926486489" lon="14.320927928364915"><ele>45.0</ele><time>2026-03-22T11:14:03.999Z</time></trkpt><trkpt lat="40.91168282724501" lon="14.320970273299228"><ele>45.0</ele><time>2026-03-22T11:14:04.999Z</time></trkpt><trkpt lat="40.91194315838488" lon="14.321008587933765"><ele>44.0</ele><time>2026-03-22T11:14:05.999Z</time></trkpt><trkpt lat="40.91219811991286" lon="14.321046349052082"><ele>43.0</ele><time>2026-03-22T11:14:06.999Z</time></trkpt><trkpt lat="40.91244900630108" lon="14.32108498691079"><ele>42.5</ele><time>2026-03-22T11:14:07.999Z</time></trkpt><trkpt lat="40.912697546941885" lon="14.321121664126157"><ele>42.0</ele><time>2026-03-22T11:14:08.999Z</time></trkpt><trkpt lat="40.91295783738241" lon="14.321161571312492"><ele>42.0</ele><time>2026-03-22T11:14:09.999Z</time></trkpt><trkpt lat="40.9132202036399" lon="14.32119844940803"><ele>42.0</ele><time>2026-03-22T11:14:10.999Z</time></trkpt><trkpt lat="40.91349183510316" lon="14.321235272335388"><ele>41.0</ele><time>2026-03-22T11:14:11.999Z</time></trkpt><trkpt lat="40.913762558947056" lon="14.321273793347343"><ele>40.0</ele><time>2026-03-22T11:14:12.999Z</time></trkpt><trkpt lat="40.914028587531966" lon="14.321315360167143"><ele>40.0</ele><time>2026-03-22T11:14:13.999Z</time></trkpt><trkpt lat="40.91427885747687" lon="14.321354225925079"><ele>40.0</ele><time>2026-03-22T11:14:14.999Z</time></trkpt><trkpt lat="40.91451706665131" lon="14.321393070769949"><ele>40.5</ele><time>2026-03-22T11:14:15.999Z</time></trkpt><trkpt lat="40.91475183509657" lon="14.321429109569808"><ele>41.0</ele><time>2026-03-22T11:14:16.999Z</time></trkpt><trkpt lat="40.914990972873376" lon="14.321465611523719"><ele>40.0</ele><time>2026-03-22T11:14:17.999Z</time></trkpt><trkpt lat="40.9152304371702" lon="14.321506790194745"><ele>39.0</ele><time>2026-03-22T11:14:18.999Z</time></trkpt><trkpt lat="40.915477225139384" lon="14.321552417544439"><ele>39.0</ele><time>2026-03-22T11:14:19.999Z</time></trkpt><trkpt lat="40.91573707229256" lon="14.321600111390088"><ele>39.0</ele><time>2026-03-22T11:14:20.999Z</time></trkpt><trkpt lat="40.916005522792766" lon="14.321654165569827"><ele>39.5</ele><time>2026-03-22T11:14:21.999Z</time></trkpt><trkpt lat="40.91627844817893" lon="14.321708735490503"><ele>40.0</ele><time>2026-03-22T11:14:22.999Z</time></trkpt><trkpt lat="40.91655906142617" lon="14.321758207800583"><ele>40.0</ele><time>2026-03-22T11:14:23.999Z</time></trkpt><trkpt lat="40.91684947611272" lon="14.321798758229386"><ele>40.0</ele><time>2026-03-22T11:14:24.999Z</time></trkpt><trkpt lat="40.917132350671196" lon="14.321834795549059"><ele>40.0</ele><time>2026-03-22T11:14:25.999Z</time></trkpt><trkpt lat="40.91740935098627" lon="14.321868412319239"><ele>40.0</ele><time>2026-03-22T11:14:26.999Z</time></trkpt><trkpt lat="40.917689045595075" lon="14.321914149626235"><ele>38.5</ele><time>2026-03-22T11:14:27.999Z</time></trkpt><trkpt lat="40.91800870091746" lon="14.321957188405392"><ele>37.0</ele><time>2026-03-22T11:14:28.999Z</time></trkpt><trkpt lat="40.91836747070107" lon="14.322000078780722"><ele>37.0</ele><time>2026-03-22T11:14:29.999Z</time></trkpt><trkpt lat="40.918755475073716" lon="14.322054566393508"><ele>37.0</ele><time>2026-03-22T11:14:30.999Z</time></trkpt><trkpt lat="40.91916645035282" lon="14.322117890442113"><ele>36.5</ele><time>2026-03-22T11:14:31.999Z</time></trkpt><trkpt lat="40.91959008736464" lon="14.322181967336718"><ele>36.0</ele><time>2026-03-22T11:14:32.999Z</time></trkpt><trkpt lat="40.9200262337588" lon="14.322250602168953"><ele>36.0</ele><time>2026-03-22T11:14:33.999Z</time></trkpt><trkpt lat="40.920471139110965" lon="14.322322514756596"><ele>36.0</ele><time>2026-03-22T11:14:34.999Z</time></trkpt><trkpt lat="40.92088442045129" lon="14.322382353108464"><ele>36.5</ele><time>2026-03-22T11:14:36Z</time></trkpt><trkpt lat="40.92125596593379" lon="14.322436780612517"><ele>37.0</ele><time>2026-03-22T11:14:37Z</time></trkpt><trkpt lat="40.921609575089256" lon="14.322493884322705"><ele>36.0</ele><time>2026-03-22T11:14:38Z</time></trkpt><trkpt lat="40.92195258007261" lon="14.322546365001918"><ele>35.0</ele><time>2026-03-22T11:14:39Z</time></trkpt><trkpt lat="40.92230320451135" lon="14.322599796220588"><ele>33.0</ele><time>2026-03-22T11:14:40Z</time></trkpt><trkpt lat="40.92263985128226" lon="14.322653572244471"><ele>31.0</ele><time>2026-03-22T11:14:41Z</time></trkpt><trkpt lat="40.92297364343489" lon="14.322706102358957"><ele>31.0</ele><time>2026-03-22T11:14:42Z</time></trkpt><trkpt lat="40.92332408302528" lon="14.322760810184903"><ele>31.0</ele><time>2026-03-22T11:14:43Z</time></trkpt><trkpt lat="40.923671283833336" lon="14.322815857344676"><ele>31.0</ele><time>2026-03-22T11:14:44Z</time></trkpt><trkpt lat="40.924010864992425" lon="14.322868193526661"><ele>31.0</ele><time>2026-03-22T11:14:45Z</time></trkpt><trkpt lat="40.92434059166147" lon="14.322917999475646"><ele>31.5</ele><time>2026-03-22T11:14:46Z</time></trkpt><trkpt lat="40.92467446242203" lon="14.322967817670458"><ele>32.0</ele><time>2026-03-22T11:14:47Z</time></trkpt><trkpt lat="40.92501215816698" lon="14.323018854427161"><ele>31.0</ele><time>2026-03-22T11:14:48Z</time></trkpt><trkpt lat="40.92533442138013" lon="14.323066223353099"><ele>30.0</ele><time>2026-03-22T11:14:49Z</time></trkpt><trkpt lat="40.92565821721112" lon="14.32311432243755"><ele>29.0</ele><time>2026-03-22T11:14:50Z</time></trkpt><trkpt lat="40.925995217982276" lon="14.323165305279886"><ele>28.0</ele><time>2026-03-22T11:14:51Z</time></trkpt><trkpt lat="40.926358431494926" lon="14.323225322471503"><ele>27.0</ele><time>2026-03-22T11:14:52Z</time></trkpt><trkpt lat="40.926735966776434" lon="14.323288123875185"><ele>26.0</ele><time>2026-03-22T11:14:53Z</time></trkpt><trkpt lat="40.9271029929612" lon="14.323346285150208"><ele>26.0</ele><time>2026-03-22T11:14:54Z</time></trkpt><trkpt lat="40.927450376264865" lon="14.32340119385356"><ele>26.0</ele><time>2026-03-22T11:14:55Z</time></trkpt><trkpt lat="40.927773589721006" lon="14.323453101296835"><ele>25.5</ele><time>2026-03-22T11:14:56Z</time></trkpt><trkpt lat="40.928082265365724" lon="14.323501555071646"><ele>25.0</ele><time>2026-03-22T11:14:57Z</time></trkpt><trkpt lat="40.92839635091392" lon="14.323554450226538"><ele>25.0</ele><time>2026-03-22T11:14:58Z</time></trkpt><trkpt lat="40.928713207553514" lon="14.323605200222714"><ele>25.0</ele><time>2026-03-22T11:14:59Z</time></trkpt><trkpt lat="40.929038030360516" lon="14.32365236866571"><ele>26.5</ele><time>2026-03-22T11:15:00Z</time></trkpt><trkpt lat="40.92935503399453" lon="14.323697938123786"><ele>28.0</ele><time>2026-03-22T11:15:01Z</time></trkpt><trkpt lat="40.929677049242386" lon="14.323744944039545"><ele>28.0</ele><time>2026-03-22T11:15:02Z</time></trkpt><trkpt lat="40.93000164280614" lon="14.323792893842898"><ele>28.0</ele><time>2026-03-22T11:15:03Z</time></trkpt><trkpt lat="40.93031984973485" lon="14.323834636487724"><ele>27.5</ele><time>2026-03-22T11:15:04Z</time></trkpt><trkpt lat="40.93063540328286" lon="14.32387906209115"><ele>27.0</ele><time>2026-03-22T11:15:05Z</time></trkpt><trkpt lat="40.930937122992326" lon="14.323923753449296"><ele>27.0</ele><time>2026-03-22T11:15:06Z</time></trkpt><trkpt lat="40.93124610394322" lon="14.32397200951114"><ele>27.0</ele><time>2026-03-22T11:15:07Z</time></trkpt><trkpt lat="40.93156867379896" lon="14.324013358788676"><ele>28.0</ele><time>2026-03-22T11:15:08Z</time></trkpt><trkpt lat="40.93190221443741" lon="14.324063897570001"><ele>29.0</ele><time>2026-03-22T11:15:09Z</time></trkpt><trkpt lat="40.93226649847781" lon="14.32412650732064"><ele>27.5</ele><time>2026-03-22T11:15:10Z</time></trkpt><trkpt lat="40.932648249201186" lon="14.324193043939957"><ele>26.0</ele><time>2026-03-22T11:15:11Z</time></trkpt><trkpt lat="40.933030042566514" lon="14.324253682749134"><ele>26.0</ele><time>2026-03-22T11:15:12Z</time></trkpt><trkpt lat="40.93337318423412" lon="14.32430382040189"><ele>26.0</ele><time>2026-03-22T11:15:13Z</time></trkpt><trkpt lat="40.93371050967235" lon="14.324352850516027"><ele>25.5</ele><time>2026-03-22T11:15:14Z</time></trkpt><trkpt lat="40.9340497977865" lon="14.32440376604545"><ele>25.0</ele><time>2026-03-22T11:15:15Z</time></trkpt><trkpt lat="40.93439708859179" lon="14.324452680526885"><ele>25.0</ele><time>2026-03-22T11:15:16Z</time></trkpt><trkpt lat="40.93475302378927" lon="14.324507008708641"><ele>25.0</ele><time>2026-03-22T11:15:17Z</time></trkpt><trkpt lat="40.93510915446004" lon="14.324566657683764"><ele>24.5</ele><time>2026-03-22T11:15:18Z</time></trkpt><trkpt lat="40.935455869787184" lon="14.324619527800929"><ele>24.0</ele><time>2026-03-22T11:15:19Z</time></trkpt><trkpt lat="40.93579510385252" lon="14.324666999906716"><ele>25.0</ele><time>2026-03-22T11:15:20Z</time></trkpt><trkpt lat="40.936158385096384" lon="14.324725789503724"><ele>26.0</ele><time>2026-03-22T11:15:21Z</time></trkpt><trkpt lat="40.93655290928221" lon="14.324794615725422"><ele>25.5</ele><time>2026-03-22T11:15:22Z</time></trkpt><trkpt lat="40.93696715113261" lon="14.324869342276521"><ele>25.0</ele><time>2026-03-22T11:15:23Z</time></trkpt><trkpt lat="40.93739380919284" lon="14.324939213712273"><ele>26.5</ele><time>2026-03-22T11:15:24Z</time></trkpt><trkpt lat="40.93783468392244" lon="14.325007048220913"><ele>28.0</ele><time>2026-03-22T11:15:25Z</time></trkpt><trkpt lat="40.93829394295989" lon="14.325077826140356"><ele>26.0</ele><time>2026-03-22T11:15:26Z</time></trkpt><trkpt lat="40.938757222067444" lon="14.325151576193162"><ele>24.0</ele><time>2026-03-22T11:15:26.999Z</time></trkpt><trkpt lat="40.93923590331136" lon="14.325214417078621"><ele>24.0</ele><time>2026-03-22T11:15:27.999Z</time></trkpt><trkpt lat="40.939709646022266" lon="14.325288308567371"><ele>25.0</ele><time>2026-03-22T11:15:28.999Z</time></trkpt><trkpt lat="40.94018961723259" lon="14.32535791560172"><ele>25.0</ele><time>2026-03-22T11:15:29.999Z</time></trkpt><trkpt lat="40.94065847979334" lon="14.325428880402153"><ele>24.0</ele><time>2026-03-22T11:15:30.999Z</time></trkpt><trkpt lat="40.94107186384698" lon="14.325490645926191"><ele>23.0</ele><time>2026-03-22T11:15:31.999Z</time></trkpt><trkpt lat="40.9414559750213" lon="14.325550814062886"><ele>23.5</ele><time>2026-03-22T11:15:32.999Z</time></trkpt><trkpt lat="40.94181834530085" lon="14.32560957609356"><ele>24.0</ele><time>2026-03-22T11:15:33.999Z</time></trkpt><trkpt lat="40.94217237732983" lon="14.32566692825846"><ele>24.0</ele><time>2026-03-22T11:15:34.999Z</time></trkpt><trkpt lat="40.94252129038195" lon="14.325722559407819"><ele>24.0</ele><time>2026-03-22T11:15:35.999Z</time></trkpt><trkpt lat="40.94285481083248" lon="14.325777122502638"><ele>24.0</ele><time>2026-03-22T11:15:36.999Z</time></trkpt><trkpt lat="40.943190068221874" lon="14.325830932545768"><ele>24.0</ele><time>2026-03-22T11:15:37.999Z</time></trkpt><trkpt lat="40.94351748460711" lon="14.325876581951173"><ele>24.0</ele><time>2026-03-22T11:15:38.999Z</time></trkpt><trkpt lat="40.94383898502047" lon="14.32592468459606"><ele>24.0</ele><time>2026-03-22T11:15:39.999Z</time></trkpt><trkpt lat="40.94415823570685" lon="14.32597451204752"><ele>24.0</ele><time>2026-03-22T11:15:40.999Z</time></trkpt><trkpt lat="40.944462888568374" lon="14.326025079928094"><ele>24.0</ele><time>2026-03-22T11:15:41.999Z</time></trkpt><trkpt lat="40.94477427206068" lon="14.326080215899495"><ele>23.5</ele><time>2026-03-22T11:15:42.999Z</time></trkpt><trkpt lat="40.94510861389032" lon="14.326147827650757"><ele>23.0</ele><time>2026-03-22T11:15:43.999Z</time></trkpt><trkpt lat="40.94545340458188" lon="14.326210918422126"><ele>23.0</ele><time>2026-03-22T11:15:44.999Z</time></trkpt><trkpt lat="40.945820074175316" lon="14.326254965650156"><ele>23.0</ele><time>2026-03-22T11:15:45.999Z</time></trkpt><trkpt lat="40.946218130606866" lon="14.326294843914274"><ele>23.0</ele><time>2026-03-22T11:15:46.999Z</time></trkpt><trkpt lat="40.946631955709975" lon="14.326344688768282"><ele>23.0</ele><time>2026-03-22T11:15:47.999Z</time></trkpt><trkpt lat="40.94706251034607" lon="14.326407466123456"><ele>23.0</ele><time>2026-03-22T11:15:48.999Z</time></trkpt><trkpt lat="40.94750502449336" lon="14.326475664927084"><ele>23.0</ele><time>2026-03-22T11:15:49.999Z</time></trkpt><trkpt lat="40.94795302042615" lon="14.326547010814828"><ele>23.0</ele><time>2026-03-22T11:15:50.999Z</time></trkpt><trkpt lat="40.94836877132431" lon="14.32661652804896"><ele>23.0</ele><time>2026-03-22T11:15:51.999Z</time></trkpt><trkpt lat="40.94874545697217" lon="14.326677335636711"><ele>23.0</ele><time>2026-03-22T11:15:52.999Z</time></trkpt><trkpt lat="40.949089167102926" lon="14.326732406275118"><ele>23.0</ele><time>2026-03-22T11:15:53.999Z</time></trkpt><trkpt lat="40.9494071122916" lon="14.326785379304395"><ele>22.5</ele><time>2026-03-22T11:15:54.999Z</time></trkpt><trkpt lat="40.949718806050086" lon="14.326835943121257"><ele>22.0</ele><time>2026-03-22T11:15:55.999Z</time></trkpt><trkpt lat="40.95003662647918" lon="14.326884990587638"><ele>22.0</ele><time>2026-03-22T11:15:56.999Z</time></trkpt><trkpt lat="40.95038265033491" lon="14.326931959741712"><ele>22.0</ele><time>2026-03-22T11:15:57.999Z</time></trkpt><trkpt lat="40.95074996336859" lon="14.326980805201709"><ele>22.0</ele><time>2026-03-22T11:15:58.999Z</time></trkpt><trkpt lat="40.951134152698216" lon="14.327037173915095"><ele>22.0</ele><time>2026-03-22T11:15:59.999Z</time></trkpt><trkpt lat="40.95152940262944" lon="14.327098472714821"><ele>22.0</ele><time>2026-03-22T11:16:00.999Z</time></trkpt><trkpt lat="40.95192607392654" lon="14.327163223955298"><ele>22.0</ele><time>2026-03-22T11:16:01.999Z</time></trkpt><trkpt lat="40.95227978101835" lon="14.32722250590994"><ele>21.5</ele><time>2026-03-22T11:16:02.999Z</time></trkpt><trkpt lat="40.95259694257854" lon="14.327279896292339"><ele>21.0</ele><time>2026-03-22T11:16:03.999Z</time></trkpt><trkpt lat="40.952888234118504" lon="14.32731965385672"><ele>21.0</ele><time>2026-03-22T11:16:04.999Z</time></trkpt><trkpt lat="40.95317783005468" lon="14.327360660676439"><ele>21.0</ele><time>2026-03-22T11:16:05.999Z</time></trkpt><trkpt lat="40.953470613560846" lon="14.327403881489923"><ele>21.5</ele><time>2026-03-22T11:16:06.999Z</time></trkpt><trkpt lat="40.953761416490835" lon="14.327450770525305"><ele>22.0</ele><time>2026-03-22T11:16:07.999Z</time></trkpt><trkpt lat="40.95407467828164" lon="14.327500930183906"><ele>22.5</ele><time>2026-03-22T11:16:08.999Z</time></trkpt><trkpt lat="40.95440054752619" lon="14.327552611152433"><ele>23.0</ele><time>2026-03-22T11:16:09.999Z</time></trkpt><trkpt lat="40.95473203383334" lon="14.32760615617657"><ele>23.0</ele><time>2026-03-22T11:16:10.999Z</time></trkpt><trkpt lat="40.95505430575011" lon="14.32765475555017"><ele>23.0</ele><time>2026-03-22T11:16:11.999Z</time></trkpt><trkpt lat="40.955364796241" lon="14.32770056109464"><ele>23.0</ele><time>2026-03-22T11:16:12.999Z</time></trkpt><trkpt lat="40.95566820946491" lon="14.327733117138362"><ele>23.0</ele><time>2026-03-22T11:16:13.999Z</time></trkpt><trkpt lat="40.955971225177294" lon="14.327764270963975"><ele>22.5</ele><time>2026-03-22T11:16:14.999Z</time></trkpt><trkpt lat="40.95627558595512" lon="14.327787854498261"><ele>22.0</ele><time>2026-03-22T11:16:15.999Z</time></trkpt><trkpt lat="40.9565731439812" lon="14.327806416457873"><ele>22.0</ele><time>2026-03-22T11:16:16.999Z</time></trkpt><trkpt lat="40.95686515158476" lon="14.327820536540608"><ele>22.0</ele><time>2026-03-22T11:16:17.999Z</time></trkpt><trkpt lat="40.957142299155706" lon="14.327830424494055"><ele>22.0</ele><time>2026-03-22T11:16:18.999Z</time></trkpt><trkpt lat="40.95741598837225" lon="14.327832670512402"><ele>22.0</ele><time>2026-03-22T11:16:19.999Z</time></trkpt><trkpt lat="40.957704818196596" lon="14.32783435831659"><ele>22.5</ele><time>2026-03-22T11:16:20.999Z</time></trkpt><trkpt lat="40.95799936637452" lon="14.327832282325039"><ele>23.0</ele><time>2026-03-22T11:16:21.999Z</time></trkpt><trkpt lat="40.95830347476523" lon="14.327822408146933"><ele>22.5</ele><time>2026-03-22T11:16:22.999Z</time></trkpt><trkpt lat="40.95861994633828" lon="14.327804833757725"><ele>22.0</ele><time>2026-03-22T11:16:23.999Z</time></trkpt><trkpt lat="40.95896149071232" lon="14.327790350679235"><ele>22.5</ele><time>2026-03-22T11:16:24.999Z</time></trkpt><trkpt lat="40.95931153008005" lon="14.327769252699392"><ele>23.0</ele><time>2026-03-22T11:16:25.999Z</time></trkpt><trkpt lat="40.95966619866996" lon="14.32773288466079"><ele>23.0</ele><time>2026-03-22T11:16:26.999Z</time></trkpt><trkpt lat="40.95999747574688" lon="14.327691384124343"><ele>23.0</ele><time>2026-03-22T11:16:27.999Z</time></trkpt><trkpt lat="40.960312115669176" lon="14.327656679875616"><ele>22.5</ele><time>2026-03-22T11:16:28.999Z</time></trkpt><trkpt lat="40.960623123124265" lon="14.327627130226876"><ele>22.0</ele><time>2026-03-22T11:16:29.999Z</time></trkpt><trkpt lat="40.96094176673451" lon="14.327599933369822"><ele>21.5</ele><time>2026-03-22T11:16:30.999Z</time></trkpt><trkpt lat="40.96126358405071" lon="14.32757321457764"><ele>21.0</ele><time>2026-03-22T11:16:31.999Z</time></trkpt><trkpt lat="40.9615918345911" lon="14.327541655418143"><ele>21.5</ele><time>2026-03-22T11:16:32.999Z</time></trkpt><trkpt lat="40.96195069928409" lon="14.327506729747341"><ele>22.0</ele><time>2026-03-22T11:16:33.999Z</time></trkpt><trkpt lat="40.96233369686185" lon="14.32746872093958"><ele>22.5</ele><time>2026-03-22T11:16:34.999Z</time></trkpt><trkpt lat="40.9627346141839" lon="14.32742277573561"><ele>23.0</ele><time>2026-03-22T11:16:35.999Z</time></trkpt><trkpt lat="40.96313929955449" lon="14.327377023556323"><ele>22.5</ele><time>2026-03-22T11:16:36.999Z</time></trkpt><trkpt lat="40.963505680207184" lon="14.327342837915765"><ele>22.0</ele><time>2026-03-22T11:16:37.999Z</time></trkpt><trkpt lat="40.963846109589106" lon="14.32731521278411"><ele>22.0</ele><time>2026-03-22T11:16:38.999Z</time></trkpt><trkpt lat="40.96418663440788" lon="14.327297673034238"><ele>22.0</ele><time>2026-03-22T11:16:39.999Z</time></trkpt><trkpt lat="40.96452036484479" lon="14.327282175001722"><ele>22.0</ele><time>2026-03-22T11:16:40.999Z</time></trkpt><trkpt lat="40.96485234520162" lon="14.32726442174788"><ele>22.0</ele><time>2026-03-22T11:16:42Z</time></trkpt><trkpt lat="40.965161290624" lon="14.327233892822944"><ele>22.0</ele><time>2026-03-22T11:16:43Z</time></trkpt><trkpt lat="40.965465275801506" lon="14.327208480774384"><ele>22.0</ele><time>2026-03-22T11:16:44Z</time></trkpt><trkpt lat="40.96576752115978" lon="14.327178901092553"><ele>22.0</ele><time>2026-03-22T11:16:45Z</time></trkpt><trkpt lat="40.96605223897197" lon="14.32714768473929"><ele>22.0</ele><time>2026-03-22T11:16:46Z</time></trkpt><trkpt lat="40.96632128001423" lon="14.32712332650011"><ele>22.0</ele><time>2026-03-22T11:16:47Z</time></trkpt><trkpt lat="40.966577786318325" lon="14.327106366830934"><ele>22.0</ele><time>2026-03-22T11:16:48Z</time></trkpt><trkpt lat="40.96682463982445" lon="14.327092096218202"><ele>22.0</ele><time>2026-03-22T11:16:49Z</time></trkpt><trkpt lat="40.967068666856925" lon="14.327080047539187"><ele>22.0</ele><time>2026-03-22T11:16:50Z</time></trkpt><trkpt lat="40.96733491453091" lon="14.327063199334932"><ele>21.5</ele><time>2026-03-22T11:16:51Z</time></trkpt><trkpt lat="40.96761812115585" lon="14.32704456787259"><ele>21.0</ele><time>2026-03-22T11:16:52Z</time></trkpt><trkpt lat="40.96790376261864" lon="14.327025007989812"><ele>21.0</ele><time>2026-03-22T11:16:53Z</time></trkpt><trkpt lat="40.9681919139408" lon="14.327001541052217"><ele>21.0</ele><time>2026-03-22T11:16:54Z</time></trkpt><trkpt lat="40.96847660471094" lon="14.326972630560899"><ele>20.5</ele><time>2026-03-22T11:16:55Z</time></trkpt><trkpt lat="40.96876225325975" lon="14.326943887405504"><ele>20.0</ele><time>2026-03-22T11:16:56Z</time></trkpt><trkpt lat="40.96904627640032" lon="14.326915960717375"><ele>20.0</ele><time>2026-03-22T11:16:57Z</time></trkpt><trkpt lat="40.96933020154468" lon="14.326888260546129"><ele>20.0</ele><time>2026-03-22T11:16:58Z</time></trkpt><trkpt lat="40.9696200928318" lon="14.326861206425464"><ele>20.0</ele><time>2026-03-22T11:16:59Z</time></trkpt><trkpt lat="40.969928053631264" lon="14.326826993628993"><ele>20.0</ele><time>2026-03-22T11:17:00Z</time></trkpt><trkpt lat="40.97026539520767" lon="14.32678142739822"><ele>20.5</ele><time>2026-03-22T11:17:01Z</time></trkpt><trkpt lat="40.97062469666125" lon="14.3267387429058"><ele>21.0</ele><time>2026-03-22T11:17:02Z</time></trkpt><trkpt lat="40.97099252624329" lon="14.326711243181025"><ele>21.5</ele><time>2026-03-22T11:17:03Z</time></trkpt><trkpt lat="40.971330840065065" lon="14.326693884510723"><ele>22.0</ele><time>2026-03-22T11:17:04Z</time></trkpt><trkpt lat="40.97163351784155" lon="14.326674866413317"><ele>22.0</ele><time>2026-03-22T11:17:05Z</time></trkpt><trkpt lat="40.971920786958975" lon="14.32666213670872"><ele>22.0</ele><time>2026-03-22T11:17:06Z</time></trkpt><trkpt lat="40.972197866656444" lon="14.326643454353407"><ele>22.0</ele><time>2026-03-22T11:17:07Z</time></trkpt><trkpt lat="40.97246431293953" lon="14.326622391745447"><ele>22.0</ele><time>2026-03-22T11:17:08Z</time></trkpt><trkpt lat="40.97271608375367" lon="14.326602750585716"><ele>22.5</ele><time>2026-03-22T11:17:09Z</time></trkpt><trkpt lat="40.97295127993398" lon="14.326584763413948"><ele>23.0</ele><time>2026-03-22T11:17:10Z</time></trkpt><trkpt lat="40.97317663289655" lon="14.326569690758223"><ele>22.666666666666668</ele><time>2026-03-22T11:17:11Z</time></trkpt><trkpt lat="40.97338798659579" lon="14.326556186153582"><ele>22.333333333333332</ele><time>2026-03-22T11:17:12Z</time></trkpt><trkpt lat="40.973583333624866" lon="14.326543402549737"><ele>22.0</ele><time>2026-03-22T11:17:13Z</time></trkpt><trkpt lat="40.97376101112762" lon="14.326529084174409"><ele>22.0</ele><time>2026-03-22T11:17:14Z</time></trkpt><trkpt lat="40.973926383306306" lon="14.326516513413532"><ele>22.0</ele><time>2026-03-22T11:17:15Z</time></trkpt><trkpt lat="40.97408960858111" lon="14.32650996115901"><ele>22.0</ele><time>2026-03-22T11:17:16Z</time></trkpt><trkpt lat="40.97423767469264" lon="14.326505411449192"><ele>21.75</ele><time>2026-03-22T11:17:17Z</time></trkpt><trkpt lat="40.9743741013451" lon="14.326502212069537"><ele>21.5</ele><time>2026-03-22T11:17:18Z</time></trkpt><trkpt lat="40.974499881121325" lon="14.32649411500665"><ele>21.25</ele><time>2026-03-22T11:17:19Z</time></trkpt><trkpt lat="40.974646869381125" lon="14.326461123440392"><ele>21.0</ele><time>2026-03-22T11:17:20Z</time></trkpt><trkpt lat="40.97481677687505" lon="14.326498796415816"><ele>21.0</ele><time>2026-03-22T11:17:21Z</time></trkpt><trkpt lat="40.9749549507181" lon="14.326537627240935"><ele>21.0</ele><time>2026-03-22T11:17:22Z</time></trkpt><trkpt lat="40.975075910670995" lon="14.326589773772971"><ele>21.0</ele><time>2026-03-22T11:17:23Z</time></trkpt><trkpt lat="40.97518528006095" lon="14.326680987744854"><ele>21.0</ele><time>2026-03-22T11:17:24Z</time></trkpt><trkpt lat="40.975267083157156" lon="14.326810710880169"><ele>20.75</ele><time>2026-03-22T11:17:25Z</time></trkpt><trkpt lat="40.97531107117495" lon="14.326944354262663"><ele>20.5</ele><time>2026-03-22T11:17:26Z</time></trkpt><trkpt lat="40.97533016783121" lon="14.327083450073374"><ele>20.25</ele><time>2026-03-22T11:17:27Z</time></trkpt><trkpt lat="40.975331549893085" lon="14.327246374468286"><ele>20.0</ele><time>2026-03-22T11:17:28Z</time></trkpt><trkpt lat="40.97531241667081" lon="14.327424655320947"><ele>20.0</ele><time>2026-03-22T11:17:29Z</time></trkpt><trkpt lat="40.975269997712125" lon="14.327636929712241"><ele>20.0</ele><time>2026-03-22T11:17:30Z</time></trkpt><trkpt lat="40.97521412328698" lon="14.327859370500235"><ele>20.0</ele><time>2026-03-22T11:17:31Z</time></trkpt><trkpt lat="40.97517108018901" lon="14.328069003031988"><ele>20.0</ele><time>2026-03-22T11:17:32Z</time></trkpt><trkpt lat="40.975140743317695" lon="14.328252831891785"><ele>20.0</ele><time>2026-03-22T11:17:33Z</time></trkpt><trkpt lat="40.97511227970431" lon="14.328404782048526"><ele>20.0</ele><time>2026-03-22T11:17:34Z</time></trkpt><trkpt lat="40.975084294627216" lon="14.328548578463604"><ele>20.0</ele><time>2026-03-22T11:17:35Z</time></trkpt><trkpt lat="40.975061714319935" lon="14.328676013848506"><ele>20.0</ele><time>2026-03-22T11:17:35.999Z</time></trkpt><trkpt lat="40.975041128819775" lon="14.328792141786284"><ele>20.0</ele><time>2026-03-22T11:17:36.999Z</time></trkpt><trkpt lat="40.97501603987295" lon="14.32889391004016"><ele>20.0</ele><time>2026-03-22T11:17:37.999Z</time></trkpt><trkpt lat="40.97497637392573" lon="14.328997018781381"><ele>20.0</ele><time>2026-03-22T11:17:38.999Z</time></trkpt><trkpt lat="40.97491528755333" lon="14.329108472805544"><ele>20.0</ele><time>2026-03-22T11:17:39.999Z</time></trkpt><trkpt lat="40.97483645343051" lon="14.329216162319428"><ele>20.5</ele><time>2026-03-22T11:17:40.999Z</time></trkpt><trkpt lat="40.97472967385581" lon="14.329316119997138"><ele>21.0</ele><time>2026-03-22T11:17:41.999Z</time></trkpt><trkpt lat="40.97461418283768" lon="14.329392768079945"><ele>21.5</ele><time>2026-03-22T11:17:42.999Z</time></trkpt><trkpt lat="40.974502680741345" lon="14.32943286868913"><ele>22.0</ele><time>2026-03-22T11:17:43.999Z</time></trkpt><trkpt lat="40.97437389840143" lon="14.329456382779329"><ele>22.0</ele><time>2026-03-22T11:17:44.999Z</time></trkpt><trkpt lat="40.97425087916181" lon="14.329454130689351"><ele>22.0</ele><time>2026-03-22T11:17:45.999Z</time></trkpt><trkpt lat="40.974117463248184" lon="14.329416751251236"><ele>22.0</ele><time>2026-03-22T11:17:46.999Z</time></trkpt><trkpt lat="40.97400884397727" lon="14.329346832043532"><ele>22.0</ele><time>2026-03-22T11:17:47.999Z</time></trkpt><trkpt lat="40.97390879571099" lon="14.32924604262562"><ele>22.25</ele><time>2026-03-22T11:17:48.999Z</time></trkpt><trkpt lat="40.973816216502186" lon="14.32912671067546"><ele>22.5</ele><time>2026-03-22T11:17:49.999Z</time></trkpt><trkpt lat="40.97374057113859" lon="14.328999703282891"><ele>22.75</ele><time>2026-03-22T11:17:50.999Z</time></trkpt><trkpt lat="40.97368514122076" lon="14.32885546474531"><ele>23.0</ele><time>2026-03-22T11:17:51.999Z</time></trkpt><trkpt lat="40.973647424774555" lon="14.328704493603489"><ele>22.5</ele><time>2026-03-22T11:17:52.999Z</time></trkpt><trkpt lat="40.97362157519814" lon="14.328541145397317"><ele>22.0</ele><time>2026-03-22T11:17:53.999Z</time></trkpt><trkpt lat="40.973614724796136" lon="14.328377940652494"><ele>21.5</ele><time>2026-03-22T11:17:54.999Z</time></trkpt><trkpt lat="40.97361240734185" lon="14.328197822337486"><ele>21.0</ele><time>2026-03-22T11:17:55.999Z</time></trkpt><trkpt lat="40.97361005153126" lon="14.32801239712915"><ele>21.0</ele><time>2026-03-22T11:17:56.999Z</time></trkpt><trkpt lat="40.97359838120422" lon="14.327812448207135"><ele>21.0</ele><time>2026-03-22T11:17:57.999Z</time></trkpt><trkpt lat="40.97358001500889" lon="14.327587957172085"><ele>21.0</ele><time>2026-03-22T11:17:58.999Z</time></trkpt><trkpt lat="40.97356169818462" lon="14.327334972080212"><ele>21.5</ele><time>2026-03-22T11:17:59.999Z</time></trkpt><trkpt lat="40.9735494678112" lon="14.327023812813353"><ele>22.0</ele><time>2026-03-22T11:18:00.999Z</time></trkpt><trkpt lat="40.97355138433746" lon="14.32664311325256"><ele>21.5</ele><time>2026-03-22T11:18:01.999Z</time></trkpt><trkpt lat="40.973553809290095" lon="14.326226370985296"><ele>21.0</ele><time>2026-03-22T11:18:02.999Z</time></trkpt><trkpt lat="40.97355340793258" lon="14.325855583538486"><ele>21.0</ele><time>2026-03-22T11:18:03.999Z</time></trkpt><trkpt lat="40.97355195402038" lon="14.325502521672291"><ele>21.0</ele><time>2026-03-22T11:18:04.999Z</time></trkpt><trkpt lat="40.973550065755155" lon="14.325169327888426"><ele>21.0</ele><time>2026-03-22T11:18:05.999Z</time></trkpt><trkpt lat="40.973550924708704" lon="14.32482982308535"><ele>21.0</ele><time>2026-03-22T11:18:06.999Z</time></trkpt><trkpt lat="40.97355028126457" lon="14.324492824222672"><ele>21.0</ele><time>2026-03-22T11:18:07.999Z</time></trkpt><trkpt lat="40.97354794551177" lon="14.324122117020934"><ele>21.0</ele><time>2026-03-22T11:18:08.999Z</time></trkpt><trkpt lat="40.97355022777231" lon="14.323739837477097"><ele>21.0</ele><time>2026-03-22T11:18:09.999Z</time></trkpt><trkpt lat="40.9735582637887" lon="14.3233128061093"><ele>21.0</ele><time>2026-03-22T11:18:10.999Z</time></trkpt><trkpt lat="40.97355944300132" lon="14.322844487869792"><ele>21.0</ele><time>2026-03-22T11:18:11.999Z</time></trkpt><trkpt lat="40.97355237828188" lon="14.322346841300295"><ele>21.0</ele><time>2026-03-22T11:18:12.999Z</time></trkpt><trkpt lat="40.97353960797954" lon="14.321839744356962"><ele>21.0</ele><time>2026-03-22T11:18:13.999Z</time></trkpt><trkpt lat="40.973527492940626" lon="14.32136454478439"><ele>21.0</ele><time>2026-03-22T11:18:14.999Z</time></trkpt><trkpt lat="40.973521592349854" lon="14.320910306568143"><ele>20.5</ele><time>2026-03-22T11:18:15.999Z</time></trkpt><trkpt lat="40.973521474211076" lon="14.320462537834526"><ele>20.0</ele><time>2026-03-22T11:18:16.999Z</time></trkpt><trkpt lat="40.973522559514166" lon="14.32001336288818"><ele>20.0</ele><time>2026-03-22T11:18:17.999Z</time></trkpt><trkpt lat="40.97352110341989" lon="14.319570340610737"><ele>20.0</ele><time>2026-03-22T11:18:18.999Z</time></trkpt><trkpt lat="40.973519440349776" lon="14.319130048383201"><ele>20.5</ele><time>2026-03-22T11:18:19.999Z</time></trkpt><trkpt lat="40.97351839125419" lon="14.318690994310982"><ele>21.0</ele><time>2026-03-22T11:18:20.999Z</time></trkpt><trkpt lat="40.9735176920771" lon="14.318254451132084"><ele>21.5</ele><time>2026-03-22T11:18:21.999Z</time></trkpt><trkpt lat="40.973516000880934" lon="14.31780810644808"><ele>22.0</ele><time>2026-03-22T11:18:22.999Z</time></trkpt><trkpt lat="40.97351411176514" lon="14.317373184405476"><ele>21.0</ele><time>2026-03-22T11:18:23.999Z</time></trkpt><trkpt lat="40.97351153145521" lon="14.316934869697906"><ele>20.0</ele><time>2026-03-22T11:18:24.999Z</time></trkpt><trkpt lat="40.973507179770095" lon="14.316529690481097"><ele>21.0</ele><time>2026-03-22T11:18:25.999Z</time></trkpt><trkpt lat="40.97350723322981" lon="14.316143777562035"><ele>22.0</ele><time>2026-03-22T11:18:26.999Z</time></trkpt><trkpt lat="40.973506415314915" lon="14.315745142655924"><ele>22.0</ele><time>2026-03-22T11:18:27.999Z</time></trkpt><trkpt lat="40.97350663242705" lon="14.315330538988816"><ele>22.0</ele><time>2026-03-22T11:18:28.999Z</time></trkpt><trkpt lat="40.97350399207799" lon="14.314917497773536"><ele>21.5</ele><time>2026-03-22T11:18:29.999Z</time></trkpt><trkpt lat="40.97350043532808" lon="14.314503242016913"><ele>21.0</ele><time>2026-03-22T11:18:30.999Z</time></trkpt><trkpt lat="40.97350158947181" lon="14.31410617557222"><ele>21.0</ele><time>2026-03-22T11:18:31.999Z</time></trkpt><trkpt lat="40.97350252369238" lon="14.313706378405682"><ele>21.0</ele><time>2026-03-22T11:18:32.999Z</time></trkpt><trkpt lat="40.973506461717406" lon="14.313269441932249"><ele>21.5</ele><time>2026-03-22T11:18:33.999Z</time></trkpt><trkpt lat="40.97351312735983" lon="14.312783637316356"><ele>22.0</ele><time>2026-03-22T11:18:34.999Z</time></trkpt><trkpt lat="40.973515503752935" lon="14.312272300748177"><ele>22.0</ele><time>2026-03-22T11:18:35.999Z</time></trkpt><trkpt lat="40.97351176031424" lon="14.31173508976083"><ele>22.0</ele><time>2026-03-22T11:18:36.999Z</time></trkpt><trkpt lat="40.97350656554475" lon="14.31120775478733"><ele>22.0</ele><time>2026-03-22T11:18:37.999Z</time></trkpt><trkpt lat="40.97350191787175" lon="14.310725833430533"><ele>22.0</ele><time>2026-03-22T11:18:38.999Z</time></trkpt><trkpt lat="40.97349793156764" lon="14.310297912328798"><ele>22.0</ele><time>2026-03-22T11:18:39.999Z</time></trkpt><trkpt lat="40.973496436356996" lon="14.30987407548956"><ele>22.0</ele><time>2026-03-22T11:18:40.999Z</time></trkpt><trkpt lat="40.973495424795786" lon="14.30943660846434"><ele>22.0</ele><time>2026-03-22T11:18:41.999Z</time></trkpt><trkpt lat="40.973492337202956" lon="14.30900562806822"><ele>22.0</ele><time>2026-03-22T11:18:42.999Z</time></trkpt><trkpt lat="40.973492079879556" lon="14.308574644474398"><ele>22.0</ele><time>2026-03-22T11:18:43.999Z</time></trkpt><trkpt lat="40.973492759396414" lon="14.308179324077388"><ele>22.0</ele><time>2026-03-22T11:18:44.999Z</time></trkpt><trkpt lat="40.973483977942315" lon="14.30780301352838"><ele>22.0</ele><time>2026-03-22T11:18:45.999Z</time></trkpt><trkpt lat="40.973474830237755" lon="14.307417918324765"><ele>22.0</ele><time>2026-03-22T11:18:46.999Z</time></trkpt><trkpt lat="40.97347137330856" lon="14.307035708875203"><ele>22.0</ele><time>2026-03-22T11:18:48Z</time></trkpt><trkpt lat="40.97347232092845" lon="14.306654495725734"><ele>22.0</ele><time>2026-03-22T11:18:49Z</time></trkpt><trkpt lat="40.97347554305052" lon="14.306272710797186"><ele>22.0</ele><time>2026-03-22T11:18:50Z</time></trkpt><trkpt lat="40.97347906005791" lon="14.305882507455737"><ele>22.0</ele><time>2026-03-22T11:18:51Z</time></trkpt><trkpt lat="40.97347772978419" lon="14.305477338392931"><ele>22.5</ele><time>2026-03-22T11:18:52Z</time></trkpt><trkpt lat="40.97348036377565" lon="14.305035569607753"><ele>23.0</ele><time>2026-03-22T11:18:53Z</time></trkpt><trkpt lat="40.9734886570784" lon="14.304554342948341"><ele>23.5</ele><time>2026-03-22T11:18:54Z</time></trkpt><trkpt lat="40.97349147189441" lon="14.304058050215167"><ele>24.0</ele><time>2026-03-22T11:18:55Z</time></trkpt><trkpt lat="40.97348600380148" lon="14.303544034025709"><ele>24.5</ele><time>2026-03-22T11:18:56Z</time></trkpt><trkpt lat="40.973482140646986" lon="14.303018770945537"><ele>25.0</ele><time>2026-03-22T11:18:57Z</time></trkpt><trkpt lat="40.97347600386742" lon="14.302480080901933"><ele>24.0</ele><time>2026-03-22T11:18:58Z</time></trkpt><trkpt lat="40.973472571599316" lon="14.301967136125862"><ele>23.0</ele><time>2026-03-22T11:18:59Z</time></trkpt><trkpt lat="40.97347454301386" lon="14.301508333469975"><ele>23.0</ele><time>2026-03-22T11:19:00Z</time></trkpt><trkpt lat="40.973483938936745" lon="14.301072739609769"><ele>23.0</ele><time>2026-03-22T11:19:01Z</time></trkpt><trkpt lat="40.973490679391944" lon="14.300674939417153"><ele>23.0</ele><time>2026-03-22T11:19:02Z</time></trkpt><trkpt lat="40.973497300752044" lon="14.300296254618774"><ele>23.0</ele><time>2026-03-22T11:19:03Z</time></trkpt><trkpt lat="40.97350075188547" lon="14.299936162663137"><ele>23.5</ele><time>2026-03-22T11:19:04Z</time></trkpt><trkpt lat="40.97350296300483" lon="14.299598856971777"><ele>24.0</ele><time>2026-03-22T11:19:05Z</time></trkpt><trkpt lat="40.97350455415096" lon="14.299277982446545"><ele>24.0</ele><time>2026-03-22T11:19:06Z</time></trkpt><trkpt lat="40.97350400380195" lon="14.298975675358372"><ele>24.0</ele><time>2026-03-22T11:19:07Z</time></trkpt><trkpt lat="40.97350277834612" lon="14.298689933067143"><ele>24.0</ele><time>2026-03-22T11:19:08Z</time></trkpt><trkpt lat="40.9735047109182" lon="14.298422449641988"><ele>24.0</ele><time>2026-03-22T11:19:09Z</time></trkpt><trkpt lat="40.97350562883776" lon="14.29816852341928"><ele>24.0</ele><time>2026-03-22T11:19:10Z</time></trkpt><trkpt lat="40.973506836801455" lon="14.297927461371488"><ele>24.0</ele><time>2026-03-22T11:19:11Z</time></trkpt><trkpt lat="40.973512912601855" lon="14.297653619930644"><ele>24.0</ele><time>2026-03-22T11:19:12Z</time></trkpt><trkpt lat="40.9735169594789" lon="14.29737813459088"><ele>24.0</ele><time>2026-03-22T11:19:13Z</time></trkpt><trkpt lat="40.97352260772276" lon="14.29712452014009"><ele>24.0</ele><time>2026-03-22T11:19:14Z</time></trkpt><trkpt lat="40.97352063114908" lon="14.29690035830563"><ele>23.666666666666668</ele><time>2026-03-22T11:19:15Z</time></trkpt><trkpt lat="40.97352401974682" lon="14.296680538116716"><ele>23.333333333333336</ele><time>2026-03-22T11:19:16Z</time></trkpt><trkpt lat="40.973532430507504" lon="14.296477093960586"><ele>23.0</ele><time>2026-03-22T11:19:17Z</time></trkpt><trkpt lat="40.973548051711695" lon="14.296282757720325"><ele>23.0</ele><time>2026-03-22T11:19:18Z</time></trkpt><trkpt lat="40.97357319732029" lon="14.296113816636531"><ele>23.0</ele><time>2026-03-22T11:19:19Z</time></trkpt><trkpt lat="40.97362144900121" lon="14.295958091642127"><ele>23.0</ele><time>2026-03-22T11:19:20Z</time></trkpt><trkpt lat="40.97369755046187" lon="14.29582762833157"><ele>23.0</ele><time>2026-03-22T11:19:21Z</time></trkpt><trkpt lat="40.973792831315286" lon="14.295714103038904"><ele>23.0</ele><time>2026-03-22T11:19:22Z</time></trkpt><trkpt lat="40.97390423360738" lon="14.295620569472202"><ele>23.0</ele><time>2026-03-22T11:19:23Z</time></trkpt><trkpt lat="40.974043547324584" lon="14.295516067710281"><ele>23.0</ele><time>2026-03-22T11:19:24Z</time></trkpt><trkpt lat="40.97423346546554" lon="14.295365675792558"><ele>23.0</ele><time>2026-03-22T11:19:25Z</time></trkpt><trkpt lat="40.974455878044985" lon="14.295182690536235"><ele>23.0</ele><time>2026-03-22T11:19:26Z</time></trkpt><trkpt lat="40.97465509410445" lon="14.29502500309863"><ele>23.0</ele><time>2026-03-22T11:19:27Z</time></trkpt><trkpt lat="40.974816762959485" lon="14.294897896460741"><ele>23.0</ele><time>2026-03-22T11:19:28Z</time></trkpt><trkpt lat="40.97496021474383" lon="14.294775158353959"><ele>23.0</ele><time>2026-03-22T11:19:29Z</time></trkpt><trkpt lat="40.975081055163294" lon="14.294615636249313"><ele>23.333333333333336</ele><time>2026-03-22T11:19:30Z</time></trkpt><trkpt lat="40.975184326938376" lon="14.29442264850482"><ele>23.666666666666668</ele><time>2026-03-22T11:19:31Z</time></trkpt><trkpt lat="40.97526834461837" lon="14.294193989552275"><ele>24.0</ele><time>2026-03-22T11:19:32Z</time></trkpt><trkpt lat="40.97532903399031" lon="14.293950228174358"><ele>24.5</ele><time>2026-03-22T11:19:33Z</time></trkpt><trkpt lat="40.9753794994497" lon="14.293751855434165"><ele>25.0</ele><time>2026-03-22T11:19:34Z</time></trkpt><trkpt lat="40.975446896423186" lon="14.293590084160629"><ele>25.5</ele><time>2026-03-22T11:19:35Z</time></trkpt><trkpt lat="40.975529994700416" lon="14.293464508933466"><ele>26.0</ele><time>2026-03-22T11:19:36Z</time></trkpt><trkpt lat="40.97562511829877" lon="14.293375769162942"><ele>26.0</ele><time>2026-03-22T11:19:37Z</time></trkpt><trkpt lat="40.97572493251057" lon="14.293315108050919"><ele>26.0</ele><time>2026-03-22T11:19:38Z</time></trkpt><trkpt lat="40.97581725471867" lon="14.293297873962326"><ele>26.0</ele><time>2026-03-22T11:19:39Z</time></trkpt><trkpt lat="40.97590058173546" lon="14.293284876943204"><ele>26.0</ele><time>2026-03-22T11:19:39.999Z</time></trkpt><trkpt lat="40.97599467920867" lon="14.293271836427357"><ele>26.0</ele><time>2026-03-22T11:19:40.999Z</time></trkpt><trkpt lat="40.976103472025216" lon="14.293263089837055"><ele>25.5</ele><time>2026-03-22T11:19:41.999Z</time></trkpt><trkpt lat="40.976238392387856" lon="14.293247470926843"><ele>25.0</ele><time>2026-03-22T11:19:42.999Z</time></trkpt><trkpt lat="40.97638415995085" lon="14.29324105313653"><ele>24.5</ele><time>2026-03-22T11:19:43.999Z</time></trkpt><trkpt lat="40.97653662922395" lon="14.293253080316113"><ele>24.0</ele><time>2026-03-22T11:19:44.999Z</time></trkpt><trkpt lat="40.976719700409376" lon="14.293267235788088"><ele>24.0</ele><time>2026-03-22T11:19:45.999Z</time></trkpt><trkpt lat="40.97694398969506" lon="14.293284816940139"><ele>24.0</ele><time>2026-03-22T11:19:46.999Z</time></trkpt><trkpt lat="40.97714371387381" lon="14.2932967782182"><ele>24.0</ele><time>2026-03-22T11:19:47.999Z</time></trkpt><trkpt lat="40.97736728838207" lon="14.293317426186217"><ele>22.0</ele><time>2026-03-22T11:19:48.999Z</time></trkpt><trkpt lat="40.977657275892334" lon="14.293360376889208"><ele>20.0</ele><time>2026-03-22T11:19:49.999Z</time></trkpt><trkpt lat="40.97799740322803" lon="14.293419556753806"><ele>21.5</ele><time>2026-03-22T11:19:50.999Z</time></trkpt><trkpt lat="40.97836165487244" lon="14.293480173136233"><ele>23.0</ele><time>2026-03-22T11:19:51.999Z</time></trkpt><trkpt lat="40.97875259516052" lon="14.293540209104066"><ele>23.0</ele><time>2026-03-22T11:19:52.999Z</time></trkpt><trkpt lat="40.97916456833447" lon="14.293598188834903"><ele>23.0</ele><time>2026-03-22T11:19:53.999Z</time></trkpt><trkpt lat="40.97956028546542" lon="14.293651988513972"><ele>23.0</ele><time>2026-03-22T11:19:54.999Z</time></trkpt><trkpt lat="40.97993199230165" lon="14.293692764622179"><ele>23.0</ele><time>2026-03-22T11:19:55.999Z</time></trkpt><trkpt lat="40.980289417247924" lon="14.293721451450873"><ele>21.5</ele><time>2026-03-22T11:19:56.999Z</time></trkpt><trkpt lat="40.980640879234905" lon="14.293725716000084"><ele>20.0</ele><time>2026-03-22T11:19:57.999Z</time></trkpt><trkpt lat="40.98099456315701" lon="14.293701450046656"><ele>20.0</ele><time>2026-03-22T11:19:58.999Z</time></trkpt><trkpt lat="40.98138299692155" lon="14.293645503847035"><ele>20.0</ele><time>2026-03-22T11:19:59.999Z</time></trkpt><trkpt lat="40.981793271719624" lon="14.293567595532824"><ele>21.0</ele><time>2026-03-22T11:20:00.999Z</time></trkpt><trkpt lat="40.98222217979898" lon="14.293479537278865"><ele>22.0</ele><time>2026-03-22T11:20:01.999Z</time></trkpt><trkpt lat="40.98266063480476" lon="14.293384103189021"><ele>23.0</ele><time>2026-03-22T11:20:02.999Z</time></trkpt><trkpt lat="40.983106508927186" lon="14.293285817717427"><ele>22.0</ele><time>2026-03-22T11:20:03.999Z</time></trkpt><trkpt lat="40.98356580366041" lon="14.293186766259666"><ele>22.0</ele><time>2026-03-22T11:20:04.999Z</time></trkpt><trkpt lat="40.98402512391363" lon="14.293091437111006"><ele>21.0</ele><time>2026-03-22T11:20:05.999Z</time></trkpt><trkpt lat="40.98448446073002" lon="14.292997086590546"><ele>21.0</ele><time>2026-03-22T11:20:06.999Z</time></trkpt><trkpt lat="40.984948477935525" lon="14.292905685596876"><ele>20.5</ele><time>2026-03-22T11:20:07.999Z</time></trkpt><trkpt lat="40.9853689777521" lon="14.292819729531859"><ele>20.0</ele><time>2026-03-22T11:20:08.999Z</time></trkpt><trkpt lat="40.98574695085957" lon="14.292741753216427"><ele>20.5</ele><time>2026-03-22T11:20:09.999Z</time></trkpt><trkpt lat="40.986119713936" lon="14.292669063379375"><ele>21.0</ele><time>2026-03-22T11:20:10.999Z</time></trkpt><trkpt lat="40.98649584410778" lon="14.292598940114619"><ele>21.0</ele><time>2026-03-22T11:20:11.999Z</time></trkpt><trkpt lat="40.98686379830783" lon="14.292542174399525"><ele>21.0</ele><time>2026-03-22T11:20:12.999Z</time></trkpt><trkpt lat="40.987221506717816" lon="14.292506333520238"><ele>19.5</ele><time>2026-03-22T11:20:13.999Z</time></trkpt><trkpt lat="40.987574299531026" lon="14.2924933431205"><ele>18.0</ele><time>2026-03-22T11:20:14.999Z</time></trkpt><trkpt lat="40.98791855510609" lon="14.292503199660874"><ele>18.0</ele><time>2026-03-22T11:20:15.999Z</time></trkpt><trkpt lat="40.98824074197623" lon="14.292533920470191"><ele>18.0</ele><time>2026-03-22T11:20:16.999Z</time></trkpt><trkpt lat="40.98857147865975" lon="14.29258913316496"><ele>18.5</ele><time>2026-03-22T11:20:17.999Z</time></trkpt><trkpt lat="40.98892691908766" lon="14.292674679250174"><ele>19.0</ele><time>2026-03-22T11:20:18.999Z</time></trkpt><trkpt lat="40.989305411736034" lon="14.292782371013844"><ele>19.0</ele><time>2026-03-22T11:20:19.999Z</time></trkpt><trkpt lat="40.98968363608566" lon="14.292895269472073"><ele>19.0</ele><time>2026-03-22T11:20:20.999Z</time></trkpt><trkpt lat="40.99008387149702" lon="14.293021267404583"><ele>20.0</ele><time>2026-03-22T11:20:21.999Z</time></trkpt><trkpt lat="40.99049355164032" lon="14.2931487488422"><ele>21.0</ele><time>2026-03-22T11:20:22.999Z</time></trkpt><trkpt lat="40.99091903982708" lon="14.293274455914794"><ele>21.0</ele><time>2026-03-22T11:20:23.999Z</time></trkpt><trkpt lat="40.99135311054254" lon="14.293398696866909"><ele>21.0</ele><time>2026-03-22T11:20:24.999Z</time></trkpt><trkpt lat="40.99179882048748" lon="14.293526484589579"><ele>20.0</ele><time>2026-03-22T11:20:25.999Z</time></trkpt><trkpt lat="40.99225356232324" lon="14.293659180902155"><ele>20.0</ele><time>2026-03-22T11:20:26.999Z</time></trkpt><trkpt lat="40.992708856644775" lon="14.293792175650733"><ele>20.0</ele><time>2026-03-22T11:20:27.999Z</time></trkpt><trkpt lat="40.99312681515742" lon="14.293915572130796"><ele>20.0</ele><time>2026-03-22T11:20:28.999Z</time></trkpt><trkpt lat="40.993508471706974" lon="14.294035226889509"><ele>20.0</ele><time>2026-03-22T11:20:29.999Z</time></trkpt><trkpt lat="40.993860225970984" lon="14.294147389433663"><ele>20.0</ele><time>2026-03-22T11:20:30.999Z</time></trkpt><trkpt lat="40.99420182612787" lon="14.29425041938865"><ele>23.5</ele><time>2026-03-22T11:20:31.999Z</time></trkpt><trkpt lat="40.99454835527326" lon="14.294349741765979"><ele>27.0</ele><time>2026-03-22T11:20:32.999Z</time></trkpt><trkpt lat="40.99487901491849" lon="14.29443546886365"><ele>24.5</ele><time>2026-03-22T11:20:33.999Z</time></trkpt><trkpt lat="40.995208196853326" lon="14.294508599693199"><ele>22.0</ele><time>2026-03-22T11:20:34.999Z</time></trkpt><trkpt lat="40.99553557391112" lon="14.294549391097913"><ele>20.5</ele><time>2026-03-22T11:20:35.999Z</time></trkpt><trkpt lat="40.99587058484329" lon="14.294558713416789"><ele>19.0</ele><time>2026-03-22T11:20:36.999Z</time></trkpt><trkpt lat="40.99619479762501" lon="14.294537358396845"><ele>19.0</ele><time>2026-03-22T11:20:37.999Z</time></trkpt><trkpt lat="40.99653243709231" lon="14.294491869981597"><ele>19.0</ele><time>2026-03-22T11:20:38.999Z</time></trkpt><trkpt lat="40.99687304901949" lon="14.294476796949844"><ele>19.0</ele><time>2026-03-22T11:20:39.999Z</time></trkpt><trkpt lat="40.99720612993616" lon="14.294420029659415"><ele>19.0</ele><time>2026-03-22T11:20:40.999Z</time></trkpt><trkpt lat="40.99751434859851" lon="14.294210864838613"><ele>19.0</ele><time>2026-03-22T11:20:41.999Z</time></trkpt><trkpt lat="40.99781783161221" lon="14.294069209203556"><ele>19.0</ele><time>2026-03-22T11:20:42.999Z</time></trkpt><trkpt lat="40.9981110468335" lon="14.293905636916703"><ele>19.5</ele><time>2026-03-22T11:20:43.999Z</time></trkpt><trkpt lat="40.99839396885173" lon="14.293729634284883"><ele>20.0</ele><time>2026-03-22T11:20:44.999Z</time></trkpt><trkpt lat="40.99866966640825" lon="14.293518273490953"><ele>20.0</ele><time>2026-03-22T11:20:45.999Z</time></trkpt><trkpt lat="40.99893373827548" lon="14.293295135373013"><ele>20.0</ele><time>2026-03-22T11:20:46.999Z</time></trkpt><trkpt lat="40.99919194573468" lon="14.293064511165559"><ele>20.0</ele><time>2026-03-22T11:20:47.999Z</time></trkpt><trkpt lat="40.99943853145085" lon="14.292810741865017"><ele>20.0</ele><time>2026-03-22T11:20:48.999Z</time></trkpt><trkpt lat="40.99969132074294" lon="14.292534377692668"><ele>19.5</ele><time>2026-03-22T11:20:49.999Z</time></trkpt><trkpt lat="40.99996564329724" lon="14.292255502372987"><ele>19.0</ele><time>2026-03-22T11:20:50.999Z</time></trkpt><trkpt lat="41.00026698076226" lon="14.291968028706567"><ele>19.0</ele><time>2026-03-22T11:20:51.999Z</time></trkpt><trkpt lat="41.000559253360976" lon="14.29169641198684"><ele>19.0</ele><time>2026-03-22T11:20:52.999Z</time></trkpt><trkpt lat="41.000828498684825" lon="14.291493011956586"><ele>19.0</ele><time>2026-03-22T11:20:54Z</time></trkpt><trkpt lat="41.0010940327126" lon="14.29130645052993"><ele>19.0</ele><time>2026-03-22T11:20:55Z</time></trkpt><trkpt lat="41.00136096006444" lon="14.29114115581129"><ele>19.0</ele><time>2026-03-22T11:20:56Z</time></trkpt><trkpt lat="41.0016310619419" lon="14.29099483191675"><ele>19.0</ele><time>2026-03-22T11:20:57Z</time></trkpt><trkpt lat="41.001910370500816" lon="14.290861520003029"><ele>19.0</ele><time>2026-03-22T11:20:58Z</time></trkpt><trkpt lat="41.002211038099674" lon="14.290737971146454"><ele>19.0</ele><time>2026-03-22T11:20:59Z</time></trkpt><trkpt lat="41.002527535466065" lon="14.29063361559607"><ele>18.0</ele><time>2026-03-22T11:21:00Z</time></trkpt><trkpt lat="41.002837380500125" lon="14.290553850190369"><ele>17.0</ele><time>2026-03-22T11:21:01Z</time></trkpt><trkpt lat="41.00318272740058" lon="14.290490865798455"><ele>17.5</ele><time>2026-03-22T11:21:02Z</time></trkpt><trkpt lat="41.00352454554604" lon="14.290447189149475"><ele>18.0</ele><time>2026-03-22T11:21:03Z</time></trkpt><trkpt lat="41.00389517760342" lon="14.290429780155291"><ele>19.5</ele><time>2026-03-22T11:21:04Z</time></trkpt><trkpt lat="41.00427420067983" lon="14.290428304386317"><ele>21.0</ele><time>2026-03-22T11:21:05Z</time></trkpt><trkpt lat="41.0046595496762" lon="14.290431529679948"><ele>21.5</ele><time>2026-03-22T11:21:06Z</time></trkpt><trkpt lat="41.00507691808146" lon="14.290449602917706"><ele>22.0</ele><time>2026-03-22T11:21:07Z</time></trkpt><trkpt lat="41.00550612259532" lon="14.290465744249591"><ele>21.0</ele><time>2026-03-22T11:21:08Z</time></trkpt><trkpt lat="41.00593988254762" lon="14.290485310801584"><ele>20.0</ele><time>2026-03-22T11:21:09Z</time></trkpt><trkpt lat="41.00638629659255" lon="14.29050526549195"><ele>19.5</ele><time>2026-03-22T11:21:10Z</time></trkpt><trkpt lat="41.00683161220428" lon="14.290523033318674"><ele>19.0</ele><time>2026-03-22T11:21:11Z</time></trkpt><trkpt lat="41.007240528290716" lon="14.290537056984242"><ele>19.5</ele><time>2026-03-22T11:21:12Z</time></trkpt><trkpt lat="41.00762411995189" lon="14.29054703823631"><ele>20.0</ele><time>2026-03-22T11:21:13Z</time></trkpt><trkpt lat="41.00795151207198" lon="14.290555540254626"><ele>20.0</ele><time>2026-03-22T11:21:14Z</time></trkpt><trkpt lat="41.008300085396726" lon="14.290557646246052"><ele>20.0</ele><time>2026-03-22T11:21:15Z</time></trkpt><trkpt lat="41.008655408455155" lon="14.290554414242305"><ele>20.0</ele><time>2026-03-22T11:21:16Z</time></trkpt><trkpt lat="41.008999176934985" lon="14.290548584783302"><ele>20.0</ele><time>2026-03-22T11:21:17Z</time></trkpt><trkpt lat="41.009313807452195" lon="14.290551485984393"><ele>20.0</ele><time>2026-03-22T11:21:18Z</time></trkpt><trkpt lat="41.00960781045577" lon="14.290566153257577"><ele>20.0</ele><time>2026-03-22T11:21:19Z</time></trkpt><trkpt lat="41.009886784051304" lon="14.29058129215783"><ele>20.5</ele><time>2026-03-22T11:21:20Z</time></trkpt><trkpt lat="41.01014821258259" lon="14.290595107257245"><ele>21.0</ele><time>2026-03-22T11:21:21Z</time></trkpt><trkpt lat="41.01040096727437" lon="14.290601323710465"><ele>21.0</ele><time>2026-03-22T11:21:22Z</time></trkpt><trkpt lat="41.01064266397599" lon="14.290608859502512"><ele>21.0</ele><time>2026-03-22T11:21:23Z</time></trkpt><trkpt lat="41.01087282209823" lon="14.290622756523605"><ele>21.5</ele><time>2026-03-22T11:21:24Z</time></trkpt><trkpt lat="41.011110777109856" lon="14.290644762228137"><ele>22.0</ele><time>2026-03-22T11:21:25Z</time></trkpt><trkpt lat="41.01134850902854" lon="14.290681389500685"><ele>22.0</ele><time>2026-03-22T11:21:26Z</time></trkpt><trkpt lat="41.011588407776095" lon="14.290707291321162"><ele>22.0</ele><time>2026-03-22T11:21:27Z</time></trkpt><trkpt lat="41.011847708564574" lon="14.290725551304005"><ele>20.5</ele><time>2026-03-22T11:21:28Z</time></trkpt><trkpt lat="41.01211677461433" lon="14.290740937532329"><ele>19.0</ele><time>2026-03-22T11:21:29Z</time></trkpt><trkpt lat="41.012359574031066" lon="14.290753367971451"><ele>19.0</ele><time>2026-03-22T11:21:30Z</time></trkpt><trkpt lat="41.012579928904835" lon="14.290760807402211"><ele>19.0</ele><time>2026-03-22T11:21:31Z</time></trkpt><trkpt lat="41.012780783697735" lon="14.2907689303315"><ele>19.0</ele><time>2026-03-22T11:21:32Z</time></trkpt><trkpt lat="41.012984041064776" lon="14.290777638599826"><ele>19.0</ele><time>2026-03-22T11:21:33Z</time></trkpt><trkpt lat="41.0131701682136" lon="14.290783349159485"><ele>19.0</ele><time>2026-03-22T11:21:34Z</time></trkpt><trkpt lat="41.01334641966797" lon="14.290789415501077"><ele>19.0</ele><time>2026-03-22T11:21:35Z</time></trkpt><trkpt lat="41.01352353663368" lon="14.290796377729992"><ele>19.333333333333332</ele><time>2026-03-22T11:21:36Z</time></trkpt><trkpt lat="41.01369418744576" lon="14.290803175116608"><ele>19.666666666666668</ele><time>2026-03-22T11:21:37Z</time></trkpt><trkpt lat="41.01385295816847" lon="14.290813320825137"><ele>20.0</ele><time>2026-03-22T11:21:38Z</time></trkpt><trkpt lat="41.0139961588562" lon="14.290823185841381"><ele>20.0</ele><time>2026-03-22T11:21:39Z</time></trkpt><trkpt lat="41.01412693223337" lon="14.290829778084202"><ele>20.0</ele><time>2026-03-22T11:21:39.999Z</time></trkpt><trkpt lat="41.014261688521046" lon="14.29084055712389"><ele>20.0</ele><time>2026-03-22T11:21:40.999Z</time></trkpt><trkpt lat="41.01439154448823" lon="14.290853758158935"><ele>20.0</ele><time>2026-03-22T11:21:41.999Z</time></trkpt><trkpt lat="41.014505148361536" lon="14.290869258408286"><ele>21.0</ele><time>2026-03-22T11:21:42.999Z</time></trkpt><trkpt lat="41.01463590375905" lon="14.29086739690376"><ele>22.0</ele><time>2026-03-22T11:21:43.999Z</time></trkpt><trkpt lat="41.01479539654971" lon="14.29083534532635"><ele>23.0</ele><time>2026-03-22T11:21:44.999Z</time></trkpt><trkpt lat="41.01499727575291" lon="14.290802131323668"><ele>23.0</ele><time>2026-03-22T11:21:45.999Z</time></trkpt><trkpt lat="41.01523312934937" lon="14.290792314790526"><ele>23.0</ele><time>2026-03-22T11:21:46.999Z</time></trkpt><trkpt lat="41.015509919549636" lon="14.290794968798663"><ele>24.5</ele><time>2026-03-22T11:21:47.999Z</time></trkpt><trkpt lat="41.015822327066296" lon="14.290805822766888"><ele>26.0</ele><time>2026-03-22T11:21:48.999Z</time></trkpt><trkpt lat="41.016105473961474" lon="14.29082284172781"><ele>26.0</ele><time>2026-03-22T11:21:49.999Z</time></trkpt><trkpt lat="41.01635360835146" lon="14.290835403880394"><ele>26.0</ele><time>2026-03-22T11:21:50.999Z</time></trkpt><trkpt lat="41.0165750002322" lon="14.290846277090257"><ele>25.666666666666664</ele><time>2026-03-22T11:21:51.999Z</time></trkpt><trkpt lat="41.01678538927595" lon="14.290851748145236"><ele>25.333333333333336</ele><time>2026-03-22T11:21:52.999Z</time></trkpt><trkpt lat="41.01698806178448" lon="14.290854707030313"><ele>25.0</ele><time>2026-03-22T11:21:53.999Z</time></trkpt><trkpt lat="41.01714954417377" lon="14.290855796749954"><ele>25.0</ele><time>2026-03-22T11:21:54.999Z</time></trkpt><trkpt lat="41.01730579561868" lon="14.290863090750575"><ele>25.0</ele><time>2026-03-22T11:21:55.999Z</time></trkpt><trkpt lat="41.017447621939404" lon="14.290864687958859"><ele>25.0</ele><time>2026-03-22T11:21:56.999Z</time></trkpt><trkpt lat="41.01757798530168" lon="14.290858271332361"><ele>25.0</ele><time>2026-03-22T11:21:57.999Z</time></trkpt><trkpt lat="41.01769570237211" lon="14.29085660236856"><ele>24.833333333333336</ele><time>2026-03-22T11:21:58.999Z</time></trkpt><trkpt lat="41.01780232477933" lon="14.290860892888908"><ele>24.666666666666668</ele><time>2026-03-22T11:21:59.999Z</time></trkpt><trkpt lat="41.017895176900424" lon="14.290874083317266"><ele>24.5</ele><time>2026-03-22T11:22:00.999Z</time></trkpt><trkpt lat="41.0179775927941" lon="14.290890307573736"><ele>24.333333333333336</ele><time>2026-03-22T11:22:01.999Z</time></trkpt><trkpt lat="41.018049560429326" lon="14.290911089085313"><ele>24.166666666666668</ele><time>2026-03-22T11:22:02.999Z</time></trkpt><trkpt lat="41.018134098199" lon="14.290914528130779"><ele>24.0</ele><time>2026-03-22T11:22:03.999Z</time></trkpt><trkpt lat="41.01829610896185" lon="14.29090162705506"><ele>23.333333333333332</ele><time>2026-03-22T11:22:04.999Z</time></trkpt><trkpt lat="41.018497606842445" lon="14.290900523976784"><ele>22.666666666666664</ele><time>2026-03-22T11:22:05.999Z</time></trkpt><trkpt lat="41.01872447923839" lon="14.290903637039856"><ele>22.0</ele><time>2026-03-22T11:22:06.999Z</time></trkpt><trkpt lat="41.01895902272043" lon="14.290904976846518"><ele>22.5</ele><time>2026-03-22T11:22:07.999Z</time></trkpt><trkpt lat="41.019211199671744" lon="14.290905901583525"><ele>23.0</ele><time>2026-03-22T11:22:08.999Z</time></trkpt><trkpt lat="41.01949595688151" lon="14.290927952410613"><ele>23.0</ele><time>2026-03-22T11:22:09.999Z</time></trkpt><trkpt lat="41.0197745867059" lon="14.290933878744148"><ele>23.0</ele><time>2026-03-22T11:22:10.999Z</time></trkpt><trkpt lat="41.02002486006453" lon="14.290964315426715"><ele>23.5</ele><time>2026-03-22T11:22:11.999Z</time></trkpt><trkpt lat="41.020285545377746" lon="14.290973557145481"><ele>24.0</ele><time>2026-03-22T11:22:12.999Z</time></trkpt><trkpt lat="41.020551653371065" lon="14.29096232291263"><ele>24.0</ele><time>2026-03-22T11:22:13.999Z</time></trkpt><trkpt lat="41.02081835962433" lon="14.290974726697847"><ele>24.0</ele><time>2026-03-22T11:22:14.999Z</time></trkpt><trkpt lat="41.02108083466485" lon="14.29098636981"><ele>24.0</ele><time>2026-03-22T11:22:15.999Z</time></trkpt><trkpt lat="41.02134626094424" lon="14.290992792584456"><ele>24.0</ele><time>2026-03-22T11:22:16.999Z</time></trkpt><trkpt lat="41.02158539226185" lon="14.291000549962297"><ele>24.0</ele><time>2026-03-22T11:22:17.999Z</time></trkpt><trkpt lat="41.021799002663265" lon="14.291010535947752"><ele>24.0</ele><time>2026-03-22T11:22:18.999Z</time></trkpt><trkpt lat="41.02200580463606" lon="14.291017738200203"><ele>24.0</ele><time>2026-03-22T11:22:19.999Z</time></trkpt><trkpt lat="41.02220394827641" lon="14.29102305321121"><ele>24.0</ele><time>2026-03-22T11:22:20.999Z</time></trkpt><trkpt lat="41.02238422399284" lon="14.291036268800072"><ele>24.0</ele><time>2026-03-22T11:22:21.999Z</time></trkpt><trkpt lat="41.022564120298526" lon="14.291035725679286"><ele>24.0</ele><time>2026-03-22T11:22:22.999Z</time></trkpt><trkpt lat="41.022774068537025" lon="14.291040944824006"><ele>24.333333333333336</ele><time>2026-03-22T11:22:23.999Z</time></trkpt><trkpt lat="41.02297786097258" lon="14.291070366284421"><ele>24.666666666666668</ele><time>2026-03-22T11:22:24.999Z</time></trkpt><trkpt lat="41.02315601167592" lon="14.291078830355394"><ele>25.0</ele><time>2026-03-22T11:22:25.999Z</time></trkpt><trkpt lat="41.02332382304413" lon="14.291058262134099"><ele>25.25</ele><time>2026-03-22T11:22:26.999Z</time></trkpt><trkpt lat="41.023471236612124" lon="14.291065406899005"><ele>25.5</ele><time>2026-03-22T11:22:27.999Z</time></trkpt><trkpt lat="41.023610072091934" lon="14.291072417454371"><ele>25.75</ele><time>2026-03-22T11:22:28.999Z</time></trkpt><trkpt lat="41.02375980811498" lon="14.291066419991438"><ele>26.0</ele><time>2026-03-22T11:22:29.999Z</time></trkpt><trkpt lat="41.02390816337024" lon="14.291111388900752"><ele>26.0</ele><time>2026-03-22T11:22:30.999Z</time></trkpt><trkpt lat="41.02403894525956" lon="14.291111815711886"><ele>26.0</ele><time>2026-03-22T11:22:31.999Z</time></trkpt><trkpt lat="41.02417161062724" lon="14.291115109098296"><ele>26.0</ele><time>2026-03-22T11:22:32.999Z</time></trkpt><trkpt lat="41.024293739016215" lon="14.291120253876453"><ele>26.0</ele><time>2026-03-22T11:22:33.999Z</time></trkpt><trkpt lat="41.024398205861964" lon="14.291124654653766"><ele>26.0</ele><time>2026-03-22T11:22:34.999Z</time></trkpt><trkpt lat="41.02449177707479" lon="14.291130530245999"><ele>26.0</ele><time>2026-03-22T11:22:35.999Z</time></trkpt><trkpt lat="41.024572380075185" lon="14.291135261241608"><ele>26.0</ele><time>2026-03-22T11:22:36.999Z</time></trkpt><trkpt lat="41.02464375548633" lon="14.291139450624685"><ele>26.0</ele><time>2026-03-22T11:22:37.999Z</time></trkpt><trkpt lat="41.02472309001119" lon="14.291144107168641"><ele>26.0</ele><time>2026-03-22T11:22:38.999Z</time></trkpt><trkpt lat="41.02485579376526" lon="14.29115028947213"><ele>26.333333333333332</ele><time>2026-03-22T11:22:39.999Z</time></trkpt><trkpt lat="41.025083175893236" lon="14.291156441947635"><ele>26.666666666666664</ele><time>2026-03-22T11:22:40.999Z</time></trkpt><trkpt lat="41.025299332456534" lon="14.291159200524136"><ele>27.0</ele><time>2026-03-22T11:22:41.999Z</time></trkpt><trkpt lat="41.02550217039131" lon="14.291165061885248"><ele>27.0</ele><time>2026-03-22T11:22:42.999Z</time></trkpt><trkpt lat="41.02567879989932" lon="14.291176878764709"><ele>27.0</ele><time>2026-03-22T11:22:43.999Z</time></trkpt><trkpt lat="41.025835514881514" lon="14.291166914215053"><ele>27.0</ele><time>2026-03-22T11:22:44.999Z</time></trkpt><trkpt lat="41.02597830199483" lon="14.291188720346511"><ele>27.0</ele><time>2026-03-22T11:22:45.999Z</time></trkpt><trkpt lat="41.02610971349307" lon="14.291192553367384"><ele>27.000000000000004</ele><time>2026-03-22T11:22:46.999Z</time></trkpt><trkpt lat="41.02622598134231" lon="14.291174945161488"><ele>27.000000000000004</ele><time>2026-03-22T11:22:47.999Z</time></trkpt><trkpt lat="41.02632370874163" lon="14.291188797958002"><ele>27.0</ele><time>2026-03-22T11:22:48.999Z</time></trkpt><trkpt lat="41.02640395649801" lon="14.291222277309199"><ele>27.0</ele><time>2026-03-22T11:22:49.999Z</time></trkpt><trkpt lat="41.02647582600231" lon="14.29124523790437"><ele>27.0</ele><time>2026-03-22T11:22:50.999Z</time></trkpt><trkpt lat="41.02657404076816" lon="14.291249704467516"><ele>27.0</ele><time>2026-03-22T11:22:52.999Z</time></trkpt><trkpt lat="41.02655498651199" lon="14.291449179343216"><ele>27.0</ele><time>2026-03-22T11:22:53.999Z</time></trkpt><trkpt lat="41.0265553466421" lon="14.291592655128037"><ele>27.0</ele><time>2026-03-22T11:22:54.999Z</time></trkpt><trkpt lat="41.0265558643685" lon="14.291805932640512"><ele>27.25</ele><time>2026-03-22T11:22:55.999Z</time></trkpt><trkpt lat="41.02655620484172" lon="14.292046614071133"><ele>27.5</ele><time>2026-03-22T11:22:56.999Z</time></trkpt><trkpt lat="41.02655645660601" lon="14.29222458725069"><ele>27.75</ele><time>2026-03-22T11:22:57.999Z</time></trkpt><trkpt lat="41.02656624051678" lon="14.292370849076756"><ele>28.0</ele><time>2026-03-22T11:22:58.999Z</time></trkpt><trkpt lat="41.026556712892564" lon="14.292535655929953"><ele>28.25</ele><time>2026-03-22T11:23:00Z</time></trkpt><trkpt lat="41.02655608007083" lon="14.292727463989129"><ele>28.5</ele><time>2026-03-22T11:23:01Z</time></trkpt><trkpt lat="41.02655962459389" lon="14.292887919952067"><ele>28.75</ele><time>2026-03-22T11:23:02Z</time></trkpt><trkpt lat="41.026554518704756" lon="14.293026545158504"><ele>29.0</ele><time>2026-03-22T11:23:03Z</time></trkpt><trkpt lat="41.026561388269435" lon="14.293140067459683"><ele>28.999999999999996</ele><time>2026-03-22T11:23:04Z</time></trkpt><trkpt lat="41.02656528181637" lon="14.29323328164122"><ele>29.0</ele><time>2026-03-22T11:23:05Z</time></trkpt><trkpt lat="41.02655116921037" lon="14.293322976409028"><ele>29.0</ele><time>2026-03-22T11:23:06Z</time></trkpt><trkpt lat="41.02655062575774" lon="14.293427563993216"><ele>29.0</ele><time>2026-03-22T11:23:07Z</time></trkpt><trkpt lat="41.02655015927247" lon="14.29351733989146"><ele>28.999999999999996</ele><time>2026-03-22T11:23:13Z</time></trkpt><trkpt lat="41.026560968631415" lon="14.293603502781153"><ele>29.0</ele><time>2026-03-22T11:23:14Z</time></trkpt><trkpt lat="41.02656281328189" lon="14.293747387296238"><ele>28.75</ele><time>2026-03-22T11:23:15Z</time></trkpt><trkpt lat="41.02655985988953" lon="14.293935852640105"><ele>28.5</ele><time>2026-03-22T11:23:16Z</time></trkpt><trkpt lat="41.02654650826979" lon="14.294141341384645"><ele>28.25</ele><time>2026-03-22T11:23:17Z</time></trkpt><trkpt lat="41.026545642885175" lon="14.294308890232617"><ele>28.0</ele><time>2026-03-22T11:23:18Z</time></trkpt><trkpt lat="41.02654486130724" lon="14.294455978367546"><ele>28.000000000000004</ele><time>2026-03-22T11:23:19Z</time></trkpt><trkpt lat="41.02654415556355" lon="14.294588794734263"><ele>28.0</ele><time>2026-03-22T11:23:20Z</time></trkpt><trkpt lat="41.026543641581995" lon="14.294706344951258"><ele>28.0</ele><time>2026-03-22T11:23:21Z</time></trkpt><trkpt lat="41.026543641582094" lon="14.294811421991957"><ele>28.0</ele><time>2026-03-22T11:23:22Z</time></trkpt><trkpt lat="41.02654364158251" lon="14.29490403659144"><ele>28.000000000000004</ele><time>2026-03-22T11:23:23Z</time></trkpt><trkpt lat="41.026543641583075" lon="14.295001058310833"><ele>28.0</ele><time>2026-03-22T11:23:24Z</time></trkpt><trkpt lat="41.026543641583935" lon="14.295119437279803"><ele>28.000000000000004</ele><time>2026-03-22T11:23:26Z</time></trkpt><trkpt lat="41.026543641587104" lon="14.295243190029035"><ele>28.0</ele><time>2026-03-22T11:23:34Z</time></trkpt><trkpt lat="41.02654364158726" lon="14.295349756479087"><ele>28.0</ele><time>2026-03-22T11:23:37Z</time></trkpt><trkpt lat="41.02654397359711" lon="14.295440767520397"><ele>28.0</ele><time>2026-03-22T11:23:40Z</time></trkpt><trkpt lat="41.02654657400481" lon="14.29556501630897"><ele>28.000000000000004</ele><time>2026-03-22T11:23:50.999Z</time></trkpt><trkpt lat="41.02654886923943" lon="14.295674684185906"><ele>28.0</ele><time>2026-03-22T11:23:51.999Z</time></trkpt><trkpt lat="41.02655052555913" lon="14.295846960113503"><ele>27.5</ele><time>2026-03-22T11:23:52.999Z</time></trkpt><trkpt lat="41.026552579295405" lon="14.296013887902447"><ele>27.0</ele><time>2026-03-22T11:23:53.999Z</time></trkpt><trkpt lat="41.02655512159961" lon="14.296176103421733"><ele>26.5</ele><time>2026-03-22T11:23:54.999Z</time></trkpt><trkpt lat="41.02655715413805" lon="14.296303325409118"><ele>26.0</ele><time>2026-03-22T11:23:55.999Z</time></trkpt><trkpt lat="41.02655985785427" lon="14.296472557900147"><ele>26.0</ele><time>2026-03-22T11:23:56.999Z</time></trkpt><trkpt lat="41.026561770219686" lon="14.296592257820343"><ele>26.0</ele><time>2026-03-22T11:23:57.999Z</time></trkpt><trkpt lat="41.026563614874725" lon="14.296707719582086"><ele>26.0</ele><time>2026-03-22T11:23:58.999Z</time></trkpt><trkpt lat="41.026565511953756" lon="14.296826462717277"><ele>26.0</ele><time>2026-03-22T11:23:59.999Z</time></trkpt><trkpt lat="41.0265687846857" lon="14.297031311377946"><ele>26.0</ele><time>2026-03-22T11:24:00.999Z</time></trkpt><trkpt lat="41.02658603225336" lon="14.297272429810567"><ele>26.666666666666664</ele><time>2026-03-22T11:24:01.999Z</time></trkpt><trkpt lat="41.02658171156129" lon="14.297536510797146"><ele>27.333333333333336</ele><time>2026-03-22T11:24:02.999Z</time></trkpt><trkpt lat="41.02658006299646" lon="14.297797567037149"><ele>28.0</ele><time>2026-03-22T11:24:03.999Z</time></trkpt><trkpt lat="41.026590795879216" lon="14.298059968672506"><ele>27.666666666666668</ele><time>2026-03-22T11:24:04.999Z</time></trkpt><trkpt lat="41.026597946555" lon="14.298357563788747"><ele>27.333333333333336</ele><time>2026-03-22T11:24:05.999Z</time></trkpt><trkpt lat="41.02660228295435" lon="14.298652474025964"><ele>27.0</ele><time>2026-03-22T11:24:06.999Z</time></trkpt><trkpt lat="41.026606157363865" lon="14.298881991416764"><ele>27.0</ele><time>2026-03-22T11:24:07.999Z</time></trkpt><trkpt lat="41.026615819064375" lon="14.299112843796465"><ele>27.0</ele><time>2026-03-22T11:24:08.999Z</time></trkpt><trkpt lat="41.02661514009317" lon="14.299297582400653"><ele>27.0</ele><time>2026-03-22T11:24:09.999Z</time></trkpt><trkpt lat="41.02660998513328" lon="14.299456960691783"><ele>27.0</ele><time>2026-03-22T11:24:10.999Z</time></trkpt><trkpt lat="41.02661371505201" lon="14.299601462766411"><ele>27.0</ele><time>2026-03-22T11:24:11.999Z</time></trkpt><trkpt lat="41.02661773647564" lon="14.299694783218424"><ele>27.000000000000004</ele><time>2026-03-22T11:24:12.999Z</time></trkpt><trkpt lat="41.026607817254245" lon="14.299801373172388"><ele>27.000000000000004</ele><time>2026-03-22T11:24:13.999Z</time></trkpt><trkpt lat="41.026614437686334" lon="14.299980334549574"><ele>27.0</ele><time>2026-03-22T11:24:15.999Z</time></trkpt><trkpt lat="41.02662428551341" lon="14.300111167970284"><ele>27.0</ele><time>2026-03-22T11:24:16.999Z</time></trkpt><trkpt lat="41.02664144645938" lon="14.300409271901154"><ele>28.333333333333336</ele><time>2026-03-22T11:24:17.999Z</time></trkpt><trkpt lat="41.02662908328971" lon="14.300645671350104"><ele>29.666666666666668</ele><time>2026-03-22T11:24:18.999Z</time></trkpt><trkpt lat="41.02663231444593" lon="14.300877853048167"><ele>31.0</ele><time>2026-03-22T11:24:19.999Z</time></trkpt><trkpt lat="41.026637199647624" lon="14.301178048719176"><ele>30.666666666666668</ele><time>2026-03-22T11:24:20.999Z</time></trkpt><trkpt lat="41.026642081315245" lon="14.301493608702398"><ele>30.333333333333336</ele><time>2026-03-22T11:24:21.999Z</time></trkpt><trkpt lat="41.02664699320539" lon="14.301769928385188"><ele>30.0</ele><time>2026-03-22T11:24:22.999Z</time></trkpt><trkpt lat="41.02664981017369" lon="14.301955331836291"><ele>30.0</ele><time>2026-03-22T11:24:23.999Z</time></trkpt><trkpt lat="41.02666731526627" lon="14.30216603221306"><ele>30.0</ele><time>2026-03-22T11:24:24.999Z</time></trkpt><trkpt lat="41.02666647767759" lon="14.30239578586691"><ele>30.0</ele><time>2026-03-22T11:24:25.999Z</time></trkpt><trkpt lat="41.02665979727984" lon="14.302636639573716"><ele>29.75</ele><time>2026-03-22T11:24:26.999Z</time></trkpt><trkpt lat="41.02666355488331" lon="14.302855164315446"><ele>29.5</ele><time>2026-03-22T11:24:27.999Z</time></trkpt><trkpt lat="41.02666465503716" lon="14.303042071848209"><ele>29.25</ele><time>2026-03-22T11:24:28.999Z</time></trkpt><trkpt lat="41.02666565236057" lon="14.30320482333696"><ele>29.0</ele><time>2026-03-22T11:24:29.999Z</time></trkpt><trkpt lat="41.02667072963388" lon="14.303360440380438"><ele>29.0</ele><time>2026-03-22T11:24:30.999Z</time></trkpt><trkpt lat="41.02670085146422" lon="14.303497987309333"><ele>29.0</ele><time>2026-03-22T11:24:31.999Z</time></trkpt><trkpt lat="41.026724719069115" lon="14.303621950685441"><ele>29.0</ele><time>2026-03-22T11:24:32.999Z</time></trkpt><trkpt lat="41.026778457682965" lon="14.303739995486085"><ele>29.0</ele><time>2026-03-22T11:24:33.999Z</time></trkpt><trkpt lat="41.02686304007792" lon="14.303840875937597"><ele>29.0</ele><time>2026-03-22T11:24:34.999Z</time></trkpt><trkpt lat="41.02695733523597" lon="14.303921156235191"><ele>29.25</ele><time>2026-03-22T11:24:35.999Z</time></trkpt><trkpt lat="41.027059842447336" lon="14.303980326472047"><ele>29.5</ele><time>2026-03-22T11:24:36.999Z</time></trkpt><trkpt lat="41.027161145427534" lon="14.303990937841903"><ele>29.75</ele><time>2026-03-22T11:24:37.999Z</time></trkpt><trkpt lat="41.027272788503694" lon="14.30398501624456"><ele>30.0</ele><time>2026-03-22T11:24:38.999Z</time></trkpt><trkpt lat="41.02744262890898" lon="14.303984285781352"><ele>30.0</ele><time>2026-03-22T11:24:39.999Z</time></trkpt><trkpt lat="41.02759080598275" lon="14.303975314476617"><ele>30.0</ele><time>2026-03-22T11:24:40.999Z</time></trkpt><trkpt lat="41.027688564846116" lon="14.303972776097535"><ele>30.0</ele><time>2026-03-22T11:24:41.999Z</time></trkpt><trkpt lat="41.02775465579812" lon="14.303980896248316"><ele>30.0</ele><time>2026-03-22T11:24:42.999Z</time></trkpt><trkpt lat="41.0278990956815" lon="14.3039725542879"><ele>30.0</ele><time>2026-03-22T11:24:45.999Z</time></trkpt><trkpt lat="41.02804275526798" lon="14.30397003638241"><ele>30.0</ele><time>2026-03-22T11:24:46.999Z</time></trkpt><trkpt lat="41.02823793407418" lon="14.303971271260467"><ele>30.0</ele><time>2026-03-22T11:24:47.999Z</time></trkpt><trkpt lat="41.0284514636571" lon="14.303968658680693"><ele>30.0</ele><time>2026-03-22T11:24:48.999Z</time></trkpt><trkpt lat="41.02866790088654" lon="14.303971276925122"><ele>30.0</ele><time>2026-03-22T11:24:49.999Z</time></trkpt><trkpt lat="41.0288465074756" lon="14.303967472184702"><ele>30.0</ele><time>2026-03-22T11:24:50.999Z</time></trkpt><trkpt lat="41.02899689051411" lon="14.303971327477976"><ele>30.0</ele><time>2026-03-22T11:24:51.999Z</time></trkpt><trkpt lat="41.02913245925873" lon="14.303971194062397"><ele>30.0</ele><time>2026-03-22T11:24:52.999Z</time></trkpt><trkpt lat="41.029261857294" lon="14.303963539305288"><ele>30.0</ele><time>2026-03-22T11:24:53.999Z</time></trkpt><trkpt lat="41.02938916589774" lon="14.303979474083269"><ele>30.0</ele><time>2026-03-22T11:24:54.999Z</time></trkpt><trkpt lat="41.0295518041903" lon="14.303977122600854"><ele>30.0</ele><time>2026-03-22T11:24:55.999Z</time></trkpt><trkpt lat="41.0297308208337" lon="14.303970503013534"><ele>30.0</ele><time>2026-03-22T11:24:56.999Z</time></trkpt><trkpt lat="41.029898198504746" lon="14.303974926833646"><ele>30.0</ele><time>2026-03-22T11:24:57.999Z</time></trkpt><trkpt lat="41.03004072005188" lon="14.303979908517496"><ele>30.0</ele><time>2026-03-22T11:24:58.999Z</time></trkpt><trkpt lat="41.03016083714724" lon="14.304030660063274"><ele>30.0</ele><time>2026-03-22T11:24:59.999Z</time></trkpt><trkpt lat="41.03027086777559" lon="14.304074328703642"><ele>30.0</ele><time>2026-03-22T11:25:00.999Z</time></trkpt><trkpt lat="41.03037937272944" lon="14.304105887534378"><ele>30.0</ele><time>2026-03-22T11:25:01.999Z</time></trkpt><trkpt lat="41.030466596049564" lon="14.304158858724508"><ele>30.0</ele><time>2026-03-22T11:25:02.999Z</time></trkpt><trkpt lat="41.03053951485768" lon="14.304228636241707"><ele>30.0</ele><time>2026-03-22T11:25:03.999Z</time></trkpt><trkpt lat="41.03058040366234" lon="14.304318629616194"><ele>30.0</ele><time>2026-03-22T11:25:04.999Z</time></trkpt><trkpt lat="41.03061017978625" lon="14.304400294963004"><ele>30.0</ele><time>2026-03-22T11:25:06Z</time></trkpt><trkpt lat="41.03067736905569" lon="14.304537957214912"><ele>30.0</ele><time>2026-03-22T11:25:08Z</time></trkpt><trkpt lat="41.030717325009725" lon="14.304624932929578"><ele>30.0</ele><time>2026-03-22T11:25:09Z</time></trkpt><trkpt lat="41.03072971658124" lon="14.304711224669612"><ele>30.0</ele><time>2026-03-22T11:25:10Z</time></trkpt><trkpt lat="41.03073531690215" lon="14.304812101506087"><ele>30.2</ele><time>2026-03-22T11:25:11Z</time></trkpt><trkpt lat="41.030736416979636" lon="14.304949877621"><ele>30.4</ele><time>2026-03-22T11:25:12Z</time></trkpt><trkpt lat="41.030738249839864" lon="14.305106853230262"><ele>30.6</ele><time>2026-03-22T11:25:13Z</time></trkpt><trkpt lat="41.03074074367" lon="14.305229744344437"><ele>30.8</ele><time>2026-03-22T11:25:14Z</time></trkpt><trkpt lat="41.030743947321" lon="14.305358691276533"><ele>31.0</ele><time>2026-03-22T11:25:15Z</time></trkpt><trkpt lat="41.03074941496426" lon="14.305568423067573"><ele>30.666666666666668</ele><time>2026-03-22T11:25:16Z</time></trkpt><trkpt lat="41.030753545135425" lon="14.305805242613909"><ele>30.333333333333336</ele><time>2026-03-22T11:25:17Z</time></trkpt><trkpt lat="41.03075680064519" lon="14.306025277065137"><ele>30.0</ele><time>2026-03-22T11:25:18Z</time></trkpt><trkpt lat="41.03076060800353" lon="14.306209311463673"><ele>30.0</ele><time>2026-03-22T11:25:19Z</time></trkpt><trkpt lat="41.03076458646221" lon="14.306372487441235"><ele>30.0</ele><time>2026-03-22T11:25:20Z</time></trkpt><trkpt lat="41.030767812909126" lon="14.306515128408742"><ele>30.0</ele><time>2026-03-22T11:25:21Z</time></trkpt><trkpt lat="41.030771865665116" lon="14.306646784633035"><ele>30.0</ele><time>2026-03-22T11:25:22Z</time></trkpt><trkpt lat="41.03077523806395" lon="14.30676259505061"><ele>30.0</ele><time>2026-03-22T11:25:23Z</time></trkpt><trkpt lat="41.03077787568788" lon="14.306865687432747"><ele>29.8</ele><time>2026-03-22T11:25:24Z</time></trkpt><trkpt lat="41.03077956822402" lon="14.306973363843424"><ele>29.6</ele><time>2026-03-22T11:25:25Z</time></trkpt><trkpt lat="41.03078177513698" lon="14.30712302983171"><ele>29.4</ele><time>2026-03-22T11:25:26Z</time></trkpt><trkpt lat="41.03078386075211" lon="14.307264469748034"><ele>29.2</ele><time>2026-03-22T11:25:27Z</time></trkpt><trkpt lat="41.030785629988394" lon="14.30738445392194"><ele>29.0</ele><time>2026-03-22T11:25:28Z</time></trkpt><trkpt lat="41.03078750173453" lon="14.30748735263632"><ele>28.999999999999996</ele><time>2026-03-22T11:25:29Z</time></trkpt><trkpt lat="41.03078994084219" lon="14.307626781640995"><ele>29.0</ele><time>2026-03-22T11:25:31Z</time></trkpt><trkpt lat="41.03079252206099" lon="14.307770614180212"><ele>29.0</ele><time>2026-03-22T11:25:33Z</time></trkpt><trkpt lat="41.030794069724415" lon="14.307854187961373"><ele>29.0</ele><time>2026-03-22T11:25:36Z</time></trkpt><trkpt lat="41.0307959332933" lon="14.30795482074331"><ele>28.999999999999996</ele><time>2026-03-22T11:25:40Z</time></trkpt><trkpt lat="41.03079792841734" lon="14.308045987893916"><ele>29.0</ele><time>2026-03-22T11:25:51Z</time></trkpt><trkpt lat="41.03080169435894" lon="14.30821814673818"><ele>28.999999999999996</ele><time>2026-03-22T11:25:52.999Z</time></trkpt><trkpt lat="41.030803678293104" lon="14.30830824878223"><ele>29.0</ele><time>2026-03-22T11:25:53.999Z</time></trkpt><trkpt lat="41.03080587951727" lon="14.308408219235252"><ele>29.0</ele><time>2026-03-22T11:25:54.999Z</time></trkpt><trkpt lat="41.030808470078696" lon="14.308525871760821"><ele>29.0</ele><time>2026-03-22T11:25:55.999Z</time></trkpt><trkpt lat="41.03081097270013" lon="14.308651285306732"><ele>28.999999999999996</ele><time>2026-03-22T11:25:56.999Z</time></trkpt><trkpt lat="41.030813679325135" lon="14.308787330406025"><ele>29.0</ele><time>2026-03-22T11:25:57.999Z</time></trkpt><trkpt lat="41.03081740929069" lon="14.308974812373151"><ele>28.799999999999997</ele><time>2026-03-22T11:25:58.999Z</time></trkpt><trkpt lat="41.03082141606927" lon="14.309172802264348"><ele>28.599999999999998</ele><time>2026-03-22T11:25:59.999Z</time></trkpt><trkpt lat="41.03082436665825" lon="14.309320507160297"><ele>28.4</ele><time>2026-03-22T11:26:00.999Z</time></trkpt><trkpt lat="41.03082621309124" lon="14.30941386361843"><ele>28.2</ele><time>2026-03-22T11:26:01.999Z</time></trkpt><trkpt lat="41.03082854914594" lon="14.309531975580288"><ele>28.0</ele><time>2026-03-22T11:26:04.999Z</time></trkpt><trkpt lat="41.03084513575542" lon="14.309679629984268"><ele>28.333333333333336</ele><time>2026-03-22T11:26:06.999Z</time></trkpt><trkpt lat="41.03083463191372" lon="14.309840861258907"><ele>28.666666666666664</ele><time>2026-03-22T11:26:07.999Z</time></trkpt><trkpt lat="41.03083967302574" lon="14.310072780102585"><ele>29.0</ele><time>2026-03-22T11:26:08.999Z</time></trkpt><trkpt lat="41.030846077666574" lon="14.310344763711864"><ele>29.0</ele><time>2026-03-22T11:26:09.999Z</time></trkpt><trkpt lat="41.03085305443781" lon="14.310633568083158"><ele>29.0</ele><time>2026-03-22T11:26:10.999Z</time></trkpt><trkpt lat="41.03085660574883" lon="14.310876840818942"><ele>29.0</ele><time>2026-03-22T11:26:11.999Z</time></trkpt><trkpt lat="41.03085985197426" lon="14.311084736413536"><ele>29.0</ele><time>2026-03-22T11:26:12.999Z</time></trkpt><trkpt lat="41.03086275154685" lon="14.311270432139567"><ele>29.0</ele><time>2026-03-22T11:26:13.999Z</time></trkpt><trkpt lat="41.030864703892995" lon="14.311440739448113"><ele>29.0</ele><time>2026-03-22T11:26:14.999Z</time></trkpt><trkpt lat="41.03086690762966" lon="14.311609903500074"><ele>29.0</ele><time>2026-03-22T11:26:15.999Z</time></trkpt><trkpt lat="41.03086927786763" lon="14.311791848550678"><ele>29.0</ele><time>2026-03-22T11:26:16.999Z</time></trkpt><trkpt lat="41.03087125347479" lon="14.311943500853582"><ele>29.0</ele><time>2026-03-22T11:26:17.999Z</time></trkpt><trkpt lat="41.030871241598575" lon="14.312077527688785"><ele>29.0</ele><time>2026-03-22T11:26:18.999Z</time></trkpt><trkpt lat="41.03088484200218" lon="14.312189909431916"><ele>29.0</ele><time>2026-03-22T11:26:19.999Z</time></trkpt><trkpt lat="41.03086240566013" lon="14.312287243440803"><ele>29.0</ele><time>2026-03-22T11:26:21.999Z</time></trkpt><trkpt lat="41.03099948543518" lon="14.312268441532225"><ele>29.0</ele><time>2026-03-22T11:26:23.999Z</time></trkpt><trkpt lat="41.031099643971494" lon="14.312224902420649"><ele>29.0</ele><time>2026-03-22T11:26:24.999Z</time></trkpt><trkpt lat="41.031218504263315" lon="14.312245803578813"><ele>29.0</ele><time>2026-03-22T11:26:25.999Z</time></trkpt><trkpt lat="41.03131800112217" lon="14.31222250970834"><ele>29.0</ele><time>2026-03-22T11:26:26.999Z</time></trkpt><trkpt lat="41.031439961693835" lon="14.312224609844213"><ele>29.0</ele><time>2026-03-22T11:26:27.999Z</time></trkpt><trkpt lat="41.031602160497464" lon="14.312239962229034"><ele>29.2</ele><time>2026-03-22T11:26:28.999Z</time></trkpt><trkpt lat="41.03174654703114" lon="14.312221194477564"><ele>29.4</ele><time>2026-03-22T11:26:29.999Z</time></trkpt><trkpt lat="41.03187197762711" lon="14.312239970715174"><ele>29.6</ele><time>2026-03-22T11:26:30.999Z</time></trkpt><trkpt lat="41.03196305215354" lon="14.312245029462597"><ele>29.8</ele><time>2026-03-22T11:26:31.999Z</time></trkpt><trkpt lat="41.03203940882201" lon="14.312235391466583"><ele>30.0</ele><time>2026-03-22T11:26:32.999Z</time></trkpt><trkpt lat="41.03211591417096" lon="14.312213998281521"><ele>30.0</ele><time>2026-03-22T11:26:33.999Z</time></trkpt><trkpt lat="41.032225837310534" lon="14.312190746219924"><ele>30.0</ele><time>2026-03-22T11:26:34.999Z</time></trkpt><trkpt lat="41.03237585209632" lon="14.312230792977536"><ele>30.0</ele><time>2026-03-22T11:26:35.999Z</time></trkpt><trkpt lat="41.03254975376784" lon="14.31220966432096"><ele>30.0</ele><time>2026-03-22T11:26:36.999Z</time></trkpt><trkpt lat="41.03269391101233" lon="14.312206097877153"><ele>30.25</ele><time>2026-03-22T11:26:37.999Z</time></trkpt><trkpt lat="41.03283718088956" lon="14.312192447279816"><ele>30.5</ele><time>2026-03-22T11:26:38.999Z</time></trkpt><trkpt lat="41.03299675711275" lon="14.312186344581024"><ele>30.75</ele><time>2026-03-22T11:26:39.999Z</time></trkpt><trkpt lat="41.03312927868132" lon="14.312220553520456"><ele>31.0</ele><time>2026-03-22T11:26:40.999Z</time></trkpt><trkpt lat="41.03325365252655" lon="14.312197804941771"><ele>31.200000000000003</ele><time>2026-03-22T11:26:41.999Z</time></trkpt><trkpt lat="41.0333760567103" lon="14.312206536561366"><ele>31.400000000000002</ele><time>2026-03-22T11:26:42.999Z</time></trkpt><trkpt lat="41.03347684427425" lon="14.312205807831866"><ele>31.6</ele><time>2026-03-22T11:26:43.999Z</time></trkpt><trkpt lat="41.03356575262411" lon="14.312199837956758"><ele>31.8</ele><time>2026-03-22T11:26:44.999Z</time></trkpt><trkpt lat="41.03363560989185" lon="14.312196807418434"><ele>32.0</ele><time>2026-03-22T11:26:46.999Z</time></trkpt><trkpt lat="41.03373467867666" lon="14.312216498587798"><ele>32.0</ele><time>2026-03-22T11:26:51.999Z</time></trkpt><trkpt lat="41.033837189988446" lon="14.312216498587386"><ele>32.0</ele><time>2026-03-22T11:26:53.999Z</time></trkpt><trkpt lat="41.03393329215057" lon="14.31220417932246"><ele>32.0</ele><time>2026-03-22T11:26:56.999Z</time></trkpt><trkpt lat="41.034016381654396" lon="14.312193897401265"><ele>32.0</ele><time>2026-03-22T11:26:58.999Z</time></trkpt><trkpt lat="41.034111732480135" lon="14.312197455932129"><ele>32.0</ele><time>2026-03-22T11:27:00.999Z</time></trkpt><trkpt lat="41.03421436560231" lon="14.312190907576136"><ele>31.8</ele><time>2026-03-22T11:27:02.999Z</time></trkpt><trkpt lat="41.034326513077936" lon="14.312196097971885"><ele>31.6</ele><time>2026-03-22T11:27:04.999Z</time></trkpt><trkpt lat="41.03443805897124" lon="14.31219273068307"><ele>31.400000000000002</ele><time>2026-03-22T11:27:06.999Z</time></trkpt><trkpt lat="41.03454186914769" lon="14.31222892028205"><ele>31.200000000000003</ele><time>2026-03-22T11:27:08.999Z</time></trkpt><trkpt lat="41.03463976296445" lon="14.312249201825434"><ele>31.0</ele><time>2026-03-22T11:27:10.999Z</time></trkpt><trkpt lat="41.034764133613" lon="14.31226228922971"><ele>31.000000000000004</ele><time>2026-03-22T11:27:13Z</time></trkpt><trkpt lat="41.0348342542101" lon="14.312268616473059"><ele>31.0</ele><time>2026-03-22T11:27:14Z</time></trkpt><trkpt lat="41.03495369749155" lon="14.312271519511103"><ele>31.0</ele><time>2026-03-22T11:27:16Z</time></trkpt><trkpt lat="41.035020309401816" lon="14.312269818742719"><ele>31.0</ele><time>2026-03-22T11:27:17Z</time></trkpt><trkpt lat="41.035091235337326" lon="14.312269595706592"><ele>31.000000000000004</ele><time>2026-03-22T11:27:18Z</time></trkpt><trkpt lat="41.03517685778069" lon="14.312250275163285"><ele>31.0</ele><time>2026-03-22T11:27:19Z</time></trkpt><trkpt lat="41.035261374756" lon="14.312269060677846"><ele>30.8</ele><time>2026-03-22T11:27:20Z</time></trkpt><trkpt lat="41.035380196971225" lon="14.31225196243342"><ele>30.6</ele><time>2026-03-22T11:27:21Z</time></trkpt><trkpt lat="41.03549427766442" lon="14.31225134243404"><ele>30.4</ele><time>2026-03-22T11:27:22Z</time></trkpt><trkpt lat="41.03557053520987" lon="14.312259037162987"><ele>30.2</ele><time>2026-03-22T11:27:23Z</time></trkpt><trkpt lat="41.03564675747777" lon="14.312267493597874"><ele>30.0</ele><time>2026-03-22T11:27:26Z</time></trkpt><trkpt lat="41.035764766384766" lon="14.312267562079484"><ele>30.5</ele><time>2026-03-22T11:27:28Z</time></trkpt><trkpt lat="41.03588434941351" lon="14.31226789109042"><ele>31.0</ele><time>2026-03-22T11:27:30Z</time></trkpt><trkpt lat="41.035949813042144" lon="14.312268071201634"><ele>31.5</ele><time>2026-03-22T11:27:31Z</time></trkpt><trkpt lat="41.036018203439504" lon="14.312268259365052"><ele>32.0</ele><time>2026-03-22T11:27:32Z</time></trkpt><trkpt lat="41.036086254405966" lon="14.312268446595413"><ele>32.5</ele><time>2026-03-22T11:27:33Z</time></trkpt><trkpt lat="41.03620765467342" lon="14.312268780604928"><ele>33.0</ele><time>2026-03-22T11:27:35Z</time></trkpt><trkpt lat="41.03631973633545" lon="14.312270001293173"><ele>33.0</ele><time>2026-03-22T11:27:36Z</time></trkpt><trkpt lat="41.03648314117581" lon="14.312271345464575"><ele>33.0</ele><time>2026-03-22T11:27:37Z</time></trkpt><trkpt lat="41.036675096483535" lon="14.312272851291313"><ele>33.0</ele><time>2026-03-22T11:27:38Z</time></trkpt><trkpt lat="41.03682645911585" lon="14.312253206508753"><ele>33.4</ele><time>2026-03-22T11:27:39Z</time></trkpt><trkpt lat="41.03694921270835" lon="14.312258774492445"><ele>33.8</ele><time>2026-03-22T11:27:40Z</time></trkpt><trkpt lat="41.03704289483015" lon="14.312280372123032"><ele>34.2</ele><time>2026-03-22T11:27:41Z</time></trkpt><trkpt lat="41.03711043538061" lon="14.312288604835551"><ele>34.6</ele><time>2026-03-22T11:27:42Z</time></trkpt><trkpt lat="41.03720126939519" lon="14.312356143501505"><ele>35.0</ele><time>2026-03-22T11:27:44Z</time></trkpt><trkpt lat="41.03717389476808" lon="14.312589362351579"><ele>35.0</ele><time>2026-03-22T11:27:46Z</time></trkpt><trkpt lat="41.03717590396717" lon="14.312695636823271"><ele>35.0</ele><time>2026-03-22T11:27:47Z</time></trkpt><trkpt lat="41.037178042631105" lon="14.31281611513534"><ele>35.0</ele><time>2026-03-22T11:27:48Z</time></trkpt><trkpt lat="41.03718049003618" lon="14.312928427207396"><ele>35.0</ele><time>2026-03-22T11:27:49Z</time></trkpt><trkpt lat="41.0371831613896" lon="14.313056477006945"><ele>35.0</ele><time>2026-03-22T11:27:50Z</time></trkpt><trkpt lat="41.03718537895807" lon="14.3131627748782"><ele>35.0</ele><time>2026-03-22T11:27:51Z</time></trkpt><trkpt lat="41.03718724128305" lon="14.3132520443655"><ele>34.6</ele><time>2026-03-22T11:27:52Z</time></trkpt><trkpt lat="41.03718943555609" lon="14.313357225559976"><ele>34.2</ele><time>2026-03-22T11:27:53Z</time></trkpt><trkpt lat="41.037192708687236" lon="14.313538815286293"><ele>33.8</ele><time>2026-03-22T11:27:54Z</time></trkpt><trkpt lat="41.03719496966482" lon="14.313665430155847"><ele>33.4</ele><time>2026-03-22T11:27:54.999Z</time></trkpt><trkpt lat="41.03722554079782" lon="14.313770825555586"><ele>33.0</ele><time>2026-03-22T11:27:55.999Z</time></trkpt><trkpt lat="41.03722508184123" lon="14.313863324196273"><ele>33.0</ele><time>2026-03-22T11:27:56.999Z</time></trkpt><trkpt lat="41.03723203542181" lon="14.313947434676015"><ele>33.0</ele><time>2026-03-22T11:27:58.999Z</time></trkpt><trkpt lat="41.037337403215425" lon="14.313991141096523"><ele>33.0</ele><time>2026-03-22T11:28:01.999Z</time></trkpt><trkpt lat="41.037406502338136" lon="14.313981283316894"><ele>33.0</ele><time>2026-03-22T11:31:05.999Z</time></trkpt><trkpt lat="41.03741559843577" lon="14.313837416154271"><ele>33.0</ele><time>2026-03-22T11:31:06.999Z</time></trkpt><trkpt lat="41.037400380116374" lon="14.313747512999855"><ele>33.0</ele><time>2026-03-22T11:31:17.999Z</time></trkpt><trkpt lat="41.03739993623017" lon="14.313652017442703"><ele>33.0</ele><time>2026-03-22T11:31:24Z</time></trkpt><trkpt lat="41.03740696673678" lon="14.313566248927216"><ele>33.0</ele><time>2026-03-22T11:31:31Z</time></trkpt><trkpt lat="41.03746690980868" lon="14.313617977595012"><ele>33.0</ele><time>2026-03-22T11:32:12.999Z</time></trkpt><trkpt lat="41.037536575646094" lon="14.313627099069235"><ele>33.0</ele><time>2026-03-22T11:32:13.999Z</time></trkpt><trkpt lat="41.03748380528823" lon="14.31352495777195"><ele>33.0</ele><time>2026-03-22T11:32:18.999Z</time></trkpt><trkpt lat="41.037482703377336" lon="14.31361072059098"><ele>33.0</ele><time>2026-03-22T11:32:27.999Z</time></trkpt><trkpt lat="41.03741206144051" lon="14.313539191011852"><ele>32.666666666666664</ele><time>2026-03-22T11:32:29.999Z</time></trkpt><trkpt lat="41.03748581773947" lon="14.313546543893406"><ele>32.333333333333336</ele><time>2026-03-22T11:32:33.999Z</time></trkpt><trkpt lat="41.03751855783882" lon="14.31363431420436"><ele>32.0</ele><time>2026-03-22T11:32:38.999Z</time></trkpt><trkpt lat="41.0375490651217" lon="14.313734247175308"><ele>31.666666666666668</ele><time>2026-03-22T11:32:46.999Z</time></trkpt><trkpt lat="41.03761079624088" lon="14.313814888508563"><ele>31.333333333333336</ele><time>2026-03-22T11:32:47.999Z</time></trkpt><trkpt lat="41.037701106323304" lon="14.31383806228861"><ele>31.0</ele><time>2026-03-22T11:32:57.999Z</time></trkpt><trkpt lat="41.03779269519147" lon="14.31386658279364"><ele>31.0</ele><time>2026-03-22T11:33:00.999Z</time></trkpt><trkpt lat="41.037712665016606" lon="14.313832098888977"><ele>31.0</ele><time>2026-03-22T11:33:03.999Z</time></trkpt><trkpt lat="41.03765088076494" lon="14.313694822658995"><ele>31.0</ele><time>2026-03-22T11:33:18.999Z</time></trkpt><trkpt lat="41.03744195696854" lon="14.313629810887553"><ele>31.0</ele><time>2026-03-22T11:33:20.999Z</time></trkpt><trkpt lat="41.03735667240081" lon="14.313467161323462"><ele>33.0</ele><time>2026-03-22T11:33:21.999Z</time></trkpt><trkpt lat="41.03735444629474" lon="14.313353147285444"><ele>33.0</ele><time>2026-03-22T11:33:22.999Z</time></trkpt><trkpt lat="41.03740173778761" lon="14.313458714446138"><ele>33.0</ele><time>2026-03-22T11:33:26.999Z</time></trkpt></trkseg></trk></gpx>